<?xml version='1.0' encoding='UTF-8'?><gpx version="1.1" creator="JPX - https://github.com/jenetics/jpx" xmlns="http://www.topografix.com/GPX/1/1"><trk><trkseg><trkpt lat="44.6998883" lon="10.613945"><ele>54.0</ele><time>2026-03-22T11:51:22.447Z</time></trkpt><trkpt lat="44.69996" lon="10.61397"><ele>54.0</ele><time>2026-03-22T11:51:24.447Z</time></trkpt><trkpt lat="44.7000283" lon="10.6140283"><ele>54.0</ele><time>2026-03-22T11:51:27.447Z</time></trkpt><trkpt lat="44.7000633" lon="10.6141467"><ele>54.0</ele><time>2026-03-22T11:51:29.447Z</time></trkpt><trkpt lat="44.700055" lon="10.6142733"><ele>54.0</ele><time>2026-03-22T11:51:31.447Z</time></trkpt><trkpt lat="44.7000167" lon="10.6143817"><ele>54.0</ele><time>2026-03-22T11:51:33.447Z</time></trkpt><trkpt lat="44.6999517" lon="10.6144583"><ele>54.2</ele><time>2026-03-22T11:51:35.447Z</time></trkpt><trkpt lat="44.6998667" lon="10.614495"><ele>54.400000000000006</ele><time>2026-03-22T11:51:37.447Z</time></trkpt><trkpt lat="44.699775" lon="10.61452"><ele>54.6</ele><time>2026-03-22T11:51:39.448Z</time></trkpt><trkpt lat="44.6996783" lon="10.614535"><ele>54.8</ele><time>2026-03-22T11:51:41.447Z</time></trkpt><trkpt lat="44.6995817" lon="10.6145467"><ele>55.0</ele><time>2026-03-22T11:51:43.448Z</time></trkpt><trkpt lat="44.69947" lon="10.6145683"><ele>55.166666666666664</ele><time>2026-03-22T11:51:45.448Z</time></trkpt><trkpt lat="44.6993867" lon="10.6146333"><ele>55.33333333333333</ele><time>2026-03-22T11:51:51.455Z</time></trkpt><trkpt lat="44.6993467" lon="10.6147217"><ele>55.5</ele><time>2026-03-22T11:51:52.955Z</time></trkpt><trkpt lat="44.6993133" lon="10.6148617"><ele>55.66666666666667</ele><time>2026-03-22T11:51:55.455Z</time></trkpt><trkpt lat="44.6993283" lon="10.6150067"><ele>55.833333333333336</ele><time>2026-03-22T11:51:57.456Z</time></trkpt><trkpt lat="44.69933" lon="10.6151033"><ele>56.0</ele><time>2026-03-22T11:51:58.455Z</time></trkpt><trkpt lat="44.699325" lon="10.6152017"><ele>56.0</ele><time>2026-03-22T11:51:59.455Z</time></trkpt><trkpt lat="44.6993183" lon="10.6152983"><ele>55.99999999999999</ele><time>2026-03-22T11:52:00.456Z</time></trkpt><trkpt lat="44.6992983" lon="10.61541"><ele>55.99999999999999</ele><time>2026-03-22T11:52:01.455Z</time></trkpt><trkpt lat="44.6992933" lon="10.6155667"><ele>56.0</ele><time>2026-03-22T11:52:03.455Z</time></trkpt><trkpt lat="44.6992883" lon="10.6157217"><ele>56.0</ele><time>2026-03-22T11:52:05.456Z</time></trkpt><trkpt lat="44.699285" lon="10.61586"><ele>56.0</ele><time>2026-03-22T11:52:07.455Z</time></trkpt><trkpt lat="44.6992883" lon="10.6160033"><ele>55.99999999999999</ele><time>2026-03-22T11:52:09.455Z</time></trkpt><trkpt lat="44.6992717" lon="10.6161433"><ele>55.99999999999999</ele><time>2026-03-22T11:52:11.455Z</time></trkpt><trkpt lat="44.6992733" lon="10.6162917"><ele>56.0</ele><time>2026-03-22T11:52:13.455Z</time></trkpt><trkpt lat="44.699275" lon="10.6164417"><ele>56.0</ele><time>2026-03-22T11:52:15.455Z</time></trkpt><trkpt lat="44.699275" lon="10.61658"><ele>56.0</ele><time>2026-03-22T11:52:17.455Z</time></trkpt><trkpt lat="44.6992883" lon="10.61667"><ele>55.99999999999999</ele><time>2026-03-22T11:52:18.456Z</time></trkpt><trkpt lat="44.6993" lon="10.6168117"><ele>55.99999999999999</ele><time>2026-03-22T11:52:20.455Z</time></trkpt><trkpt lat="44.699295" lon="10.6169617"><ele>56.0</ele><time>2026-03-22T11:52:22.455Z</time></trkpt><trkpt lat="44.6993133" lon="10.617115"><ele>56.0</ele><time>2026-03-22T11:52:24.455Z</time></trkpt><trkpt lat="44.6993083" lon="10.61727"><ele>56.00000000000001</ele><time>2026-03-22T11:52:26.456Z</time></trkpt><trkpt lat="44.699305" lon="10.6174133"><ele>56.0</ele><time>2026-03-22T11:52:28.456Z</time></trkpt><trkpt lat="44.699315" lon="10.6175433"><ele>56.0</ele><time>2026-03-22T11:52:30.455Z</time></trkpt><trkpt lat="44.6993167" lon="10.617675"><ele>56.0</ele><time>2026-03-22T11:52:32.456Z</time></trkpt><trkpt lat="44.6993117" lon="10.6177633"><ele>56.00000000000001</ele><time>2026-03-22T11:52:34.456Z</time></trkpt><trkpt lat="44.69935" lon="10.6178883"><ele>56.0</ele><time>2026-03-22T11:52:52.456Z</time></trkpt><trkpt lat="44.6993033" lon="10.617955"><ele>56.16666666666667</ele><time>2026-03-22T11:52:55.457Z</time></trkpt><trkpt lat="44.6992333" lon="10.617995"><ele>56.333333333333336</ele><time>2026-03-22T11:52:57.456Z</time></trkpt><trkpt lat="44.6991433" lon="10.6180233"><ele>56.5</ele><time>2026-03-22T11:52:59.456Z</time></trkpt><trkpt lat="44.6990617" lon="10.6180333"><ele>56.66666666666667</ele><time>2026-03-22T11:53:01.456Z</time></trkpt><trkpt lat="44.6989833" lon="10.6180517"><ele>56.833333333333336</ele><time>2026-03-22T11:53:03.457Z</time></trkpt><trkpt lat="44.6989033" lon="10.6180683"><ele>57.0</ele><time>2026-03-22T11:53:05.456Z</time></trkpt><trkpt lat="44.6988217" lon="10.61809"><ele>57.0</ele><time>2026-03-22T11:53:07.456Z</time></trkpt><trkpt lat="44.698745" lon="10.6180983"><ele>57.0</ele><time>2026-03-22T11:53:09.456Z</time></trkpt><trkpt lat="44.6986767" lon="10.618115"><ele>57.0</ele><time>2026-03-22T11:53:11.456Z</time></trkpt><trkpt lat="44.6986" lon="10.618135"><ele>57.0</ele><time>2026-03-22T11:53:14.456Z</time></trkpt><trkpt lat="44.6985283" lon="10.618155"><ele>57.0</ele><time>2026-03-22T11:53:18.456Z</time></trkpt><trkpt lat="44.6984433" lon="10.6181783"><ele>57.0</ele><time>2026-03-22T11:53:21.456Z</time></trkpt><trkpt lat="44.6983617" lon="10.6182"><ele>57.666666666666664</ele><time>2026-03-22T11:53:23.456Z</time></trkpt><trkpt lat="44.698265" lon="10.618215"><ele>58.33333333333333</ele><time>2026-03-22T11:53:25.457Z</time></trkpt><trkpt lat="44.6981767" lon="10.6182233"><ele>59.0</ele><time>2026-03-22T11:53:27.456Z</time></trkpt><trkpt lat="44.6980983" lon="10.6182367"><ele>59.666666666666664</ele><time>2026-03-22T11:53:29.456Z</time></trkpt><trkpt lat="44.6980283" lon="10.6182667"><ele>60.33333333333333</ele><time>2026-03-22T11:53:32.456Z</time></trkpt><trkpt lat="44.6979383" lon="10.618325"><ele>61.0</ele><time>2026-03-22T11:53:55.456Z</time></trkpt><trkpt lat="44.6978433" lon="10.6183333"><ele>61.0</ele><time>2026-03-22T11:53:58.456Z</time></trkpt><trkpt lat="44.6977583" lon="10.6183567"><ele>60.99999999999999</ele><time>2026-03-22T11:54:00.457Z</time></trkpt><trkpt lat="44.6976633" lon="10.618375"><ele>60.99999999999999</ele><time>2026-03-22T11:54:02.456Z</time></trkpt><trkpt lat="44.6975667" lon="10.6183983"><ele>61.0</ele><time>2026-03-22T11:54:04.456Z</time></trkpt><trkpt lat="44.69747" lon="10.6184283"><ele>61.0</ele><time>2026-03-22T11:54:06.456Z</time></trkpt><trkpt lat="44.6973767" lon="10.6184617"><ele>60.0</ele><time>2026-03-22T11:54:08.456Z</time></trkpt><trkpt lat="44.6972767" lon="10.6184983"><ele>58.99999999999999</ele><time>2026-03-22T11:54:10.456Z</time></trkpt><trkpt lat="44.6971733" lon="10.6185183"><ele>57.99999999999999</ele><time>2026-03-22T11:54:12.457Z</time></trkpt><trkpt lat="44.6970667" lon="10.6185467"><ele>57.0</ele><time>2026-03-22T11:54:14.457Z</time></trkpt><trkpt lat="44.6969517" lon="10.618585"><ele>56.0</ele><time>2026-03-22T11:54:16.456Z</time></trkpt><trkpt lat="44.6968383" lon="10.6186183"><ele>56.0</ele><time>2026-03-22T11:54:18.456Z</time></trkpt><trkpt lat="44.696735" lon="10.6186433"><ele>55.99999999999999</ele><time>2026-03-22T11:54:20.456Z</time></trkpt><trkpt lat="44.6966267" lon="10.6186717"><ele>55.99999999999999</ele><time>2026-03-22T11:54:22.456Z</time></trkpt><trkpt lat="44.6965233" lon="10.6187033"><ele>56.0</ele><time>2026-03-22T11:54:24.456Z</time></trkpt><trkpt lat="44.6964067" lon="10.6187333"><ele>56.0</ele><time>2026-03-22T11:54:26.457Z</time></trkpt><trkpt lat="44.696305" lon="10.61877"><ele>56.199999999999996</ele><time>2026-03-22T11:54:28.456Z</time></trkpt><trkpt lat="44.696195" lon="10.6187967"><ele>56.39999999999999</ele><time>2026-03-22T11:54:30.456Z</time></trkpt><trkpt lat="44.6960917" lon="10.6188267"><ele>56.6</ele><time>2026-03-22T11:54:32.456Z</time></trkpt><trkpt lat="44.6959833" lon="10.6188533"><ele>56.8</ele><time>2026-03-22T11:54:34.457Z</time></trkpt><trkpt lat="44.6958767" lon="10.6188783"><ele>57.0</ele><time>2026-03-22T11:54:36.456Z</time></trkpt><trkpt lat="44.6957767" lon="10.6189183"><ele>56.400000000000006</ele><time>2026-03-22T11:54:38.457Z</time></trkpt><trkpt lat="44.6956783" lon="10.61896"><ele>55.800000000000004</ele><time>2026-03-22T11:54:40.456Z</time></trkpt><trkpt lat="44.695575" lon="10.619005"><ele>55.2</ele><time>2026-03-22T11:54:42.456Z</time></trkpt><trkpt lat="44.695465" lon="10.6190483"><ele>54.6</ele><time>2026-03-22T11:54:44.456Z</time></trkpt><trkpt lat="44.6953567" lon="10.6190783"><ele>54.0</ele><time>2026-03-22T11:54:46.456Z</time></trkpt><trkpt lat="44.695255" lon="10.619095"><ele>54.400000000000006</ele><time>2026-03-22T11:54:48.456Z</time></trkpt><trkpt lat="44.6951617" lon="10.6191217"><ele>54.800000000000004</ele><time>2026-03-22T11:54:50.456Z</time></trkpt><trkpt lat="44.6950683" lon="10.6191533"><ele>55.199999999999996</ele><time>2026-03-22T11:54:52.456Z</time></trkpt><trkpt lat="44.6949783" lon="10.6191817"><ele>55.599999999999994</ele><time>2026-03-22T11:54:54.456Z</time></trkpt><trkpt lat="44.6948883" lon="10.61921"><ele>56.0</ele><time>2026-03-22T11:54:56.456Z</time></trkpt><trkpt lat="44.6947967" lon="10.6192383"><ele>56.0</ele><time>2026-03-22T11:54:58.456Z</time></trkpt><trkpt lat="44.694695" lon="10.619265"><ele>55.99999999999999</ele><time>2026-03-22T11:55:00.456Z</time></trkpt><trkpt lat="44.6945983" lon="10.6192917"><ele>55.99999999999999</ele><time>2026-03-22T11:55:02.457Z</time></trkpt><trkpt lat="44.6945" lon="10.619325"><ele>56.0</ele><time>2026-03-22T11:55:04.457Z</time></trkpt><trkpt lat="44.6943967" lon="10.61935"><ele>56.0</ele><time>2026-03-22T11:55:06.456Z</time></trkpt><trkpt lat="44.6942983" lon="10.61937"><ele>55.8</ele><time>2026-03-22T11:55:08.456Z</time></trkpt><trkpt lat="44.69419" lon="10.6193967"><ele>55.599999999999994</ele><time>2026-03-22T11:55:10.456Z</time></trkpt><trkpt lat="44.69409" lon="10.6194267"><ele>55.4</ele><time>2026-03-22T11:55:12.457Z</time></trkpt><trkpt lat="44.693995" lon="10.61946"><ele>55.2</ele><time>2026-03-22T11:55:14.456Z</time></trkpt><trkpt lat="44.6939033" lon="10.6194883"><ele>55.0</ele><time>2026-03-22T11:55:16.457Z</time></trkpt><trkpt lat="44.6938067" lon="10.6195233"><ele>55.0</ele><time>2026-03-22T11:55:18.457Z</time></trkpt><trkpt lat="44.6937167" lon="10.6195483"><ele>55.0</ele><time>2026-03-22T11:55:20.457Z</time></trkpt><trkpt lat="44.69362" lon="10.6195833"><ele>55.0</ele><time>2026-03-22T11:55:22.456Z</time></trkpt><trkpt lat="44.6935233" lon="10.6196167"><ele>55.0</ele><time>2026-03-22T11:55:24.457Z</time></trkpt><trkpt lat="44.693425" lon="10.6196333"><ele>55.0</ele><time>2026-03-22T11:55:26.456Z</time></trkpt><trkpt lat="44.6933267" lon="10.6196617"><ele>55.2</ele><time>2026-03-22T11:55:28.457Z</time></trkpt><trkpt lat="44.6932267" lon="10.619685"><ele>55.4</ele><time>2026-03-22T11:55:30.456Z</time></trkpt><trkpt lat="44.6931283" lon="10.6197067"><ele>55.599999999999994</ele><time>2026-03-22T11:55:32.456Z</time></trkpt><trkpt lat="44.6930317" lon="10.6197333"><ele>55.8</ele><time>2026-03-22T11:55:34.456Z</time></trkpt><trkpt lat="44.6929333" lon="10.6197583"><ele>56.0</ele><time>2026-03-22T11:55:36.456Z</time></trkpt><trkpt lat="44.6928417" lon="10.6197883"><ele>56.599999999999994</ele><time>2026-03-22T11:55:38.456Z</time></trkpt><trkpt lat="44.6927467" lon="10.619815"><ele>57.199999999999996</ele><time>2026-03-22T11:55:40.456Z</time></trkpt><trkpt lat="44.6926517" lon="10.61985"><ele>57.800000000000004</ele><time>2026-03-22T11:55:42.457Z</time></trkpt><trkpt lat="44.69256" lon="10.619885"><ele>58.400000000000006</ele><time>2026-03-22T11:55:44.456Z</time></trkpt><trkpt lat="44.6924733" lon="10.61992"><ele>59.0</ele><time>2026-03-22T11:55:46.456Z</time></trkpt><trkpt lat="44.69239" lon="10.61995"><ele>59.00000000000001</ele><time>2026-03-22T11:55:48.457Z</time></trkpt><trkpt lat="44.6923117" lon="10.6199767"><ele>59.0</ele><time>2026-03-22T11:55:50.456Z</time></trkpt><trkpt lat="44.69223" lon="10.62001"><ele>59.0</ele><time>2026-03-22T11:55:52.457Z</time></trkpt><trkpt lat="44.6921433" lon="10.6200417"><ele>59.0</ele><time>2026-03-22T11:55:54.456Z</time></trkpt><trkpt lat="44.69206" lon="10.6200883"><ele>59.00000000000001</ele><time>2026-03-22T11:55:56.456Z</time></trkpt><trkpt lat="44.6919783" lon="10.620125"><ele>59.0</ele><time>2026-03-22T11:55:58.456Z</time></trkpt><trkpt lat="44.6919083" lon="10.62015"><ele>59.16666666666667</ele><time>2026-03-22T11:56:00.456Z</time></trkpt><trkpt lat="44.691835" lon="10.62016"><ele>59.333333333333336</ele><time>2026-03-22T11:56:02.456Z</time></trkpt><trkpt lat="44.691755" lon="10.6201617"><ele>59.5</ele><time>2026-03-22T11:56:04.456Z</time></trkpt><trkpt lat="44.6916717" lon="10.62015"><ele>59.66666666666667</ele><time>2026-03-22T11:56:06.456Z</time></trkpt><trkpt lat="44.6915867" lon="10.6201267"><ele>59.833333333333336</ele><time>2026-03-22T11:56:08.456Z</time></trkpt><trkpt lat="44.6915" lon="10.6201017"><ele>60.0</ele><time>2026-03-22T11:56:10.456Z</time></trkpt><trkpt lat="44.69141" lon="10.6200667"><ele>60.0</ele><time>2026-03-22T11:56:12.456Z</time></trkpt><trkpt lat="44.6913217" lon="10.62003"><ele>60.0</ele><time>2026-03-22T11:56:14.457Z</time></trkpt><trkpt lat="44.6912233" lon="10.619985"><ele>60.0</ele><time>2026-03-22T11:56:16.456Z</time></trkpt><trkpt lat="44.69113" lon="10.619945"><ele>60.0</ele><time>2026-03-22T11:56:18.457Z</time></trkpt><trkpt lat="44.69104" lon="10.6199083"><ele>60.0</ele><time>2026-03-22T11:56:20.456Z</time></trkpt><trkpt lat="44.6909517" lon="10.61989"><ele>59.833333333333336</ele><time>2026-03-22T11:56:22.456Z</time></trkpt><trkpt lat="44.6908667" lon="10.6198967"><ele>59.66666666666667</ele><time>2026-03-22T11:56:24.456Z</time></trkpt><trkpt lat="44.6907983" lon="10.619925"><ele>59.5</ele><time>2026-03-22T11:56:26.456Z</time></trkpt><trkpt lat="44.6907083" lon="10.6199283"><ele>59.333333333333336</ele><time>2026-03-22T11:56:29.456Z</time></trkpt><trkpt lat="44.6906317" lon="10.61998"><ele>59.16666666666667</ele><time>2026-03-22T11:56:32.456Z</time></trkpt><trkpt lat="44.6906" lon="10.620085"><ele>59.0</ele><time>2026-03-22T11:56:34.456Z</time></trkpt><trkpt lat="44.6905767" lon="10.620205"><ele>59.0</ele><time>2026-03-22T11:56:36.457Z</time></trkpt><trkpt lat="44.6905317" lon="10.6202817"><ele>59.00000000000001</ele><time>2026-03-22T11:56:38.457Z</time></trkpt><trkpt lat="44.690435" lon="10.6203083"><ele>59.00000000000001</ele><time>2026-03-22T11:56:41.456Z</time></trkpt><trkpt lat="44.6903583" lon="10.620335"><ele>59.0</ele><time>2026-03-22T11:56:43.456Z</time></trkpt><trkpt lat="44.6902567" lon="10.6204433"><ele>59.0</ele><time>2026-03-22T11:56:46.456Z</time></trkpt><trkpt lat="44.69016" lon="10.6205517"><ele>59.6</ele><time>2026-03-22T11:56:48.457Z</time></trkpt><trkpt lat="44.6900583" lon="10.6205867"><ele>60.2</ele><time>2026-03-22T11:56:50.457Z</time></trkpt><trkpt lat="44.6899483" lon="10.6205767"><ele>60.800000000000004</ele><time>2026-03-22T11:56:52.456Z</time></trkpt><trkpt lat="44.6898483" lon="10.62055"><ele>61.400000000000006</ele><time>2026-03-22T11:56:54.457Z</time></trkpt><trkpt lat="44.6897533" lon="10.6205483"><ele>62.0</ele><time>2026-03-22T11:56:56.456Z</time></trkpt><trkpt lat="44.6896817" lon="10.620615"><ele>62.0</ele><time>2026-03-22T11:56:58.456Z</time></trkpt><trkpt lat="44.6896033" lon="10.6206833"><ele>62.0</ele><time>2026-03-22T11:57:00.456Z</time></trkpt><trkpt lat="44.6895233" lon="10.6207567"><ele>62.0</ele><time>2026-03-22T11:57:02.456Z</time></trkpt><trkpt lat="44.6894367" lon="10.620835"><ele>62.0</ele><time>2026-03-22T11:57:04.456Z</time></trkpt><trkpt lat="44.6893383" lon="10.6208933"><ele>62.0</ele><time>2026-03-22T11:57:06.456Z</time></trkpt><trkpt lat="44.68925" lon="10.620945"><ele>62.2</ele><time>2026-03-22T11:57:08.456Z</time></trkpt><trkpt lat="44.689165" lon="10.62099"><ele>62.400000000000006</ele><time>2026-03-22T11:57:10.456Z</time></trkpt><trkpt lat="44.68907" lon="10.6210233"><ele>62.599999999999994</ele><time>2026-03-22T11:57:12.456Z</time></trkpt><trkpt lat="44.6889667" lon="10.6210633"><ele>62.8</ele><time>2026-03-22T11:57:14.456Z</time></trkpt><trkpt lat="44.6888633" lon="10.6211017"><ele>63.0</ele><time>2026-03-22T11:57:16.457Z</time></trkpt><trkpt lat="44.6887583" lon="10.6211417"><ele>63.25</ele><time>2026-03-22T11:57:18.456Z</time></trkpt><trkpt lat="44.688645" lon="10.621185"><ele>63.5</ele><time>2026-03-22T11:57:20.457Z</time></trkpt><trkpt lat="44.6885367" lon="10.62122"><ele>63.75</ele><time>2026-03-22T11:57:22.457Z</time></trkpt><trkpt lat="44.688425" lon="10.62125"><ele>64.0</ele><time>2026-03-22T11:57:24.456Z</time></trkpt><trkpt lat="44.68831" lon="10.6212933"><ele>64.0</ele><time>2026-03-22T11:57:26.456Z</time></trkpt><trkpt lat="44.688195" lon="10.62134"><ele>64.0</ele><time>2026-03-22T11:57:28.456Z</time></trkpt><trkpt lat="44.688085" lon="10.6213767"><ele>64.0</ele><time>2026-03-22T11:57:30.457Z</time></trkpt><trkpt lat="44.6879767" lon="10.6213983"><ele>64.0</ele><time>2026-03-22T11:57:32.456Z</time></trkpt><trkpt lat="44.6878683" lon="10.6214117"><ele>64.0</ele><time>2026-03-22T11:57:34.457Z</time></trkpt><trkpt lat="44.6877633" lon="10.62144"><ele>64.0</ele><time>2026-03-22T11:57:36.456Z</time></trkpt><trkpt lat="44.687675" lon="10.6214617"><ele>64.0</ele><time>2026-03-22T11:57:38.456Z</time></trkpt><trkpt lat="44.68759" lon="10.621495"><ele>64.0</ele><time>2026-03-22T11:57:40.457Z</time></trkpt><trkpt lat="44.6875" lon="10.6215183"><ele>64.0</ele><time>2026-03-22T11:57:42.456Z</time></trkpt><trkpt lat="44.6874" lon="10.6215483"><ele>64.0</ele><time>2026-03-22T11:57:44.457Z</time></trkpt><trkpt lat="44.6872983" lon="10.6215733"><ele>64.0</ele><time>2026-03-22T11:57:46.456Z</time></trkpt><trkpt lat="44.6871983" lon="10.6216"><ele>64.0</ele><time>2026-03-22T11:57:48.456Z</time></trkpt><trkpt lat="44.6870967" lon="10.621625"><ele>64.0</ele><time>2026-03-22T11:57:50.457Z</time></trkpt><trkpt lat="44.6869967" lon="10.621655"><ele>64.0</ele><time>2026-03-22T11:57:52.456Z</time></trkpt><trkpt lat="44.6868983" lon="10.62168"><ele>64.0</ele><time>2026-03-22T11:57:54.456Z</time></trkpt><trkpt lat="44.6868033" lon="10.6217083"><ele>64.0</ele><time>2026-03-22T11:57:56.456Z</time></trkpt><trkpt lat="44.6867133" lon="10.6217233"><ele>64.0</ele><time>2026-03-22T11:57:58.457Z</time></trkpt><trkpt lat="44.6866233" lon="10.62175"><ele>64.0</ele><time>2026-03-22T11:58:00.456Z</time></trkpt><trkpt lat="44.6865267" lon="10.6217883"><ele>64.0</ele><time>2026-03-22T11:58:02.456Z</time></trkpt><trkpt lat="44.6864317" lon="10.62183"><ele>63.99999999999999</ele><time>2026-03-22T11:58:04.457Z</time></trkpt><trkpt lat="44.6863317" lon="10.6218533"><ele>64.0</ele><time>2026-03-22T11:58:06.456Z</time></trkpt><trkpt lat="44.686245" lon="10.621875"><ele>64.0</ele><time>2026-03-22T11:58:08.456Z</time></trkpt><trkpt lat="44.6861683" lon="10.6219"><ele>64.0</ele><time>2026-03-22T11:58:10.457Z</time></trkpt><trkpt lat="44.68608" lon="10.6219333"><ele>63.99999999999999</ele><time>2026-03-22T11:58:12.456Z</time></trkpt><trkpt lat="44.685995" lon="10.6219533"><ele>64.0</ele><time>2026-03-22T11:58:14.456Z</time></trkpt><trkpt lat="44.6859017" lon="10.621985"><ele>64.5</ele><time>2026-03-22T11:58:16.457Z</time></trkpt><trkpt lat="44.68581" lon="10.6220133"><ele>65.0</ele><time>2026-03-22T11:58:18.456Z</time></trkpt><trkpt lat="44.685725" lon="10.62204"><ele>65.5</ele><time>2026-03-22T11:58:20.456Z</time></trkpt><trkpt lat="44.6856433" lon="10.6220567"><ele>66.0</ele><time>2026-03-22T11:58:22.456Z</time></trkpt><trkpt lat="44.6855667" lon="10.6220833"><ele>66.5</ele><time>2026-03-22T11:58:24.457Z</time></trkpt><trkpt lat="44.6854833" lon="10.622105"><ele>67.0</ele><time>2026-03-22T11:58:26.456Z</time></trkpt><trkpt lat="44.68541" lon="10.622105"><ele>67.0</ele><time>2026-03-22T11:58:28.456Z</time></trkpt><trkpt lat="44.6853283" lon="10.6221183"><ele>67.0</ele><time>2026-03-22T11:58:31.456Z</time></trkpt><trkpt lat="44.685235" lon="10.622155"><ele>67.0</ele><time>2026-03-22T11:58:34.457Z</time></trkpt><trkpt lat="44.6851683" lon="10.622175"><ele>67.0</ele><time>2026-03-22T11:58:36.457Z</time></trkpt><trkpt lat="44.685095" lon="10.6221983"><ele>67.0</ele><time>2026-03-22T11:58:38.456Z</time></trkpt><trkpt lat="44.6850117" lon="10.62222"><ele>67.0</ele><time>2026-03-22T11:58:40.456Z</time></trkpt><trkpt lat="44.6849267" lon="10.62225"><ele>66.5</ele><time>2026-03-22T11:58:42.457Z</time></trkpt><trkpt lat="44.6848433" lon="10.6222817"><ele>66.0</ele><time>2026-03-22T11:58:44.457Z</time></trkpt><trkpt lat="44.6847517" lon="10.6223083"><ele>65.5</ele><time>2026-03-22T11:58:46.456Z</time></trkpt><trkpt lat="44.68467" lon="10.6223183"><ele>65.0</ele><time>2026-03-22T11:58:48.456Z</time></trkpt><trkpt lat="44.6845883" lon="10.6223383"><ele>64.5</ele><time>2026-03-22T11:58:50.457Z</time></trkpt><trkpt lat="44.684495" lon="10.6223583"><ele>64.0</ele><time>2026-03-22T11:58:52.456Z</time></trkpt><trkpt lat="44.6844033" lon="10.6223717"><ele>63.99999999999999</ele><time>2026-03-22T11:58:54.457Z</time></trkpt><trkpt lat="44.68431" lon="10.6223767"><ele>64.0</ele><time>2026-03-22T11:58:56.456Z</time></trkpt><trkpt lat="44.6842317" lon="10.62238"><ele>64.0</ele><time>2026-03-22T11:58:58.456Z</time></trkpt><trkpt lat="44.6841433" lon="10.6223833"><ele>64.0</ele><time>2026-03-22T11:59:00.456Z</time></trkpt><trkpt lat="44.68406" lon="10.6223933"><ele>63.99999999999999</ele><time>2026-03-22T11:59:02.456Z</time></trkpt><trkpt lat="44.6839833" lon="10.6223933"><ele>64.0</ele><time>2026-03-22T11:59:04.456Z</time></trkpt><trkpt lat="44.68392" lon="10.622405"><ele>63.99999999999999</ele><time>2026-03-22T11:59:05.456Z</time></trkpt><trkpt lat="44.6838517" lon="10.6224183"><ele>64.0</ele><time>2026-03-22T11:59:07.456Z</time></trkpt><trkpt lat="44.6837867" lon="10.6224067"><ele>64.0</ele><time>2026-03-22T11:59:09.456Z</time></trkpt><trkpt lat="44.68371" lon="10.6223967"><ele>64.0</ele><time>2026-03-22T11:59:11.456Z</time></trkpt><trkpt lat="44.683635" lon="10.622395"><ele>63.99999999999999</ele><time>2026-03-22T11:59:14.456Z</time></trkpt><trkpt lat="44.6835617" lon="10.622485"><ele>64.0</ele><time>2026-03-22T11:59:58.457Z</time></trkpt><trkpt lat="44.6835117" lon="10.6225783"><ele>64.16666666666666</ele><time>2026-03-22T12:00:01.457Z</time></trkpt><trkpt lat="44.68344" lon="10.6226733"><ele>64.33333333333333</ele><time>2026-03-22T12:00:04.457Z</time></trkpt><trkpt lat="44.6833733" lon="10.6227183"><ele>64.5</ele><time>2026-03-22T12:00:06.456Z</time></trkpt><trkpt lat="44.683295" lon="10.622775"><ele>64.66666666666667</ele><time>2026-03-22T12:00:08.456Z</time></trkpt><trkpt lat="44.683205" lon="10.6228117"><ele>64.83333333333334</ele><time>2026-03-22T12:00:10.457Z</time></trkpt><trkpt lat="44.6831117" lon="10.6228333"><ele>65.0</ele><time>2026-03-22T12:00:12.456Z</time></trkpt><trkpt lat="44.6830283" lon="10.62285"><ele>65.0</ele><time>2026-03-22T12:00:14.457Z</time></trkpt><trkpt lat="44.68294" lon="10.6228783"><ele>65.0</ele><time>2026-03-22T12:00:16.456Z</time></trkpt><trkpt lat="44.6828567" lon="10.6229133"><ele>65.0</ele><time>2026-03-22T12:00:18.456Z</time></trkpt><trkpt lat="44.6827783" lon="10.6229483"><ele>65.0</ele><time>2026-03-22T12:00:20.456Z</time></trkpt><trkpt lat="44.6827" lon="10.6229783"><ele>65.0</ele><time>2026-03-22T12:00:22.456Z</time></trkpt><trkpt lat="44.6826283" lon="10.62301"><ele>65.0</ele><time>2026-03-22T12:00:24.456Z</time></trkpt><trkpt lat="44.6825367" lon="10.6230567"><ele>65.0</ele><time>2026-03-22T12:00:26.457Z</time></trkpt><trkpt lat="44.6824483" lon="10.623095"><ele>65.0</ele><time>2026-03-22T12:00:28.457Z</time></trkpt><trkpt lat="44.682365" lon="10.6231333"><ele>65.0</ele><time>2026-03-22T12:00:30.456Z</time></trkpt><trkpt lat="44.6822667" lon="10.6231767"><ele>65.0</ele><time>2026-03-22T12:00:32.456Z</time></trkpt><trkpt lat="44.68217" lon="10.623225"><ele>65.0</ele><time>2026-03-22T12:00:34.457Z</time></trkpt><trkpt lat="44.6820767" lon="10.623265"><ele>65.0</ele><time>2026-03-22T12:00:36.456Z</time></trkpt><trkpt lat="44.68197" lon="10.6233017"><ele>65.0</ele><time>2026-03-22T12:00:38.456Z</time></trkpt><trkpt lat="44.68189" lon="10.6233383"><ele>65.0</ele><time>2026-03-22T12:00:40.456Z</time></trkpt><trkpt lat="44.6818033" lon="10.6233683"><ele>65.0</ele><time>2026-03-22T12:00:42.456Z</time></trkpt><trkpt lat="44.6817117" lon="10.623395"><ele>65.0</ele><time>2026-03-22T12:00:44.456Z</time></trkpt><trkpt lat="44.681615" lon="10.6234217"><ele>65.0</ele><time>2026-03-22T12:00:46.456Z</time></trkpt><trkpt lat="44.6815233" lon="10.62346"><ele>65.0</ele><time>2026-03-22T12:00:48.456Z</time></trkpt><trkpt lat="44.68144" lon="10.6235"><ele>65.0</ele><time>2026-03-22T12:00:50.456Z</time></trkpt><trkpt lat="44.68135" lon="10.6235383"><ele>65.0</ele><time>2026-03-22T12:00:52.456Z</time></trkpt><trkpt lat="44.6812717" lon="10.6235733"><ele>65.0</ele><time>2026-03-22T12:00:54.457Z</time></trkpt><trkpt lat="44.6811783" lon="10.623605"><ele>65.2</ele><time>2026-03-22T12:00:56.456Z</time></trkpt><trkpt lat="44.681085" lon="10.6236233"><ele>65.4</ele><time>2026-03-22T12:00:58.456Z</time></trkpt><trkpt lat="44.6809967" lon="10.62366"><ele>65.6</ele><time>2026-03-22T12:01:00.456Z</time></trkpt><trkpt lat="44.6809133" lon="10.6236983"><ele>65.8</ele><time>2026-03-22T12:01:02.456Z</time></trkpt><trkpt lat="44.6808267" lon="10.6237283"><ele>66.0</ele><time>2026-03-22T12:01:04.456Z</time></trkpt><trkpt lat="44.680735" lon="10.6237467"><ele>66.0</ele><time>2026-03-22T12:01:06.456Z</time></trkpt><trkpt lat="44.680645" lon="10.6237733"><ele>66.0</ele><time>2026-03-22T12:01:08.457Z</time></trkpt><trkpt lat="44.6805517" lon="10.6238083"><ele>66.0</ele><time>2026-03-22T12:01:10.456Z</time></trkpt><trkpt lat="44.6804633" lon="10.6238467"><ele>66.0</ele><time>2026-03-22T12:01:12.456Z</time></trkpt><trkpt lat="44.68037" lon="10.6238817"><ele>66.0</ele><time>2026-03-22T12:01:14.456Z</time></trkpt><trkpt lat="44.6802783" lon="10.62392"><ele>65.8</ele><time>2026-03-22T12:01:16.456Z</time></trkpt><trkpt lat="44.6801867" lon="10.62396"><ele>65.6</ele><time>2026-03-22T12:01:18.456Z</time></trkpt><trkpt lat="44.6800667" lon="10.6240183"><ele>65.4</ele><time>2026-03-22T12:01:20.457Z</time></trkpt><trkpt lat="44.67997" lon="10.62405"><ele>65.2</ele><time>2026-03-22T12:01:22.456Z</time></trkpt><trkpt lat="44.67987" lon="10.6240917"><ele>65.0</ele><time>2026-03-22T12:01:24.456Z</time></trkpt><trkpt lat="44.6797817" lon="10.6241267"><ele>65.0</ele><time>2026-03-22T12:01:26.457Z</time></trkpt><trkpt lat="44.6796883" lon="10.6241533"><ele>65.0</ele><time>2026-03-22T12:01:28.457Z</time></trkpt><trkpt lat="44.6795917" lon="10.6241767"><ele>65.0</ele><time>2026-03-22T12:01:30.458Z</time></trkpt><trkpt lat="44.6794967" lon="10.624225"><ele>65.0</ele><time>2026-03-22T12:01:32.457Z</time></trkpt><trkpt lat="44.6794" lon="10.624275"><ele>65.0</ele><time>2026-03-22T12:01:34.457Z</time></trkpt><trkpt lat="44.6793017" lon="10.6243133"><ele>65.0</ele><time>2026-03-22T12:01:36.457Z</time></trkpt><trkpt lat="44.67921" lon="10.6243483"><ele>65.0</ele><time>2026-03-22T12:01:38.457Z</time></trkpt><trkpt lat="44.6791117" lon="10.6244017"><ele>65.0</ele><time>2026-03-22T12:01:40.457Z</time></trkpt><trkpt lat="44.6790167" lon="10.6244633"><ele>65.0</ele><time>2026-03-22T12:01:42.457Z</time></trkpt><trkpt lat="44.67891" lon="10.62451"><ele>65.0</ele><time>2026-03-22T12:01:44.457Z</time></trkpt><trkpt lat="44.6788117" lon="10.624545"><ele>65.2</ele><time>2026-03-22T12:01:46.457Z</time></trkpt><trkpt lat="44.6787" lon="10.6245717"><ele>65.4</ele><time>2026-03-22T12:01:48.457Z</time></trkpt><trkpt lat="44.6785967" lon="10.624615"><ele>65.6</ele><time>2026-03-22T12:01:50.457Z</time></trkpt><trkpt lat="44.678495" lon="10.624655"><ele>65.8</ele><time>2026-03-22T12:01:52.457Z</time></trkpt><trkpt lat="44.6784033" lon="10.624695"><ele>66.0</ele><time>2026-03-22T12:01:54.458Z</time></trkpt><trkpt lat="44.6783017" lon="10.6247333"><ele>65.6</ele><time>2026-03-22T12:01:56.457Z</time></trkpt><trkpt lat="44.6781967" lon="10.6247867"><ele>65.19999999999999</ele><time>2026-03-22T12:01:58.458Z</time></trkpt><trkpt lat="44.6780917" lon="10.6248367"><ele>64.80000000000001</ele><time>2026-03-22T12:02:00.457Z</time></trkpt><trkpt lat="44.6779883" lon="10.6248767"><ele>64.4</ele><time>2026-03-22T12:02:02.457Z</time></trkpt><trkpt lat="44.6779017" lon="10.6249"><ele>64.0</ele><time>2026-03-22T12:02:04.457Z</time></trkpt><trkpt lat="44.677775" lon="10.62495"><ele>63.75</ele><time>2026-03-22T12:02:06.458Z</time></trkpt><trkpt lat="44.6776717" lon="10.6249883"><ele>63.5</ele><time>2026-03-22T12:02:08.457Z</time></trkpt><trkpt lat="44.67756" lon="10.625035"><ele>63.25</ele><time>2026-03-22T12:02:10.457Z</time></trkpt><trkpt lat="44.6774517" lon="10.625085"><ele>63.0</ele><time>2026-03-22T12:02:12.457Z</time></trkpt><trkpt lat="44.6773433" lon="10.6251267"><ele>63.0</ele><time>2026-03-22T12:02:14.457Z</time></trkpt><trkpt lat="44.6772367" lon="10.62516"><ele>63.0</ele><time>2026-03-22T12:02:16.457Z</time></trkpt><trkpt lat="44.677145" lon="10.6251917"><ele>63.0</ele><time>2026-03-22T12:02:18.457Z</time></trkpt><trkpt lat="44.6770483" lon="10.6252333"><ele>63.0</ele><time>2026-03-22T12:02:20.457Z</time></trkpt><trkpt lat="44.6769567" lon="10.625275"><ele>63.0</ele><time>2026-03-22T12:02:22.457Z</time></trkpt><trkpt lat="44.6768617" lon="10.62531"><ele>63.8</ele><time>2026-03-22T12:02:24.458Z</time></trkpt><trkpt lat="44.6767667" lon="10.6253417"><ele>64.6</ele><time>2026-03-22T12:02:26.457Z</time></trkpt><trkpt lat="44.676675" lon="10.6253733"><ele>65.4</ele><time>2026-03-22T12:02:28.457Z</time></trkpt><trkpt lat="44.6765867" lon="10.6254"><ele>66.2</ele><time>2026-03-22T12:02:30.457Z</time></trkpt><trkpt lat="44.6764983" lon="10.6254017"><ele>67.0</ele><time>2026-03-22T12:02:32.458Z</time></trkpt><trkpt lat="44.676415" lon="10.6254117"><ele>67.0</ele><time>2026-03-22T12:02:34.457Z</time></trkpt><trkpt lat="44.6763367" lon="10.6254117"><ele>67.0</ele><time>2026-03-22T12:02:36.457Z</time></trkpt><trkpt lat="44.6762567" lon="10.625415"><ele>67.0</ele><time>2026-03-22T12:02:38.457Z</time></trkpt><trkpt lat="44.6761817" lon="10.6254083"><ele>67.0</ele><time>2026-03-22T12:02:40.457Z</time></trkpt><trkpt lat="44.6760933" lon="10.6253967"><ele>67.0</ele><time>2026-03-22T12:02:42.457Z</time></trkpt><trkpt lat="44.6760083" lon="10.62539"><ele>67.0</ele><time>2026-03-22T12:02:44.458Z</time></trkpt><trkpt lat="44.6759333" lon="10.6253617"><ele>67.0</ele><time>2026-03-22T12:02:46.457Z</time></trkpt><trkpt lat="44.6758517" lon="10.6253367"><ele>67.0</ele><time>2026-03-22T12:02:49.458Z</time></trkpt><trkpt lat="44.6757667" lon="10.62526"><ele>67.0</ele><time>2026-03-22T12:02:52.458Z</time></trkpt><trkpt lat="44.6757083" lon="10.6251667"><ele>67.0</ele><time>2026-03-22T12:02:54.457Z</time></trkpt><trkpt lat="44.6756483" lon="10.6250867"><ele>67.0</ele><time>2026-03-22T12:02:56.457Z</time></trkpt><trkpt lat="44.6755783" lon="10.6250133"><ele>67.0</ele><time>2026-03-22T12:02:58.457Z</time></trkpt><trkpt lat="44.6755067" lon="10.624955"><ele>67.0</ele><time>2026-03-22T12:03:00.457Z</time></trkpt><trkpt lat="44.675435" lon="10.6249033"><ele>67.0</ele><time>2026-03-22T12:03:02.457Z</time></trkpt><trkpt lat="44.675365" lon="10.6248417"><ele>67.0</ele><time>2026-03-22T12:03:04.457Z</time></trkpt><trkpt lat="44.6752867" lon="10.6247767"><ele>67.0</ele><time>2026-03-22T12:03:06.457Z</time></trkpt><trkpt lat="44.675215" lon="10.6247133"><ele>67.0</ele><time>2026-03-22T12:03:08.457Z</time></trkpt><trkpt lat="44.67515" lon="10.6246417"><ele>67.0</ele><time>2026-03-22T12:03:10.457Z</time></trkpt><trkpt lat="44.675085" lon="10.6245667"><ele>66.83333333333333</ele><time>2026-03-22T12:03:12.457Z</time></trkpt><trkpt lat="44.675015" lon="10.62449"><ele>66.66666666666666</ele><time>2026-03-22T12:03:14.457Z</time></trkpt><trkpt lat="44.674945" lon="10.624415"><ele>66.5</ele><time>2026-03-22T12:03:16.457Z</time></trkpt><trkpt lat="44.6748817" lon="10.6243267"><ele>66.33333333333333</ele><time>2026-03-22T12:03:18.458Z</time></trkpt><trkpt lat="44.6748233" lon="10.62424"><ele>66.16666666666667</ele><time>2026-03-22T12:03:20.458Z</time></trkpt><trkpt lat="44.674765" lon="10.6241617"><ele>66.0</ele><time>2026-03-22T12:03:22.457Z</time></trkpt><trkpt lat="44.6747133" lon="10.6240967"><ele>66.0</ele><time>2026-03-22T12:03:24.457Z</time></trkpt><trkpt lat="44.6746483" lon="10.6240283"><ele>66.0</ele><time>2026-03-22T12:03:26.457Z</time></trkpt><trkpt lat="44.6745783" lon="10.6239433"><ele>66.0</ele><time>2026-03-22T12:03:28.457Z</time></trkpt><trkpt lat="44.6745033" lon="10.6238633"><ele>66.0</ele><time>2026-03-22T12:03:30.457Z</time></trkpt><trkpt lat="44.6744117" lon="10.6237017"><ele>66.0</ele><time>2026-03-22T12:03:33.458Z</time></trkpt><trkpt lat="44.6743667" lon="10.6235717"><ele>66.0</ele><time>2026-03-22T12:03:35.457Z</time></trkpt><trkpt lat="44.6743217" lon="10.6234317"><ele>66.0</ele><time>2026-03-22T12:03:37.457Z</time></trkpt><trkpt lat="44.67427" lon="10.623285"><ele>66.0</ele><time>2026-03-22T12:03:39.457Z</time></trkpt><trkpt lat="44.6742417" lon="10.6232033"><ele>66.0</ele><time>2026-03-22T12:03:40.457Z</time></trkpt><trkpt lat="44.6741883" lon="10.6230583"><ele>66.0</ele><time>2026-03-22T12:03:42.457Z</time></trkpt><trkpt lat="44.6741567" lon="10.6229333"><ele>66.0</ele><time>2026-03-22T12:03:44.458Z</time></trkpt><trkpt lat="44.6741317" lon="10.6228217"><ele>66.0</ele><time>2026-03-22T12:03:46.457Z</time></trkpt><trkpt lat="44.6741233" lon="10.6227133"><ele>66.0</ele><time>2026-03-22T12:03:48.457Z</time></trkpt><trkpt lat="44.6741467" lon="10.6225983"><ele>66.0</ele><time>2026-03-22T12:03:51.457Z</time></trkpt><trkpt lat="44.6741583" lon="10.6224667"><ele>66.0</ele><time>2026-03-22T12:03:54.457Z</time></trkpt><trkpt lat="44.67416" lon="10.6223533"><ele>66.0</ele><time>2026-03-22T12:03:56.457Z</time></trkpt><trkpt lat="44.6741567" lon="10.6222217"><ele>66.2</ele><time>2026-03-22T12:03:58.457Z</time></trkpt><trkpt lat="44.6741517" lon="10.6220717"><ele>66.39999999999999</ele><time>2026-03-22T12:04:00.457Z</time></trkpt><trkpt lat="44.67415" lon="10.6219167"><ele>66.6</ele><time>2026-03-22T12:04:02.457Z</time></trkpt><trkpt lat="44.67416" lon="10.6217783"><ele>66.8</ele><time>2026-03-22T12:04:04.457Z</time></trkpt><trkpt lat="44.6741617" lon="10.6216367"><ele>67.0</ele><time>2026-03-22T12:04:06.457Z</time></trkpt><trkpt lat="44.6741517" lon="10.6214967"><ele>67.6</ele><time>2026-03-22T12:04:08.457Z</time></trkpt><trkpt lat="44.67414" lon="10.6213617"><ele>68.2</ele><time>2026-03-22T12:04:10.457Z</time></trkpt><trkpt lat="44.6741417" lon="10.6212283"><ele>68.8</ele><time>2026-03-22T12:04:12.457Z</time></trkpt><trkpt lat="44.6741367" lon="10.6210917"><ele>69.4</ele><time>2026-03-22T12:04:14.457Z</time></trkpt><trkpt lat="44.6741233" lon="10.620965"><ele>70.0</ele><time>2026-03-22T12:04:16.457Z</time></trkpt><trkpt lat="44.6741117" lon="10.6208433"><ele>70.4</ele><time>2026-03-22T12:04:18.457Z</time></trkpt><trkpt lat="44.67409" lon="10.6207283"><ele>70.8</ele><time>2026-03-22T12:04:20.458Z</time></trkpt><trkpt lat="44.674065" lon="10.6206033"><ele>71.2</ele><time>2026-03-22T12:04:22.457Z</time></trkpt><trkpt lat="44.6740383" lon="10.62047"><ele>71.6</ele><time>2026-03-22T12:04:24.457Z</time></trkpt><trkpt lat="44.674" lon="10.6203283"><ele>72.0</ele><time>2026-03-22T12:04:26.458Z</time></trkpt><trkpt lat="44.6739483" lon="10.6202067"><ele>72.4</ele><time>2026-03-22T12:04:28.458Z</time></trkpt><trkpt lat="44.673915" lon="10.6200883"><ele>72.80000000000001</ele><time>2026-03-22T12:04:30.457Z</time></trkpt><trkpt lat="44.6738933" lon="10.6199567"><ele>73.2</ele><time>2026-03-22T12:04:32.457Z</time></trkpt><trkpt lat="44.67388" lon="10.6198233"><ele>73.60000000000001</ele><time>2026-03-22T12:04:34.457Z</time></trkpt><trkpt lat="44.6738567" lon="10.619695"><ele>74.0</ele><time>2026-03-22T12:04:36.457Z</time></trkpt><trkpt lat="44.6738383" lon="10.6195733"><ele>73.66666666666667</ele><time>2026-03-22T12:04:38.457Z</time></trkpt><trkpt lat="44.6738283" lon="10.6194533"><ele>73.33333333333334</ele><time>2026-03-22T12:04:40.457Z</time></trkpt><trkpt lat="44.6738083" lon="10.6193317"><ele>73.0</ele><time>2026-03-22T12:04:42.457Z</time></trkpt><trkpt lat="44.673795" lon="10.61922"><ele>72.66666666666667</ele><time>2026-03-22T12:04:44.457Z</time></trkpt><trkpt lat="44.673775" lon="10.6191283"><ele>72.33333333333333</ele><time>2026-03-22T12:04:46.457Z</time></trkpt><trkpt lat="44.673765" lon="10.6190267"><ele>72.0</ele><time>2026-03-22T12:04:49.457Z</time></trkpt><trkpt lat="44.6737917" lon="10.61891"><ele>72.0</ele><time>2026-03-22T12:04:53.457Z</time></trkpt><trkpt lat="44.67379" lon="10.6188167"><ele>72.0</ele><time>2026-03-22T12:04:56.457Z</time></trkpt><trkpt lat="44.6737733" lon="10.6187167"><ele>72.0</ele><time>2026-03-22T12:04:59.457Z</time></trkpt><trkpt lat="44.67373" lon="10.6186117"><ele>72.0</ele><time>2026-03-22T12:05:02.458Z</time></trkpt><trkpt lat="44.6736917" lon="10.6184983"><ele>72.0</ele><time>2026-03-22T12:05:05.457Z</time></trkpt><trkpt lat="44.6736817" lon="10.618405"><ele>72.0</ele><time>2026-03-22T12:05:09.458Z</time></trkpt><trkpt lat="44.6736633" lon="10.6183083"><ele>71.66666666666667</ele><time>2026-03-22T12:05:12.457Z</time></trkpt><trkpt lat="44.6736383" lon="10.6181867"><ele>71.33333333333333</ele><time>2026-03-22T12:05:15.457Z</time></trkpt><trkpt lat="44.6736183" lon="10.6180983"><ele>71.0</ele><time>2026-03-22T12:05:17.458Z</time></trkpt><trkpt lat="44.6736033" lon="10.618005"><ele>70.66666666666666</ele><time>2026-03-22T12:05:19.457Z</time></trkpt><trkpt lat="44.6735817" lon="10.6179067"><ele>70.33333333333333</ele><time>2026-03-22T12:05:21.457Z</time></trkpt><trkpt lat="44.6735583" lon="10.6178017"><ele>70.0</ele><time>2026-03-22T12:05:23.457Z</time></trkpt><trkpt lat="44.6735383" lon="10.6176983"><ele>69.83333333333333</ele><time>2026-03-22T12:05:25.457Z</time></trkpt><trkpt lat="44.6735217" lon="10.6176033"><ele>69.66666666666666</ele><time>2026-03-22T12:05:27.457Z</time></trkpt><trkpt lat="44.6735017" lon="10.6175083"><ele>69.5</ele><time>2026-03-22T12:05:29.457Z</time></trkpt><trkpt lat="44.673475" lon="10.61741"><ele>69.33333333333333</ele><time>2026-03-22T12:05:31.457Z</time></trkpt><trkpt lat="44.6734567" lon="10.6173117"><ele>69.16666666666667</ele><time>2026-03-22T12:05:33.457Z</time></trkpt><trkpt lat="44.673435" lon="10.6171917"><ele>69.0</ele><time>2026-03-22T12:05:35.457Z</time></trkpt><trkpt lat="44.6734167" lon="10.617085"><ele>69.0</ele><time>2026-03-22T12:05:37.457Z</time></trkpt><trkpt lat="44.6733917" lon="10.6169883"><ele>69.0</ele><time>2026-03-22T12:05:39.457Z</time></trkpt><trkpt lat="44.6733617" lon="10.6168817"><ele>69.0</ele><time>2026-03-22T12:05:41.458Z</time></trkpt><trkpt lat="44.6733367" lon="10.6167867"><ele>69.0</ele><time>2026-03-22T12:05:43.458Z</time></trkpt><trkpt lat="44.6733067" lon="10.61669"><ele>69.0</ele><time>2026-03-22T12:05:45.457Z</time></trkpt><trkpt lat="44.6732733" lon="10.6165867"><ele>69.0</ele><time>2026-03-22T12:05:47.457Z</time></trkpt><trkpt lat="44.6732433" lon="10.61649"><ele>69.28571428571429</ele><time>2026-03-22T12:05:49.457Z</time></trkpt><trkpt lat="44.673215" lon="10.6163967"><ele>69.57142857142858</ele><time>2026-03-22T12:05:51.457Z</time></trkpt><trkpt lat="44.6731967" lon="10.61631"><ele>69.85714285714286</ele><time>2026-03-22T12:05:53.457Z</time></trkpt><trkpt lat="44.67318" lon="10.6162167"><ele>70.14285714285714</ele><time>2026-03-22T12:05:55.457Z</time></trkpt><trkpt lat="44.673165" lon="10.6161283"><ele>70.42857142857142</ele><time>2026-03-22T12:05:57.457Z</time></trkpt><trkpt lat="44.6731483" lon="10.6160417"><ele>70.71428571428571</ele><time>2026-03-22T12:05:59.457Z</time></trkpt><trkpt lat="44.6731083" lon="10.61593"><ele>71.0</ele><time>2026-03-22T12:06:02.458Z</time></trkpt><trkpt lat="44.67307" lon="10.6158217"><ele>71.66666666666667</ele><time>2026-03-22T12:06:05.457Z</time></trkpt><trkpt lat="44.673045" lon="10.6157267"><ele>72.33333333333334</ele><time>2026-03-22T12:06:07.457Z</time></trkpt><trkpt lat="44.6730083" lon="10.615615"><ele>73.0</ele><time>2026-03-22T12:06:09.457Z</time></trkpt><trkpt lat="44.6729767" lon="10.615505"><ele>73.66666666666667</ele><time>2026-03-22T12:06:11.457Z</time></trkpt><trkpt lat="44.67294" lon="10.6153983"><ele>74.33333333333333</ele><time>2026-03-22T12:06:13.457Z</time></trkpt><trkpt lat="44.6729033" lon="10.61529"><ele>75.0</ele><time>2026-03-22T12:06:15.458Z</time></trkpt><trkpt lat="44.6728717" lon="10.6151883"><ele>75.8</ele><time>2026-03-22T12:06:17.458Z</time></trkpt><trkpt lat="44.6728267" lon="10.6150833"><ele>76.6</ele><time>2026-03-22T12:06:19.457Z</time></trkpt><trkpt lat="44.67278" lon="10.6149817"><ele>77.4</ele><time>2026-03-22T12:06:21.457Z</time></trkpt><trkpt lat="44.6727383" lon="10.6148717"><ele>78.2</ele><time>2026-03-22T12:06:23.457Z</time></trkpt><trkpt lat="44.6726867" lon="10.6147583"><ele>79.0</ele><time>2026-03-22T12:06:25.457Z</time></trkpt><trkpt lat="44.6726317" lon="10.6146517"><ele>78.0</ele><time>2026-03-22T12:06:27.457Z</time></trkpt><trkpt lat="44.6725917" lon="10.6145533"><ele>77.0</ele><time>2026-03-22T12:06:29.457Z</time></trkpt><trkpt lat="44.6725567" lon="10.6144467"><ele>76.0</ele><time>2026-03-22T12:06:31.457Z</time></trkpt><trkpt lat="44.6724983" lon="10.6143433"><ele>75.0</ele><time>2026-03-22T12:06:33.457Z</time></trkpt><trkpt lat="44.6724367" lon="10.6142433"><ele>74.0</ele><time>2026-03-22T12:06:35.457Z</time></trkpt><trkpt lat="44.6723783" lon="10.61414"><ele>73.0</ele><time>2026-03-22T12:06:37.457Z</time></trkpt><trkpt lat="44.6723217" lon="10.6140417"><ele>73.0</ele><time>2026-03-22T12:06:39.458Z</time></trkpt><trkpt lat="44.67226" lon="10.6139383"><ele>73.0</ele><time>2026-03-22T12:06:41.457Z</time></trkpt><trkpt lat="44.6722067" lon="10.6137983"><ele>73.0</ele><time>2026-03-22T12:06:44.457Z</time></trkpt><trkpt lat="44.67216" lon="10.61369"><ele>73.0</ele><time>2026-03-22T12:06:46.457Z</time></trkpt><trkpt lat="44.6721017" lon="10.613605"><ele>73.0</ele><time>2026-03-22T12:06:48.457Z</time></trkpt><trkpt lat="44.6720317" lon="10.6135367"><ele>73.0</ele><time>2026-03-22T12:06:50.457Z</time></trkpt><trkpt lat="44.671965" lon="10.6134667"><ele>73.0</ele><time>2026-03-22T12:06:52.457Z</time></trkpt><trkpt lat="44.6718983" lon="10.6134017"><ele>73.0</ele><time>2026-03-22T12:06:54.457Z</time></trkpt><trkpt lat="44.6718317" lon="10.6133317"><ele>73.0</ele><time>2026-03-22T12:06:56.457Z</time></trkpt><trkpt lat="44.6717817" lon="10.6132483"><ele>73.0</ele><time>2026-03-22T12:06:58.457Z</time></trkpt><trkpt lat="44.6717433" lon="10.61316"><ele>73.0</ele><time>2026-03-22T12:07:00.457Z</time></trkpt><trkpt lat="44.6716917" lon="10.6130583"><ele>73.0</ele><time>2026-03-22T12:07:03.457Z</time></trkpt><trkpt lat="44.6716483" lon="10.6129433"><ele>73.0</ele><time>2026-03-22T12:07:06.457Z</time></trkpt><trkpt lat="44.6716167" lon="10.6128383"><ele>73.0</ele><time>2026-03-22T12:07:09.457Z</time></trkpt><trkpt lat="44.6715617" lon="10.612745"><ele>73.0</ele><time>2026-03-22T12:07:12.457Z</time></trkpt><trkpt lat="44.6715283" lon="10.6126517"><ele>73.0</ele><time>2026-03-22T12:07:15.458Z</time></trkpt><trkpt lat="44.67149" lon="10.6125583"><ele>73.0</ele><time>2026-03-22T12:07:18.457Z</time></trkpt><trkpt lat="44.6714367" lon="10.6124533"><ele>73.0</ele><time>2026-03-22T12:07:21.457Z</time></trkpt><trkpt lat="44.6713983" lon="10.6123683"><ele>73.0</ele><time>2026-03-22T12:07:23.457Z</time></trkpt><trkpt lat="44.6713467" lon="10.6122867"><ele>73.0</ele><time>2026-03-22T12:07:25.458Z</time></trkpt><trkpt lat="44.6712883" lon="10.6121983"><ele>73.0</ele><time>2026-03-22T12:07:27.457Z</time></trkpt><trkpt lat="44.671225" lon="10.6121067"><ele>73.0</ele><time>2026-03-22T12:07:29.457Z</time></trkpt><trkpt lat="44.671165" lon="10.6120133"><ele>73.0</ele><time>2026-03-22T12:07:31.458Z</time></trkpt><trkpt lat="44.6710933" lon="10.6119367"><ele>72.66666666666666</ele><time>2026-03-22T12:07:33.458Z</time></trkpt><trkpt lat="44.6710233" lon="10.611855"><ele>72.33333333333333</ele><time>2026-03-22T12:07:35.457Z</time></trkpt><trkpt lat="44.670965" lon="10.61177"><ele>72.0</ele><time>2026-03-22T12:07:37.457Z</time></trkpt><trkpt lat="44.670885" lon="10.6117117"><ele>71.66666666666667</ele><time>2026-03-22T12:07:39.457Z</time></trkpt><trkpt lat="44.6708017" lon="10.6116683"><ele>71.33333333333334</ele><time>2026-03-22T12:07:41.457Z</time></trkpt><trkpt lat="44.6707267" lon="10.6116083"><ele>71.0</ele><time>2026-03-22T12:07:43.457Z</time></trkpt><trkpt lat="44.670665" lon="10.6115367"><ele>71.0</ele><time>2026-03-22T12:07:45.457Z</time></trkpt><trkpt lat="44.6705983" lon="10.6114617"><ele>71.0</ele><time>2026-03-22T12:07:47.457Z</time></trkpt><trkpt lat="44.670535" lon="10.61138"><ele>71.0</ele><time>2026-03-22T12:07:49.457Z</time></trkpt><trkpt lat="44.670475" lon="10.6113033"><ele>71.0</ele><time>2026-03-22T12:07:51.457Z</time></trkpt><trkpt lat="44.67042" lon="10.611225"><ele>71.0</ele><time>2026-03-22T12:07:53.457Z</time></trkpt><trkpt lat="44.670365" lon="10.6111367"><ele>71.0</ele><time>2026-03-22T12:07:55.457Z</time></trkpt><trkpt lat="44.6703033" lon="10.61105"><ele>71.39999999999999</ele><time>2026-03-22T12:07:57.457Z</time></trkpt><trkpt lat="44.670235" lon="10.61097"><ele>71.8</ele><time>2026-03-22T12:07:59.457Z</time></trkpt><trkpt lat="44.6701633" lon="10.6108867"><ele>72.19999999999999</ele><time>2026-03-22T12:08:01.457Z</time></trkpt><trkpt lat="44.67009" lon="10.6108033"><ele>72.6</ele><time>2026-03-22T12:08:03.457Z</time></trkpt><trkpt lat="44.6700217" lon="10.6107167"><ele>73.0</ele><time>2026-03-22T12:08:05.457Z</time></trkpt><trkpt lat="44.6699533" lon="10.6106333"><ele>73.0</ele><time>2026-03-22T12:08:07.457Z</time></trkpt><trkpt lat="44.6698833" lon="10.610545"><ele>73.0</ele><time>2026-03-22T12:08:09.458Z</time></trkpt><trkpt lat="44.6698117" lon="10.61045"><ele>73.0</ele><time>2026-03-22T12:08:11.458Z</time></trkpt><trkpt lat="44.6697417" lon="10.6103483"><ele>73.0</ele><time>2026-03-22T12:08:13.458Z</time></trkpt><trkpt lat="44.6696617" lon="10.6102483"><ele>73.0</ele><time>2026-03-22T12:08:15.458Z</time></trkpt><trkpt lat="44.66959" lon="10.6101333"><ele>73.2</ele><time>2026-03-22T12:08:17.458Z</time></trkpt><trkpt lat="44.6695167" lon="10.6100183"><ele>73.4</ele><time>2026-03-22T12:08:19.458Z</time></trkpt><trkpt lat="44.6694567" lon="10.6098833"><ele>73.60000000000001</ele><time>2026-03-22T12:08:21.458Z</time></trkpt><trkpt lat="44.6694167" lon="10.6097617"><ele>73.8</ele><time>2026-03-22T12:08:23.458Z</time></trkpt><trkpt lat="44.66938" lon="10.60963"><ele>74.0</ele><time>2026-03-22T12:08:25.458Z</time></trkpt><trkpt lat="44.6693433" lon="10.6095033"><ele>74.0</ele><time>2026-03-22T12:08:27.458Z</time></trkpt><trkpt lat="44.6693083" lon="10.6093817"><ele>74.0</ele><time>2026-03-22T12:08:29.458Z</time></trkpt><trkpt lat="44.669275" lon="10.6092567"><ele>74.0</ele><time>2026-03-22T12:08:31.458Z</time></trkpt><trkpt lat="44.66924" lon="10.6091317"><ele>74.0</ele><time>2026-03-22T12:08:33.458Z</time></trkpt><trkpt lat="44.66921" lon="10.6089933"><ele>74.0</ele><time>2026-03-22T12:08:35.458Z</time></trkpt><trkpt lat="44.66919" lon="10.60887"><ele>74.0</ele><time>2026-03-22T12:08:37.459Z</time></trkpt><trkpt lat="44.669185" lon="10.6087383"><ele>74.0</ele><time>2026-03-22T12:08:39.458Z</time></trkpt><trkpt lat="44.66918" lon="10.6086217"><ele>74.0</ele><time>2026-03-22T12:08:41.458Z</time></trkpt><trkpt lat="44.6691833" lon="10.6085183"><ele>74.0</ele><time>2026-03-22T12:08:43.459Z</time></trkpt><trkpt lat="44.6691817" lon="10.60842"><ele>74.0</ele><time>2026-03-22T12:08:45.459Z</time></trkpt><trkpt lat="44.6691783" lon="10.6083217"><ele>74.0</ele><time>2026-03-22T12:08:47.458Z</time></trkpt><trkpt lat="44.6691817" lon="10.6082167"><ele>74.16666666666667</ele><time>2026-03-22T12:08:49.458Z</time></trkpt><trkpt lat="44.66918" lon="10.6081"><ele>74.33333333333334</ele><time>2026-03-22T12:08:51.458Z</time></trkpt><trkpt lat="44.6691717" lon="10.6079833"><ele>74.5</ele><time>2026-03-22T12:08:53.458Z</time></trkpt><trkpt lat="44.6691717" lon="10.6078583"><ele>74.66666666666667</ele><time>2026-03-22T12:08:55.458Z</time></trkpt><trkpt lat="44.669165" lon="10.6077483"><ele>74.83333333333333</ele><time>2026-03-22T12:08:57.458Z</time></trkpt><trkpt lat="44.6691633" lon="10.607645"><ele>75.0</ele><time>2026-03-22T12:08:59.459Z</time></trkpt><trkpt lat="44.66917" lon="10.607535"><ele>75.0</ele><time>2026-03-22T12:09:01.459Z</time></trkpt><trkpt lat="44.6691633" lon="10.60742"><ele>75.0</ele><time>2026-03-22T12:09:03.458Z</time></trkpt><trkpt lat="44.669145" lon="10.60731"><ele>75.0</ele><time>2026-03-22T12:09:05.458Z</time></trkpt><trkpt lat="44.6691317" lon="10.6072017"><ele>75.0</ele><time>2026-03-22T12:09:07.459Z</time></trkpt><trkpt lat="44.66912" lon="10.6070933"><ele>75.0</ele><time>2026-03-22T12:09:09.458Z</time></trkpt><trkpt lat="44.669105" lon="10.60698"><ele>75.0</ele><time>2026-03-22T12:09:11.458Z</time></trkpt><trkpt lat="44.6690783" lon="10.6068633"><ele>75.0</ele><time>2026-03-22T12:09:13.458Z</time></trkpt><trkpt lat="44.6690667" lon="10.6067517"><ele>75.0</ele><time>2026-03-22T12:09:15.458Z</time></trkpt><trkpt lat="44.6690567" lon="10.60665"><ele>75.0</ele><time>2026-03-22T12:09:17.458Z</time></trkpt><trkpt lat="44.66905" lon="10.60654"><ele>75.0</ele><time>2026-03-22T12:09:19.458Z</time></trkpt><trkpt lat="44.6690483" lon="10.6064317"><ele>75.0</ele><time>2026-03-22T12:09:21.458Z</time></trkpt><trkpt lat="44.6690417" lon="10.6063133"><ele>75.0</ele><time>2026-03-22T12:09:23.458Z</time></trkpt><trkpt lat="44.6690333" lon="10.6061967"><ele>75.16666666666667</ele><time>2026-03-22T12:09:25.459Z</time></trkpt><trkpt lat="44.6690317" lon="10.6060767"><ele>75.33333333333333</ele><time>2026-03-22T12:09:27.458Z</time></trkpt><trkpt lat="44.6690217" lon="10.6059533"><ele>75.5</ele><time>2026-03-22T12:09:29.459Z</time></trkpt><trkpt lat="44.6690067" lon="10.6058333"><ele>75.66666666666666</ele><time>2026-03-22T12:09:31.458Z</time></trkpt><trkpt lat="44.6689933" lon="10.6057217"><ele>75.83333333333333</ele><time>2026-03-22T12:09:33.458Z</time></trkpt><trkpt lat="44.6689817" lon="10.6056217"><ele>76.0</ele><time>2026-03-22T12:09:35.458Z</time></trkpt><trkpt lat="44.6689683" lon="10.6055117"><ele>76.0</ele><time>2026-03-22T12:09:37.459Z</time></trkpt><trkpt lat="44.668955" lon="10.6053967"><ele>76.0</ele><time>2026-03-22T12:09:39.458Z</time></trkpt><trkpt lat="44.66895" lon="10.6052567"><ele>76.0</ele><time>2026-03-22T12:09:42.458Z</time></trkpt><trkpt lat="44.6689417" lon="10.6051517"><ele>76.0</ele><time>2026-03-22T12:09:44.458Z</time></trkpt><trkpt lat="44.6689233" lon="10.6050117"><ele>76.0</ele><time>2026-03-22T12:09:46.458Z</time></trkpt><trkpt lat="44.66892" lon="10.604905"><ele>76.0</ele><time>2026-03-22T12:09:48.458Z</time></trkpt><trkpt lat="44.6689067" lon="10.604775"><ele>76.16666666666666</ele><time>2026-03-22T12:09:50.458Z</time></trkpt><trkpt lat="44.6689" lon="10.60467"><ele>76.33333333333333</ele><time>2026-03-22T12:09:52.458Z</time></trkpt><trkpt lat="44.6689083" lon="10.6045667"><ele>76.5</ele><time>2026-03-22T12:09:54.458Z</time></trkpt><trkpt lat="44.6689083" lon="10.604475"><ele>76.66666666666667</ele><time>2026-03-22T12:09:56.458Z</time></trkpt><trkpt lat="44.6689033" lon="10.6043733"><ele>76.83333333333334</ele><time>2026-03-22T12:09:58.459Z</time></trkpt><trkpt lat="44.6689" lon="10.6042517"><ele>77.0</ele><time>2026-03-22T12:10:00.459Z</time></trkpt><trkpt lat="44.6689067" lon="10.6041217"><ele>77.25</ele><time>2026-03-22T12:10:02.458Z</time></trkpt><trkpt lat="44.6688983" lon="10.6039417"><ele>77.5</ele><time>2026-03-22T12:10:04.459Z</time></trkpt><trkpt lat="44.6688983" lon="10.6037717"><ele>77.75</ele><time>2026-03-22T12:10:06.458Z</time></trkpt><trkpt lat="44.668885" lon="10.6036117"><ele>78.0</ele><time>2026-03-22T12:10:08.458Z</time></trkpt><trkpt lat="44.6688683" lon="10.6034567"><ele>78.0</ele><time>2026-03-22T12:10:10.458Z</time></trkpt><trkpt lat="44.6688317" lon="10.60331"><ele>78.0</ele><time>2026-03-22T12:10:12.458Z</time></trkpt><trkpt lat="44.6687917" lon="10.6031917"><ele>78.0</ele><time>2026-03-22T12:10:14.459Z</time></trkpt><trkpt lat="44.668745" lon="10.6030867"><ele>78.0</ele><time>2026-03-22T12:10:16.458Z</time></trkpt><trkpt lat="44.6686817" lon="10.603005"><ele>78.0</ele><time>2026-03-22T12:10:18.458Z</time></trkpt><trkpt lat="44.66862" lon="10.602935"><ele>77.66666666666667</ele><time>2026-03-22T12:10:20.458Z</time></trkpt><trkpt lat="44.66856" lon="10.602865"><ele>77.33333333333333</ele><time>2026-03-22T12:10:22.459Z</time></trkpt><trkpt lat="44.6685067" lon="10.60277"><ele>77.0</ele><time>2026-03-22T12:10:24.458Z</time></trkpt><trkpt lat="44.6684717" lon="10.6026733"><ele>76.66666666666666</ele><time>2026-03-22T12:10:26.458Z</time></trkpt><trkpt lat="44.66844" lon="10.60259"><ele>76.33333333333333</ele><time>2026-03-22T12:10:28.458Z</time></trkpt><trkpt lat="44.6684017" lon="10.6025"><ele>76.0</ele><time>2026-03-22T12:10:30.458Z</time></trkpt><trkpt lat="44.66836" lon="10.6024217"><ele>76.0</ele><time>2026-03-22T12:10:32.458Z</time></trkpt><trkpt lat="44.6683283" lon="10.6023433"><ele>76.0</ele><time>2026-03-22T12:10:34.458Z</time></trkpt><trkpt lat="44.66829" lon="10.6022367"><ele>76.0</ele><time>2026-03-22T12:10:37.458Z</time></trkpt><trkpt lat="44.6682517" lon="10.6021317"><ele>76.0</ele><time>2026-03-22T12:10:40.458Z</time></trkpt><trkpt lat="44.66821" lon="10.602045"><ele>76.0</ele><time>2026-03-22T12:10:42.459Z</time></trkpt><trkpt lat="44.66817" lon="10.6019583"><ele>76.0</ele><time>2026-03-22T12:10:44.458Z</time></trkpt><trkpt lat="44.66814" lon="10.601875"><ele>76.0</ele><time>2026-03-22T12:10:46.459Z</time></trkpt><trkpt lat="44.6681117" lon="10.601785"><ele>76.42857142857143</ele><time>2026-03-22T12:10:48.458Z</time></trkpt><trkpt lat="44.6680767" lon="10.6016867"><ele>76.85714285714286</ele><time>2026-03-22T12:10:50.458Z</time></trkpt><trkpt lat="44.6680417" lon="10.6015933"><ele>77.28571428571429</ele><time>2026-03-22T12:10:52.459Z</time></trkpt><trkpt lat="44.6680017" lon="10.6015133"><ele>77.71428571428572</ele><time>2026-03-22T12:10:54.459Z</time></trkpt><trkpt lat="44.66795" lon="10.6014617"><ele>78.14285714285714</ele><time>2026-03-22T12:10:56.458Z</time></trkpt><trkpt lat="44.6678617" lon="10.6014217"><ele>78.57142857142858</ele><time>2026-03-22T12:10:59.458Z</time></trkpt><trkpt lat="44.6677983" lon="10.6014067"><ele>79.0</ele><time>2026-03-22T12:11:01.458Z</time></trkpt><trkpt lat="44.66773" lon="10.601395"><ele>79.14285714285715</ele><time>2026-03-22T12:11:03.458Z</time></trkpt><trkpt lat="44.6676633" lon="10.6014117"><ele>79.28571428571429</ele><time>2026-03-22T12:11:05.458Z</time></trkpt><trkpt lat="44.66759" lon="10.601455"><ele>79.42857142857143</ele><time>2026-03-22T12:11:08.458Z</time></trkpt><trkpt lat="44.667525" lon="10.6014867"><ele>79.57142857142858</ele><time>2026-03-22T12:11:10.458Z</time></trkpt><trkpt lat="44.6674467" lon="10.6014583"><ele>79.71428571428572</ele><time>2026-03-22T12:11:13.458Z</time></trkpt><trkpt lat="44.667455" lon="10.6013533"><ele>79.85714285714286</ele><time>2026-03-22T12:11:15.458Z</time></trkpt><trkpt lat="44.667395" lon="10.601295"><ele>80.0</ele><time>2026-03-22T12:11:17.458Z</time></trkpt><trkpt lat="44.6673117" lon="10.60127"><ele>80.0</ele><time>2026-03-22T12:11:19.458Z</time></trkpt><trkpt lat="44.667235" lon="10.6012667"><ele>80.0</ele><time>2026-03-22T12:11:21.458Z</time></trkpt><trkpt lat="44.667165" lon="10.6012583"><ele>80.0</ele><time>2026-03-22T12:11:23.458Z</time></trkpt><trkpt lat="44.6670867" lon="10.601255"><ele>80.0</ele><time>2026-03-22T12:11:25.458Z</time></trkpt><trkpt lat="44.6670133" lon="10.6012483"><ele>80.0</ele><time>2026-03-22T12:11:28.458Z</time></trkpt><trkpt lat="44.6669317" lon="10.6012183"><ele>80.0</ele><time>2026-03-22T12:11:31.458Z</time></trkpt><trkpt lat="44.66685" lon="10.6011917"><ele>80.2</ele><time>2026-03-22T12:11:34.458Z</time></trkpt><trkpt lat="44.6667767" lon="10.60121"><ele>80.4</ele><time>2026-03-22T12:11:36.458Z</time></trkpt><trkpt lat="44.6666817" lon="10.60125"><ele>80.6</ele><time>2026-03-22T12:11:39.458Z</time></trkpt><trkpt lat="44.66659" lon="10.601325"><ele>80.8</ele><time>2026-03-22T12:11:41.458Z</time></trkpt><trkpt lat="44.6664733" lon="10.601375"><ele>81.0</ele><time>2026-03-22T12:11:43.458Z</time></trkpt><trkpt lat="44.6664117" lon="10.601395"><ele>81.0</ele><time>2026-03-22T12:11:44.458Z</time></trkpt><trkpt lat="44.666345" lon="10.6014017"><ele>81.0</ele><time>2026-03-22T12:11:45.459Z</time></trkpt><trkpt lat="44.66622" lon="10.6014017"><ele>81.0</ele><time>2026-03-22T12:11:47.458Z</time></trkpt><trkpt lat="44.666125" lon="10.6013933"><ele>81.0</ele><time>2026-03-22T12:11:49.458Z</time></trkpt><trkpt lat="44.66602" lon="10.6013917"><ele>81.0</ele><time>2026-03-22T12:11:51.459Z</time></trkpt><trkpt lat="44.6659167" lon="10.6013767"><ele>80.8</ele><time>2026-03-22T12:11:53.459Z</time></trkpt><trkpt lat="44.66582" lon="10.6013733"><ele>80.6</ele><time>2026-03-22T12:11:55.458Z</time></trkpt><trkpt lat="44.6657233" lon="10.6013833"><ele>80.4</ele><time>2026-03-22T12:11:57.459Z</time></trkpt><trkpt lat="44.6656283" lon="10.601415"><ele>80.2</ele><time>2026-03-22T12:11:59.458Z</time></trkpt><trkpt lat="44.6655317" lon="10.6014533"><ele>80.0</ele><time>2026-03-22T12:12:01.459Z</time></trkpt><trkpt lat="44.66544" lon="10.6014967"><ele>80.0</ele><time>2026-03-22T12:12:03.458Z</time></trkpt><trkpt lat="44.6653583" lon="10.6015483"><ele>80.0</ele><time>2026-03-22T12:12:05.458Z</time></trkpt><trkpt lat="44.6652817" lon="10.6016167"><ele>80.0</ele><time>2026-03-22T12:12:07.458Z</time></trkpt><trkpt lat="44.6652167" lon="10.6016883"><ele>80.0</ele><time>2026-03-22T12:12:09.458Z</time></trkpt><trkpt lat="44.6651467" lon="10.6017633"><ele>80.0</ele><time>2026-03-22T12:12:11.458Z</time></trkpt><trkpt lat="44.665055" lon="10.6018267"><ele>80.0</ele><time>2026-03-22T12:12:13.458Z</time></trkpt><trkpt lat="44.664965" lon="10.6018833"><ele>80.0</ele><time>2026-03-22T12:12:15.459Z</time></trkpt><trkpt lat="44.664885" lon="10.6019367"><ele>80.0</ele><time>2026-03-22T12:12:17.459Z</time></trkpt><trkpt lat="44.6648033" lon="10.6019667"><ele>80.0</ele><time>2026-03-22T12:12:19.459Z</time></trkpt><trkpt lat="44.6647183" lon="10.602005"><ele>80.0</ele><time>2026-03-22T12:12:22.459Z</time></trkpt><trkpt lat="44.6646567" lon="10.60203"><ele>80.0</ele><time>2026-03-22T12:12:24.458Z</time></trkpt><trkpt lat="44.6645733" lon="10.6020667"><ele>80.0</ele><time>2026-03-22T12:12:27.458Z</time></trkpt><trkpt lat="44.66449" lon="10.6021017"><ele>80.0</ele><time>2026-03-22T12:12:30.459Z</time></trkpt><trkpt lat="44.664405" lon="10.60212"><ele>80.0</ele><time>2026-03-22T12:12:32.459Z</time></trkpt><trkpt lat="44.6643233" lon="10.602125"><ele>80.0</ele><time>2026-03-22T12:12:34.458Z</time></trkpt><trkpt lat="44.6642483" lon="10.6021433"><ele>80.0</ele><time>2026-03-22T12:12:36.458Z</time></trkpt><trkpt lat="44.6641717" lon="10.6021567"><ele>80.0</ele><time>2026-03-22T12:12:38.458Z</time></trkpt><trkpt lat="44.6640967" lon="10.6021717"><ele>80.16666666666667</ele><time>2026-03-22T12:12:40.458Z</time></trkpt><trkpt lat="44.6640217" lon="10.6021833"><ele>80.33333333333334</ele><time>2026-03-22T12:12:42.458Z</time></trkpt><trkpt lat="44.6639583" lon="10.602205"><ele>80.5</ele><time>2026-03-22T12:12:44.459Z</time></trkpt><trkpt lat="44.66387" lon="10.602235"><ele>80.66666666666667</ele><time>2026-03-22T12:12:47.458Z</time></trkpt><trkpt lat="44.66381" lon="10.6023217"><ele>80.83333333333333</ele><time>2026-03-22T12:12:50.458Z</time></trkpt><trkpt lat="44.6637617" lon="10.602435"><ele>81.0</ele><time>2026-03-22T12:12:53.458Z</time></trkpt><trkpt lat="44.663715" lon="10.6025067"><ele>81.0</ele><time>2026-03-22T12:12:55.458Z</time></trkpt><trkpt lat="44.6636667" lon="10.60257"><ele>81.0</ele><time>2026-03-22T12:12:57.458Z</time></trkpt><trkpt lat="44.663605" lon="10.6026367"><ele>81.0</ele><time>2026-03-22T12:12:59.458Z</time></trkpt><trkpt lat="44.6635283" lon="10.6026933"><ele>81.0</ele><time>2026-03-22T12:13:01.458Z</time></trkpt><trkpt lat="44.6634333" lon="10.6027433"><ele>81.0</ele><time>2026-03-22T12:13:04.459Z</time></trkpt><trkpt lat="44.6633567" lon="10.6027483"><ele>81.0</ele><time>2026-03-22T12:13:06.458Z</time></trkpt><trkpt lat="44.66326" lon="10.6027283"><ele>81.16666666666667</ele><time>2026-03-22T12:13:08.458Z</time></trkpt><trkpt lat="44.6631817" lon="10.60273"><ele>81.33333333333333</ele><time>2026-03-22T12:13:10.458Z</time></trkpt><trkpt lat="44.6630983" lon="10.60275"><ele>81.5</ele><time>2026-03-22T12:13:12.459Z</time></trkpt><trkpt lat="44.663015" lon="10.602775"><ele>81.66666666666666</ele><time>2026-03-22T12:13:14.459Z</time></trkpt><trkpt lat="44.6629333" lon="10.6027933"><ele>81.83333333333333</ele><time>2026-03-22T12:13:16.459Z</time></trkpt><trkpt lat="44.6628417" lon="10.602805"><ele>82.0</ele><time>2026-03-22T12:13:18.459Z</time></trkpt><trkpt lat="44.66276" lon="10.60283"><ele>81.66666666666666</ele><time>2026-03-22T12:13:20.458Z</time></trkpt><trkpt lat="44.6626767" lon="10.6028483"><ele>81.33333333333333</ele><time>2026-03-22T12:13:22.458Z</time></trkpt><trkpt lat="44.6625967" lon="10.6028617"><ele>81.0</ele><time>2026-03-22T12:13:24.458Z</time></trkpt><trkpt lat="44.66252" lon="10.6028733"><ele>80.66666666666667</ele><time>2026-03-22T12:13:26.458Z</time></trkpt><trkpt lat="44.662455" lon="10.6028833"><ele>80.33333333333334</ele><time>2026-03-22T12:13:28.458Z</time></trkpt><trkpt lat="44.662385" lon="10.60288"><ele>80.0</ele><time>2026-03-22T12:13:30.458Z</time></trkpt><trkpt lat="44.66229" lon="10.602865"><ele>80.33333333333334</ele><time>2026-03-22T12:13:32.458Z</time></trkpt><trkpt lat="44.6622117" lon="10.6028217"><ele>80.66666666666667</ele><time>2026-03-22T12:13:34.458Z</time></trkpt><trkpt lat="44.6621433" lon="10.60274"><ele>81.0</ele><time>2026-03-22T12:13:37.458Z</time></trkpt><trkpt lat="44.6620933" lon="10.602685"><ele>81.33333333333333</ele><time>2026-03-22T12:13:39.458Z</time></trkpt><trkpt lat="44.662025" lon="10.60264"><ele>81.66666666666666</ele><time>2026-03-22T12:13:41.458Z</time></trkpt><trkpt lat="44.661955" lon="10.6025983"><ele>82.0</ele><time>2026-03-22T12:13:43.458Z</time></trkpt><trkpt lat="44.6618833" lon="10.602555"><ele>82.16666666666666</ele><time>2026-03-22T12:13:45.458Z</time></trkpt><trkpt lat="44.6618017" lon="10.6025217"><ele>82.33333333333333</ele><time>2026-03-22T12:13:47.459Z</time></trkpt><trkpt lat="44.6617167" lon="10.6024917"><ele>82.5</ele><time>2026-03-22T12:13:49.459Z</time></trkpt><trkpt lat="44.661635" lon="10.6024633"><ele>82.66666666666667</ele><time>2026-03-22T12:13:51.459Z</time></trkpt><trkpt lat="44.6615567" lon="10.6024617"><ele>82.83333333333334</ele><time>2026-03-22T12:13:53.458Z</time></trkpt><trkpt lat="44.66147" lon="10.6024567"><ele>83.0</ele><time>2026-03-22T12:13:55.458Z</time></trkpt><trkpt lat="44.6613917" lon="10.602435"><ele>83.0</ele><time>2026-03-22T12:13:57.458Z</time></trkpt><trkpt lat="44.6613267" lon="10.6023867"><ele>83.0</ele><time>2026-03-22T12:13:59.458Z</time></trkpt><trkpt lat="44.66126" lon="10.6023317"><ele>83.0</ele><time>2026-03-22T12:14:01.459Z</time></trkpt><trkpt lat="44.6612017" lon="10.6022833"><ele>83.0</ele><time>2026-03-22T12:14:03.459Z</time></trkpt><trkpt lat="44.6611383" lon="10.6022183"><ele>83.0</ele><time>2026-03-22T12:14:06.459Z</time></trkpt><trkpt lat="44.661065" lon="10.6021483"><ele>83.0</ele><time>2026-03-22T12:14:09.458Z</time></trkpt><trkpt lat="44.661" lon="10.6021117"><ele>83.0</ele><time>2026-03-22T12:14:11.458Z</time></trkpt><trkpt lat="44.6609167" lon="10.6020633"><ele>83.0</ele><time>2026-03-22T12:14:14.459Z</time></trkpt><trkpt lat="44.6608233" lon="10.6020133"><ele>83.0</ele><time>2026-03-22T12:14:17.46Z</time></trkpt><trkpt lat="44.66075" lon="10.6019883"><ele>83.0</ele><time>2026-03-22T12:14:19.459Z</time></trkpt><trkpt lat="44.6606717" lon="10.60196"><ele>83.0</ele><time>2026-03-22T12:14:21.46Z</time></trkpt><trkpt lat="44.6605967" lon="10.6019267"><ele>83.0</ele><time>2026-03-22T12:14:23.459Z</time></trkpt><trkpt lat="44.6605283" lon="10.6018917"><ele>83.14285714285714</ele><time>2026-03-22T12:14:25.459Z</time></trkpt><trkpt lat="44.66047" lon="10.6018367"><ele>83.28571428571429</ele><time>2026-03-22T12:14:27.459Z</time></trkpt><trkpt lat="44.6604167" lon="10.6017683"><ele>83.42857142857143</ele><time>2026-03-22T12:14:29.46Z</time></trkpt><trkpt lat="44.660365" lon="10.601715"><ele>83.57142857142857</ele><time>2026-03-22T12:14:31.459Z</time></trkpt><trkpt lat="44.660305" lon="10.6016617"><ele>83.71428571428572</ele><time>2026-03-22T12:14:33.459Z</time></trkpt><trkpt lat="44.6602333" lon="10.60161"><ele>83.85714285714286</ele><time>2026-03-22T12:14:35.46Z</time></trkpt><trkpt lat="44.6601717" lon="10.601565"><ele>84.0</ele><time>2026-03-22T12:14:37.459Z</time></trkpt><trkpt lat="44.660105" lon="10.6015217"><ele>84.0</ele><time>2026-03-22T12:14:39.46Z</time></trkpt><trkpt lat="44.6600233" lon="10.60148"><ele>84.0</ele><time>2026-03-22T12:14:41.459Z</time></trkpt><trkpt lat="44.65994" lon="10.60144"><ele>84.0</ele><time>2026-03-22T12:14:43.459Z</time></trkpt><trkpt lat="44.6598617" lon="10.6013933"><ele>84.0</ele><time>2026-03-22T12:14:45.46Z</time></trkpt><trkpt lat="44.6597917" lon="10.6013433"><ele>84.0</ele><time>2026-03-22T12:14:47.459Z</time></trkpt><trkpt lat="44.6597267" lon="10.6012817"><ele>84.0</ele><time>2026-03-22T12:14:49.459Z</time></trkpt><trkpt lat="44.6596733" lon="10.60121"><ele>84.16666666666667</ele><time>2026-03-22T12:14:51.459Z</time></trkpt><trkpt lat="44.6596233" lon="10.601115"><ele>84.33333333333333</ele><time>2026-03-22T12:14:53.459Z</time></trkpt><trkpt lat="44.659575" lon="10.60103"><ele>84.5</ele><time>2026-03-22T12:14:55.459Z</time></trkpt><trkpt lat="44.6595267" lon="10.6009417"><ele>84.66666666666666</ele><time>2026-03-22T12:14:57.459Z</time></trkpt><trkpt lat="44.659475" lon="10.6008533"><ele>84.83333333333333</ele><time>2026-03-22T12:14:59.459Z</time></trkpt><trkpt lat="44.6594233" lon="10.6007817"><ele>85.0</ele><time>2026-03-22T12:15:01.459Z</time></trkpt><trkpt lat="44.659355" lon="10.6006933"><ele>85.0</ele><time>2026-03-22T12:15:04.46Z</time></trkpt><trkpt lat="44.6592933" lon="10.600645"><ele>85.0</ele><time>2026-03-22T12:15:06.46Z</time></trkpt><trkpt lat="44.6592233" lon="10.600615"><ele>85.0</ele><time>2026-03-22T12:15:08.459Z</time></trkpt><trkpt lat="44.6591517" lon="10.6005867"><ele>85.0</ele><time>2026-03-22T12:15:10.459Z</time></trkpt><trkpt lat="44.659075" lon="10.6005633"><ele>85.0</ele><time>2026-03-22T12:15:12.46Z</time></trkpt><trkpt lat="44.659" lon="10.60054"><ele>85.0</ele><time>2026-03-22T12:15:14.459Z</time></trkpt><trkpt lat="44.65893" lon="10.600515"><ele>85.0</ele><time>2026-03-22T12:15:16.459Z</time></trkpt><trkpt lat="44.65886" lon="10.6004883"><ele>85.0</ele><time>2026-03-22T12:15:18.46Z</time></trkpt><trkpt lat="44.65879" lon="10.600465"><ele>85.0</ele><time>2026-03-22T12:15:20.459Z</time></trkpt><trkpt lat="44.6587217" lon="10.6004417"><ele>85.0</ele><time>2026-03-22T12:15:22.459Z</time></trkpt><trkpt lat="44.65865" lon="10.6003983"><ele>85.0</ele><time>2026-03-22T12:15:24.459Z</time></trkpt><trkpt lat="44.6585733" lon="10.6003433"><ele>85.0</ele><time>2026-03-22T12:15:26.459Z</time></trkpt><trkpt lat="44.6584967" lon="10.6002917"><ele>85.0</ele><time>2026-03-22T12:15:28.459Z</time></trkpt><trkpt lat="44.65842" lon="10.6002417"><ele>85.16666666666666</ele><time>2026-03-22T12:15:30.459Z</time></trkpt><trkpt lat="44.658345" lon="10.6001867"><ele>85.33333333333333</ele><time>2026-03-22T12:15:32.459Z</time></trkpt><trkpt lat="44.658275" lon="10.6001333"><ele>85.5</ele><time>2026-03-22T12:15:34.459Z</time></trkpt><trkpt lat="44.6582033" lon="10.6000883"><ele>85.66666666666667</ele><time>2026-03-22T12:15:36.459Z</time></trkpt><trkpt lat="44.6581317" lon="10.6000333"><ele>85.83333333333334</ele><time>2026-03-22T12:15:38.459Z</time></trkpt><trkpt lat="44.65806" lon="10.5999833"><ele>86.0</ele><time>2026-03-22T12:15:40.46Z</time></trkpt><trkpt lat="44.6579933" lon="10.599925"><ele>86.0</ele><time>2026-03-22T12:15:42.459Z</time></trkpt><trkpt lat="44.6579233" lon="10.59986"><ele>86.0</ele><time>2026-03-22T12:15:44.459Z</time></trkpt><trkpt lat="44.6578583" lon="10.5997983"><ele>86.0</ele><time>2026-03-22T12:15:46.459Z</time></trkpt><trkpt lat="44.65779" lon="10.5997367"><ele>86.0</ele><time>2026-03-22T12:15:48.459Z</time></trkpt><trkpt lat="44.6577283" lon="10.5996667"><ele>86.0</ele><time>2026-03-22T12:15:50.459Z</time></trkpt><trkpt lat="44.657665" lon="10.5996033"><ele>86.0</ele><time>2026-03-22T12:15:52.459Z</time></trkpt><trkpt lat="44.657595" lon="10.59953"><ele>86.19999999999999</ele><time>2026-03-22T12:15:54.46Z</time></trkpt><trkpt lat="44.657525" lon="10.5994633"><ele>86.39999999999999</ele><time>2026-03-22T12:15:56.46Z</time></trkpt><trkpt lat="44.6574533" lon="10.5993967"><ele>86.6</ele><time>2026-03-22T12:15:58.46Z</time></trkpt><trkpt lat="44.65737" lon="10.599335"><ele>86.8</ele><time>2026-03-22T12:16:00.459Z</time></trkpt><trkpt lat="44.6572833" lon="10.5992733"><ele>87.0</ele><time>2026-03-22T12:16:02.459Z</time></trkpt><trkpt lat="44.6571967" lon="10.5992283"><ele>87.0</ele><time>2026-03-22T12:16:04.459Z</time></trkpt><trkpt lat="44.65711" lon="10.599175"><ele>87.0</ele><time>2026-03-22T12:16:06.46Z</time></trkpt><trkpt lat="44.6570383" lon="10.5991217"><ele>87.0</ele><time>2026-03-22T12:16:08.459Z</time></trkpt><trkpt lat="44.656955" lon="10.5990733"><ele>87.0</ele><time>2026-03-22T12:16:10.459Z</time></trkpt><trkpt lat="44.656875" lon="10.5990183"><ele>87.0</ele><time>2026-03-22T12:16:12.459Z</time></trkpt><trkpt lat="44.6567983" lon="10.5989617"><ele>87.0</ele><time>2026-03-22T12:16:14.459Z</time></trkpt><trkpt lat="44.65672" lon="10.598905"><ele>86.83333333333333</ele><time>2026-03-22T12:16:16.459Z</time></trkpt><trkpt lat="44.65665" lon="10.598855"><ele>86.66666666666667</ele><time>2026-03-22T12:16:18.46Z</time></trkpt><trkpt lat="44.6565783" lon="10.598805"><ele>86.5</ele><time>2026-03-22T12:16:20.459Z</time></trkpt><trkpt lat="44.65651" lon="10.5987567"><ele>86.33333333333334</ele><time>2026-03-22T12:16:22.459Z</time></trkpt><trkpt lat="44.6564367" lon="10.59871"><ele>86.16666666666667</ele><time>2026-03-22T12:16:24.459Z</time></trkpt><trkpt lat="44.656365" lon="10.5986467"><ele>86.0</ele><time>2026-03-22T12:16:26.459Z</time></trkpt><trkpt lat="44.6562983" lon="10.5985833"><ele>86.33333333333334</ele><time>2026-03-22T12:16:28.459Z</time></trkpt><trkpt lat="44.6562317" lon="10.5985367"><ele>86.66666666666667</ele><time>2026-03-22T12:16:30.46Z</time></trkpt><trkpt lat="44.656155" lon="10.5984933"><ele>87.0</ele><time>2026-03-22T12:16:32.459Z</time></trkpt><trkpt lat="44.6560767" lon="10.5984633"><ele>87.33333333333333</ele><time>2026-03-22T12:16:34.459Z</time></trkpt><trkpt lat="44.6560017" lon="10.5984333"><ele>87.66666666666666</ele><time>2026-03-22T12:16:36.459Z</time></trkpt><trkpt lat="44.6559267" lon="10.5984117"><ele>88.0</ele><time>2026-03-22T12:16:38.459Z</time></trkpt><trkpt lat="44.65586" lon="10.598365"><ele>88.14285714285714</ele><time>2026-03-22T12:16:40.459Z</time></trkpt><trkpt lat="44.655825" lon="10.5982767"><ele>88.28571428571428</ele><time>2026-03-22T12:16:42.459Z</time></trkpt><trkpt lat="44.6558017" lon="10.5981767"><ele>88.42857142857142</ele><time>2026-03-22T12:16:44.459Z</time></trkpt><trkpt lat="44.655805" lon="10.598075"><ele>88.57142857142857</ele><time>2026-03-22T12:16:46.46Z</time></trkpt><trkpt lat="44.6558017" lon="10.5979767"><ele>88.71428571428571</ele><time>2026-03-22T12:16:48.459Z</time></trkpt><trkpt lat="44.6557517" lon="10.5978983"><ele>88.85714285714285</ele><time>2026-03-22T12:16:51.459Z</time></trkpt><trkpt lat="44.6557183" lon="10.597985"><ele>89.0</ele><time>2026-03-22T12:16:56.459Z</time></trkpt><trkpt lat="44.655705" lon="10.598085"><ele>89.0</ele><time>2026-03-22T12:16:59.459Z</time></trkpt><trkpt lat="44.6556917" lon="10.5982083"><ele>89.0</ele><time>2026-03-22T12:17:02.459Z</time></trkpt><trkpt lat="44.65565" lon="10.5983233"><ele>89.0</ele><time>2026-03-22T12:17:05.459Z</time></trkpt><trkpt lat="44.6555533" lon="10.59831"><ele>89.0</ele><time>2026-03-22T12:17:10.459Z</time></trkpt><trkpt lat="44.6554717" lon="10.5982533"><ele>89.0</ele><time>2026-03-22T12:17:12.459Z</time></trkpt><trkpt lat="44.6554" lon="10.5981833"><ele>89.0</ele><time>2026-03-22T12:17:14.459Z</time></trkpt><trkpt lat="44.6553283" lon="10.5981233"><ele>89.0</ele><time>2026-03-22T12:17:16.459Z</time></trkpt><trkpt lat="44.65526" lon="10.5980667"><ele>89.0</ele><time>2026-03-22T12:17:18.459Z</time></trkpt><trkpt lat="44.655195" lon="10.5979967"><ele>89.0</ele><time>2026-03-22T12:17:20.46Z</time></trkpt><trkpt lat="44.655125" lon="10.5979333"><ele>89.0</ele><time>2026-03-22T12:17:22.459Z</time></trkpt><trkpt lat="44.655055" lon="10.5978767"><ele>89.0</ele><time>2026-03-22T12:17:24.459Z</time></trkpt><trkpt lat="44.654985" lon="10.597815"><ele>89.5</ele><time>2026-03-22T12:17:26.459Z</time></trkpt><trkpt lat="44.6549183" lon="10.5977567"><ele>90.0</ele><time>2026-03-22T12:17:28.459Z</time></trkpt><trkpt lat="44.6548483" lon="10.597695"><ele>90.5</ele><time>2026-03-22T12:17:30.459Z</time></trkpt><trkpt lat="44.65478" lon="10.597625"><ele>91.0</ele><time>2026-03-22T12:17:32.459Z</time></trkpt><trkpt lat="44.6547067" lon="10.597565"><ele>91.5</ele><time>2026-03-22T12:17:34.46Z</time></trkpt><trkpt lat="44.6546433" lon="10.597505"><ele>92.0</ele><time>2026-03-22T12:17:36.459Z</time></trkpt><trkpt lat="44.65458" lon="10.5974517"><ele>92.0</ele><time>2026-03-22T12:17:38.459Z</time></trkpt><trkpt lat="44.6545067" lon="10.5974017"><ele>92.0</ele><time>2026-03-22T12:17:40.459Z</time></trkpt><trkpt lat="44.654445" lon="10.5973367"><ele>92.0</ele><time>2026-03-22T12:17:42.46Z</time></trkpt><trkpt lat="44.6543817" lon="10.5972733"><ele>92.0</ele><time>2026-03-22T12:17:44.459Z</time></trkpt><trkpt lat="44.654315" lon="10.59722"><ele>92.0</ele><time>2026-03-22T12:17:46.459Z</time></trkpt><trkpt lat="44.6542433" lon="10.597155"><ele>92.0</ele><time>2026-03-22T12:17:48.459Z</time></trkpt><trkpt lat="44.6541733" lon="10.5970833"><ele>92.0</ele><time>2026-03-22T12:17:50.459Z</time></trkpt><trkpt lat="44.6541033" lon="10.59701"><ele>92.0</ele><time>2026-03-22T12:17:52.46Z</time></trkpt><trkpt lat="44.6540333" lon="10.5969417"><ele>92.0</ele><time>2026-03-22T12:17:54.459Z</time></trkpt><trkpt lat="44.6539617" lon="10.5968733"><ele>92.0</ele><time>2026-03-22T12:17:56.459Z</time></trkpt><trkpt lat="44.653895" lon="10.5967983"><ele>92.0</ele><time>2026-03-22T12:17:58.459Z</time></trkpt><trkpt lat="44.65383" lon="10.5967317"><ele>92.0</ele><time>2026-03-22T12:18:00.46Z</time></trkpt><trkpt lat="44.6537617" lon="10.5966667"><ele>92.0</ele><time>2026-03-22T12:18:02.459Z</time></trkpt><trkpt lat="44.653685" lon="10.5966033"><ele>92.0</ele><time>2026-03-22T12:18:04.459Z</time></trkpt><trkpt lat="44.6536117" lon="10.5965383"><ele>92.0</ele><time>2026-03-22T12:18:06.459Z</time></trkpt><trkpt lat="44.6535383" lon="10.59648"><ele>92.0</ele><time>2026-03-22T12:18:08.459Z</time></trkpt><trkpt lat="44.6534717" lon="10.5964183"><ele>92.0</ele><time>2026-03-22T12:18:10.459Z</time></trkpt><trkpt lat="44.653405" lon="10.5963567"><ele>92.0</ele><time>2026-03-22T12:18:12.459Z</time></trkpt><trkpt lat="44.65333" lon="10.5963033"><ele>92.16666666666667</ele><time>2026-03-22T12:18:14.459Z</time></trkpt><trkpt lat="44.6532617" lon="10.596245"><ele>92.33333333333334</ele><time>2026-03-22T12:18:16.459Z</time></trkpt><trkpt lat="44.6531967" lon="10.5961933"><ele>92.5</ele><time>2026-03-22T12:18:18.46Z</time></trkpt><trkpt lat="44.6531367" lon="10.5961283"><ele>92.66666666666667</ele><time>2026-03-22T12:18:20.459Z</time></trkpt><trkpt lat="44.6530733" lon="10.59607"><ele>92.83333333333333</ele><time>2026-03-22T12:18:22.459Z</time></trkpt><trkpt lat="44.6530133" lon="10.5960117"><ele>93.0</ele><time>2026-03-22T12:18:24.459Z</time></trkpt><trkpt lat="44.6529533" lon="10.5959483"><ele>93.14285714285715</ele><time>2026-03-22T12:18:26.459Z</time></trkpt><trkpt lat="44.6528983" lon="10.5958783"><ele>93.28571428571429</ele><time>2026-03-22T12:18:28.459Z</time></trkpt><trkpt lat="44.65284" lon="10.595835"><ele>93.42857142857143</ele><time>2026-03-22T12:18:30.46Z</time></trkpt><trkpt lat="44.6527817" lon="10.5957633"><ele>93.57142857142858</ele><time>2026-03-22T12:18:32.459Z</time></trkpt><trkpt lat="44.6527267" lon="10.5956983"><ele>93.71428571428571</ele><time>2026-03-22T12:18:34.459Z</time></trkpt><trkpt lat="44.6526733" lon="10.5956167"><ele>93.85714285714286</ele><time>2026-03-22T12:18:36.459Z</time></trkpt><trkpt lat="44.6526183" lon="10.5955417"><ele>94.0</ele><time>2026-03-22T12:18:38.46Z</time></trkpt><trkpt lat="44.6525667" lon="10.595465"><ele>94.0</ele><time>2026-03-22T12:18:40.459Z</time></trkpt><trkpt lat="44.65252" lon="10.59538"><ele>94.0</ele><time>2026-03-22T12:18:42.46Z</time></trkpt><trkpt lat="44.6524733" lon="10.5953083"><ele>94.0</ele><time>2026-03-22T12:18:44.459Z</time></trkpt><trkpt lat="44.6524133" lon="10.595255"><ele>94.0</ele><time>2026-03-22T12:18:46.46Z</time></trkpt><trkpt lat="44.6523583" lon="10.5951933"><ele>94.0</ele><time>2026-03-22T12:18:48.459Z</time></trkpt><trkpt lat="44.6523" lon="10.5951317"><ele>94.0</ele><time>2026-03-22T12:18:50.459Z</time></trkpt><trkpt lat="44.6522383" lon="10.5950633"><ele>94.0</ele><time>2026-03-22T12:18:52.459Z</time></trkpt><trkpt lat="44.6521667" lon="10.5950017"><ele>94.0</ele><time>2026-03-22T12:18:54.46Z</time></trkpt><trkpt lat="44.652095" lon="10.5949283"><ele>94.0</ele><time>2026-03-22T12:18:56.459Z</time></trkpt><trkpt lat="44.6520217" lon="10.5948567"><ele>94.0</ele><time>2026-03-22T12:18:58.459Z</time></trkpt><trkpt lat="44.6519533" lon="10.594795"><ele>94.0</ele><time>2026-03-22T12:19:00.46Z</time></trkpt><trkpt lat="44.6518783" lon="10.59473"><ele>94.0</ele><time>2026-03-22T12:19:02.459Z</time></trkpt><trkpt lat="44.65181" lon="10.5946633"><ele>94.0</ele><time>2026-03-22T12:19:04.459Z</time></trkpt><trkpt lat="44.6517417" lon="10.5946017"><ele>93.85714285714286</ele><time>2026-03-22T12:19:06.46Z</time></trkpt><trkpt lat="44.651675" lon="10.5945483"><ele>93.71428571428571</ele><time>2026-03-22T12:19:08.459Z</time></trkpt><trkpt lat="44.6516083" lon="10.5945017"><ele>93.57142857142858</ele><time>2026-03-22T12:19:10.459Z</time></trkpt><trkpt lat="44.65154" lon="10.594445"><ele>93.42857142857143</ele><time>2026-03-22T12:19:12.459Z</time></trkpt><trkpt lat="44.65148" lon="10.5944067"><ele>93.28571428571429</ele><time>2026-03-22T12:19:14.459Z</time></trkpt><trkpt lat="44.6514117" lon="10.59439"><ele>93.14285714285715</ele><time>2026-03-22T12:19:16.459Z</time></trkpt><trkpt lat="44.65134" lon="10.5943517"><ele>93.0</ele><time>2026-03-22T12:19:19.459Z</time></trkpt><trkpt lat="44.65128" lon="10.5943017"><ele>93.33333333333333</ele><time>2026-03-22T12:19:22.459Z</time></trkpt><trkpt lat="44.6512133" lon="10.59427"><ele>93.66666666666667</ele><time>2026-03-22T12:19:26.459Z</time></trkpt><trkpt lat="44.6511533" lon="10.5942333"><ele>94.0</ele><time>2026-03-22T12:19:30.459Z</time></trkpt><trkpt lat="44.6510783" lon="10.594195"><ele>94.33333333333334</ele><time>2026-03-22T12:19:33.46Z</time></trkpt><trkpt lat="44.651015" lon="10.5941767"><ele>94.66666666666667</ele><time>2026-03-22T12:19:35.459Z</time></trkpt><trkpt lat="44.650925" lon="10.594165"><ele>95.0</ele><time>2026-03-22T12:19:37.459Z</time></trkpt><trkpt lat="44.65083" lon="10.594145"><ele>95.0</ele><time>2026-03-22T12:19:39.459Z</time></trkpt><trkpt lat="44.650745" lon="10.5941083"><ele>95.0</ele><time>2026-03-22T12:19:41.459Z</time></trkpt><trkpt lat="44.650665" lon="10.5940883"><ele>95.0</ele><time>2026-03-22T12:19:43.459Z</time></trkpt><trkpt lat="44.65059" lon="10.5940617"><ele>95.0</ele><time>2026-03-22T12:19:45.459Z</time></trkpt><trkpt lat="44.650515" lon="10.59403"><ele>95.0</ele><time>2026-03-22T12:19:47.46Z</time></trkpt><trkpt lat="44.6504367" lon="10.5939933"><ele>95.0</ele><time>2026-03-22T12:19:49.459Z</time></trkpt><trkpt lat="44.6503533" lon="10.5939567"><ele>95.33333333333334</ele><time>2026-03-22T12:19:51.459Z</time></trkpt><trkpt lat="44.6502783" lon="10.5939233"><ele>95.66666666666667</ele><time>2026-03-22T12:19:53.459Z</time></trkpt><trkpt lat="44.6502" lon="10.5938917"><ele>96.0</ele><time>2026-03-22T12:19:55.459Z</time></trkpt><trkpt lat="44.65012" lon="10.5938667"><ele>96.33333333333334</ele><time>2026-03-22T12:19:57.459Z</time></trkpt><trkpt lat="44.65004" lon="10.5938433"><ele>96.66666666666667</ele><time>2026-03-22T12:19:59.46Z</time></trkpt><trkpt lat="44.6499567" lon="10.5938083"><ele>97.0</ele><time>2026-03-22T12:20:01.46Z</time></trkpt><trkpt lat="44.649875" lon="10.5937733"><ele>97.00000000000001</ele><time>2026-03-22T12:20:03.46Z</time></trkpt><trkpt lat="44.6497983" lon="10.593735"><ele>97.0</ele><time>2026-03-22T12:20:05.46Z</time></trkpt><trkpt lat="44.6497167" lon="10.5936733"><ele>97.0</ele><time>2026-03-22T12:20:07.46Z</time></trkpt><trkpt lat="44.64964" lon="10.59363"><ele>97.0</ele><time>2026-03-22T12:20:09.46Z</time></trkpt><trkpt lat="44.6495583" lon="10.5935833"><ele>97.00000000000001</ele><time>2026-03-22T12:20:11.461Z</time></trkpt><trkpt lat="44.6494833" lon="10.5935517"><ele>97.0</ele><time>2026-03-22T12:20:13.461Z</time></trkpt><trkpt lat="44.649405" lon="10.5935183"><ele>96.83333333333334</ele><time>2026-03-22T12:20:15.46Z</time></trkpt><trkpt lat="44.6493283" lon="10.593495"><ele>96.66666666666667</ele><time>2026-03-22T12:20:17.46Z</time></trkpt><trkpt lat="44.6492533" lon="10.5934567"><ele>96.5</ele><time>2026-03-22T12:20:19.46Z</time></trkpt><trkpt lat="44.6491817" lon="10.5934267"><ele>96.33333333333334</ele><time>2026-03-22T12:20:21.46Z</time></trkpt><trkpt lat="44.6491017" lon="10.593385"><ele>96.16666666666667</ele><time>2026-03-22T12:20:23.461Z</time></trkpt><trkpt lat="44.649035" lon="10.5933517"><ele>96.0</ele><time>2026-03-22T12:20:25.46Z</time></trkpt><trkpt lat="44.6489617" lon="10.593315"><ele>95.99999999999999</ele><time>2026-03-22T12:20:27.46Z</time></trkpt><trkpt lat="44.6488967" lon="10.5932733"><ele>96.0</ele><time>2026-03-22T12:20:29.46Z</time></trkpt><trkpt lat="44.64883" lon="10.593235"><ele>96.0</ele><time>2026-03-22T12:20:31.46Z</time></trkpt><trkpt lat="44.6487517" lon="10.5932"><ele>96.0</ele><time>2026-03-22T12:20:33.46Z</time></trkpt><trkpt lat="44.6486767" lon="10.5931633"><ele>96.0</ele><time>2026-03-22T12:20:35.46Z</time></trkpt><trkpt lat="44.6486083" lon="10.5931333"><ele>95.99999999999999</ele><time>2026-03-22T12:20:37.46Z</time></trkpt><trkpt lat="44.6485433" lon="10.5931067"><ele>96.0</ele><time>2026-03-22T12:20:39.46Z</time></trkpt><trkpt lat="44.648475" lon="10.59308"><ele>96.0</ele><time>2026-03-22T12:20:41.46Z</time></trkpt><trkpt lat="44.6484033" lon="10.5930367"><ele>96.0</ele><time>2026-03-22T12:20:43.461Z</time></trkpt><trkpt lat="44.648325" lon="10.592995"><ele>96.0</ele><time>2026-03-22T12:20:45.461Z</time></trkpt><trkpt lat="44.6482583" lon="10.59296"><ele>96.0</ele><time>2026-03-22T12:20:47.46Z</time></trkpt><trkpt lat="44.6481883" lon="10.5929267"><ele>96.0</ele><time>2026-03-22T12:20:49.46Z</time></trkpt><trkpt lat="44.6481183" lon="10.5928933"><ele>96.0</ele><time>2026-03-22T12:20:51.46Z</time></trkpt><trkpt lat="44.64804" lon="10.5928483"><ele>96.16666666666667</ele><time>2026-03-22T12:20:53.46Z</time></trkpt><trkpt lat="44.6479817" lon="10.5928067"><ele>96.33333333333334</ele><time>2026-03-22T12:20:54.461Z</time></trkpt><trkpt lat="44.64789" lon="10.5927617"><ele>96.5</ele><time>2026-03-22T12:20:56.46Z</time></trkpt><trkpt lat="44.647805" lon="10.5927083"><ele>96.66666666666667</ele><time>2026-03-22T12:20:58.46Z</time></trkpt><trkpt lat="44.6477233" lon="10.5926567"><ele>96.83333333333334</ele><time>2026-03-22T12:21:00.46Z</time></trkpt><trkpt lat="44.6476367" lon="10.5926183"><ele>97.0</ele><time>2026-03-22T12:21:02.46Z</time></trkpt><trkpt lat="44.6475667" lon="10.5926033"><ele>97.16666666666667</ele><time>2026-03-22T12:21:04.46Z</time></trkpt><trkpt lat="44.6474767" lon="10.5925633"><ele>97.33333333333334</ele><time>2026-03-22T12:21:07.46Z</time></trkpt><trkpt lat="44.6474" lon="10.5925533"><ele>97.5</ele><time>2026-03-22T12:21:10.46Z</time></trkpt><trkpt lat="44.6473283" lon="10.59254"><ele>97.66666666666666</ele><time>2026-03-22T12:21:13.46Z</time></trkpt><trkpt lat="44.64726" lon="10.5925233"><ele>97.83333333333333</ele><time>2026-03-22T12:21:16.46Z</time></trkpt><trkpt lat="44.6471783" lon="10.5925083"><ele>98.0</ele><time>2026-03-22T12:21:20.461Z</time></trkpt><trkpt lat="44.6471083" lon="10.59247"><ele>97.99999999999999</ele><time>2026-03-22T12:21:25.46Z</time></trkpt><trkpt lat="44.6470483" lon="10.5924367"><ele>98.0</ele><time>2026-03-22T12:21:28.46Z</time></trkpt><trkpt lat="44.64698" lon="10.5923917"><ele>98.0</ele><time>2026-03-22T12:21:30.461Z</time></trkpt><trkpt lat="44.646895" lon="10.592345"><ele>98.0</ele><time>2026-03-22T12:21:32.46Z</time></trkpt><trkpt lat="44.6468033" lon="10.5922817"><ele>97.99999999999999</ele><time>2026-03-22T12:21:34.46Z</time></trkpt><trkpt lat="44.6467033" lon="10.5922167"><ele>98.0</ele><time>2026-03-22T12:21:36.46Z</time></trkpt><trkpt lat="44.6466133" lon="10.5921383"><ele>97.99999999999999</ele><time>2026-03-22T12:21:38.46Z</time></trkpt><trkpt lat="44.64653" lon="10.5920617"><ele>98.0</ele><time>2026-03-22T12:21:40.461Z</time></trkpt><trkpt lat="44.646455" lon="10.59199"><ele>98.0</ele><time>2026-03-22T12:21:42.46Z</time></trkpt><trkpt lat="44.646385" lon="10.5919333"><ele>98.0</ele><time>2026-03-22T12:21:44.46Z</time></trkpt><trkpt lat="44.6463217" lon="10.5918667"><ele>97.99999999999999</ele><time>2026-03-22T12:21:46.46Z</time></trkpt><trkpt lat="44.646255" lon="10.5918067"><ele>98.0</ele><time>2026-03-22T12:21:48.46Z</time></trkpt><trkpt lat="44.6461933" lon="10.591745"><ele>97.99999999999999</ele><time>2026-03-22T12:21:50.46Z</time></trkpt><trkpt lat="44.6461467" lon="10.5916733"><ele>98.0</ele><time>2026-03-22T12:21:52.46Z</time></trkpt><trkpt lat="44.6461183" lon="10.59157"><ele>98.0</ele><time>2026-03-22T12:21:54.46Z</time></trkpt><trkpt lat="44.6461017" lon="10.5914417"><ele>98.0</ele><time>2026-03-22T12:21:56.46Z</time></trkpt><trkpt lat="44.6460867" lon="10.5913367"><ele>97.99999999999999</ele><time>2026-03-22T12:21:58.46Z</time></trkpt><trkpt lat="44.6460867" lon="10.591245"><ele>98.0</ele><time>2026-03-22T12:22:00.46Z</time></trkpt><trkpt lat="44.646085" lon="10.5911417"><ele>97.99999999999999</ele><time>2026-03-22T12:22:03.461Z</time></trkpt><trkpt lat="44.6460783" lon="10.5910383"><ele>98.0</ele><time>2026-03-22T12:22:06.46Z</time></trkpt><trkpt lat="44.64608" lon="10.5909283"><ele>98.0</ele><time>2026-03-22T12:22:09.46Z</time></trkpt><trkpt lat="44.6460717" lon="10.5908367"><ele>98.0</ele><time>2026-03-22T12:22:12.46Z</time></trkpt><trkpt lat="44.6460533" lon="10.5907317"><ele>97.99999999999999</ele><time>2026-03-22T12:22:15.46Z</time></trkpt><trkpt lat="44.64604" lon="10.5906217"><ele>98.0</ele><time>2026-03-22T12:22:18.461Z</time></trkpt><trkpt lat="44.6460217" lon="10.5905133"><ele>97.99999999999999</ele><time>2026-03-22T12:22:21.46Z</time></trkpt><trkpt lat="44.6460033" lon="10.5903967"><ele>98.0</ele><time>2026-03-22T12:22:24.46Z</time></trkpt><trkpt lat="44.6459883" lon="10.590285"><ele>98.0</ele><time>2026-03-22T12:22:26.46Z</time></trkpt><trkpt lat="44.64598" lon="10.5901883"><ele>98.0</ele><time>2026-03-22T12:22:28.46Z</time></trkpt><trkpt lat="44.645965" lon="10.5900717"><ele>97.99999999999999</ele><time>2026-03-22T12:22:31.46Z</time></trkpt><trkpt lat="44.645955" lon="10.5899533"><ele>98.0</ele><time>2026-03-22T12:22:35.46Z</time></trkpt><trkpt lat="44.6459317" lon="10.589865"><ele>98.16666666666666</ele><time>2026-03-22T12:22:38.46Z</time></trkpt><trkpt lat="44.6459033" lon="10.5897567"><ele>98.33333333333333</ele><time>2026-03-22T12:22:42.46Z</time></trkpt><trkpt lat="44.645875" lon="10.589675"><ele>98.5</ele><time>2026-03-22T12:22:45.461Z</time></trkpt><trkpt lat="44.6458483" lon="10.5895633"><ele>98.66666666666666</ele><time>2026-03-22T12:22:48.46Z</time></trkpt><trkpt lat="44.6458217" lon="10.5894633"><ele>98.83333333333333</ele><time>2026-03-22T12:22:51.461Z</time></trkpt><trkpt lat="44.645795" lon="10.5893533"><ele>99.0</ele><time>2026-03-22T12:22:54.46Z</time></trkpt><trkpt lat="44.645775" lon="10.589235"><ele>99.5</ele><time>2026-03-22T12:22:57.461Z</time></trkpt><trkpt lat="44.6457433" lon="10.589135"><ele>100.0</ele><time>2026-03-22T12:23:00.461Z</time></trkpt><trkpt lat="44.6457083" lon="10.58902"><ele>100.5</ele><time>2026-03-22T12:23:03.46Z</time></trkpt><trkpt lat="44.6456583" lon="10.588905"><ele>101.0</ele><time>2026-03-22T12:23:06.461Z</time></trkpt><trkpt lat="44.6456217" lon="10.588825"><ele>101.5</ele><time>2026-03-22T12:23:08.461Z</time></trkpt><trkpt lat="44.645575" lon="10.5887583"><ele>102.0</ele><time>2026-03-22T12:23:10.461Z</time></trkpt><trkpt lat="44.6455417" lon="10.588665"><ele>102.5</ele><time>2026-03-22T12:23:12.46Z</time></trkpt><trkpt lat="44.645505" lon="10.5885717"><ele>103.0</ele><time>2026-03-22T12:23:14.461Z</time></trkpt><trkpt lat="44.6454567" lon="10.58847"><ele>103.5</ele><time>2026-03-22T12:23:17.461Z</time></trkpt><trkpt lat="44.6453983" lon="10.5884217"><ele>104.0</ele><time>2026-03-22T12:23:19.46Z</time></trkpt><trkpt lat="44.6453333" lon="10.5883883"><ele>104.5</ele><time>2026-03-22T12:23:21.46Z</time></trkpt><trkpt lat="44.6452467" lon="10.5883217"><ele>105.0</ele><time>2026-03-22T12:23:24.461Z</time></trkpt><trkpt lat="44.6451817" lon="10.58827"><ele>105.0</ele><time>2026-03-22T12:23:27.46Z</time></trkpt><trkpt lat="44.6451083" lon="10.5881933"><ele>105.0</ele><time>2026-03-22T12:23:30.46Z</time></trkpt><trkpt lat="44.645035" lon="10.588125"><ele>105.0</ele><time>2026-03-22T12:23:33.46Z</time></trkpt><trkpt lat="44.6449867" lon="10.5880533"><ele>105.0</ele><time>2026-03-22T12:23:36.46Z</time></trkpt><trkpt lat="44.644945" lon="10.5879733"><ele>105.0</ele><time>2026-03-22T12:23:39.46Z</time></trkpt><trkpt lat="44.6448633" lon="10.5879033"><ele>105.0</ele><time>2026-03-22T12:23:42.46Z</time></trkpt><trkpt lat="44.64481" lon="10.58785"><ele>105.14285714285714</ele><time>2026-03-22T12:23:44.46Z</time></trkpt><trkpt lat="44.6447433" lon="10.587775"><ele>105.28571428571428</ele><time>2026-03-22T12:23:47.46Z</time></trkpt><trkpt lat="44.6446717" lon="10.5876983"><ele>105.42857142857143</ele><time>2026-03-22T12:23:50.461Z</time></trkpt><trkpt lat="44.6446233" lon="10.587635"><ele>105.57142857142857</ele><time>2026-03-22T12:23:53.46Z</time></trkpt><trkpt lat="44.6445617" lon="10.587575"><ele>105.71428571428571</ele><time>2026-03-22T12:23:57.46Z</time></trkpt><trkpt lat="44.6445133" lon="10.5875117"><ele>105.85714285714286</ele><time>2026-03-22T12:24:00.461Z</time></trkpt><trkpt lat="44.6444683" lon="10.587445"><ele>106.0</ele><time>2026-03-22T12:24:03.46Z</time></trkpt><trkpt lat="44.6444217" lon="10.5873817"><ele>106.0</ele><time>2026-03-22T12:24:06.46Z</time></trkpt><trkpt lat="44.644375" lon="10.587295"><ele>106.0</ele><time>2026-03-22T12:24:10.46Z</time></trkpt><trkpt lat="44.6443233" lon="10.5872167"><ele>106.0</ele><time>2026-03-22T12:24:14.46Z</time></trkpt><trkpt lat="44.644275" lon="10.5871333"><ele>106.0</ele><time>2026-03-22T12:24:18.46Z</time></trkpt><trkpt lat="44.6442283" lon="10.5870483"><ele>106.0</ele><time>2026-03-22T12:24:21.46Z</time></trkpt><trkpt lat="44.6441917" lon="10.58697"><ele>106.0</ele><time>2026-03-22T12:24:24.46Z</time></trkpt><trkpt lat="44.644155" lon="10.5868917"><ele>106.0</ele><time>2026-03-22T12:24:27.461Z</time></trkpt><trkpt lat="44.6441133" lon="10.5867967"><ele>106.66666666666667</ele><time>2026-03-22T12:24:30.46Z</time></trkpt><trkpt lat="44.6440517" lon="10.5867417"><ele>107.33333333333334</ele><time>2026-03-22T12:24:33.461Z</time></trkpt><trkpt lat="44.6439667" lon="10.5867233"><ele>108.0</ele><time>2026-03-22T12:24:36.46Z</time></trkpt><trkpt lat="44.643885" lon="10.5867083"><ele>108.66666666666666</ele><time>2026-03-22T12:24:39.46Z</time></trkpt><trkpt lat="44.6438067" lon="10.58669"><ele>109.33333333333333</ele><time>2026-03-22T12:24:42.46Z</time></trkpt><trkpt lat="44.6437267" lon="10.5867433"><ele>110.0</ele><time>2026-03-22T12:24:46.461Z</time></trkpt><trkpt lat="44.64368" lon="10.58684"><ele>109.99999999999999</ele><time>2026-03-22T12:24:49.46Z</time></trkpt><trkpt lat="44.6436567" lon="10.586755"><ele>110.0</ele><time>2026-03-22T12:24:59.461Z</time></trkpt><trkpt lat="44.643675" lon="10.58665"><ele>110.0</ele><time>2026-03-22T12:25:03.46Z</time></trkpt><trkpt lat="44.6436717" lon="10.5865383"><ele>110.0</ele><time>2026-03-22T12:25:06.46Z</time></trkpt><trkpt lat="44.6436533" lon="10.586425"><ele>109.99999999999999</ele><time>2026-03-22T12:25:09.46Z</time></trkpt><trkpt lat="44.64362" lon="10.586315"><ele>110.0</ele><time>2026-03-22T12:25:12.46Z</time></trkpt><trkpt lat="44.6435717" lon="10.5862217"><ele>110.49999999999999</ele><time>2026-03-22T12:25:15.46Z</time></trkpt><trkpt lat="44.643505" lon="10.586135"><ele>111.0</ele><time>2026-03-22T12:25:18.46Z</time></trkpt><trkpt lat="44.64345" lon="10.586085"><ele>111.5</ele><time>2026-03-22T12:25:20.46Z</time></trkpt><trkpt lat="44.643395" lon="10.5860233"><ele>112.0</ele><time>2026-03-22T12:25:22.46Z</time></trkpt><trkpt lat="44.6433367" lon="10.585955"><ele>112.49999999999999</ele><time>2026-03-22T12:25:24.46Z</time></trkpt><trkpt lat="44.643295" lon="10.5858683"><ele>113.0</ele><time>2026-03-22T12:25:26.461Z</time></trkpt><trkpt lat="44.643265" lon="10.5857667"><ele>113.0</ele><time>2026-03-22T12:25:28.461Z</time></trkpt><trkpt lat="44.643255" lon="10.58567"><ele>113.0</ele><time>2026-03-22T12:25:30.46Z</time></trkpt><trkpt lat="44.6432617" lon="10.58557"><ele>113.0</ele><time>2026-03-22T12:25:32.46Z</time></trkpt><trkpt lat="44.6432767" lon="10.5854717"><ele>113.0</ele><time>2026-03-22T12:25:34.46Z</time></trkpt><trkpt lat="44.6432983" lon="10.5853833"><ele>113.0</ele><time>2026-03-22T12:25:36.46Z</time></trkpt><trkpt lat="44.6433383" lon="10.5853"><ele>113.0</ele><time>2026-03-22T12:25:39.46Z</time></trkpt><trkpt lat="44.6433667" lon="10.5852033"><ele>113.0</ele><time>2026-03-22T12:25:42.461Z</time></trkpt><trkpt lat="44.64337" lon="10.5851033"><ele>113.60000000000001</ele><time>2026-03-22T12:25:47.461Z</time></trkpt><trkpt lat="44.6433033" lon="10.5850767"><ele>114.20000000000002</ele><time>2026-03-22T12:25:51.461Z</time></trkpt><trkpt lat="44.6432367" lon="10.585075"><ele>114.8</ele><time>2026-03-22T12:25:53.462Z</time></trkpt><trkpt lat="44.6431233" lon="10.5850733"><ele>115.4</ele><time>2026-03-22T12:25:55.461Z</time></trkpt><trkpt lat="44.642995" lon="10.585085"><ele>116.0</ele><time>2026-03-22T12:25:57.462Z</time></trkpt><trkpt lat="44.6429233" lon="10.5850817"><ele>116.00000000000001</ele><time>2026-03-22T12:25:58.461Z</time></trkpt><trkpt lat="44.6428567" lon="10.5850667"><ele>116.0</ele><time>2026-03-22T12:25:59.461Z</time></trkpt><trkpt lat="44.6427867" lon="10.5850533"><ele>116.00000000000001</ele><time>2026-03-22T12:26:00.461Z</time></trkpt><trkpt lat="44.64272" lon="10.58504"><ele>116.00000000000001</ele><time>2026-03-22T12:26:01.461Z</time></trkpt><trkpt lat="44.6426533" lon="10.585015"><ele>116.0</ele><time>2026-03-22T12:26:02.461Z</time></trkpt><trkpt lat="44.64259" lon="10.5849817"><ele>116.00000000000001</ele><time>2026-03-22T12:26:03.462Z</time></trkpt><trkpt lat="44.6425217" lon="10.58497"><ele>116.00000000000001</ele><time>2026-03-22T12:26:04.461Z</time></trkpt><trkpt lat="44.642455" lon="10.5849467"><ele>114.99999999999999</ele><time>2026-03-22T12:26:05.461Z</time></trkpt><trkpt lat="44.6423833" lon="10.5849117"><ele>114.0</ele><time>2026-03-22T12:26:06.462Z</time></trkpt><trkpt lat="44.6423183" lon="10.5848867"><ele>113.0</ele><time>2026-03-22T12:26:07.462Z</time></trkpt><trkpt lat="44.6422533" lon="10.5848483"><ele>112.0</ele><time>2026-03-22T12:26:08.461Z</time></trkpt><trkpt lat="44.642185" lon="10.5848217"><ele>110.99999999999999</ele><time>2026-03-22T12:26:09.461Z</time></trkpt><trkpt lat="44.64212" lon="10.5847983"><ele>110.0</ele><time>2026-03-22T12:26:10.462Z</time></trkpt><trkpt lat="44.6420017" lon="10.5847567"><ele>109.5</ele><time>2026-03-22T12:26:12.461Z</time></trkpt><trkpt lat="44.6418817" lon="10.5847167"><ele>109.0</ele><time>2026-03-22T12:26:14.461Z</time></trkpt><trkpt lat="44.6417783" lon="10.5846433"><ele>108.5</ele><time>2026-03-22T12:26:16.461Z</time></trkpt><trkpt lat="44.6416783" lon="10.584575"><ele>108.0</ele><time>2026-03-22T12:26:18.462Z</time></trkpt><trkpt lat="44.6415783" lon="10.5845283"><ele>107.83333333333333</ele><time>2026-03-22T12:26:21.461Z</time></trkpt><trkpt lat="44.6415033" lon="10.58451"><ele>107.66666666666666</ele><time>2026-03-22T12:26:23.461Z</time></trkpt><trkpt lat="44.64138" lon="10.58446"><ele>107.5</ele><time>2026-03-22T12:26:25.461Z</time></trkpt><trkpt lat="44.64131" lon="10.584425"><ele>107.33333333333333</ele><time>2026-03-22T12:26:26.461Z</time></trkpt><trkpt lat="44.641245" lon="10.584375"><ele>107.16666666666666</ele><time>2026-03-22T12:26:27.461Z</time></trkpt><trkpt lat="44.64118" lon="10.5843417"><ele>107.0</ele><time>2026-03-22T12:26:28.461Z</time></trkpt><trkpt lat="44.641115" lon="10.5843067"><ele>107.0</ele><time>2026-03-22T12:26:29.461Z</time></trkpt><trkpt lat="44.6410483" lon="10.5842733"><ele>106.99999999999999</ele><time>2026-03-22T12:26:30.461Z</time></trkpt><trkpt lat="44.6409817" lon="10.58424"><ele>106.99999999999999</ele><time>2026-03-22T12:26:31.461Z</time></trkpt><trkpt lat="44.64087" lon="10.5841767"><ele>107.0</ele><time>2026-03-22T12:26:33.461Z</time></trkpt><trkpt lat="44.640775" lon="10.58411"><ele>107.0</ele><time>2026-03-22T12:26:35.461Z</time></trkpt><trkpt lat="44.6406817" lon="10.5840567"><ele>107.0</ele><time>2026-03-22T12:26:37.461Z</time></trkpt><trkpt lat="44.6405917" lon="10.5840217"><ele>106.99999999999999</ele><time>2026-03-22T12:26:39.462Z</time></trkpt><trkpt lat="44.64049" lon="10.5839667"><ele>106.99999999999999</ele><time>2026-03-22T12:26:41.461Z</time></trkpt><trkpt lat="44.6403817" lon="10.5839117"><ele>107.0</ele><time>2026-03-22T12:26:43.461Z</time></trkpt><trkpt lat="44.6402767" lon="10.5838767"><ele>107.0</ele><time>2026-03-22T12:26:45.461Z</time></trkpt><trkpt lat="44.6401933" lon="10.5838167"><ele>107.0</ele><time>2026-03-22T12:26:47.462Z</time></trkpt><trkpt lat="44.6401017" lon="10.583765"><ele>106.99999999999999</ele><time>2026-03-22T12:26:49.461Z</time></trkpt><trkpt lat="44.64001" lon="10.5837167"><ele>106.99999999999999</ele><time>2026-03-22T12:26:51.461Z</time></trkpt><trkpt lat="44.6399267" lon="10.5836633"><ele>107.0</ele><time>2026-03-22T12:26:53.461Z</time></trkpt><trkpt lat="44.6398533" lon="10.5835967"><ele>107.0</ele><time>2026-03-22T12:26:55.461Z</time></trkpt><trkpt lat="44.6398333" lon="10.58349"><ele>107.66666666666666</ele><time>2026-03-22T12:26:57.461Z</time></trkpt><trkpt lat="44.6398217" lon="10.5833867"><ele>108.33333333333333</ele><time>2026-03-22T12:26:59.461Z</time></trkpt><trkpt lat="44.6397467" lon="10.5833183"><ele>109.0</ele><time>2026-03-22T12:27:02.461Z</time></trkpt><trkpt lat="44.6396767" lon="10.5833133"><ele>109.66666666666666</ele><time>2026-03-22T12:27:04.461Z</time></trkpt><trkpt lat="44.6396117" lon="10.583355"><ele>110.33333333333333</ele><time>2026-03-22T12:27:06.461Z</time></trkpt><trkpt lat="44.6395233" lon="10.5833933"><ele>111.0</ele><time>2026-03-22T12:27:08.461Z</time></trkpt><trkpt lat="44.63943" lon="10.5833817"><ele>111.0</ele><time>2026-03-22T12:27:10.461Z</time></trkpt><trkpt lat="44.63935" lon="10.5833317"><ele>111.0</ele><time>2026-03-22T12:27:12.462Z</time></trkpt><trkpt lat="44.6392833" lon="10.5832783"><ele>111.0</ele><time>2026-03-22T12:27:14.462Z</time></trkpt><trkpt lat="44.6392067" lon="10.5832317"><ele>111.0</ele><time>2026-03-22T12:27:16.461Z</time></trkpt><trkpt lat="44.6391283" lon="10.5831867"><ele>111.0</ele><time>2026-03-22T12:27:18.462Z</time></trkpt><trkpt lat="44.639065" lon="10.5831383"><ele>111.0</ele><time>2026-03-22T12:27:20.461Z</time></trkpt><trkpt lat="44.63899" lon="10.5831"><ele>111.0</ele><time>2026-03-22T12:27:22.461Z</time></trkpt><trkpt lat="44.6389167" lon="10.583055"><ele>111.0</ele><time>2026-03-22T12:27:24.462Z</time></trkpt><trkpt lat="44.6388433" lon="10.5830133"><ele>111.0</ele><time>2026-03-22T12:27:26.461Z</time></trkpt><trkpt lat="44.6387667" lon="10.5829683"><ele>111.0</ele><time>2026-03-22T12:27:28.462Z</time></trkpt><trkpt lat="44.638695" lon="10.582915"><ele>111.0</ele><time>2026-03-22T12:27:30.462Z</time></trkpt><trkpt lat="44.638615" lon="10.5828783"><ele>111.0</ele><time>2026-03-22T12:27:32.461Z</time></trkpt><trkpt lat="44.6385433" lon="10.5828417"><ele>111.71428571428571</ele><time>2026-03-22T12:27:34.461Z</time></trkpt><trkpt lat="44.6384633" lon="10.5828117"><ele>112.42857142857144</ele><time>2026-03-22T12:27:36.462Z</time></trkpt><trkpt lat="44.6383933" lon="10.5827617"><ele>113.14285714285715</ele><time>2026-03-22T12:27:38.461Z</time></trkpt><trkpt lat="44.6383317" lon="10.5827183"><ele>113.85714285714286</ele><time>2026-03-22T12:27:40.461Z</time></trkpt><trkpt lat="44.6382717" lon="10.5826767"><ele>114.57142857142858</ele><time>2026-03-22T12:27:42.462Z</time></trkpt><trkpt lat="44.6382033" lon="10.5826433"><ele>115.2857142857143</ele><time>2026-03-22T12:27:44.461Z</time></trkpt><trkpt lat="44.6381367" lon="10.5826117"><ele>116.00000000000001</ele><time>2026-03-22T12:27:46.461Z</time></trkpt><trkpt lat="44.6380517" lon="10.5825717"><ele>116.00000000000001</ele><time>2026-03-22T12:27:49.461Z</time></trkpt><trkpt lat="44.6379783" lon="10.5825417"><ele>116.0</ele><time>2026-03-22T12:27:52.461Z</time></trkpt><trkpt lat="44.6379183" lon="10.582505"><ele>116.00000000000001</ele><time>2026-03-22T12:27:55.461Z</time></trkpt><trkpt lat="44.63784" lon="10.5824617"><ele>116.00000000000001</ele><time>2026-03-22T12:27:59.462Z</time></trkpt><trkpt lat="44.6377783" lon="10.5824267"><ele>116.0</ele><time>2026-03-22T12:28:02.461Z</time></trkpt><trkpt lat="44.63771" lon="10.582405"><ele>116.00000000000001</ele><time>2026-03-22T12:28:05.462Z</time></trkpt><trkpt lat="44.6376417" lon="10.5823767"><ele>116.00000000000001</ele><time>2026-03-22T12:28:08.462Z</time></trkpt><trkpt lat="44.6375583" lon="10.5823383"><ele>115.49999999999999</ele><time>2026-03-22T12:28:12.462Z</time></trkpt><trkpt lat="44.6374933" lon="10.5823383"><ele>115.0</ele><time>2026-03-22T12:28:15.462Z</time></trkpt><trkpt lat="44.6374317" lon="10.58242"><ele>114.5</ele><time>2026-03-22T12:28:18.461Z</time></trkpt><trkpt lat="44.6373967" lon="10.5825367"><ele>114.0</ele><time>2026-03-22T12:28:21.461Z</time></trkpt><trkpt lat="44.6373783" lon="10.5826217"><ele>113.49999999999999</ele><time>2026-03-22T12:28:23.461Z</time></trkpt><trkpt lat="44.6373467" lon="10.58273"><ele>113.0</ele><time>2026-03-22T12:28:25.461Z</time></trkpt><trkpt lat="44.6373117" lon="10.5828467"><ele>112.66666666666666</ele><time>2026-03-22T12:28:27.462Z</time></trkpt><trkpt lat="44.6372833" lon="10.5829433"><ele>112.33333333333333</ele><time>2026-03-22T12:28:29.462Z</time></trkpt><trkpt lat="44.6372633" lon="10.5830417"><ele>112.0</ele><time>2026-03-22T12:28:31.461Z</time></trkpt><trkpt lat="44.6372333" lon="10.5831617"><ele>111.66666666666666</ele><time>2026-03-22T12:28:33.461Z</time></trkpt><trkpt lat="44.6372017" lon="10.583275"><ele>111.33333333333333</ele><time>2026-03-22T12:28:35.461Z</time></trkpt><trkpt lat="44.6371783" lon="10.5833817"><ele>111.0</ele><time>2026-03-22T12:28:37.462Z</time></trkpt><trkpt lat="44.6371533" lon="10.583495"><ele>111.0</ele><time>2026-03-22T12:28:39.461Z</time></trkpt><trkpt lat="44.637125" lon="10.5836033"><ele>111.0</ele><time>2026-03-22T12:28:41.461Z</time></trkpt><trkpt lat="44.6371017" lon="10.583725"><ele>111.0</ele><time>2026-03-22T12:28:43.461Z</time></trkpt><trkpt lat="44.6370867" lon="10.5838417"><ele>111.0</ele><time>2026-03-22T12:28:45.461Z</time></trkpt><trkpt lat="44.6370733" lon="10.5839633"><ele>111.0</ele><time>2026-03-22T12:28:47.461Z</time></trkpt><trkpt lat="44.63706" lon="10.5840917"><ele>111.0</ele><time>2026-03-22T12:28:49.461Z</time></trkpt><trkpt lat="44.6370167" lon="10.5841817"><ele>110.5</ele><time>2026-03-22T12:28:51.462Z</time></trkpt><trkpt lat="44.6369267" lon="10.584225"><ele>110.0</ele><time>2026-03-22T12:28:53.462Z</time></trkpt><trkpt lat="44.6368367" lon="10.5842133"><ele>109.5</ele><time>2026-03-22T12:28:55.462Z</time></trkpt><trkpt lat="44.6367683" lon="10.5841717"><ele>109.0</ele><time>2026-03-22T12:28:57.462Z</time></trkpt><trkpt lat="44.63669" lon="10.58413"><ele>108.5</ele><time>2026-03-22T12:28:59.461Z</time></trkpt><trkpt lat="44.6366083" lon="10.5840867"><ele>108.0</ele><time>2026-03-22T12:29:01.462Z</time></trkpt><trkpt lat="44.6365333" lon="10.584025"><ele>108.0</ele><time>2026-03-22T12:29:03.461Z</time></trkpt><trkpt lat="44.6364533" lon="10.5839817"><ele>108.0</ele><time>2026-03-22T12:29:05.461Z</time></trkpt><trkpt lat="44.6363683" lon="10.5839483"><ele>108.0</ele><time>2026-03-22T12:29:07.462Z</time></trkpt><trkpt lat="44.63628" lon="10.583935"><ele>108.0</ele><time>2026-03-22T12:29:09.461Z</time></trkpt><trkpt lat="44.6362083" lon="10.5839267"><ele>108.0</ele><time>2026-03-22T12:29:11.461Z</time></trkpt><trkpt lat="44.63613" lon="10.5839117"><ele>108.0</ele><time>2026-03-22T12:29:13.461Z</time></trkpt><trkpt lat="44.636045" lon="10.5838933"><ele>108.16666666666667</ele><time>2026-03-22T12:29:15.462Z</time></trkpt><trkpt lat="44.6359583" lon="10.5838767"><ele>108.33333333333334</ele><time>2026-03-22T12:29:17.461Z</time></trkpt><trkpt lat="44.6358833" lon="10.5838467"><ele>108.5</ele><time>2026-03-22T12:29:19.462Z</time></trkpt><trkpt lat="44.6358033" lon="10.583805"><ele>108.66666666666667</ele><time>2026-03-22T12:29:21.462Z</time></trkpt><trkpt lat="44.6357417" lon="10.5837283"><ele>108.83333333333334</ele><time>2026-03-22T12:29:23.461Z</time></trkpt><trkpt lat="44.6356833" lon="10.58363"><ele>109.0</ele><time>2026-03-22T12:29:25.461Z</time></trkpt><trkpt lat="44.635635" lon="10.5835283"><ele>109.33333333333334</ele><time>2026-03-22T12:29:27.461Z</time></trkpt><trkpt lat="44.6355817" lon="10.5834433"><ele>109.66666666666667</ele><time>2026-03-22T12:29:29.461Z</time></trkpt><trkpt lat="44.6355383" lon="10.5833583"><ele>110.0</ele><time>2026-03-22T12:29:31.461Z</time></trkpt><trkpt lat="44.6354967" lon="10.5832767"><ele>110.33333333333334</ele><time>2026-03-22T12:29:33.461Z</time></trkpt><trkpt lat="44.6354367" lon="10.5831933"><ele>110.66666666666667</ele><time>2026-03-22T12:29:36.461Z</time></trkpt><trkpt lat="44.63537" lon="10.5831233"><ele>111.0</ele><time>2026-03-22T12:29:39.461Z</time></trkpt><trkpt lat="44.635315" lon="10.5830683"><ele>111.16666666666667</ele><time>2026-03-22T12:29:41.461Z</time></trkpt><trkpt lat="44.6352567" lon="10.583025"><ele>111.33333333333334</ele><time>2026-03-22T12:29:43.461Z</time></trkpt><trkpt lat="44.6351867" lon="10.5829483"><ele>111.5</ele><time>2026-03-22T12:29:46.461Z</time></trkpt><trkpt lat="44.6351083" lon="10.5828667"><ele>111.66666666666667</ele><time>2026-03-22T12:29:49.461Z</time></trkpt><trkpt lat="44.6350533" lon="10.582805"><ele>111.83333333333334</ele><time>2026-03-22T12:29:51.461Z</time></trkpt><trkpt lat="44.635" lon="10.5827333"><ele>112.0</ele><time>2026-03-22T12:29:53.462Z</time></trkpt><trkpt lat="44.634945" lon="10.5826767"><ele>112.0</ele><time>2026-03-22T12:29:55.462Z</time></trkpt><trkpt lat="44.6348967" lon="10.5825883"><ele>112.0</ele><time>2026-03-22T12:29:57.461Z</time></trkpt><trkpt lat="44.63485" lon="10.5825167"><ele>112.0</ele><time>2026-03-22T12:29:59.462Z</time></trkpt><trkpt lat="44.6347983" lon="10.5824433"><ele>112.0</ele><time>2026-03-22T12:30:01.461Z</time></trkpt><trkpt lat="44.63475" lon="10.582375"><ele>112.0</ele><time>2026-03-22T12:30:03.461Z</time></trkpt><trkpt lat="44.6346917" lon="10.58231"><ele>112.0</ele><time>2026-03-22T12:30:05.461Z</time></trkpt><trkpt lat="44.6346333" lon="10.5822467"><ele>112.0</ele><time>2026-03-22T12:30:07.461Z</time></trkpt><trkpt lat="44.6345817" lon="10.5821817"><ele>112.0</ele><time>2026-03-22T12:30:09.461Z</time></trkpt><trkpt lat="44.6345267" lon="10.5821267"><ele>112.0</ele><time>2026-03-22T12:30:11.461Z</time></trkpt><trkpt lat="44.634465" lon="10.5820783"><ele>112.0</ele><time>2026-03-22T12:30:13.462Z</time></trkpt><trkpt lat="44.634415" lon="10.5820083"><ele>112.0</ele><time>2026-03-22T12:30:15.462Z</time></trkpt><trkpt lat="44.6343567" lon="10.581945"><ele>112.0</ele><time>2026-03-22T12:30:17.461Z</time></trkpt><trkpt lat="44.6343067" lon="10.58187"><ele>112.0</ele><time>2026-03-22T12:30:19.461Z</time></trkpt><trkpt lat="44.63424" lon="10.5817817"><ele>112.0</ele><time>2026-03-22T12:30:22.461Z</time></trkpt><trkpt lat="44.6341733" lon="10.5817267"><ele>112.33333333333334</ele><time>2026-03-22T12:30:25.461Z</time></trkpt><trkpt lat="44.6340883" lon="10.5817083"><ele>112.66666666666667</ele><time>2026-03-22T12:30:29.462Z</time></trkpt><trkpt lat="44.6340167" lon="10.5816983"><ele>113.0</ele><time>2026-03-22T12:30:31.461Z</time></trkpt><trkpt lat="44.633925" lon="10.58168"><ele>113.33333333333334</ele><time>2026-03-22T12:30:33.461Z</time></trkpt><trkpt lat="44.6338417" lon="10.5816533"><ele>113.66666666666667</ele><time>2026-03-22T12:30:35.461Z</time></trkpt><trkpt lat="44.6337667" lon="10.5816017"><ele>114.0</ele><time>2026-03-22T12:30:37.462Z</time></trkpt><trkpt lat="44.633695" lon="10.5815383"><ele>114.0</ele><time>2026-03-22T12:30:39.462Z</time></trkpt><trkpt lat="44.6336167" lon="10.5814967"><ele>114.0</ele><time>2026-03-22T12:30:41.462Z</time></trkpt><trkpt lat="44.633535" lon="10.5814433"><ele>114.0</ele><time>2026-03-22T12:30:43.461Z</time></trkpt><trkpt lat="44.6334683" lon="10.5813917"><ele>114.0</ele><time>2026-03-22T12:30:45.461Z</time></trkpt><trkpt lat="44.6333933" lon="10.5813483"><ele>114.0</ele><time>2026-03-22T12:30:47.461Z</time></trkpt><trkpt lat="44.6333167" lon="10.581305"><ele>114.0</ele><time>2026-03-22T12:30:49.461Z</time></trkpt><trkpt lat="44.63324" lon="10.5812617"><ele>114.0</ele><time>2026-03-22T12:30:51.462Z</time></trkpt><trkpt lat="44.6331633" lon="10.5812133"><ele>114.0</ele><time>2026-03-22T12:30:53.461Z</time></trkpt><trkpt lat="44.63309" lon="10.5811833"><ele>114.0</ele><time>2026-03-22T12:30:55.461Z</time></trkpt><trkpt lat="44.633025" lon="10.5811317"><ele>114.0</ele><time>2026-03-22T12:30:57.461Z</time></trkpt><trkpt lat="44.632955" lon="10.5810867"><ele>114.0</ele><time>2026-03-22T12:30:59.461Z</time></trkpt><trkpt lat="44.6328867" lon="10.5810433"><ele>114.0</ele><time>2026-03-22T12:31:01.462Z</time></trkpt><trkpt lat="44.63282" lon="10.5810033"><ele>113.66666666666667</ele><time>2026-03-22T12:31:03.461Z</time></trkpt><trkpt lat="44.632745" lon="10.5809683"><ele>113.33333333333334</ele><time>2026-03-22T12:31:05.461Z</time></trkpt><trkpt lat="44.63268" lon="10.580925"><ele>113.0</ele><time>2026-03-22T12:31:07.461Z</time></trkpt><trkpt lat="44.632615" lon="10.5808833"><ele>112.66666666666667</ele><time>2026-03-22T12:31:09.462Z</time></trkpt><trkpt lat="44.6325517" lon="10.5808233"><ele>112.33333333333334</ele><time>2026-03-22T12:31:11.461Z</time></trkpt><trkpt lat="44.6324883" lon="10.5807667"><ele>112.0</ele><time>2026-03-22T12:31:13.461Z</time></trkpt><trkpt lat="44.6324117" lon="10.580725"><ele>112.00000000000001</ele><time>2026-03-22T12:31:15.462Z</time></trkpt><trkpt lat="44.63234" lon="10.5806717"><ele>112.0</ele><time>2026-03-22T12:31:17.461Z</time></trkpt><trkpt lat="44.6322617" lon="10.5806383"><ele>112.0</ele><time>2026-03-22T12:31:19.462Z</time></trkpt><trkpt lat="44.6321967" lon="10.5805833"><ele>112.0</ele><time>2026-03-22T12:31:21.462Z</time></trkpt><trkpt lat="44.632125" lon="10.58053"><ele>112.00000000000001</ele><time>2026-03-22T12:31:23.462Z</time></trkpt><trkpt lat="44.6320583" lon="10.5804783"><ele>112.0</ele><time>2026-03-22T12:31:25.462Z</time></trkpt><trkpt lat="44.6319967" lon="10.5804367"><ele>112.42857142857143</ele><time>2026-03-22T12:31:27.462Z</time></trkpt><trkpt lat="44.6319383" lon="10.5803917"><ele>112.85714285714286</ele><time>2026-03-22T12:31:29.463Z</time></trkpt><trkpt lat="44.6318733" lon="10.5803483"><ele>113.28571428571428</ele><time>2026-03-22T12:31:31.462Z</time></trkpt><trkpt lat="44.6318067" lon="10.5803017"><ele>113.71428571428571</ele><time>2026-03-22T12:31:33.462Z</time></trkpt><trkpt lat="44.631735" lon="10.5802683"><ele>114.14285714285714</ele><time>2026-03-22T12:31:35.462Z</time></trkpt><trkpt lat="44.6316683" lon="10.580215"><ele>114.57142857142856</ele><time>2026-03-22T12:31:37.462Z</time></trkpt><trkpt lat="44.6316" lon="10.5801667"><ele>114.99999999999999</ele><time>2026-03-22T12:31:39.463Z</time></trkpt><trkpt lat="44.6315417" lon="10.5801183"><ele>115.00000000000001</ele><time>2026-03-22T12:31:41.463Z</time></trkpt><trkpt lat="44.6314867" lon="10.58006"><ele>115.0</ele><time>2026-03-22T12:31:43.462Z</time></trkpt><trkpt lat="44.6314333" lon="10.5800017"><ele>115.0</ele><time>2026-03-22T12:31:45.462Z</time></trkpt><trkpt lat="44.6313733" lon="10.57995"><ele>115.0</ele><time>2026-03-22T12:31:47.462Z</time></trkpt><trkpt lat="44.631315" lon="10.5798817"><ele>115.00000000000001</ele><time>2026-03-22T12:31:49.462Z</time></trkpt><trkpt lat="44.6312433" lon="10.5798533"><ele>115.0</ele><time>2026-03-22T12:31:51.463Z</time></trkpt><trkpt lat="44.6311517" lon="10.5798117"><ele>115.00000000000001</ele><time>2026-03-22T12:31:54.462Z</time></trkpt><trkpt lat="44.6310867" lon="10.5797717"><ele>115.0</ele><time>2026-03-22T12:31:56.462Z</time></trkpt><trkpt lat="44.6310283" lon="10.5797017"><ele>115.0</ele><time>2026-03-22T12:31:58.462Z</time></trkpt><trkpt lat="44.6309667" lon="10.5796317"><ele>115.0</ele><time>2026-03-22T12:32:00.462Z</time></trkpt><trkpt lat="44.6309" lon="10.579555"><ele>115.00000000000001</ele><time>2026-03-22T12:32:02.462Z</time></trkpt><trkpt lat="44.630855" lon="10.5794583"><ele>115.0</ele><time>2026-03-22T12:32:04.462Z</time></trkpt><trkpt lat="44.6308067" lon="10.579375"><ele>114.83333333333334</ele><time>2026-03-22T12:32:06.463Z</time></trkpt><trkpt lat="44.6307533" lon="10.57929"><ele>114.66666666666667</ele><time>2026-03-22T12:32:08.463Z</time></trkpt><trkpt lat="44.6306933" lon="10.57922"><ele>114.5</ele><time>2026-03-22T12:32:10.463Z</time></trkpt><trkpt lat="44.6306383" lon="10.5791367"><ele>114.33333333333334</ele><time>2026-03-22T12:32:12.462Z</time></trkpt><trkpt lat="44.6305783" lon="10.5790533"><ele>114.16666666666667</ele><time>2026-03-22T12:32:14.462Z</time></trkpt><trkpt lat="44.630525" lon="10.5789783"><ele>114.0</ele><time>2026-03-22T12:32:16.463Z</time></trkpt><trkpt lat="44.6304883" lon="10.57887"><ele>114.0</ele><time>2026-03-22T12:32:18.463Z</time></trkpt><trkpt lat="44.6304783" lon="10.578755"><ele>114.0</ele><time>2026-03-22T12:32:20.462Z</time></trkpt><trkpt lat="44.630495" lon="10.578645"><ele>114.0</ele><time>2026-03-22T12:32:22.462Z</time></trkpt><trkpt lat="44.6305383" lon="10.5785533"><ele>114.0</ele><time>2026-03-22T12:32:24.462Z</time></trkpt><trkpt lat="44.630575" lon="10.57848"><ele>114.0</ele><time>2026-03-22T12:32:26.463Z</time></trkpt><trkpt lat="44.6305783" lon="10.5783617"><ele>114.0</ele><time>2026-03-22T12:32:29.462Z</time></trkpt><trkpt lat="44.630505" lon="10.5783033"><ele>114.5</ele><time>2026-03-22T12:32:32.462Z</time></trkpt><trkpt lat="44.630445" lon="10.5782483"><ele>115.0</ele><time>2026-03-22T12:32:35.462Z</time></trkpt><trkpt lat="44.6303767" lon="10.57817"><ele>115.5</ele><time>2026-03-22T12:32:38.462Z</time></trkpt><trkpt lat="44.6303083" lon="10.5780733"><ele>116.0</ele><time>2026-03-22T12:32:41.462Z</time></trkpt><trkpt lat="44.6302417" lon="10.5780183"><ele>116.5</ele><time>2026-03-22T12:32:43.462Z</time></trkpt><trkpt lat="44.6301783" lon="10.57796"><ele>117.0</ele><time>2026-03-22T12:32:45.463Z</time></trkpt><trkpt lat="44.63011" lon="10.5779333"><ele>117.16666666666667</ele><time>2026-03-22T12:32:47.463Z</time></trkpt><trkpt lat="44.6300433" lon="10.5779"><ele>117.33333333333334</ele><time>2026-03-22T12:32:49.462Z</time></trkpt><trkpt lat="44.6299483" lon="10.577865"><ele>117.5</ele><time>2026-03-22T12:32:52.463Z</time></trkpt><trkpt lat="44.6298733" lon="10.5778183"><ele>117.66666666666667</ele><time>2026-03-22T12:32:54.463Z</time></trkpt><trkpt lat="44.6298067" lon="10.57776"><ele>117.83333333333334</ele><time>2026-03-22T12:32:56.463Z</time></trkpt><trkpt lat="44.6297433" lon="10.5776767"><ele>118.0</ele><time>2026-03-22T12:32:58.463Z</time></trkpt><trkpt lat="44.6296767" lon="10.5776083"><ele>118.00000000000001</ele><time>2026-03-22T12:33:00.462Z</time></trkpt><trkpt lat="44.6296183" lon="10.5775333"><ele>118.0</ele><time>2026-03-22T12:33:02.462Z</time></trkpt><trkpt lat="44.6295567" lon="10.5774717"><ele>118.0</ele><time>2026-03-22T12:33:04.463Z</time></trkpt><trkpt lat="44.6294883" lon="10.5774167"><ele>118.0</ele><time>2026-03-22T12:33:06.462Z</time></trkpt><trkpt lat="44.6294133" lon="10.57737"><ele>118.00000000000001</ele><time>2026-03-22T12:33:08.462Z</time></trkpt><trkpt lat="44.6293383" lon="10.57732"><ele>118.0</ele><time>2026-03-22T12:33:10.462Z</time></trkpt><trkpt lat="44.6292583" lon="10.5772933"><ele>118.0</ele><time>2026-03-22T12:33:12.462Z</time></trkpt><trkpt lat="44.629185" lon="10.5772533"><ele>118.0</ele><time>2026-03-22T12:33:14.462Z</time></trkpt><trkpt lat="44.629115" lon="10.577225"><ele>118.0</ele><time>2026-03-22T12:33:16.462Z</time></trkpt><trkpt lat="44.629045" lon="10.57717"><ele>118.0</ele><time>2026-03-22T12:33:18.462Z</time></trkpt><trkpt lat="44.62898" lon="10.5771117"><ele>118.0</ele><time>2026-03-22T12:33:20.462Z</time></trkpt><trkpt lat="44.6289233" lon="10.57706"><ele>118.0</ele><time>2026-03-22T12:33:22.463Z</time></trkpt><trkpt lat="44.6288667" lon="10.5770033"><ele>118.0</ele><time>2026-03-22T12:33:24.462Z</time></trkpt><trkpt lat="44.62881" lon="10.5769417"><ele>118.33333333333334</ele><time>2026-03-22T12:33:26.462Z</time></trkpt><trkpt lat="44.6287633" lon="10.5768617"><ele>118.66666666666667</ele><time>2026-03-22T12:33:28.462Z</time></trkpt><trkpt lat="44.62871" lon="10.5768"><ele>119.0</ele><time>2026-03-22T12:33:30.462Z</time></trkpt><trkpt lat="44.6286567" lon="10.57672"><ele>119.33333333333334</ele><time>2026-03-22T12:33:32.462Z</time></trkpt><trkpt lat="44.628605" lon="10.5766433"><ele>119.66666666666667</ele><time>2026-03-22T12:33:34.462Z</time></trkpt><trkpt lat="44.62855" lon="10.57657"><ele>120.0</ele><time>2026-03-22T12:33:36.462Z</time></trkpt><trkpt lat="44.6284967" lon="10.5764767"><ele>120.16666666666667</ele><time>2026-03-22T12:33:38.462Z</time></trkpt><trkpt lat="44.6284483" lon="10.5764"><ele>120.33333333333334</ele><time>2026-03-22T12:33:40.463Z</time></trkpt><trkpt lat="44.628395" lon="10.5763217"><ele>120.5</ele><time>2026-03-22T12:33:42.462Z</time></trkpt><trkpt lat="44.62834" lon="10.57626"><ele>120.66666666666667</ele><time>2026-03-22T12:33:44.462Z</time></trkpt><trkpt lat="44.6282883" lon="10.57618"><ele>120.83333333333334</ele><time>2026-03-22T12:33:46.462Z</time></trkpt><trkpt lat="44.6282417" lon="10.5760933"><ele>121.0</ele><time>2026-03-22T12:33:48.462Z</time></trkpt><trkpt lat="44.6281917" lon="10.5760083"><ele>120.66666666666667</ele><time>2026-03-22T12:33:50.462Z</time></trkpt><trkpt lat="44.628135" lon="10.5759383"><ele>120.33333333333334</ele><time>2026-03-22T12:33:52.462Z</time></trkpt><trkpt lat="44.62809" lon="10.5758517"><ele>120.0</ele><time>2026-03-22T12:33:54.462Z</time></trkpt><trkpt lat="44.62805" lon="10.5757667"><ele>119.66666666666666</ele><time>2026-03-22T12:33:56.462Z</time></trkpt><trkpt lat="44.6280067" lon="10.575665"><ele>119.33333333333333</ele><time>2026-03-22T12:33:58.462Z</time></trkpt><trkpt lat="44.6279683" lon="10.5755567"><ele>119.0</ele><time>2026-03-22T12:34:00.463Z</time></trkpt><trkpt lat="44.6279217" lon="10.575475"><ele>118.99999999999999</ele><time>2026-03-22T12:34:02.463Z</time></trkpt><trkpt lat="44.6278833" lon="10.5753733"><ele>119.0</ele><time>2026-03-22T12:34:04.463Z</time></trkpt><trkpt lat="44.6278433" lon="10.5752667"><ele>119.0</ele><time>2026-03-22T12:34:06.462Z</time></trkpt><trkpt lat="44.6278017" lon="10.5751667"><ele>119.0</ele><time>2026-03-22T12:34:08.462Z</time></trkpt><trkpt lat="44.627765" lon="10.575055"><ele>118.99999999999999</ele><time>2026-03-22T12:34:10.462Z</time></trkpt><trkpt lat="44.6277283" lon="10.5749483"><ele>119.0</ele><time>2026-03-22T12:34:12.462Z</time></trkpt><trkpt lat="44.6277033" lon="10.5748467"><ele>119.33333333333333</ele><time>2026-03-22T12:34:14.462Z</time></trkpt><trkpt lat="44.62767" lon="10.5747483"><ele>119.66666666666666</ele><time>2026-03-22T12:34:16.462Z</time></trkpt><trkpt lat="44.6276367" lon="10.57465"><ele>120.0</ele><time>2026-03-22T12:34:18.462Z</time></trkpt><trkpt lat="44.6276" lon="10.5745517"><ele>120.33333333333334</ele><time>2026-03-22T12:34:20.462Z</time></trkpt><trkpt lat="44.6275633" lon="10.5744517"><ele>120.66666666666667</ele><time>2026-03-22T12:34:22.462Z</time></trkpt><trkpt lat="44.6275317" lon="10.57436"><ele>121.0</ele><time>2026-03-22T12:34:24.462Z</time></trkpt><trkpt lat="44.6274967" lon="10.574265"><ele>121.0</ele><time>2026-03-22T12:34:26.463Z</time></trkpt><trkpt lat="44.6274617" lon="10.57417"><ele>120.99999999999999</ele><time>2026-03-22T12:34:28.462Z</time></trkpt><trkpt lat="44.6274317" lon="10.5740633"><ele>121.0</ele><time>2026-03-22T12:34:30.463Z</time></trkpt><trkpt lat="44.6274017" lon="10.5739733"><ele>121.0</ele><time>2026-03-22T12:34:32.462Z</time></trkpt><trkpt lat="44.6273783" lon="10.5738667"><ele>120.99999999999999</ele><time>2026-03-22T12:34:35.463Z</time></trkpt><trkpt lat="44.627365" lon="10.5737733"><ele>121.0</ele><time>2026-03-22T12:34:38.462Z</time></trkpt><trkpt lat="44.6273317" lon="10.5736833"><ele>121.0</ele><time>2026-03-22T12:34:41.462Z</time></trkpt><trkpt lat="44.6272933" lon="10.5735683"><ele>121.33333333333334</ele><time>2026-03-22T12:34:44.462Z</time></trkpt><trkpt lat="44.6272567" lon="10.573455"><ele>121.66666666666667</ele><time>2026-03-22T12:34:47.462Z</time></trkpt><trkpt lat="44.627235" lon="10.57334"><ele>122.0</ele><time>2026-03-22T12:34:50.462Z</time></trkpt><trkpt lat="44.6272233" lon="10.5732467"><ele>122.33333333333334</ele><time>2026-03-22T12:34:53.463Z</time></trkpt><trkpt lat="44.6272233" lon="10.5731467"><ele>122.66666666666667</ele><time>2026-03-22T12:34:56.462Z</time></trkpt><trkpt lat="44.62722" lon="10.573055"><ele>123.0</ele><time>2026-03-22T12:34:59.462Z</time></trkpt><trkpt lat="44.6272183" lon="10.5729533"><ele>123.42857142857144</ele><time>2026-03-22T12:35:02.462Z</time></trkpt><trkpt lat="44.62721" lon="10.5728333"><ele>123.85714285714286</ele><time>2026-03-22T12:35:06.462Z</time></trkpt><trkpt lat="44.6272" lon="10.5727317"><ele>124.28571428571429</ele><time>2026-03-22T12:35:09.462Z</time></trkpt><trkpt lat="44.6271817" lon="10.5726167"><ele>124.71428571428572</ele><time>2026-03-22T12:35:12.462Z</time></trkpt><trkpt lat="44.6271683" lon="10.5725217"><ele>125.14285714285714</ele><time>2026-03-22T12:35:14.463Z</time></trkpt><trkpt lat="44.6271583" lon="10.5724333"><ele>125.57142857142857</ele><time>2026-03-22T12:35:16.462Z</time></trkpt><trkpt lat="44.6271533" lon="10.5723433"><ele>126.0</ele><time>2026-03-22T12:35:18.462Z</time></trkpt><trkpt lat="44.6271483" lon="10.57222"><ele>126.0</ele><time>2026-03-22T12:35:21.462Z</time></trkpt><trkpt lat="44.6271417" lon="10.5721183"><ele>126.0</ele><time>2026-03-22T12:35:23.462Z</time></trkpt><trkpt lat="44.627125" lon="10.572015"><ele>126.0</ele><time>2026-03-22T12:35:25.462Z</time></trkpt><trkpt lat="44.6271133" lon="10.5719233"><ele>126.0</ele><time>2026-03-22T12:35:27.462Z</time></trkpt><trkpt lat="44.6271067" lon="10.5718117"><ele>126.0</ele><time>2026-03-22T12:35:30.462Z</time></trkpt><trkpt lat="44.6271" lon="10.5716967"><ele>126.0</ele><time>2026-03-22T12:35:33.462Z</time></trkpt><trkpt lat="44.6270933" lon="10.5716017"><ele>126.0</ele><time>2026-03-22T12:35:35.462Z</time></trkpt><trkpt lat="44.627075" lon="10.5715067"><ele>125.83333333333333</ele><time>2026-03-22T12:35:37.462Z</time></trkpt><trkpt lat="44.6270717" lon="10.5714067"><ele>125.66666666666666</ele><time>2026-03-22T12:35:39.462Z</time></trkpt><trkpt lat="44.6270683" lon="10.5713167"><ele>125.5</ele><time>2026-03-22T12:35:41.462Z</time></trkpt><trkpt lat="44.627055" lon="10.571185"><ele>125.33333333333333</ele><time>2026-03-22T12:35:44.462Z</time></trkpt><trkpt lat="44.6270433" lon="10.5710783"><ele>125.16666666666666</ele><time>2026-03-22T12:35:46.462Z</time></trkpt><trkpt lat="44.6270217" lon="10.5709783"><ele>125.0</ele><time>2026-03-22T12:35:48.463Z</time></trkpt><trkpt lat="44.6269983" lon="10.57088"><ele>125.33333333333333</ele><time>2026-03-22T12:35:50.462Z</time></trkpt><trkpt lat="44.6269583" lon="10.5707833"><ele>125.66666666666666</ele><time>2026-03-22T12:35:52.462Z</time></trkpt><trkpt lat="44.6269167" lon="10.57071"><ele>126.0</ele><time>2026-03-22T12:35:54.462Z</time></trkpt><trkpt lat="44.6268583" lon="10.5706383"><ele>126.33333333333334</ele><time>2026-03-22T12:35:56.462Z</time></trkpt><trkpt lat="44.6268033" lon="10.5705667"><ele>126.66666666666667</ele><time>2026-03-22T12:35:58.463Z</time></trkpt><trkpt lat="44.6267417" lon="10.5704983"><ele>127.0</ele><time>2026-03-22T12:36:00.462Z</time></trkpt><trkpt lat="44.6266767" lon="10.5704267"><ele>127.00000000000001</ele><time>2026-03-22T12:36:02.462Z</time></trkpt><trkpt lat="44.62662" lon="10.5703583"><ele>127.0</ele><time>2026-03-22T12:36:04.462Z</time></trkpt><trkpt lat="44.62655" lon="10.57029"><ele>127.0</ele><time>2026-03-22T12:36:06.462Z</time></trkpt><trkpt lat="44.6264867" lon="10.570195"><ele>127.0</ele><time>2026-03-22T12:36:08.463Z</time></trkpt><trkpt lat="44.626425" lon="10.5700983"><ele>127.00000000000001</ele><time>2026-03-22T12:36:10.463Z</time></trkpt><trkpt lat="44.6263783" lon="10.5700033"><ele>127.0</ele><time>2026-03-22T12:36:12.462Z</time></trkpt><trkpt lat="44.6263317" lon="10.5699083"><ele>127.16666666666667</ele><time>2026-03-22T12:36:14.462Z</time></trkpt><trkpt lat="44.6262967" lon="10.5698183"><ele>127.33333333333334</ele><time>2026-03-22T12:36:16.462Z</time></trkpt><trkpt lat="44.6262483" lon="10.56974"><ele>127.5</ele><time>2026-03-22T12:36:18.462Z</time></trkpt><trkpt lat="44.6261967" lon="10.5696467"><ele>127.66666666666666</ele><time>2026-03-22T12:36:20.463Z</time></trkpt><trkpt lat="44.62614" lon="10.569575"><ele>127.83333333333333</ele><time>2026-03-22T12:36:22.462Z</time></trkpt><trkpt lat="44.6260883" lon="10.5695133"><ele>128.0</ele><time>2026-03-22T12:36:24.463Z</time></trkpt><trkpt lat="44.6260283" lon="10.5694383"><ele>127.99999999999999</ele><time>2026-03-22T12:36:27.462Z</time></trkpt><trkpt lat="44.6259617" lon="10.5693483"><ele>128.0</ele><time>2026-03-22T12:36:30.462Z</time></trkpt><trkpt lat="44.6258983" lon="10.56926"><ele>128.0</ele><time>2026-03-22T12:36:33.462Z</time></trkpt><trkpt lat="44.62584" lon="10.56921"><ele>128.0</ele><time>2026-03-22T12:36:35.462Z</time></trkpt><trkpt lat="44.6257817" lon="10.5691467"><ele>127.99999999999999</ele><time>2026-03-22T12:36:37.462Z</time></trkpt><trkpt lat="44.6257217" lon="10.569085"><ele>128.0</ele><time>2026-03-22T12:36:39.462Z</time></trkpt><trkpt lat="44.62565" lon="10.569025"><ele>127.99999999999999</ele><time>2026-03-22T12:36:41.462Z</time></trkpt><trkpt lat="44.6255833" lon="10.5689617"><ele>128.0</ele><time>2026-03-22T12:36:43.462Z</time></trkpt><trkpt lat="44.62552" lon="10.5689067"><ele>128.0</ele><time>2026-03-22T12:36:45.462Z</time></trkpt><trkpt lat="44.6254567" lon="10.56885"><ele>128.0</ele><time>2026-03-22T12:36:47.462Z</time></trkpt><trkpt lat="44.625395" lon="10.56879"><ele>127.99999999999999</ele><time>2026-03-22T12:36:49.462Z</time></trkpt><trkpt lat="44.62534" lon="10.5687217"><ele>128.0</ele><time>2026-03-22T12:36:51.462Z</time></trkpt><trkpt lat="44.6252883" lon="10.568645"><ele>127.49999999999999</ele><time>2026-03-22T12:36:53.462Z</time></trkpt><trkpt lat="44.6252367" lon="10.5685683"><ele>127.0</ele><time>2026-03-22T12:36:55.463Z</time></trkpt><trkpt lat="44.6251817" lon="10.5685133"><ele>126.5</ele><time>2026-03-22T12:36:57.464Z</time></trkpt><trkpt lat="44.6251133" lon="10.56847"><ele>126.0</ele><time>2026-03-22T12:36:59.464Z</time></trkpt><trkpt lat="44.6250417" lon="10.5684317"><ele>125.49999999999999</ele><time>2026-03-22T12:37:01.463Z</time></trkpt><trkpt lat="44.6249733" lon="10.5683733"><ele>125.0</ele><time>2026-03-22T12:37:03.463Z</time></trkpt><trkpt lat="44.6249067" lon="10.56831"><ele>124.99999999999999</ele><time>2026-03-22T12:37:05.463Z</time></trkpt><trkpt lat="44.624845" lon="10.5682383"><ele>125.0</ele><time>2026-03-22T12:37:07.463Z</time></trkpt><trkpt lat="44.6247883" lon="10.5681667"><ele>125.0</ele><time>2026-03-22T12:37:09.463Z</time></trkpt><trkpt lat="44.62473" lon="10.5681"><ele>125.0</ele><time>2026-03-22T12:37:11.463Z</time></trkpt><trkpt lat="44.6246617" lon="10.5680033"><ele>124.99999999999999</ele><time>2026-03-22T12:37:14.463Z</time></trkpt><trkpt lat="44.6246117" lon="10.5679317"><ele>125.0</ele><time>2026-03-22T12:37:16.463Z</time></trkpt><trkpt lat="44.6245683" lon="10.567825"><ele>125.16666666666666</ele><time>2026-03-22T12:37:19.463Z</time></trkpt><trkpt lat="44.6245467" lon="10.5676983"><ele>125.33333333333333</ele><time>2026-03-22T12:37:22.463Z</time></trkpt><trkpt lat="44.6245217" lon="10.5676017"><ele>125.5</ele><time>2026-03-22T12:37:25.464Z</time></trkpt><trkpt lat="44.6244767" lon="10.567505"><ele>125.66666666666666</ele><time>2026-03-22T12:37:30.463Z</time></trkpt><trkpt lat="44.6244267" lon="10.567435"><ele>125.83333333333333</ele><time>2026-03-22T12:37:33.463Z</time></trkpt><trkpt lat="44.62436" lon="10.5673567"><ele>126.0</ele><time>2026-03-22T12:37:36.463Z</time></trkpt><trkpt lat="44.6243017" lon="10.5672917"><ele>126.33333333333333</ele><time>2026-03-22T12:37:38.463Z</time></trkpt><trkpt lat="44.6242267" lon="10.5672417"><ele>126.66666666666666</ele><time>2026-03-22T12:37:40.464Z</time></trkpt><trkpt lat="44.6241633" lon="10.567185"><ele>127.0</ele><time>2026-03-22T12:37:42.463Z</time></trkpt><trkpt lat="44.6240883" lon="10.5671333"><ele>127.33333333333333</ele><time>2026-03-22T12:37:44.463Z</time></trkpt><trkpt lat="44.624015" lon="10.5670967"><ele>127.66666666666666</ele><time>2026-03-22T12:37:46.464Z</time></trkpt><trkpt lat="44.6239467" lon="10.5670567"><ele>128.0</ele><time>2026-03-22T12:37:48.463Z</time></trkpt><trkpt lat="44.623865" lon="10.5670233"><ele>128.16666666666666</ele><time>2026-03-22T12:37:50.463Z</time></trkpt><trkpt lat="44.6237867" lon="10.5669933"><ele>128.33333333333331</ele><time>2026-03-22T12:37:52.463Z</time></trkpt><trkpt lat="44.623705" lon="10.566955"><ele>128.5</ele><time>2026-03-22T12:37:54.464Z</time></trkpt><trkpt lat="44.6236383" lon="10.5668783"><ele>128.66666666666666</ele><time>2026-03-22T12:37:56.464Z</time></trkpt><trkpt lat="44.6235783" lon="10.566815"><ele>128.83333333333334</ele><time>2026-03-22T12:37:58.463Z</time></trkpt><trkpt lat="44.6235183" lon="10.5667667"><ele>129.0</ele><time>2026-03-22T12:38:00.464Z</time></trkpt><trkpt lat="44.6234683" lon="10.5667"><ele>128.99999999999997</ele><time>2026-03-22T12:38:02.464Z</time></trkpt><trkpt lat="44.6234067" lon="10.5666417"><ele>129.0</ele><time>2026-03-22T12:38:04.463Z</time></trkpt><trkpt lat="44.6233483" lon="10.566575"><ele>129.0</ele><time>2026-03-22T12:38:06.464Z</time></trkpt><trkpt lat="44.6232867" lon="10.5665067"><ele>129.0</ele><time>2026-03-22T12:38:08.463Z</time></trkpt><trkpt lat="44.6232267" lon="10.56645"><ele>129.0</ele><time>2026-03-22T12:38:10.463Z</time></trkpt><trkpt lat="44.6231717" lon="10.5663867"><ele>128.99999999999997</ele><time>2026-03-22T12:38:12.463Z</time></trkpt><trkpt lat="44.6231133" lon="10.566325"><ele>129.0</ele><time>2026-03-22T12:38:14.463Z</time></trkpt><trkpt lat="44.623055" lon="10.5662683"><ele>128.99999999999997</ele><time>2026-03-22T12:38:16.463Z</time></trkpt><trkpt lat="44.6230033" lon="10.566205"><ele>129.0</ele><time>2026-03-22T12:38:18.463Z</time></trkpt><trkpt lat="44.62295" lon="10.5661533"><ele>129.0</ele><time>2026-03-22T12:38:20.463Z</time></trkpt><trkpt lat="44.6228933" lon="10.5660967"><ele>129.0</ele><time>2026-03-22T12:38:22.463Z</time></trkpt><trkpt lat="44.622835" lon="10.5660383"><ele>129.0</ele><time>2026-03-22T12:38:24.463Z</time></trkpt><trkpt lat="44.6227767" lon="10.565985"><ele>128.99999999999997</ele><time>2026-03-22T12:38:26.463Z</time></trkpt><trkpt lat="44.6227267" lon="10.5659167"><ele>129.0</ele><time>2026-03-22T12:38:28.463Z</time></trkpt><trkpt lat="44.62266" lon="10.565815"><ele>129.0</ele><time>2026-03-22T12:38:31.463Z</time></trkpt><trkpt lat="44.622615" lon="10.565735"><ele>129.0</ele><time>2026-03-22T12:38:33.463Z</time></trkpt><trkpt lat="44.6225733" lon="10.5656233"><ele>129.0</ele><time>2026-03-22T12:38:36.463Z</time></trkpt><trkpt lat="44.6225467" lon="10.5655067"><ele>129.0</ele><time>2026-03-22T12:38:39.463Z</time></trkpt><trkpt lat="44.6225067" lon="10.5654183"><ele>129.0</ele><time>2026-03-22T12:38:42.463Z</time></trkpt><trkpt lat="44.6224533" lon="10.5653617"><ele>129.0</ele><time>2026-03-22T12:38:45.463Z</time></trkpt><trkpt lat="44.6223817" lon="10.5653183"><ele>129.16666666666666</ele><time>2026-03-22T12:38:48.463Z</time></trkpt><trkpt lat="44.6223033" lon="10.56528"><ele>129.33333333333334</ele><time>2026-03-22T12:38:51.463Z</time></trkpt><trkpt lat="44.6222117" lon="10.56525"><ele>129.5</ele><time>2026-03-22T12:38:54.463Z</time></trkpt><trkpt lat="44.6221517" lon="10.5652133"><ele>129.66666666666669</ele><time>2026-03-22T12:38:56.463Z</time></trkpt><trkpt lat="44.622085" lon="10.565165"><ele>129.83333333333334</ele><time>2026-03-22T12:38:58.463Z</time></trkpt><trkpt lat="44.6220133" lon="10.56511"><ele>130.0</ele><time>2026-03-22T12:39:00.463Z</time></trkpt><trkpt lat="44.6219383" lon="10.56506"><ele>130.0</ele><time>2026-03-22T12:39:02.463Z</time></trkpt><trkpt lat="44.6218683" lon="10.56502"><ele>130.0</ele><time>2026-03-22T12:39:04.463Z</time></trkpt><trkpt lat="44.6217967" lon="10.5649817"><ele>130.0</ele><time>2026-03-22T12:39:06.463Z</time></trkpt><trkpt lat="44.6217267" lon="10.5649317"><ele>130.0</ele><time>2026-03-22T12:39:08.463Z</time></trkpt><trkpt lat="44.62166" lon="10.5648733"><ele>130.0</ele><time>2026-03-22T12:39:10.463Z</time></trkpt><trkpt lat="44.6216" lon="10.564805"><ele>130.0</ele><time>2026-03-22T12:39:12.463Z</time></trkpt><trkpt lat="44.6215417" lon="10.5647417"><ele>130.00000000000003</ele><time>2026-03-22T12:39:14.463Z</time></trkpt><trkpt lat="44.621495" lon="10.5646533"><ele>130.0</ele><time>2026-03-22T12:39:16.463Z</time></trkpt><trkpt lat="44.6214483" lon="10.5645833"><ele>130.0</ele><time>2026-03-22T12:39:18.463Z</time></trkpt><trkpt lat="44.6213983" lon="10.5645133"><ele>130.0</ele><time>2026-03-22T12:39:20.463Z</time></trkpt><trkpt lat="44.621345" lon="10.564445"><ele>130.0</ele><time>2026-03-22T12:39:22.463Z</time></trkpt><trkpt lat="44.6212917" lon="10.5643817"><ele>130.00000000000003</ele><time>2026-03-22T12:39:24.463Z</time></trkpt><trkpt lat="44.6212433" lon="10.5643167"><ele>130.0</ele><time>2026-03-22T12:39:26.463Z</time></trkpt><trkpt lat="44.62119" lon="10.5642483"><ele>130.14285714285717</ele><time>2026-03-22T12:39:28.463Z</time></trkpt><trkpt lat="44.6211433" lon="10.564165"><ele>130.28571428571428</ele><time>2026-03-22T12:39:30.463Z</time></trkpt><trkpt lat="44.6210967" lon="10.5640933"><ele>130.42857142857144</ele><time>2026-03-22T12:39:32.463Z</time></trkpt><trkpt lat="44.6210567" lon="10.5640217"><ele>130.57142857142858</ele><time>2026-03-22T12:39:34.463Z</time></trkpt><trkpt lat="44.6210133" lon="10.5639533"><ele>130.71428571428572</ele><time>2026-03-22T12:39:36.463Z</time></trkpt><trkpt lat="44.6209567" lon="10.5638717"><ele>130.85714285714286</ele><time>2026-03-22T12:39:38.463Z</time></trkpt><trkpt lat="44.6209" lon="10.5638183"><ele>131.0</ele><time>2026-03-22T12:39:40.464Z</time></trkpt><trkpt lat="44.6208417" lon="10.563775"><ele>131.0</ele><time>2026-03-22T12:39:42.463Z</time></trkpt><trkpt lat="44.6207817" lon="10.5637267"><ele>131.0</ele><time>2026-03-22T12:39:44.463Z</time></trkpt><trkpt lat="44.620735" lon="10.5636633"><ele>131.0</ele><time>2026-03-22T12:39:46.463Z</time></trkpt><trkpt lat="44.6206917" lon="10.5635833"><ele>131.0</ele><time>2026-03-22T12:39:48.463Z</time></trkpt><trkpt lat="44.62065" lon="10.5635017"><ele>131.0</ele><time>2026-03-22T12:39:50.463Z</time></trkpt><trkpt lat="44.6206183" lon="10.56342"><ele>131.0</ele><time>2026-03-22T12:39:52.463Z</time></trkpt><trkpt lat="44.6205817" lon="10.5633417"><ele>131.0</ele><time>2026-03-22T12:39:54.463Z</time></trkpt><trkpt lat="44.6205417" lon="10.5632267"><ele>131.42857142857144</ele><time>2026-03-22T12:39:57.463Z</time></trkpt><trkpt lat="44.6205183" lon="10.5631283"><ele>131.85714285714286</ele><time>2026-03-22T12:40:00.464Z</time></trkpt><trkpt lat="44.6204983" lon="10.5630333"><ele>132.28571428571428</ele><time>2026-03-22T12:40:02.463Z</time></trkpt><trkpt lat="44.6204833" lon="10.562945"><ele>132.71428571428572</ele><time>2026-03-22T12:40:04.463Z</time></trkpt><trkpt lat="44.6204583" lon="10.562855"><ele>133.14285714285714</ele><time>2026-03-22T12:40:06.463Z</time></trkpt><trkpt lat="44.6204267" lon="10.5627683"><ele>133.57142857142858</ele><time>2026-03-22T12:40:08.463Z</time></trkpt><trkpt lat="44.6203867" lon="10.5626933"><ele>134.0</ele><time>2026-03-22T12:40:10.463Z</time></trkpt><trkpt lat="44.620345" lon="10.5626167"><ele>133.85714285714286</ele><time>2026-03-22T12:40:12.463Z</time></trkpt><trkpt lat="44.6202967" lon="10.56254"><ele>133.71428571428572</ele><time>2026-03-22T12:40:14.463Z</time></trkpt><trkpt lat="44.6202517" lon="10.5624617"><ele>133.57142857142856</ele><time>2026-03-22T12:40:16.463Z</time></trkpt><trkpt lat="44.6201983" lon="10.5623783"><ele>133.42857142857144</ele><time>2026-03-22T12:40:18.463Z</time></trkpt><trkpt lat="44.62015" lon="10.5622983"><ele>133.28571428571428</ele><time>2026-03-22T12:40:20.463Z</time></trkpt><trkpt lat="44.6201067" lon="10.5622217"><ele>133.14285714285714</ele><time>2026-03-22T12:40:22.463Z</time></trkpt><trkpt lat="44.6200633" lon="10.5621483"><ele>133.0</ele><time>2026-03-22T12:40:24.463Z</time></trkpt><trkpt lat="44.6200017" lon="10.5620533"><ele>133.16666666666669</ele><time>2026-03-22T12:40:27.463Z</time></trkpt><trkpt lat="44.619945" lon="10.5619617"><ele>133.33333333333334</ele><time>2026-03-22T12:40:30.463Z</time></trkpt><trkpt lat="44.6198883" lon="10.561865"><ele>133.5</ele><time>2026-03-22T12:40:33.464Z</time></trkpt><trkpt lat="44.61985" lon="10.5617917"><ele>133.66666666666666</ele><time>2026-03-22T12:40:35.463Z</time></trkpt><trkpt lat="44.6198083" lon="10.5617083"><ele>133.83333333333331</ele><time>2026-03-22T12:40:37.463Z</time></trkpt><trkpt lat="44.6197617" lon="10.5616383"><ele>134.0</ele><time>2026-03-22T12:40:39.463Z</time></trkpt><trkpt lat="44.6197167" lon="10.56156"><ele>134.0</ele><time>2026-03-22T12:40:41.463Z</time></trkpt><trkpt lat="44.619675" lon="10.5614733"><ele>134.0</ele><time>2026-03-22T12:40:43.463Z</time></trkpt><trkpt lat="44.6196333" lon="10.561385"><ele>134.0</ele><time>2026-03-22T12:40:45.464Z</time></trkpt><trkpt lat="44.6195917" lon="10.5613067"><ele>134.0</ele><time>2026-03-22T12:40:47.463Z</time></trkpt><trkpt lat="44.6195467" lon="10.5612283"><ele>134.0</ele><time>2026-03-22T12:40:49.463Z</time></trkpt><trkpt lat="44.6194967" lon="10.5611367"><ele>134.0</ele><time>2026-03-22T12:40:51.464Z</time></trkpt><trkpt lat="44.6194467" lon="10.56106"><ele>134.0</ele><time>2026-03-22T12:40:53.464Z</time></trkpt><trkpt lat="44.6194033" lon="10.5609733"><ele>134.0</ele><time>2026-03-22T12:40:55.463Z</time></trkpt><trkpt lat="44.6193567" lon="10.5609033"><ele>134.0</ele><time>2026-03-22T12:40:57.463Z</time></trkpt><trkpt lat="44.619315" lon="10.56083"><ele>134.0</ele><time>2026-03-22T12:40:59.463Z</time></trkpt><trkpt lat="44.6192683" lon="10.56076"><ele>134.0</ele><time>2026-03-22T12:41:01.463Z</time></trkpt><trkpt lat="44.6192233" lon="10.56067"><ele>134.0</ele><time>2026-03-22T12:41:03.463Z</time></trkpt><trkpt lat="44.6191767" lon="10.5605833"><ele>134.0</ele><time>2026-03-22T12:41:05.463Z</time></trkpt><trkpt lat="44.619125" lon="10.560495"><ele>134.0</ele><time>2026-03-22T12:41:07.464Z</time></trkpt><trkpt lat="44.6190833" lon="10.5604067"><ele>134.42857142857144</ele><time>2026-03-22T12:41:09.463Z</time></trkpt><trkpt lat="44.6190417" lon="10.5603267"><ele>134.85714285714286</ele><time>2026-03-22T12:41:11.464Z</time></trkpt><trkpt lat="44.6189983" lon="10.5602517"><ele>135.28571428571428</ele><time>2026-03-22T12:41:13.464Z</time></trkpt><trkpt lat="44.6189533" lon="10.5601767"><ele>135.71428571428572</ele><time>2026-03-22T12:41:15.463Z</time></trkpt><trkpt lat="44.61891" lon="10.5601067"><ele>136.14285714285714</ele><time>2026-03-22T12:41:17.463Z</time></trkpt><trkpt lat="44.6188767" lon="10.56002"><ele>136.57142857142858</ele><time>2026-03-22T12:41:19.463Z</time></trkpt><trkpt lat="44.61882" lon="10.5599217"><ele>137.0</ele><time>2026-03-22T12:41:22.463Z</time></trkpt><trkpt lat="44.6187733" lon="10.5598533"><ele>137.0</ele><time>2026-03-22T12:41:24.463Z</time></trkpt><trkpt lat="44.6187233" lon="10.5597967"><ele>137.0</ele><time>2026-03-22T12:41:26.463Z</time></trkpt><trkpt lat="44.6186517" lon="10.5597333"><ele>137.0</ele><time>2026-03-22T12:41:29.463Z</time></trkpt><trkpt lat="44.6185783" lon="10.55968"><ele>137.0</ele><time>2026-03-22T12:41:32.463Z</time></trkpt><trkpt lat="44.6185033" lon="10.5596567"><ele>137.0</ele><time>2026-03-22T12:41:35.463Z</time></trkpt><trkpt lat="44.6184367" lon="10.5596183"><ele>137.0</ele><time>2026-03-22T12:41:38.464Z</time></trkpt><trkpt lat="44.6183483" lon="10.5595567"><ele>137.14285714285717</ele><time>2026-03-22T12:41:41.463Z</time></trkpt><trkpt lat="44.6183017" lon="10.559495"><ele>137.28571428571428</ele><time>2026-03-22T12:41:43.463Z</time></trkpt><trkpt lat="44.6182483" lon="10.55943"><ele>137.42857142857144</ele><time>2026-03-22T12:41:45.464Z</time></trkpt><trkpt lat="44.6181883" lon="10.5593717"><ele>137.57142857142858</ele><time>2026-03-22T12:41:47.463Z</time></trkpt><trkpt lat="44.6181433" lon="10.559305"><ele>137.71428571428572</ele><time>2026-03-22T12:41:49.463Z</time></trkpt><trkpt lat="44.61809" lon="10.5592067"><ele>137.85714285714286</ele><time>2026-03-22T12:41:52.463Z</time></trkpt><trkpt lat="44.61803" lon="10.5591417"><ele>138.0</ele><time>2026-03-22T12:41:55.463Z</time></trkpt><trkpt lat="44.617985" lon="10.5590767"><ele>138.0</ele><time>2026-03-22T12:41:57.463Z</time></trkpt><trkpt lat="44.617905" lon="10.5590233"><ele>138.0</ele><time>2026-03-22T12:42:00.464Z</time></trkpt><trkpt lat="44.617845" lon="10.5589817"><ele>138.0</ele><time>2026-03-22T12:42:02.463Z</time></trkpt><trkpt lat="44.617785" lon="10.55894"><ele>138.0</ele><time>2026-03-22T12:42:04.463Z</time></trkpt><trkpt lat="44.61772" lon="10.5588833"><ele>138.0</ele><time>2026-03-22T12:42:06.463Z</time></trkpt><trkpt lat="44.61766" lon="10.558835"><ele>138.0</ele><time>2026-03-22T12:42:08.463Z</time></trkpt><trkpt lat="44.6175983" lon="10.5587783"><ele>138.0</ele><time>2026-03-22T12:42:10.463Z</time></trkpt><trkpt lat="44.617545" lon="10.5587167"><ele>138.0</ele><time>2026-03-22T12:42:12.463Z</time></trkpt><trkpt lat="44.61748" lon="10.55864"><ele>138.0</ele><time>2026-03-22T12:42:15.463Z</time></trkpt><trkpt lat="44.6174333" lon="10.55856"><ele>138.0</ele><time>2026-03-22T12:42:18.463Z</time></trkpt><trkpt lat="44.6173983" lon="10.5584783"><ele>138.0</ele><time>2026-03-22T12:42:21.463Z</time></trkpt><trkpt lat="44.6173617" lon="10.5583967"><ele>138.0</ele><time>2026-03-22T12:42:24.463Z</time></trkpt><trkpt lat="44.6172767" lon="10.5583683"><ele>138.0</ele><time>2026-03-22T12:43:22.464Z</time></trkpt><trkpt lat="44.6172233" lon="10.5582883"><ele>138.0</ele><time>2026-03-22T12:43:26.464Z</time></trkpt><trkpt lat="44.6171533" lon="10.55822"><ele>138.0</ele><time>2026-03-22T12:43:29.464Z</time></trkpt><trkpt lat="44.617095" lon="10.5581683"><ele>138.0</ele><time>2026-03-22T12:43:31.464Z</time></trkpt><trkpt lat="44.6170133" lon="10.5581167"><ele>138.0</ele><time>2026-03-22T12:43:34.464Z</time></trkpt><trkpt lat="44.6169467" lon="10.5580933"><ele>138.0</ele><time>2026-03-22T12:43:36.464Z</time></trkpt><trkpt lat="44.6168867" lon="10.558055"><ele>138.0</ele><time>2026-03-22T12:43:38.465Z</time></trkpt><trkpt lat="44.6167933" lon="10.5580017"><ele>138.16666666666666</ele><time>2026-03-22T12:43:41.465Z</time></trkpt><trkpt lat="44.6167183" lon="10.557965"><ele>138.33333333333334</ele><time>2026-03-22T12:43:43.464Z</time></trkpt><trkpt lat="44.616635" lon="10.5579367"><ele>138.5</ele><time>2026-03-22T12:43:45.464Z</time></trkpt><trkpt lat="44.6165567" lon="10.55793"><ele>138.66666666666669</ele><time>2026-03-22T12:43:47.464Z</time></trkpt><trkpt lat="44.6164767" lon="10.5579217"><ele>138.83333333333334</ele><time>2026-03-22T12:43:49.464Z</time></trkpt><trkpt lat="44.6163933" lon="10.5579333"><ele>139.0</ele><time>2026-03-22T12:43:51.464Z</time></trkpt><trkpt lat="44.6163183" lon="10.557945"><ele>139.0</ele><time>2026-03-22T12:43:53.465Z</time></trkpt><trkpt lat="44.61624" lon="10.5579433"><ele>139.0</ele><time>2026-03-22T12:43:55.464Z</time></trkpt><trkpt lat="44.616175" lon="10.5579433"><ele>139.0</ele><time>2026-03-22T12:43:57.465Z</time></trkpt><trkpt lat="44.6161033" lon="10.557945"><ele>139.0</ele><time>2026-03-22T12:43:59.464Z</time></trkpt><trkpt lat="44.616025" lon="10.5579433"><ele>139.0</ele><time>2026-03-22T12:44:01.465Z</time></trkpt><trkpt lat="44.6159583" lon="10.5579333"><ele>139.0</ele><time>2026-03-22T12:44:03.464Z</time></trkpt><trkpt lat="44.6158967" lon="10.5579083"><ele>139.0</ele><time>2026-03-22T12:44:05.464Z</time></trkpt><trkpt lat="44.61583" lon="10.55788"><ele>139.33333333333334</ele><time>2026-03-22T12:44:08.464Z</time></trkpt><trkpt lat="44.6157533" lon="10.5578333"><ele>139.66666666666669</ele><time>2026-03-22T12:44:12.464Z</time></trkpt><trkpt lat="44.6156683" lon="10.5578083"><ele>140.0</ele><time>2026-03-22T12:44:15.464Z</time></trkpt><trkpt lat="44.6155817" lon="10.5577867"><ele>140.33333333333334</ele><time>2026-03-22T12:44:18.464Z</time></trkpt><trkpt lat="44.6155117" lon="10.5577733"><ele>140.66666666666666</ele><time>2026-03-22T12:44:20.464Z</time></trkpt><trkpt lat="44.6154217" lon="10.5577683"><ele>141.0</ele><time>2026-03-22T12:44:23.464Z</time></trkpt><trkpt lat="44.6153583" lon="10.5577667"><ele>141.0</ele><time>2026-03-22T12:44:25.464Z</time></trkpt><trkpt lat="44.6152767" lon="10.557765"><ele>141.0</ele><time>2026-03-22T12:44:27.464Z</time></trkpt><trkpt lat="44.6152133" lon="10.55776"><ele>141.0</ele><time>2026-03-22T12:44:29.464Z</time></trkpt><trkpt lat="44.61511" lon="10.55774"><ele>141.0</ele><time>2026-03-22T12:44:32.464Z</time></trkpt><trkpt lat="44.6150267" lon="10.5577383"><ele>141.0</ele><time>2026-03-22T12:44:34.464Z</time></trkpt><trkpt lat="44.6149567" lon="10.5577283"><ele>141.0</ele><time>2026-03-22T12:44:36.464Z</time></trkpt><trkpt lat="44.6148767" lon="10.5577233"><ele>141.0</ele><time>2026-03-22T12:44:38.464Z</time></trkpt><trkpt lat="44.61479" lon="10.5577167"><ele>141.0</ele><time>2026-03-22T12:44:40.464Z</time></trkpt><trkpt lat="44.6147017" lon="10.5577133"><ele>141.0</ele><time>2026-03-22T12:44:42.464Z</time></trkpt><trkpt lat="44.6146183" lon="10.55771"><ele>141.0</ele><time>2026-03-22T12:44:44.464Z</time></trkpt><trkpt lat="44.6145317" lon="10.5577017"><ele>141.0</ele><time>2026-03-22T12:44:46.464Z</time></trkpt><trkpt lat="44.6144333" lon="10.5577033"><ele>141.0</ele><time>2026-03-22T12:44:48.464Z</time></trkpt><trkpt lat="44.61435" lon="10.5576983"><ele>140.83333333333334</ele><time>2026-03-22T12:44:50.464Z</time></trkpt><trkpt lat="44.6142583" lon="10.5576967"><ele>140.66666666666666</ele><time>2026-03-22T12:44:52.464Z</time></trkpt><trkpt lat="44.6141767" lon="10.5576883"><ele>140.5</ele><time>2026-03-22T12:44:54.464Z</time></trkpt><trkpt lat="44.6140933" lon="10.5576883"><ele>140.33333333333331</ele><time>2026-03-22T12:44:56.464Z</time></trkpt><trkpt lat="44.6140233" lon="10.55768"><ele>140.16666666666666</ele><time>2026-03-22T12:44:58.465Z</time></trkpt><trkpt lat="44.6139317" lon="10.5576883"><ele>140.0</ele><time>2026-03-22T12:45:01.464Z</time></trkpt><trkpt lat="44.613865" lon="10.5576867"><ele>140.0</ele><time>2026-03-22T12:45:03.464Z</time></trkpt><trkpt lat="44.6137933" lon="10.557685"><ele>140.0</ele><time>2026-03-22T12:45:05.464Z</time></trkpt><trkpt lat="44.6137167" lon="10.557685"><ele>140.0</ele><time>2026-03-22T12:45:07.464Z</time></trkpt><trkpt lat="44.613645" lon="10.5577"><ele>140.0</ele><time>2026-03-22T12:45:09.464Z</time></trkpt><trkpt lat="44.6135767" lon="10.5576933"><ele>140.0</ele><time>2026-03-22T12:45:11.464Z</time></trkpt><trkpt lat="44.6135" lon="10.5576983"><ele>140.0</ele><time>2026-03-22T12:45:13.464Z</time></trkpt><trkpt lat="44.6134283" lon="10.557695"><ele>140.0</ele><time>2026-03-22T12:45:15.465Z</time></trkpt><trkpt lat="44.6133317" lon="10.557685"><ele>140.16666666666666</ele><time>2026-03-22T12:45:17.464Z</time></trkpt><trkpt lat="44.6132417" lon="10.5576917"><ele>140.33333333333331</ele><time>2026-03-22T12:45:19.464Z</time></trkpt><trkpt lat="44.6131433" lon="10.5576917"><ele>140.5</ele><time>2026-03-22T12:45:21.464Z</time></trkpt><trkpt lat="44.6130533" lon="10.5576883"><ele>140.66666666666666</ele><time>2026-03-22T12:45:23.464Z</time></trkpt><trkpt lat="44.6129683" lon="10.557685"><ele>140.83333333333334</ele><time>2026-03-22T12:45:25.464Z</time></trkpt><trkpt lat="44.6128833" lon="10.557675"><ele>141.0</ele><time>2026-03-22T12:45:27.464Z</time></trkpt><trkpt lat="44.6128067" lon="10.557675"><ele>141.28571428571428</ele><time>2026-03-22T12:45:29.464Z</time></trkpt><trkpt lat="44.612735" lon="10.5576717"><ele>141.57142857142856</ele><time>2026-03-22T12:45:31.464Z</time></trkpt><trkpt lat="44.6126633" lon="10.5576733"><ele>141.85714285714283</ele><time>2026-03-22T12:45:33.464Z</time></trkpt><trkpt lat="44.612595" lon="10.5576717"><ele>142.14285714285714</ele><time>2026-03-22T12:45:35.465Z</time></trkpt><trkpt lat="44.61253" lon="10.5576767"><ele>142.42857142857142</ele><time>2026-03-22T12:45:37.465Z</time></trkpt><trkpt lat="44.6124667" lon="10.55769"><ele>142.7142857142857</ele><time>2026-03-22T12:45:39.464Z</time></trkpt><trkpt lat="44.6124017" lon="10.557695"><ele>143.0</ele><time>2026-03-22T12:45:42.465Z</time></trkpt><trkpt lat="44.6123367" lon="10.5576817"><ele>142.99999999999997</ele><time>2026-03-22T12:45:45.464Z</time></trkpt><trkpt lat="44.6122583" lon="10.5576583"><ele>143.0</ele><time>2026-03-22T12:45:48.464Z</time></trkpt><trkpt lat="44.6121983" lon="10.55763"><ele>143.0</ele><time>2026-03-22T12:45:50.464Z</time></trkpt><trkpt lat="44.6121317" lon="10.5576067"><ele>143.0</ele><time>2026-03-22T12:45:52.464Z</time></trkpt><trkpt lat="44.61207" lon="10.5575717"><ele>143.0</ele><time>2026-03-22T12:45:54.465Z</time></trkpt><trkpt lat="44.61201" lon="10.557525"><ele>142.99999999999997</ele><time>2026-03-22T12:45:56.464Z</time></trkpt><trkpt lat="44.61195" lon="10.55749"><ele>143.0</ele><time>2026-03-22T12:45:58.464Z</time></trkpt><trkpt lat="44.6118617" lon="10.5574267"><ele>143.16666666666666</ele><time>2026-03-22T12:46:01.464Z</time></trkpt><trkpt lat="44.6118067" lon="10.5573783"><ele>143.33333333333331</ele><time>2026-03-22T12:46:03.464Z</time></trkpt><trkpt lat="44.61173" lon="10.5573083"><ele>143.5</ele><time>2026-03-22T12:46:06.464Z</time></trkpt><trkpt lat="44.6116633" lon="10.5572883"><ele>143.66666666666666</ele><time>2026-03-22T12:46:08.465Z</time></trkpt><trkpt lat="44.6115817" lon="10.5572917"><ele>143.83333333333334</ele><time>2026-03-22T12:46:10.464Z</time></trkpt><trkpt lat="44.6114933" lon="10.5573117"><ele>144.0</ele><time>2026-03-22T12:46:12.465Z</time></trkpt><trkpt lat="44.61141" lon="10.557305"><ele>144.00000000000003</ele><time>2026-03-22T12:46:14.464Z</time></trkpt><trkpt lat="44.61133" lon="10.5572967"><ele>144.0</ele><time>2026-03-22T12:46:16.464Z</time></trkpt><trkpt lat="44.6112483" lon="10.5572833"><ele>144.0</ele><time>2026-03-22T12:46:18.464Z</time></trkpt><trkpt lat="44.6111833" lon="10.5572667"><ele>144.0</ele><time>2026-03-22T12:46:20.464Z</time></trkpt><trkpt lat="44.611115" lon="10.557255"><ele>144.0</ele><time>2026-03-22T12:46:23.464Z</time></trkpt><trkpt lat="44.6110433" lon="10.55725"><ele>144.00000000000003</ele><time>2026-03-22T12:46:27.464Z</time></trkpt><trkpt lat="44.61098" lon="10.5572383"><ele>144.0</ele><time>2026-03-22T12:46:30.464Z</time></trkpt><trkpt lat="44.6109183" lon="10.5572067"><ele>144.0</ele><time>2026-03-22T12:46:33.465Z</time></trkpt><trkpt lat="44.6108317" lon="10.5571883"><ele>144.0</ele><time>2026-03-22T12:46:36.464Z</time></trkpt><trkpt lat="44.6107517" lon="10.55719"><ele>144.0</ele><time>2026-03-22T12:46:39.464Z</time></trkpt><trkpt lat="44.6106767" lon="10.55719"><ele>144.0</ele><time>2026-03-22T12:46:42.465Z</time></trkpt><trkpt lat="44.6106083" lon="10.55716"><ele>144.0</ele><time>2026-03-22T12:46:45.464Z</time></trkpt><trkpt lat="44.6105283" lon="10.5571267"><ele>144.0</ele><time>2026-03-22T12:46:48.465Z</time></trkpt><trkpt lat="44.6104683" lon="10.5570733"><ele>144.0</ele><time>2026-03-22T12:46:51.464Z</time></trkpt><trkpt lat="44.61041" lon="10.5570367"><ele>144.0</ele><time>2026-03-22T12:46:54.465Z</time></trkpt><trkpt lat="44.6103583" lon="10.5569733"><ele>144.0</ele><time>2026-03-22T12:46:57.464Z</time></trkpt><trkpt lat="44.6103117" lon="10.55688"><ele>144.0</ele><time>2026-03-22T12:47:00.464Z</time></trkpt><trkpt lat="44.61025" lon="10.5567783"><ele>144.0</ele><time>2026-03-22T12:47:03.464Z</time></trkpt><trkpt lat="44.6102017" lon="10.5567017"><ele>144.0</ele><time>2026-03-22T12:47:05.464Z</time></trkpt><trkpt lat="44.6101533" lon="10.5566333"><ele>144.66666666666666</ele><time>2026-03-22T12:47:07.464Z</time></trkpt><trkpt lat="44.6101033" lon="10.5565667"><ele>145.33333333333334</ele><time>2026-03-22T12:47:09.464Z</time></trkpt><trkpt lat="44.6100383" lon="10.5564967"><ele>146.0</ele><time>2026-03-22T12:47:11.464Z</time></trkpt><trkpt lat="44.6099733" lon="10.556435"><ele>146.66666666666669</ele><time>2026-03-22T12:47:13.465Z</time></trkpt><trkpt lat="44.6099133" lon="10.55638"><ele>147.33333333333334</ele><time>2026-03-22T12:47:15.465Z</time></trkpt><trkpt lat="44.609825" lon="10.556305"><ele>148.0</ele><time>2026-03-22T12:47:18.464Z</time></trkpt><trkpt lat="44.6097433" lon="10.5562517"><ele>148.16666666666669</ele><time>2026-03-22T12:47:21.464Z</time></trkpt><trkpt lat="44.609675" lon="10.5561883"><ele>148.33333333333334</ele><time>2026-03-22T12:47:24.464Z</time></trkpt><trkpt lat="44.60959" lon="10.55615"><ele>148.5</ele><time>2026-03-22T12:47:27.464Z</time></trkpt><trkpt lat="44.609525" lon="10.5561233"><ele>148.66666666666666</ele><time>2026-03-22T12:47:29.464Z</time></trkpt><trkpt lat="44.6094617" lon="10.55607"><ele>148.83333333333331</ele><time>2026-03-22T12:47:31.465Z</time></trkpt><trkpt lat="44.6094017" lon="10.5560217"><ele>149.0</ele><time>2026-03-22T12:47:33.464Z</time></trkpt><trkpt lat="44.6093367" lon="10.5559783"><ele>149.33333333333331</ele><time>2026-03-22T12:47:35.464Z</time></trkpt><trkpt lat="44.60928" lon="10.5559317"><ele>149.66666666666666</ele><time>2026-03-22T12:47:37.464Z</time></trkpt><trkpt lat="44.6092333" lon="10.5558617"><ele>150.0</ele><time>2026-03-22T12:47:39.465Z</time></trkpt><trkpt lat="44.609185" lon="10.555795"><ele>150.33333333333334</ele><time>2026-03-22T12:47:41.464Z</time></trkpt><trkpt lat="44.609135" lon="10.5557367"><ele>150.66666666666669</ele><time>2026-03-22T12:47:43.465Z</time></trkpt><trkpt lat="44.609065" lon="10.55564"><ele>151.0</ele><time>2026-03-22T12:47:45.464Z</time></trkpt><trkpt lat="44.609" lon="10.55554"><ele>151.0</ele><time>2026-03-22T12:47:47.465Z</time></trkpt><trkpt lat="44.6089383" lon="10.555435"><ele>151.0</ele><time>2026-03-22T12:47:49.464Z</time></trkpt><trkpt lat="44.608895" lon="10.5553483"><ele>151.0</ele><time>2026-03-22T12:47:51.464Z</time></trkpt><trkpt lat="44.6088583" lon="10.5552583"><ele>151.0</ele><time>2026-03-22T12:47:53.464Z</time></trkpt><trkpt lat="44.6088217" lon="10.55517"><ele>151.0</ele><time>2026-03-22T12:47:55.464Z</time></trkpt><trkpt lat="44.6087817" lon="10.5550683"><ele>151.0</ele><time>2026-03-22T12:47:58.464Z</time></trkpt><trkpt lat="44.6087367" lon="10.5549583"><ele>151.14285714285717</ele><time>2026-03-22T12:48:01.464Z</time></trkpt><trkpt lat="44.6086967" lon="10.5548717"><ele>151.28571428571428</ele><time>2026-03-22T12:48:03.464Z</time></trkpt><trkpt lat="44.60866" lon="10.5547783"><ele>151.42857142857144</ele><time>2026-03-22T12:48:05.464Z</time></trkpt><trkpt lat="44.60864" lon="10.5546933"><ele>151.57142857142858</ele><time>2026-03-22T12:48:07.464Z</time></trkpt><trkpt lat="44.6086183" lon="10.5545917"><ele>151.71428571428572</ele><time>2026-03-22T12:48:10.464Z</time></trkpt><trkpt lat="44.6085983" lon="10.5544617"><ele>151.85714285714286</ele><time>2026-03-22T12:48:13.464Z</time></trkpt><trkpt lat="44.6085733" lon="10.55438"><ele>152.0</ele><time>2026-03-22T12:48:15.464Z</time></trkpt><trkpt lat="44.6085467" lon="10.554295"><ele>152.0</ele><time>2026-03-22T12:48:18.464Z</time></trkpt><trkpt lat="44.6085333" lon="10.5542033"><ele>152.0</ele><time>2026-03-22T12:48:20.464Z</time></trkpt><trkpt lat="44.6085017" lon="10.5540883"><ele>152.0</ele><time>2026-03-22T12:48:22.464Z</time></trkpt><trkpt lat="44.6084633" lon="10.553965"><ele>152.0</ele><time>2026-03-22T12:48:24.465Z</time></trkpt><trkpt lat="44.608415" lon="10.5538617"><ele>152.0</ele><time>2026-03-22T12:48:26.464Z</time></trkpt><trkpt lat="44.608375" lon="10.5537633"><ele>152.0</ele><time>2026-03-22T12:48:28.464Z</time></trkpt><trkpt lat="44.6083333" lon="10.5536817"><ele>152.33333333333331</ele><time>2026-03-22T12:48:30.464Z</time></trkpt><trkpt lat="44.60829" lon="10.5536083"><ele>152.66666666666666</ele><time>2026-03-22T12:48:32.464Z</time></trkpt><trkpt lat="44.6082667" lon="10.553495"><ele>153.0</ele><time>2026-03-22T12:48:34.465Z</time></trkpt><trkpt lat="44.6082483" lon="10.5533817"><ele>153.33333333333334</ele><time>2026-03-22T12:48:36.464Z</time></trkpt><trkpt lat="44.6082283" lon="10.5532583"><ele>153.66666666666669</ele><time>2026-03-22T12:48:38.465Z</time></trkpt><trkpt lat="44.6081983" lon="10.5531733"><ele>154.0</ele><time>2026-03-22T12:48:40.464Z</time></trkpt><trkpt lat="44.6081483" lon="10.55307"><ele>154.0</ele><time>2026-03-22T12:48:42.464Z</time></trkpt><trkpt lat="44.6081083" lon="10.5529967"><ele>154.0</ele><time>2026-03-22T12:48:44.464Z</time></trkpt><trkpt lat="44.6080717" lon="10.5528783"><ele>154.0</ele><time>2026-03-22T12:48:47.465Z</time></trkpt><trkpt lat="44.60805" lon="10.5527683"><ele>154.0</ele><time>2026-03-22T12:48:49.464Z</time></trkpt><trkpt lat="44.60804" lon="10.55266"><ele>154.0</ele><time>2026-03-22T12:48:51.464Z</time></trkpt><trkpt lat="44.6080367" lon="10.5525317"><ele>154.0</ele><time>2026-03-22T12:48:53.464Z</time></trkpt><trkpt lat="44.6080383" lon="10.552425"><ele>154.0</ele><time>2026-03-22T12:48:55.464Z</time></trkpt><trkpt lat="44.6080367" lon="10.5523133"><ele>154.0</ele><time>2026-03-22T12:48:57.464Z</time></trkpt><trkpt lat="44.60801" lon="10.552205"><ele>154.0</ele><time>2026-03-22T12:48:59.465Z</time></trkpt><trkpt lat="44.60795" lon="10.5521267"><ele>154.0</ele><time>2026-03-22T12:49:01.464Z</time></trkpt><trkpt lat="44.60788" lon="10.5520433"><ele>154.0</ele><time>2026-03-22T12:49:03.464Z</time></trkpt><trkpt lat="44.6078017" lon="10.5519867"><ele>154.0</ele><time>2026-03-22T12:49:05.465Z</time></trkpt><trkpt lat="44.6077233" lon="10.551925"><ele>153.83333333333334</ele><time>2026-03-22T12:49:07.465Z</time></trkpt><trkpt lat="44.6076533" lon="10.55187"><ele>153.66666666666669</ele><time>2026-03-22T12:49:09.464Z</time></trkpt><trkpt lat="44.6075867" lon="10.5517967"><ele>153.5</ele><time>2026-03-22T12:49:11.465Z</time></trkpt><trkpt lat="44.607535" lon="10.551725"><ele>153.33333333333334</ele><time>2026-03-22T12:49:13.464Z</time></trkpt><trkpt lat="44.607495" lon="10.5516267"><ele>153.16666666666666</ele><time>2026-03-22T12:49:16.464Z</time></trkpt><trkpt lat="44.6074733" lon="10.5515067"><ele>153.0</ele><time>2026-03-22T12:49:19.464Z</time></trkpt><trkpt lat="44.6074567" lon="10.55141"><ele>153.0</ele><time>2026-03-22T12:49:21.464Z</time></trkpt><trkpt lat="44.6074183" lon="10.5512983"><ele>153.0</ele><time>2026-03-22T12:49:24.464Z</time></trkpt><trkpt lat="44.6073967" lon="10.5512117"><ele>153.0</ele><time>2026-03-22T12:49:26.464Z</time></trkpt><trkpt lat="44.6073617" lon="10.5511267"><ele>153.0</ele><time>2026-03-22T12:49:28.464Z</time></trkpt><trkpt lat="44.60732" lon="10.5510483"><ele>153.0</ele><time>2026-03-22T12:49:30.464Z</time></trkpt><trkpt lat="44.6072683" lon="10.5509767"><ele>153.0</ele><time>2026-03-22T12:49:32.464Z</time></trkpt><trkpt lat="44.60723" lon="10.55088"><ele>153.0</ele><time>2026-03-22T12:49:34.465Z</time></trkpt><trkpt lat="44.60721" lon="10.55079"><ele>153.33333333333334</ele><time>2026-03-22T12:49:36.464Z</time></trkpt><trkpt lat="44.6071967" lon="10.5506917"><ele>153.66666666666666</ele><time>2026-03-22T12:49:38.464Z</time></trkpt><trkpt lat="44.6071933" lon="10.5505617"><ele>154.0</ele><time>2026-03-22T12:49:40.464Z</time></trkpt><trkpt lat="44.607185" lon="10.550445"><ele>154.33333333333331</ele><time>2026-03-22T12:49:42.464Z</time></trkpt><trkpt lat="44.6071783" lon="10.550345"><ele>154.66666666666666</ele><time>2026-03-22T12:49:44.464Z</time></trkpt><trkpt lat="44.607175" lon="10.5502367"><ele>155.0</ele><time>2026-03-22T12:49:46.464Z</time></trkpt><trkpt lat="44.6071733" lon="10.55014"><ele>155.16666666666666</ele><time>2026-03-22T12:49:48.464Z</time></trkpt><trkpt lat="44.6071683" lon="10.5500517"><ele>155.33333333333331</ele><time>2026-03-22T12:49:50.464Z</time></trkpt><trkpt lat="44.6071667" lon="10.5499617"><ele>155.5</ele><time>2026-03-22T12:49:52.465Z</time></trkpt><trkpt lat="44.6071667" lon="10.549825"><ele>155.66666666666666</ele><time>2026-03-22T12:49:55.465Z</time></trkpt><trkpt lat="44.6071733" lon="10.5497117"><ele>155.83333333333334</ele><time>2026-03-22T12:49:57.465Z</time></trkpt><trkpt lat="44.6071733" lon="10.5496133"><ele>156.0</ele><time>2026-03-22T12:49:59.465Z</time></trkpt><trkpt lat="44.607175" lon="10.5494933"><ele>156.14285714285714</ele><time>2026-03-22T12:50:02.465Z</time></trkpt><trkpt lat="44.6071867" lon="10.5494033"><ele>156.28571428571428</ele><time>2026-03-22T12:50:04.465Z</time></trkpt><trkpt lat="44.6072083" lon="10.5493167"><ele>156.42857142857142</ele><time>2026-03-22T12:50:06.465Z</time></trkpt><trkpt lat="44.60726" lon="10.54924"><ele>156.57142857142856</ele><time>2026-03-22T12:50:10.466Z</time></trkpt><trkpt lat="44.6073233" lon="10.5491683"><ele>156.71428571428572</ele><time>2026-03-22T12:50:13.465Z</time></trkpt><trkpt lat="44.60737" lon="10.5491067"><ele>156.85714285714283</ele><time>2026-03-22T12:50:15.465Z</time></trkpt><trkpt lat="44.6074167" lon="10.549035"><ele>157.0</ele><time>2026-03-22T12:50:18.465Z</time></trkpt><trkpt lat="44.6074683" lon="10.5489667"><ele>157.0</ele><time>2026-03-22T12:50:21.466Z</time></trkpt><trkpt lat="44.6075233" lon="10.5488767"><ele>157.0</ele><time>2026-03-22T12:50:24.465Z</time></trkpt><trkpt lat="44.6075833" lon="10.5487617"><ele>157.0</ele><time>2026-03-22T12:50:27.465Z</time></trkpt><trkpt lat="44.6076217" lon="10.5486883"><ele>157.0</ele><time>2026-03-22T12:50:29.465Z</time></trkpt><trkpt lat="44.6076833" lon="10.548595"><ele>157.0</ele><time>2026-03-22T12:50:32.465Z</time></trkpt><trkpt lat="44.60773" lon="10.5485233"><ele>157.0</ele><time>2026-03-22T12:50:34.465Z</time></trkpt><trkpt lat="44.6077783" lon="10.54846"><ele>157.28571428571428</ele><time>2026-03-22T12:50:36.466Z</time></trkpt><trkpt lat="44.60786" lon="10.548425"><ele>157.57142857142856</ele><time>2026-03-22T12:50:39.465Z</time></trkpt><trkpt lat="44.607905" lon="10.5485083"><ele>157.85714285714283</ele><time>2026-03-22T12:50:46.465Z</time></trkpt><trkpt lat="44.6079183" lon="10.5486067"><ele>158.14285714285714</ele><time>2026-03-22T12:50:49.465Z</time></trkpt><trkpt lat="44.60791" lon="10.54872"><ele>158.42857142857144</ele><time>2026-03-22T12:50:52.465Z</time></trkpt><trkpt lat="44.6079067" lon="10.548815"><ele>158.7142857142857</ele><time>2026-03-22T12:50:54.466Z</time></trkpt><trkpt lat="44.6078983" lon="10.5489083"><ele>159.0</ele><time>2026-03-22T12:50:56.465Z</time></trkpt><trkpt lat="44.6078783" lon="10.5490067"><ele>159.0</ele><time>2026-03-22T12:50:58.466Z</time></trkpt><trkpt lat="44.6078433" lon="10.549085"><ele>159.0</ele><time>2026-03-22T12:51:00.465Z</time></trkpt><trkpt lat="44.6077867" lon="10.54914"><ele>159.0</ele><time>2026-03-22T12:51:02.465Z</time></trkpt><trkpt lat="44.607725" lon="10.549175"><ele>159.0</ele><time>2026-03-22T12:51:04.465Z</time></trkpt><trkpt lat="44.6076283" lon="10.5491967"><ele>159.0</ele><time>2026-03-22T12:51:07.465Z</time></trkpt><trkpt lat="44.6075567" lon="10.5491933"><ele>159.0</ele><time>2026-03-22T12:51:09.465Z</time></trkpt><trkpt lat="44.6074817" lon="10.5491867"><ele>159.0</ele><time>2026-03-22T12:51:11.465Z</time></trkpt><trkpt lat="44.6073883" lon="10.5491683"><ele>158.85714285714286</ele><time>2026-03-22T12:51:14.465Z</time></trkpt><trkpt lat="44.60731" lon="10.5491617"><ele>158.71428571428572</ele><time>2026-03-22T12:51:16.465Z</time></trkpt><trkpt lat="44.607235" lon="10.5491583"><ele>158.57142857142858</ele><time>2026-03-22T12:51:18.465Z</time></trkpt><trkpt lat="44.6071617" lon="10.5491583"><ele>158.42857142857144</ele><time>2026-03-22T12:51:20.465Z</time></trkpt><trkpt lat="44.6070867" lon="10.54914"><ele>158.28571428571428</ele><time>2026-03-22T12:51:22.465Z</time></trkpt><trkpt lat="44.6070167" lon="10.549125"><ele>158.14285714285717</ele><time>2026-03-22T12:51:24.465Z</time></trkpt><trkpt lat="44.6069533" lon="10.54911"><ele>158.0</ele><time>2026-03-22T12:51:26.465Z</time></trkpt><trkpt lat="44.6068733" lon="10.5491367"><ele>158.0</ele><time>2026-03-22T12:51:29.465Z</time></trkpt><trkpt lat="44.606775" lon="10.5491433"><ele>158.0</ele><time>2026-03-22T12:51:32.466Z</time></trkpt><trkpt lat="44.6067" lon="10.5491333"><ele>158.0</ele><time>2026-03-22T12:51:34.465Z</time></trkpt><trkpt lat="44.6066367" lon="10.54912"><ele>158.0</ele><time>2026-03-22T12:51:36.465Z</time></trkpt><trkpt lat="44.6065667" lon="10.5491233"><ele>158.0</ele><time>2026-03-22T12:51:38.465Z</time></trkpt><trkpt lat="44.60649" lon="10.5491083"><ele>158.0</ele><time>2026-03-22T12:51:40.465Z</time></trkpt><trkpt lat="44.606425" lon="10.5491517"><ele>158.0</ele><time>2026-03-22T12:51:43.465Z</time></trkpt><trkpt lat="44.6063567" lon="10.5492"><ele>158.0</ele><time>2026-03-22T12:51:45.465Z</time></trkpt><trkpt lat="44.60628" lon="10.54921"><ele>158.0</ele><time>2026-03-22T12:51:47.465Z</time></trkpt><trkpt lat="44.6062133" lon="10.549205"><ele>158.0</ele><time>2026-03-22T12:51:49.466Z</time></trkpt><trkpt lat="44.6061383" lon="10.5491983"><ele>158.0</ele><time>2026-03-22T12:51:51.465Z</time></trkpt><trkpt lat="44.606055" lon="10.5491783"><ele>158.0</ele><time>2026-03-22T12:51:53.465Z</time></trkpt><trkpt lat="44.6059717" lon="10.5491617"><ele>158.16666666666666</ele><time>2026-03-22T12:51:55.465Z</time></trkpt><trkpt lat="44.6058967" lon="10.5491383"><ele>158.33333333333331</ele><time>2026-03-22T12:51:57.465Z</time></trkpt><trkpt lat="44.6058333" lon="10.5491267"><ele>158.5</ele><time>2026-03-22T12:51:59.465Z</time></trkpt><trkpt lat="44.6057567" lon="10.5491033"><ele>158.66666666666666</ele><time>2026-03-22T12:52:01.465Z</time></trkpt><trkpt lat="44.605675" lon="10.54906"><ele>158.83333333333334</ele><time>2026-03-22T12:52:04.465Z</time></trkpt><trkpt lat="44.6056133" lon="10.5490033"><ele>159.0</ele><time>2026-03-22T12:52:07.466Z</time></trkpt><trkpt lat="44.605545" lon="10.548955"><ele>159.0</ele><time>2026-03-22T12:52:09.465Z</time></trkpt><trkpt lat="44.60547" lon="10.5489"><ele>159.0</ele><time>2026-03-22T12:52:11.465Z</time></trkpt><trkpt lat="44.6053967" lon="10.5488567"><ele>159.0</ele><time>2026-03-22T12:52:13.465Z</time></trkpt><trkpt lat="44.6053417" lon="10.548785"><ele>159.0</ele><time>2026-03-22T12:52:15.465Z</time></trkpt><trkpt lat="44.6052833" lon="10.5487483"><ele>159.0</ele><time>2026-03-22T12:52:17.465Z</time></trkpt><trkpt lat="44.60522" lon="10.548715"><ele>159.0</ele><time>2026-03-22T12:52:19.465Z</time></trkpt><trkpt lat="44.60516" lon="10.5486867"><ele>159.0</ele><time>2026-03-22T12:52:21.465Z</time></trkpt><trkpt lat="44.6050817" lon="10.5486417"><ele>159.83333333333334</ele><time>2026-03-22T12:52:24.465Z</time></trkpt><trkpt lat="44.6050117" lon="10.548575"><ele>160.66666666666666</ele><time>2026-03-22T12:52:27.466Z</time></trkpt><trkpt lat="44.60494" lon="10.5484967"><ele>161.5</ele><time>2026-03-22T12:52:30.466Z</time></trkpt><trkpt lat="44.6048733" lon="10.548455"><ele>162.33333333333331</ele><time>2026-03-22T12:52:32.466Z</time></trkpt><trkpt lat="44.6048133" lon="10.54841"><ele>163.16666666666666</ele><time>2026-03-22T12:52:34.465Z</time></trkpt><trkpt lat="44.6047433" lon="10.5483667"><ele>164.0</ele><time>2026-03-22T12:52:36.465Z</time></trkpt><trkpt lat="44.60466" lon="10.5483067"><ele>164.0</ele><time>2026-03-22T12:52:39.465Z</time></trkpt><trkpt lat="44.60458" lon="10.54825"><ele>164.0</ele><time>2026-03-22T12:52:42.466Z</time></trkpt><trkpt lat="44.604515" lon="10.548205"><ele>164.0</ele><time>2026-03-22T12:52:44.465Z</time></trkpt><trkpt lat="44.6044433" lon="10.5481633"><ele>164.0</ele><time>2026-03-22T12:52:46.465Z</time></trkpt><trkpt lat="44.6043767" lon="10.5481167"><ele>164.0</ele><time>2026-03-22T12:52:48.466Z</time></trkpt><trkpt lat="44.6043117" lon="10.5480783"><ele>164.0</ele><time>2026-03-22T12:52:50.465Z</time></trkpt><trkpt lat="44.604245" lon="10.5480317"><ele>163.85714285714283</ele><time>2026-03-22T12:52:52.465Z</time></trkpt><trkpt lat="44.60417" lon="10.5479983"><ele>163.71428571428572</ele><time>2026-03-22T12:52:54.466Z</time></trkpt><trkpt lat="44.6041017" lon="10.5479683"><ele>163.57142857142856</ele><time>2026-03-22T12:52:56.465Z</time></trkpt><trkpt lat="44.604045" lon="10.54791"><ele>163.42857142857142</ele><time>2026-03-22T12:52:58.465Z</time></trkpt><trkpt lat="44.6039867" lon="10.5478633"><ele>163.28571428571428</ele><time>2026-03-22T12:53:00.466Z</time></trkpt><trkpt lat="44.603935" lon="10.5477917"><ele>163.14285714285714</ele><time>2026-03-22T12:53:04.465Z</time></trkpt><trkpt lat="44.6038567" lon="10.5477967"><ele>163.0</ele><time>2026-03-22T12:53:07.465Z</time></trkpt><trkpt lat="44.6037717" lon="10.5478017"><ele>163.14285714285714</ele><time>2026-03-22T12:53:09.465Z</time></trkpt><trkpt lat="44.603705" lon="10.54779"><ele>163.28571428571428</ele><time>2026-03-22T12:53:11.465Z</time></trkpt><trkpt lat="44.60363" lon="10.5477733"><ele>163.42857142857142</ele><time>2026-03-22T12:53:13.465Z</time></trkpt><trkpt lat="44.6035567" lon="10.5477717"><ele>163.57142857142856</ele><time>2026-03-22T12:53:15.465Z</time></trkpt><trkpt lat="44.60349" lon="10.5477917"><ele>163.71428571428572</ele><time>2026-03-22T12:53:18.466Z</time></trkpt><trkpt lat="44.6034283" lon="10.5478217"><ele>163.85714285714283</ele><time>2026-03-22T12:53:20.465Z</time></trkpt><trkpt lat="44.603375" lon="10.5479283"><ele>164.0</ele><time>2026-03-22T12:53:23.465Z</time></trkpt><trkpt lat="44.6033533" lon="10.5480217"><ele>164.0</ele><time>2026-03-22T12:53:25.465Z</time></trkpt><trkpt lat="44.6033317" lon="10.5481517"><ele>164.0</ele><time>2026-03-22T12:53:28.465Z</time></trkpt><trkpt lat="44.6033283" lon="10.548285"><ele>164.0</ele><time>2026-03-22T12:53:31.465Z</time></trkpt><trkpt lat="44.6033233" lon="10.54841"><ele>164.0</ele><time>2026-03-22T12:53:34.465Z</time></trkpt><trkpt lat="44.6032983" lon="10.5485233"><ele>164.0</ele><time>2026-03-22T12:53:36.465Z</time></trkpt><trkpt lat="44.6032767" lon="10.5486333"><ele>164.0</ele><time>2026-03-22T12:53:38.466Z</time></trkpt><trkpt lat="44.6032683" lon="10.548725"><ele>163.66666666666666</ele><time>2026-03-22T12:53:40.465Z</time></trkpt><trkpt lat="44.6032683" lon="10.5488233"><ele>163.33333333333331</ele><time>2026-03-22T12:53:42.465Z</time></trkpt><trkpt lat="44.6032733" lon="10.5489317"><ele>163.0</ele><time>2026-03-22T12:53:44.465Z</time></trkpt><trkpt lat="44.6032617" lon="10.549035"><ele>162.66666666666666</ele><time>2026-03-22T12:53:46.465Z</time></trkpt><trkpt lat="44.6032467" lon="10.5491283"><ele>162.33333333333334</ele><time>2026-03-22T12:53:48.465Z</time></trkpt><trkpt lat="44.603225" lon="10.5492283"><ele>162.0</ele><time>2026-03-22T12:53:50.465Z</time></trkpt><trkpt lat="44.6032133" lon="10.5493483"><ele>162.0</ele><time>2026-03-22T12:53:53.466Z</time></trkpt><trkpt lat="44.6031967" lon="10.5494733"><ele>162.0</ele><time>2026-03-22T12:53:56.466Z</time></trkpt><trkpt lat="44.6031383" lon="10.5495783"><ele>162.0</ele><time>2026-03-22T12:53:59.465Z</time></trkpt><trkpt lat="44.6030733" lon="10.5496033"><ele>162.0</ele><time>2026-03-22T12:54:01.466Z</time></trkpt><trkpt lat="44.6029867" lon="10.54961"><ele>162.0</ele><time>2026-03-22T12:54:03.465Z</time></trkpt><trkpt lat="44.60291" lon="10.5496133"><ele>162.0</ele><time>2026-03-22T12:54:05.465Z</time></trkpt><trkpt lat="44.6028467" lon="10.54961"><ele>161.66666666666666</ele><time>2026-03-22T12:54:07.466Z</time></trkpt><trkpt lat="44.60276" lon="10.54961"><ele>161.33333333333334</ele><time>2026-03-22T12:54:10.466Z</time></trkpt><trkpt lat="44.6026817" lon="10.549615"><ele>161.0</ele><time>2026-03-22T12:54:13.465Z</time></trkpt><trkpt lat="44.60261" lon="10.5496217"><ele>160.66666666666669</ele><time>2026-03-22T12:54:16.465Z</time></trkpt><trkpt lat="44.602515" lon="10.5496083"><ele>160.33333333333334</ele><time>2026-03-22T12:54:19.465Z</time></trkpt><trkpt lat="44.6024433" lon="10.5495933"><ele>160.0</ele><time>2026-03-22T12:54:21.465Z</time></trkpt><trkpt lat="44.60237" lon="10.54959"><ele>160.0</ele><time>2026-03-22T12:54:23.465Z</time></trkpt><trkpt lat="44.6023067" lon="10.5495967"><ele>160.0</ele><time>2026-03-22T12:54:25.466Z</time></trkpt><trkpt lat="44.6022317" lon="10.549585"><ele>160.0</ele><time>2026-03-22T12:54:27.465Z</time></trkpt><trkpt lat="44.602145" lon="10.5495517"><ele>160.0</ele><time>2026-03-22T12:54:29.465Z</time></trkpt><trkpt lat="44.60204" lon="10.549505"><ele>160.0</ele><time>2026-03-22T12:54:31.466Z</time></trkpt><trkpt lat="44.6019533" lon="10.5494733"><ele>160.0</ele><time>2026-03-22T12:54:33.465Z</time></trkpt><trkpt lat="44.6018683" lon="10.5494433"><ele>160.0</ele><time>2026-03-22T12:54:36.465Z</time></trkpt><trkpt lat="44.6017733" lon="10.5494383"><ele>160.0</ele><time>2026-03-22T12:54:39.465Z</time></trkpt><trkpt lat="44.6016983" lon="10.5494233"><ele>160.0</ele><time>2026-03-22T12:54:41.465Z</time></trkpt><trkpt lat="44.60163" lon="10.5494033"><ele>160.0</ele><time>2026-03-22T12:54:43.465Z</time></trkpt><trkpt lat="44.6015583" lon="10.5493833"><ele>160.0</ele><time>2026-03-22T12:54:45.466Z</time></trkpt><trkpt lat="44.601495" lon="10.54936"><ele>160.0</ele><time>2026-03-22T12:54:47.465Z</time></trkpt><trkpt lat="44.6014183" lon="10.5493383"><ele>160.0</ele><time>2026-03-22T12:54:49.465Z</time></trkpt><trkpt lat="44.6013433" lon="10.54931"><ele>160.0</ele><time>2026-03-22T12:54:51.465Z</time></trkpt><trkpt lat="44.6012583" lon="10.549285"><ele>160.0</ele><time>2026-03-22T12:54:53.465Z</time></trkpt><trkpt lat="44.601185" lon="10.549265"><ele>160.0</ele><time>2026-03-22T12:54:55.465Z</time></trkpt><trkpt lat="44.6011183" lon="10.549225"><ele>160.0</ele><time>2026-03-22T12:54:57.465Z</time></trkpt><trkpt lat="44.601065" lon="10.5491633"><ele>160.0</ele><time>2026-03-22T12:54:59.465Z</time></trkpt><trkpt lat="44.6010067" lon="10.5490983"><ele>160.5</ele><time>2026-03-22T12:55:01.465Z</time></trkpt><trkpt lat="44.6009367" lon="10.5490317"><ele>161.0</ele><time>2026-03-22T12:55:03.465Z</time></trkpt><trkpt lat="44.6008683" lon="10.5489667"><ele>161.5</ele><time>2026-03-22T12:55:05.465Z</time></trkpt><trkpt lat="44.6008017" lon="10.548865"><ele>162.0</ele><time>2026-03-22T12:55:07.465Z</time></trkpt><trkpt lat="44.6007383" lon="10.54877"><ele>162.5</ele><time>2026-03-22T12:55:09.465Z</time></trkpt><trkpt lat="44.600675" lon="10.54871"><ele>163.0</ele><time>2026-03-22T12:55:11.465Z</time></trkpt><trkpt lat="44.6006183" lon="10.5486467"><ele>163.16666666666669</ele><time>2026-03-22T12:55:13.466Z</time></trkpt><trkpt lat="44.6005633" lon="10.5485733"><ele>163.33333333333334</ele><time>2026-03-22T12:55:15.465Z</time></trkpt><trkpt lat="44.6005117" lon="10.54851"><ele>163.5</ele><time>2026-03-22T12:55:17.465Z</time></trkpt><trkpt lat="44.6004567" lon="10.5484433"><ele>163.66666666666666</ele><time>2026-03-22T12:55:19.465Z</time></trkpt><trkpt lat="44.6003983" lon="10.54838"><ele>163.83333333333331</ele><time>2026-03-22T12:55:21.466Z</time></trkpt><trkpt lat="44.60032" lon="10.5482917"><ele>164.0</ele><time>2026-03-22T12:55:24.466Z</time></trkpt><trkpt lat="44.60027" lon="10.54823"><ele>164.0</ele><time>2026-03-22T12:55:26.465Z</time></trkpt><trkpt lat="44.6002033" lon="10.5481417"><ele>164.0</ele><time>2026-03-22T12:55:29.465Z</time></trkpt><trkpt lat="44.6001283" lon="10.5480533"><ele>164.0</ele><time>2026-03-22T12:55:32.465Z</time></trkpt><trkpt lat="44.6000667" lon="10.54796"><ele>164.0</ele><time>2026-03-22T12:55:34.465Z</time></trkpt><trkpt lat="44.5999983" lon="10.5478683"><ele>164.0</ele><time>2026-03-22T12:55:36.465Z</time></trkpt><trkpt lat="44.5999583" lon="10.54777"><ele>164.33333333333331</ele><time>2026-03-22T12:55:38.465Z</time></trkpt><trkpt lat="44.5999117" lon="10.5476883"><ele>164.66666666666666</ele><time>2026-03-22T12:55:40.466Z</time></trkpt><trkpt lat="44.5998667" lon="10.54761"><ele>165.0</ele><time>2026-03-22T12:55:42.465Z</time></trkpt><trkpt lat="44.599815" lon="10.5475367"><ele>165.33333333333334</ele><time>2026-03-22T12:55:44.465Z</time></trkpt><trkpt lat="44.5997667" lon="10.54746"><ele>165.66666666666669</ele><time>2026-03-22T12:55:46.466Z</time></trkpt><trkpt lat="44.5997283" lon="10.5473817"><ele>166.0</ele><time>2026-03-22T12:55:48.465Z</time></trkpt><trkpt lat="44.5996733" lon="10.5472783"><ele>166.0</ele><time>2026-03-22T12:55:51.465Z</time></trkpt><trkpt lat="44.5996233" lon="10.5471683"><ele>166.0</ele><time>2026-03-22T12:55:54.465Z</time></trkpt><trkpt lat="44.59957" lon="10.5470783"><ele>166.0</ele><time>2026-03-22T12:55:57.465Z</time></trkpt><trkpt lat="44.5995167" lon="10.546975"><ele>166.0</ele><time>2026-03-22T12:56:00.465Z</time></trkpt><trkpt lat="44.599475" lon="10.5469067"><ele>166.0</ele><time>2026-03-22T12:56:02.466Z</time></trkpt><trkpt lat="44.5994183" lon="10.5468267"><ele>166.0</ele><time>2026-03-22T12:56:04.465Z</time></trkpt><trkpt lat="44.5993667" lon="10.54675"><ele>166.20000000000002</ele><time>2026-03-22T12:56:06.465Z</time></trkpt><trkpt lat="44.5993017" lon="10.5466817"><ele>166.4</ele><time>2026-03-22T12:56:08.465Z</time></trkpt><trkpt lat="44.5992167" lon="10.546605"><ele>166.6</ele><time>2026-03-22T12:56:10.465Z</time></trkpt><trkpt lat="44.5991283" lon="10.546525"><ele>166.8</ele><time>2026-03-22T12:56:12.465Z</time></trkpt><trkpt lat="44.5990617" lon="10.5464583"><ele>167.0</ele><time>2026-03-22T12:56:14.465Z</time></trkpt><trkpt lat="44.5989783" lon="10.5463783"><ele>167.0</ele><time>2026-03-22T12:56:17.465Z</time></trkpt><trkpt lat="44.5988967" lon="10.5462983"><ele>167.0</ele><time>2026-03-22T12:56:20.465Z</time></trkpt><trkpt lat="44.5988433" lon="10.5462367"><ele>167.0</ele><time>2026-03-22T12:56:22.465Z</time></trkpt><trkpt lat="44.5987883" lon="10.5461867"><ele>167.0</ele><time>2026-03-22T12:56:24.465Z</time></trkpt><trkpt lat="44.5987333" lon="10.5461383"><ele>167.0</ele><time>2026-03-22T12:56:26.465Z</time></trkpt><trkpt lat="44.598655" lon="10.5460783"><ele>167.0</ele><time>2026-03-22T12:56:29.465Z</time></trkpt><trkpt lat="44.5985783" lon="10.5460367"><ele>166.83333333333331</ele><time>2026-03-22T12:56:31.465Z</time></trkpt><trkpt lat="44.5985" lon="10.5460017"><ele>166.66666666666666</ele><time>2026-03-22T12:56:33.465Z</time></trkpt><trkpt lat="44.5984167" lon="10.5459817"><ele>166.5</ele><time>2026-03-22T12:56:35.465Z</time></trkpt><trkpt lat="44.5983333" lon="10.54594"><ele>166.33333333333334</ele><time>2026-03-22T12:56:37.466Z</time></trkpt><trkpt lat="44.5982617" lon="10.54591"><ele>166.16666666666669</ele><time>2026-03-22T12:56:39.465Z</time></trkpt><trkpt lat="44.5981883" lon="10.54586"><ele>166.0</ele><time>2026-03-22T12:56:41.466Z</time></trkpt><trkpt lat="44.5981267" lon="10.5458067"><ele>166.0</ele><time>2026-03-22T12:56:43.465Z</time></trkpt><trkpt lat="44.5980433" lon="10.5457417"><ele>166.0</ele><time>2026-03-22T12:56:46.465Z</time></trkpt><trkpt lat="44.5979733" lon="10.54568"><ele>166.0</ele><time>2026-03-22T12:56:49.465Z</time></trkpt><trkpt lat="44.5978883" lon="10.5456367"><ele>166.0</ele><time>2026-03-22T12:56:52.465Z</time></trkpt><trkpt lat="44.5978333" lon="10.54568"><ele>166.0</ele><time>2026-03-22T12:56:55.465Z</time></trkpt><trkpt lat="44.5977817" lon="10.545745"><ele>166.0</ele><time>2026-03-22T12:56:58.465Z</time></trkpt><trkpt lat="44.5977233" lon="10.5458133"><ele>166.5</ele><time>2026-03-22T12:57:02.465Z</time></trkpt><trkpt lat="44.5976283" lon="10.5458567"><ele>167.0</ele><time>2026-03-22T12:57:22.465Z</time></trkpt><trkpt lat="44.5975617" lon="10.5457933"><ele>167.5</ele><time>2026-03-22T12:57:26.466Z</time></trkpt><trkpt lat="44.5974983" lon="10.54573"><ele>168.0</ele><time>2026-03-22T12:57:29.466Z</time></trkpt><trkpt lat="44.5974367" lon="10.5456433"><ele>168.5</ele><time>2026-03-22T12:57:32.465Z</time></trkpt><trkpt lat="44.5973717" lon="10.54556"><ele>169.0</ele><time>2026-03-22T12:57:35.465Z</time></trkpt><trkpt lat="44.5973383" lon="10.545485"><ele>169.0</ele><time>2026-03-22T12:57:38.465Z</time></trkpt><trkpt lat="44.5972867" lon="10.5454067"><ele>169.0</ele><time>2026-03-22T12:57:41.466Z</time></trkpt><trkpt lat="44.5972517" lon="10.54532"><ele>169.0</ele><time>2026-03-22T12:57:45.465Z</time></trkpt><trkpt lat="44.597185" lon="10.5452417"><ele>169.0</ele><time>2026-03-22T12:57:49.465Z</time></trkpt><trkpt lat="44.5971317" lon="10.5451783"><ele>169.0</ele><time>2026-03-22T12:57:53.465Z</time></trkpt><trkpt lat="44.5970817" lon="10.5451217"><ele>169.0</ele><time>2026-03-22T12:57:56.465Z</time></trkpt><trkpt lat="44.5970183" lon="10.5451117"><ele>169.0</ele><time>2026-03-22T12:58:00.465Z</time></trkpt><trkpt lat="44.59693" lon="10.54509"><ele>169.83333333333334</ele><time>2026-03-22T12:58:13.466Z</time></trkpt><trkpt lat="44.5968633" lon="10.54509"><ele>170.66666666666669</ele><time>2026-03-22T12:58:17.466Z</time></trkpt><trkpt lat="44.5967817" lon="10.5450933"><ele>171.5</ele><time>2026-03-22T12:58:21.467Z</time></trkpt><trkpt lat="44.5967083" lon="10.5450533"><ele>172.33333333333334</ele><time>2026-03-22T12:58:26.466Z</time></trkpt><trkpt lat="44.59667" lon="10.544965"><ele>173.16666666666666</ele><time>2026-03-22T12:58:30.466Z</time></trkpt><trkpt lat="44.596635" lon="10.54487"><ele>174.0</ele><time>2026-03-22T12:58:33.466Z</time></trkpt><trkpt lat="44.5965967" lon="10.54475"><ele>174.0</ele><time>2026-03-22T12:58:36.466Z</time></trkpt><trkpt lat="44.5965583" lon="10.5446683"><ele>174.0</ele><time>2026-03-22T12:58:38.466Z</time></trkpt><trkpt lat="44.5965217" lon="10.544585"><ele>174.0</ele><time>2026-03-22T12:58:40.466Z</time></trkpt><trkpt lat="44.59648" lon="10.5444767"><ele>174.0</ele><time>2026-03-22T12:58:42.466Z</time></trkpt><trkpt lat="44.5964317" lon="10.5443667"><ele>174.0</ele><time>2026-03-22T12:58:44.466Z</time></trkpt><trkpt lat="44.5963933" lon="10.544255"><ele>174.0</ele><time>2026-03-22T12:58:46.466Z</time></trkpt><trkpt lat="44.5963467" lon="10.544165"><ele>173.57142857142856</ele><time>2026-03-22T12:58:48.466Z</time></trkpt><trkpt lat="44.596305" lon="10.5440917"><ele>173.14285714285714</ele><time>2026-03-22T12:58:50.467Z</time></trkpt><trkpt lat="44.5962833" lon="10.5439983"><ele>172.71428571428572</ele><time>2026-03-22T12:58:52.467Z</time></trkpt><trkpt lat="44.5962867" lon="10.5438967"><ele>172.28571428571428</ele><time>2026-03-22T12:58:54.466Z</time></trkpt><trkpt lat="44.596285" lon="10.5438017"><ele>171.85714285714286</ele><time>2026-03-22T12:58:56.466Z</time></trkpt><trkpt lat="44.5962417" lon="10.5436867"><ele>171.42857142857142</ele><time>2026-03-22T12:58:59.466Z</time></trkpt><trkpt lat="44.5961933" lon="10.543625"><ele>171.0</ele><time>2026-03-22T12:59:01.466Z</time></trkpt><trkpt lat="44.5961233" lon="10.5435283"><ele>171.0</ele><time>2026-03-22T12:59:04.466Z</time></trkpt><trkpt lat="44.59607" lon="10.54346"><ele>171.0</ele><time>2026-03-22T12:59:06.466Z</time></trkpt><trkpt lat="44.5960167" lon="10.5433967"><ele>171.0</ele><time>2026-03-22T12:59:08.466Z</time></trkpt><trkpt lat="44.5959533" lon="10.5433267"><ele>171.0</ele><time>2026-03-22T12:59:10.466Z</time></trkpt><trkpt lat="44.5958883" lon="10.5432517"><ele>171.0</ele><time>2026-03-22T12:59:12.466Z</time></trkpt><trkpt lat="44.59582" lon="10.5431817"><ele>171.0</ele><time>2026-03-22T12:59:14.466Z</time></trkpt><trkpt lat="44.5957517" lon="10.543125"><ele>171.0</ele><time>2026-03-22T12:59:16.466Z</time></trkpt><trkpt lat="44.5956933" lon="10.5430733"><ele>171.0</ele><time>2026-03-22T12:59:18.466Z</time></trkpt><trkpt lat="44.595645" lon="10.5430133"><ele>171.0</ele><time>2026-03-22T12:59:20.467Z</time></trkpt><trkpt lat="44.5955783" lon="10.5429117"><ele>171.0</ele><time>2026-03-22T12:59:23.466Z</time></trkpt><trkpt lat="44.59553" lon="10.542835"><ele>171.0</ele><time>2026-03-22T12:59:25.466Z</time></trkpt><trkpt lat="44.5954767" lon="10.5427667"><ele>171.0</ele><time>2026-03-22T12:59:27.467Z</time></trkpt><trkpt lat="44.59541" lon="10.5427067"><ele>171.14285714285714</ele><time>2026-03-22T12:59:29.467Z</time></trkpt><trkpt lat="44.5953467" lon="10.5426533"><ele>171.28571428571428</ele><time>2026-03-22T12:59:31.466Z</time></trkpt><trkpt lat="44.595285" lon="10.5425933"><ele>171.42857142857144</ele><time>2026-03-22T12:59:33.466Z</time></trkpt><trkpt lat="44.59522" lon="10.5425383"><ele>171.57142857142856</ele><time>2026-03-22T12:59:35.466Z</time></trkpt><trkpt lat="44.595165" lon="10.542485"><ele>171.71428571428572</ele><time>2026-03-22T12:59:37.466Z</time></trkpt><trkpt lat="44.5951083" lon="10.5424233"><ele>171.85714285714286</ele><time>2026-03-22T12:59:39.466Z</time></trkpt><trkpt lat="44.595055" lon="10.5423667"><ele>172.0</ele><time>2026-03-22T12:59:41.466Z</time></trkpt><trkpt lat="44.5949817" lon="10.5422917"><ele>172.0</ele><time>2026-03-22T12:59:44.466Z</time></trkpt><trkpt lat="44.5949183" lon="10.5422417"><ele>172.0</ele><time>2026-03-22T12:59:46.466Z</time></trkpt><trkpt lat="44.5948483" lon="10.54219"><ele>172.0</ele><time>2026-03-22T12:59:48.466Z</time></trkpt><trkpt lat="44.5947917" lon="10.542135"><ele>172.0</ele><time>2026-03-22T12:59:50.466Z</time></trkpt><trkpt lat="44.59472" lon="10.5420767"><ele>172.0</ele><time>2026-03-22T12:59:53.466Z</time></trkpt><trkpt lat="44.5946417" lon="10.5420033"><ele>172.0</ele><time>2026-03-22T12:59:56.466Z</time></trkpt><trkpt lat="44.5945917" lon="10.54194"><ele>172.2857142857143</ele><time>2026-03-22T12:59:58.467Z</time></trkpt><trkpt lat="44.594535" lon="10.5418833"><ele>172.57142857142858</ele><time>2026-03-22T13:00:00.466Z</time></trkpt><trkpt lat="44.5944783" lon="10.5418367"><ele>172.85714285714286</ele><time>2026-03-22T13:00:02.466Z</time></trkpt><trkpt lat="44.594395" lon="10.5418033"><ele>173.14285714285717</ele><time>2026-03-22T13:00:05.466Z</time></trkpt><trkpt lat="44.594345" lon="10.5417483"><ele>173.42857142857144</ele><time>2026-03-22T13:00:07.466Z</time></trkpt><trkpt lat="44.5942867" lon="10.5417"><ele>173.71428571428572</ele><time>2026-03-22T13:00:09.466Z</time></trkpt><trkpt lat="44.5942217" lon="10.541655"><ele>174.0</ele><time>2026-03-22T13:00:11.466Z</time></trkpt><trkpt lat="44.5941483" lon="10.54157"><ele>174.42857142857142</ele><time>2026-03-22T13:00:14.466Z</time></trkpt><trkpt lat="44.59409" lon="10.5415217"><ele>174.85714285714286</ele><time>2026-03-22T13:00:16.466Z</time></trkpt><trkpt lat="44.59403" lon="10.54148"><ele>175.28571428571428</ele><time>2026-03-22T13:00:18.466Z</time></trkpt><trkpt lat="44.593975" lon="10.5414367"><ele>175.71428571428572</ele><time>2026-03-22T13:00:20.466Z</time></trkpt><trkpt lat="44.5939183" lon="10.5413733"><ele>176.14285714285714</ele><time>2026-03-22T13:00:22.466Z</time></trkpt><trkpt lat="44.5938667" lon="10.541315"><ele>176.57142857142858</ele><time>2026-03-22T13:00:24.466Z</time></trkpt><trkpt lat="44.5938117" lon="10.54125"><ele>177.0</ele><time>2026-03-22T13:00:26.466Z</time></trkpt><trkpt lat="44.5937617" lon="10.54119"><ele>177.0</ele><time>2026-03-22T13:00:28.466Z</time></trkpt><trkpt lat="44.5936917" lon="10.5411267"><ele>177.0</ele><time>2026-03-22T13:00:31.466Z</time></trkpt><trkpt lat="44.59362" lon="10.5411133"><ele>177.0</ele><time>2026-03-22T13:00:34.466Z</time></trkpt><trkpt lat="44.5935467" lon="10.5411433"><ele>177.0</ele><time>2026-03-22T13:00:37.466Z</time></trkpt><trkpt lat="44.5934733" lon="10.5412067"><ele>177.0</ele><time>2026-03-22T13:00:41.466Z</time></trkpt><trkpt lat="44.5934133" lon="10.5412633"><ele>177.0</ele><time>2026-03-22T13:00:45.467Z</time></trkpt><trkpt lat="44.5933683" lon="10.541335"><ele>177.16666666666666</ele><time>2026-03-22T13:00:49.466Z</time></trkpt><trkpt lat="44.5934117" lon="10.5412383"><ele>177.33333333333334</ele><time>2026-03-22T13:01:17.467Z</time></trkpt><trkpt lat="44.5934917" lon="10.5411967"><ele>177.5</ele><time>2026-03-22T13:01:20.467Z</time></trkpt><trkpt lat="44.59356" lon="10.54114"><ele>177.66666666666669</ele><time>2026-03-22T13:01:23.466Z</time></trkpt><trkpt lat="44.59354" lon="10.5410417"><ele>177.83333333333334</ele><time>2026-03-22T13:01:28.467Z</time></trkpt><trkpt lat="44.593485" lon="10.5409817"><ele>178.0</ele><time>2026-03-22T13:01:31.467Z</time></trkpt><trkpt lat="44.5934317" lon="10.5409133"><ele>177.99999999999997</ele><time>2026-03-22T13:01:35.466Z</time></trkpt><trkpt lat="44.5933583" lon="10.5408683"><ele>178.0</ele><time>2026-03-22T13:01:39.466Z</time></trkpt><trkpt lat="44.5933017" lon="10.5408217"><ele>178.0</ele><time>2026-03-22T13:01:42.466Z</time></trkpt><trkpt lat="44.5932433" lon="10.540775"><ele>178.0</ele><time>2026-03-22T13:01:45.466Z</time></trkpt><trkpt lat="44.5931883" lon="10.54072"><ele>178.0</ele><time>2026-03-22T13:01:48.466Z</time></trkpt><trkpt lat="44.5931267" lon="10.5406533"><ele>177.99999999999997</ele><time>2026-03-22T13:01:51.466Z</time></trkpt><trkpt lat="44.5930583" lon="10.5406117"><ele>178.0</ele><time>2026-03-22T13:01:54.466Z</time></trkpt><trkpt lat="44.5929917" lon="10.5405633"><ele>177.99999999999997</ele><time>2026-03-22T13:01:57.467Z</time></trkpt><trkpt lat="44.59293" lon="10.5405167"><ele>178.0</ele><time>2026-03-22T13:02:00.466Z</time></trkpt><trkpt lat="44.5928567" lon="10.5404867"><ele>178.0</ele><time>2026-03-22T13:02:03.466Z</time></trkpt><trkpt lat="44.5927833" lon="10.5404667"><ele>178.0</ele><time>2026-03-22T13:02:06.466Z</time></trkpt><trkpt lat="44.592705" lon="10.540425"><ele>178.0</ele><time>2026-03-22T13:02:20.466Z</time></trkpt><trkpt lat="44.5926417" lon="10.54038"><ele>177.99999999999997</ele><time>2026-03-22T13:02:24.467Z</time></trkpt><trkpt lat="44.5927017" lon="10.5403517"><ele>178.0</ele><time>2026-03-22T13:02:45.467Z</time></trkpt><trkpt lat="44.592765" lon="10.5403683"><ele>178.0</ele><time>2026-03-22T13:02:47.466Z</time></trkpt><trkpt lat="44.592835" lon="10.5404067"><ele>178.0</ele><time>2026-03-22T13:02:49.466Z</time></trkpt><trkpt lat="44.5929117" lon="10.5404283"><ele>178.0</ele><time>2026-03-22T13:02:51.466Z</time></trkpt><trkpt lat="44.5929883" lon="10.54047"><ele>178.0</ele><time>2026-03-22T13:02:53.466Z</time></trkpt><trkpt lat="44.5930717" lon="10.540505"><ele>178.0</ele><time>2026-03-22T13:02:56.467Z</time></trkpt><trkpt lat="44.59314" lon="10.5405317"><ele>178.0</ele><time>2026-03-22T13:02:59.467Z</time></trkpt><trkpt lat="44.5932183" lon="10.5405917"><ele>177.99999999999997</ele><time>2026-03-22T13:03:03.466Z</time></trkpt><trkpt lat="44.59328" lon="10.54064"><ele>178.0</ele><time>2026-03-22T13:03:06.467Z</time></trkpt><trkpt lat="44.5933417" lon="10.5406717"><ele>178.0</ele><time>2026-03-22T13:03:09.466Z</time></trkpt><trkpt lat="44.5934067" lon="10.5407"><ele>178.0</ele><time>2026-03-22T13:03:12.466Z</time></trkpt><trkpt lat="44.59348" lon="10.540755"><ele>178.0</ele><time>2026-03-22T13:03:14.467Z</time></trkpt><trkpt lat="44.593535" lon="10.5408083"><ele>177.99999999999997</ele><time>2026-03-22T13:03:16.466Z</time></trkpt><trkpt lat="44.593605" lon="10.540885"><ele>178.0</ele><time>2026-03-22T13:03:19.466Z</time></trkpt><trkpt lat="44.5936583" lon="10.5409383"><ele>177.8</ele><time>2026-03-22T13:03:21.466Z</time></trkpt><trkpt lat="44.5937433" lon="10.54111"><ele>177.60000000000002</ele><time>2026-03-22T13:03:37.466Z</time></trkpt><trkpt lat="44.59384" lon="10.5411467"><ele>177.39999999999998</ele><time>2026-03-22T13:06:17.449Z</time></trkpt><trkpt lat="44.5939467" lon="10.5412233"><ele>177.2</ele><time>2026-03-22T13:06:22.449Z</time></trkpt><trkpt lat="44.5940083" lon="10.541255"><ele>177.0</ele><time>2026-03-22T13:06:24.449Z</time></trkpt><trkpt lat="44.5940883" lon="10.5412733"><ele>177.0</ele><time>2026-03-22T13:06:27.45Z</time></trkpt><trkpt lat="44.5941433" lon="10.5412283"><ele>177.0</ele><time>2026-03-22T13:06:30.449Z</time></trkpt><trkpt lat="44.5942083" lon="10.5411967"><ele>177.0</ele><time>2026-03-22T13:06:35.449Z</time></trkpt><trkpt lat="44.5941983" lon="10.5411033"><ele>177.0</ele><time>2026-03-22T13:06:41.449Z</time></trkpt><trkpt lat="44.594125" lon="10.54105"><ele>177.0</ele><time>2026-03-22T13:06:45.449Z</time></trkpt><trkpt lat="44.5940617" lon="10.5409867"><ele>177.0</ele><time>2026-03-22T13:06:48.45Z</time></trkpt><trkpt lat="44.594005" lon="10.5409367"><ele>177.0</ele><time>2026-03-22T13:06:50.449Z</time></trkpt><trkpt lat="44.5939367" lon="10.5408617"><ele>177.0</ele><time>2026-03-22T13:06:53.449Z</time></trkpt><trkpt lat="44.5938683" lon="10.5408017"><ele>177.0</ele><time>2026-03-22T13:06:56.449Z</time></trkpt><trkpt lat="44.5938017" lon="10.5407317"><ele>177.0</ele><time>2026-03-22T13:06:59.45Z</time></trkpt><trkpt lat="44.593755" lon="10.54067"><ele>177.0</ele><time>2026-03-22T13:07:01.449Z</time></trkpt><trkpt lat="44.5936733" lon="10.5406"><ele>177.0</ele><time>2026-03-22T13:07:04.449Z</time></trkpt><trkpt lat="44.5936" lon="10.54056"><ele>177.0</ele><time>2026-03-22T13:07:06.449Z</time></trkpt><trkpt lat="44.5935183" lon="10.54051"><ele>177.16666666666666</ele><time>2026-03-22T13:07:09.449Z</time></trkpt><trkpt lat="44.593445" lon="10.54048"><ele>177.33333333333334</ele><time>2026-03-22T13:07:12.449Z</time></trkpt><trkpt lat="44.593365" lon="10.5404433"><ele>177.5</ele><time>2026-03-22T13:07:15.45Z</time></trkpt><trkpt lat="44.5932933" lon="10.5403817"><ele>177.66666666666669</ele><time>2026-03-22T13:07:18.449Z</time></trkpt><trkpt lat="44.593215" lon="10.540315"><ele>177.83333333333334</ele><time>2026-03-22T13:07:21.449Z</time></trkpt><trkpt lat="44.5931433" lon="10.5402433"><ele>178.0</ele><time>2026-03-22T13:07:24.449Z</time></trkpt><trkpt lat="44.5930583" lon="10.5401967"><ele>178.0</ele><time>2026-03-22T13:07:27.449Z</time></trkpt><trkpt lat="44.592975" lon="10.5401833"><ele>178.0</ele><time>2026-03-22T13:07:30.449Z</time></trkpt><trkpt lat="44.5928967" lon="10.5401633"><ele>178.0</ele><time>2026-03-22T13:07:33.45Z</time></trkpt><trkpt lat="44.592815" lon="10.5400983"><ele>178.0</ele><time>2026-03-22T13:07:36.449Z</time></trkpt><trkpt lat="44.592765" lon="10.5400383"><ele>178.0</ele><time>2026-03-22T13:07:38.449Z</time></trkpt><trkpt lat="44.5926933" lon="10.53998"><ele>178.0</ele><time>2026-03-22T13:07:41.449Z</time></trkpt><trkpt lat="44.5926267" lon="10.53991"><ele>178.33333333333334</ele><time>2026-03-22T13:07:44.449Z</time></trkpt><trkpt lat="44.5925667" lon="10.53986"><ele>178.66666666666669</ele><time>2026-03-22T13:07:47.449Z</time></trkpt><trkpt lat="44.5924933" lon="10.539815"><ele>179.0</ele><time>2026-03-22T13:07:50.45Z</time></trkpt><trkpt lat="44.5924233" lon="10.5397917"><ele>179.33333333333334</ele><time>2026-03-22T13:07:52.449Z</time></trkpt><trkpt lat="44.5923633" lon="10.5397567"><ele>179.66666666666666</ele><time>2026-03-22T13:07:54.45Z</time></trkpt><trkpt lat="44.592285" lon="10.5396883"><ele>180.0</ele><time>2026-03-22T13:07:57.449Z</time></trkpt><trkpt lat="44.5922117" lon="10.5396083"><ele>180.16666666666666</ele><time>2026-03-22T13:08:00.449Z</time></trkpt><trkpt lat="44.5921417" lon="10.5395367"><ele>180.33333333333334</ele><time>2026-03-22T13:08:03.449Z</time></trkpt><trkpt lat="44.59208" lon="10.5395067"><ele>180.5</ele><time>2026-03-22T13:08:05.449Z</time></trkpt><trkpt lat="44.5920033" lon="10.539435"><ele>180.66666666666669</ele><time>2026-03-22T13:08:08.449Z</time></trkpt><trkpt lat="44.5919317" lon="10.53937"><ele>180.83333333333334</ele><time>2026-03-22T13:08:11.45Z</time></trkpt><trkpt lat="44.5918617" lon="10.53932"><ele>181.0</ele><time>2026-03-22T13:08:14.45Z</time></trkpt><trkpt lat="44.591805" lon="10.5392783"><ele>181.33333333333334</ele><time>2026-03-22T13:08:16.449Z</time></trkpt><trkpt lat="44.591735" lon="10.539195"><ele>181.66666666666669</ele><time>2026-03-22T13:08:19.449Z</time></trkpt><trkpt lat="44.5916917" lon="10.539095"><ele>182.0</ele><time>2026-03-22T13:08:22.449Z</time></trkpt><trkpt lat="44.591655" lon="10.5390117"><ele>182.33333333333334</ele><time>2026-03-22T13:08:24.449Z</time></trkpt><trkpt lat="44.5916183" lon="10.5389117"><ele>182.66666666666666</ele><time>2026-03-22T13:08:27.449Z</time></trkpt><trkpt lat="44.5915767" lon="10.5388033"><ele>183.0</ele><time>2026-03-22T13:08:30.45Z</time></trkpt><trkpt lat="44.5915217" lon="10.538705"><ele>183.0</ele><time>2026-03-22T13:08:33.449Z</time></trkpt><trkpt lat="44.591475" lon="10.5385917"><ele>183.0</ele><time>2026-03-22T13:08:36.449Z</time></trkpt><trkpt lat="44.5914517" lon="10.53849"><ele>183.0</ele><time>2026-03-22T13:08:38.449Z</time></trkpt><trkpt lat="44.591415" lon="10.5384117"><ele>183.0</ele><time>2026-03-22T13:08:40.45Z</time></trkpt><trkpt lat="44.5913833" lon="10.53832"><ele>183.0</ele><time>2026-03-22T13:08:42.45Z</time></trkpt><trkpt lat="44.5913517" lon="10.5382333"><ele>183.0</ele><time>2026-03-22T13:08:44.449Z</time></trkpt><trkpt lat="44.5913067" lon="10.5381567"><ele>183.0</ele><time>2026-03-22T13:08:46.449Z</time></trkpt><trkpt lat="44.591265" lon="10.538075"><ele>183.0</ele><time>2026-03-22T13:08:48.449Z</time></trkpt><trkpt lat="44.5912217" lon="10.5379983"><ele>183.0</ele><time>2026-03-22T13:08:50.449Z</time></trkpt><trkpt lat="44.5911617" lon="10.5378983"><ele>183.0</ele><time>2026-03-22T13:08:53.449Z</time></trkpt><trkpt lat="44.5911017" lon="10.53781"><ele>183.0</ele><time>2026-03-22T13:08:56.449Z</time></trkpt><trkpt lat="44.59105" lon="10.537715"><ele>183.0</ele><time>2026-03-22T13:08:59.449Z</time></trkpt><trkpt lat="44.5909867" lon="10.5376533"><ele>183.0</ele><time>2026-03-22T13:09:02.449Z</time></trkpt><trkpt lat="44.5909167" lon="10.5376667"><ele>183.16666666666666</ele><time>2026-03-22T13:09:05.449Z</time></trkpt><trkpt lat="44.590835" lon="10.5376667"><ele>183.33333333333334</ele><time>2026-03-22T13:09:08.449Z</time></trkpt><trkpt lat="44.59076" lon="10.5376767"><ele>183.5</ele><time>2026-03-22T13:09:11.449Z</time></trkpt><trkpt lat="44.590685" lon="10.537605"><ele>183.66666666666669</ele><time>2026-03-22T13:09:14.449Z</time></trkpt><trkpt lat="44.5906367" lon="10.5375417"><ele>183.83333333333334</ele><time>2026-03-22T13:09:16.45Z</time></trkpt><trkpt lat="44.5905833" lon="10.53748"><ele>184.0</ele><time>2026-03-22T13:09:18.45Z</time></trkpt><trkpt lat="44.5905033" lon="10.5374117"><ele>184.0</ele><time>2026-03-22T13:09:21.45Z</time></trkpt><trkpt lat="44.59042" lon="10.53736"><ele>184.0</ele><time>2026-03-22T13:09:24.449Z</time></trkpt><trkpt lat="44.5903567" lon="10.5373183"><ele>184.0</ele><time>2026-03-22T13:09:27.449Z</time></trkpt><trkpt lat="44.59029" lon="10.5372717"><ele>184.0</ele><time>2026-03-22T13:09:31.449Z</time></trkpt><trkpt lat="44.5902267" lon="10.537245"><ele>184.0</ele><time>2026-03-22T13:09:34.449Z</time></trkpt><trkpt lat="44.5901517" lon="10.537215"><ele>184.0</ele><time>2026-03-22T13:09:38.449Z</time></trkpt><trkpt lat="44.5900833" lon="10.5371767"><ele>184.83333333333334</ele><time>2026-03-22T13:09:41.449Z</time></trkpt><trkpt lat="44.59002" lon="10.5371333"><ele>185.66666666666669</ele><time>2026-03-22T13:09:44.449Z</time></trkpt><trkpt lat="44.5899417" lon="10.537075"><ele>186.5</ele><time>2026-03-22T13:09:47.449Z</time></trkpt><trkpt lat="44.5898783" lon="10.53703"><ele>187.33333333333334</ele><time>2026-03-22T13:09:49.45Z</time></trkpt><trkpt lat="44.5898067" lon="10.5369833"><ele>188.16666666666666</ele><time>2026-03-22T13:09:51.45Z</time></trkpt><trkpt lat="44.58973" lon="10.53694"><ele>189.0</ele><time>2026-03-22T13:09:53.449Z</time></trkpt><trkpt lat="44.58966" lon="10.5368917"><ele>189.0</ele><time>2026-03-22T13:09:55.449Z</time></trkpt><trkpt lat="44.5895967" lon="10.53684"><ele>189.0</ele><time>2026-03-22T13:09:57.449Z</time></trkpt><trkpt lat="44.5895267" lon="10.5367983"><ele>189.0</ele><time>2026-03-22T13:09:59.449Z</time></trkpt><trkpt lat="44.5894567" lon="10.5367217"><ele>189.0</ele><time>2026-03-22T13:10:02.449Z</time></trkpt><trkpt lat="44.5894033" lon="10.536665"><ele>189.0</ele><time>2026-03-22T13:10:04.449Z</time></trkpt><trkpt lat="44.5893533" lon="10.5366083"><ele>189.0</ele><time>2026-03-22T13:10:06.45Z</time></trkpt><trkpt lat="44.589285" lon="10.5365333"><ele>189.0</ele><time>2026-03-22T13:10:09.449Z</time></trkpt><trkpt lat="44.58921" lon="10.53649"><ele>189.0</ele><time>2026-03-22T13:10:12.449Z</time></trkpt><trkpt lat="44.5891533" lon="10.5364417"><ele>189.0</ele><time>2026-03-22T13:10:15.449Z</time></trkpt><trkpt lat="44.5890933" lon="10.5364133"><ele>189.0</ele><time>2026-03-22T13:10:18.449Z</time></trkpt><trkpt lat="44.5890317" lon="10.5363567"><ele>189.0</ele><time>2026-03-22T13:10:21.449Z</time></trkpt><trkpt lat="44.588975" lon="10.5363017"><ele>189.0</ele><time>2026-03-22T13:10:24.449Z</time></trkpt><trkpt lat="44.5889017" lon="10.5362617"><ele>189.0</ele><time>2026-03-22T13:10:27.449Z</time></trkpt><trkpt lat="44.5888117" lon="10.5362367"><ele>189.0</ele><time>2026-03-22T13:10:30.449Z</time></trkpt><trkpt lat="44.58873" lon="10.536205"><ele>189.0</ele><time>2026-03-22T13:10:33.449Z</time></trkpt><trkpt lat="44.5886483" lon="10.5361617"><ele>189.0</ele><time>2026-03-22T13:10:36.45Z</time></trkpt><trkpt lat="44.588575" lon="10.536105"><ele>189.0</ele><time>2026-03-22T13:10:39.45Z</time></trkpt><trkpt lat="44.5885017" lon="10.536075"><ele>189.0</ele><time>2026-03-22T13:10:42.45Z</time></trkpt><trkpt lat="44.588435" lon="10.5360317"><ele>189.0</ele><time>2026-03-22T13:10:45.449Z</time></trkpt><trkpt lat="44.5883783" lon="10.5359717"><ele>189.28571428571428</ele><time>2026-03-22T13:10:48.449Z</time></trkpt><trkpt lat="44.5883233" lon="10.5359133"><ele>189.57142857142856</ele><time>2026-03-22T13:10:50.449Z</time></trkpt><trkpt lat="44.58828" lon="10.5358367"><ele>189.85714285714286</ele><time>2026-03-22T13:10:53.449Z</time></trkpt><trkpt lat="44.5882417" lon="10.5357633"><ele>190.14285714285714</ele><time>2026-03-22T13:10:56.449Z</time></trkpt><trkpt lat="44.5881783" lon="10.535715"><ele>190.42857142857142</ele><time>2026-03-22T13:10:59.449Z</time></trkpt><trkpt lat="44.58811" lon="10.5357183"><ele>190.71428571428572</ele><time>2026-03-22T13:11:01.449Z</time></trkpt><trkpt lat="44.588045" lon="10.53573"><ele>191.0</ele><time>2026-03-22T13:11:03.449Z</time></trkpt><trkpt lat="44.5879617" lon="10.5356917"><ele>191.0</ele><time>2026-03-22T13:11:06.449Z</time></trkpt><trkpt lat="44.5879583" lon="10.535595"><ele>191.0</ele><time>2026-03-22T13:11:09.45Z</time></trkpt><trkpt lat="44.5880383" lon="10.53556"><ele>191.0</ele><time>2026-03-22T13:11:13.45Z</time></trkpt><trkpt lat="44.5881167" lon="10.5355533"><ele>191.0</ele><time>2026-03-22T13:11:17.45Z</time></trkpt><trkpt lat="44.588195" lon="10.535535"><ele>191.0</ele><time>2026-03-22T13:11:20.449Z</time></trkpt><trkpt lat="44.58828" lon="10.53555"><ele>191.0</ele><time>2026-03-22T13:11:23.45Z</time></trkpt><trkpt lat="44.588365" lon="10.5355767"><ele>191.0</ele><time>2026-03-22T13:11:26.45Z</time></trkpt><trkpt lat="44.5884333" lon="10.5355883"><ele>191.0</ele><time>2026-03-22T13:11:28.45Z</time></trkpt><trkpt lat="44.5885117" lon="10.535615"><ele>191.0</ele><time>2026-03-22T13:11:30.45Z</time></trkpt><trkpt lat="44.5886083" lon="10.53566"><ele>191.0</ele><time>2026-03-22T13:11:32.451Z</time></trkpt><trkpt lat="44.5887" lon="10.5356983"><ele>191.0</ele><time>2026-03-22T13:11:34.451Z</time></trkpt><trkpt lat="44.588785" lon="10.5357417"><ele>191.0</ele><time>2026-03-22T13:11:36.45Z</time></trkpt><trkpt lat="44.5888783" lon="10.535785"><ele>190.60000000000002</ele><time>2026-03-22T13:11:38.45Z</time></trkpt><trkpt lat="44.5889817" lon="10.53584"><ele>190.2</ele><time>2026-03-22T13:11:40.45Z</time></trkpt><trkpt lat="44.5890767" lon="10.5358933"><ele>189.8</ele><time>2026-03-22T13:11:42.45Z</time></trkpt><trkpt lat="44.5891783" lon="10.53594"><ele>189.39999999999998</ele><time>2026-03-22T13:11:44.45Z</time></trkpt><trkpt lat="44.589275" lon="10.53598"><ele>189.0</ele><time>2026-03-22T13:11:46.45Z</time></trkpt><trkpt lat="44.5893683" lon="10.5360233"><ele>189.0</ele><time>2026-03-22T13:11:48.45Z</time></trkpt><trkpt lat="44.58947" lon="10.5360717"><ele>189.0</ele><time>2026-03-22T13:11:50.45Z</time></trkpt><trkpt lat="44.5895283" lon="10.53611"><ele>189.0</ele><time>2026-03-22T13:11:51.45Z</time></trkpt><trkpt lat="44.5896267" lon="10.53616"><ele>189.0</ele><time>2026-03-22T13:11:53.45Z</time></trkpt><trkpt lat="44.5897283" lon="10.5362033"><ele>189.0</ele><time>2026-03-22T13:11:55.451Z</time></trkpt><trkpt lat="44.5898317" lon="10.5362433"><ele>189.0</ele><time>2026-03-22T13:11:57.451Z</time></trkpt><trkpt lat="44.5899333" lon="10.5362817"><ele>189.0</ele><time>2026-03-22T13:11:59.45Z</time></trkpt><trkpt lat="44.5900367" lon="10.5363167"><ele>189.0</ele><time>2026-03-22T13:12:01.45Z</time></trkpt><trkpt lat="44.590135" lon="10.5363417"><ele>189.0</ele><time>2026-03-22T13:12:03.45Z</time></trkpt><trkpt lat="44.590235" lon="10.5363683"><ele>189.0</ele><time>2026-03-22T13:12:05.45Z</time></trkpt><trkpt lat="44.5903433" lon="10.5364033"><ele>189.39999999999998</ele><time>2026-03-22T13:12:07.451Z</time></trkpt><trkpt lat="44.5904517" lon="10.5364483"><ele>189.8</ele><time>2026-03-22T13:12:09.45Z</time></trkpt><trkpt lat="44.590555" lon="10.5364933"><ele>190.2</ele><time>2026-03-22T13:12:11.451Z</time></trkpt><trkpt lat="44.5906467" lon="10.5365533"><ele>190.60000000000002</ele><time>2026-03-22T13:12:13.451Z</time></trkpt><trkpt lat="44.5907333" lon="10.5366267"><ele>191.0</ele><time>2026-03-22T13:12:15.45Z</time></trkpt><trkpt lat="44.5908267" lon="10.5367067"><ele>191.0</ele><time>2026-03-22T13:12:17.451Z</time></trkpt><trkpt lat="44.5909267" lon="10.5368"><ele>191.0</ele><time>2026-03-22T13:12:19.45Z</time></trkpt><trkpt lat="44.5909783" lon="10.5368533"><ele>191.0</ele><time>2026-03-22T13:12:20.45Z</time></trkpt><trkpt lat="44.59103" lon="10.5369083"><ele>191.0</ele><time>2026-03-22T13:12:21.451Z</time></trkpt><trkpt lat="44.59113" lon="10.5370033"><ele>191.0</ele><time>2026-03-22T13:12:23.45Z</time></trkpt><trkpt lat="44.5912267" lon="10.5371017"><ele>190.33333333333331</ele><time>2026-03-22T13:12:25.451Z</time></trkpt><trkpt lat="44.5912783" lon="10.5371567"><ele>189.66666666666666</ele><time>2026-03-22T13:12:26.45Z</time></trkpt><trkpt lat="44.5913333" lon="10.5372067"><ele>189.0</ele><time>2026-03-22T13:12:27.45Z</time></trkpt><trkpt lat="44.5913917" lon="10.5372533"><ele>188.33333333333334</ele><time>2026-03-22T13:12:28.45Z</time></trkpt><trkpt lat="44.59149" lon="10.5373433"><ele>187.66666666666669</ele><time>2026-03-22T13:12:30.45Z</time></trkpt><trkpt lat="44.5915517" lon="10.53741"><ele>187.0</ele><time>2026-03-22T13:12:31.451Z</time></trkpt><trkpt lat="44.5916117" lon="10.53746"><ele>187.0</ele><time>2026-03-22T13:12:32.451Z</time></trkpt><trkpt lat="44.591665" lon="10.5375117"><ele>187.0</ele><time>2026-03-22T13:12:33.45Z</time></trkpt><trkpt lat="44.591775" lon="10.5375967"><ele>187.0</ele><time>2026-03-22T13:12:35.45Z</time></trkpt><trkpt lat="44.5918317" lon="10.5376383"><ele>187.0</ele><time>2026-03-22T13:12:36.45Z</time></trkpt><trkpt lat="44.5918867" lon="10.5376817"><ele>187.0</ele><time>2026-03-22T13:12:37.451Z</time></trkpt><trkpt lat="44.592" lon="10.537775"><ele>187.0</ele><time>2026-03-22T13:12:39.45Z</time></trkpt><trkpt lat="44.592055" lon="10.5378317"><ele>186.57142857142856</ele><time>2026-03-22T13:12:40.45Z</time></trkpt><trkpt lat="44.5921117" lon="10.5378967"><ele>186.14285714285717</ele><time>2026-03-22T13:12:41.45Z</time></trkpt><trkpt lat="44.5921717" lon="10.537955"><ele>185.71428571428572</ele><time>2026-03-22T13:12:42.45Z</time></trkpt><trkpt lat="44.5922283" lon="10.53801"><ele>185.28571428571428</ele><time>2026-03-22T13:12:43.45Z</time></trkpt><trkpt lat="44.592285" lon="10.538065"><ele>184.85714285714283</ele><time>2026-03-22T13:12:44.45Z</time></trkpt><trkpt lat="44.5923433" lon="10.5381183"><ele>184.42857142857144</ele><time>2026-03-22T13:12:45.45Z</time></trkpt><trkpt lat="44.5924" lon="10.5381717"><ele>184.0</ele><time>2026-03-22T13:12:46.451Z</time></trkpt><trkpt lat="44.5924517" lon="10.5382283"><ele>184.0</ele><time>2026-03-22T13:12:47.45Z</time></trkpt><trkpt lat="44.59251" lon="10.53828"><ele>184.0</ele><time>2026-03-22T13:12:48.45Z</time></trkpt><trkpt lat="44.5925733" lon="10.5383517"><ele>184.0</ele><time>2026-03-22T13:12:49.451Z</time></trkpt><trkpt lat="44.592635" lon="10.538415"><ele>184.0</ele><time>2026-03-22T13:12:50.451Z</time></trkpt><trkpt lat="44.592735" lon="10.5385117"><ele>184.0</ele><time>2026-03-22T13:12:52.45Z</time></trkpt><trkpt lat="44.5928317" lon="10.5386083"><ele>183.6</ele><time>2026-03-22T13:12:54.45Z</time></trkpt><trkpt lat="44.5929233" lon="10.5386983"><ele>183.2</ele><time>2026-03-22T13:12:56.45Z</time></trkpt><trkpt lat="44.5930067" lon="10.5387767"><ele>182.79999999999998</ele><time>2026-03-22T13:12:58.451Z</time></trkpt><trkpt lat="44.5931017" lon="10.5388517"><ele>182.39999999999998</ele><time>2026-03-22T13:13:00.45Z</time></trkpt><trkpt lat="44.5931983" lon="10.5389383"><ele>182.0</ele><time>2026-03-22T13:13:02.451Z</time></trkpt><trkpt lat="44.5932933" lon="10.539035"><ele>182.0</ele><time>2026-03-22T13:13:04.45Z</time></trkpt><trkpt lat="44.5933917" lon="10.5391367"><ele>182.0</ele><time>2026-03-22T13:13:06.451Z</time></trkpt><trkpt lat="44.59349" lon="10.5392333"><ele>182.0</ele><time>2026-03-22T13:13:08.45Z</time></trkpt><trkpt lat="44.5935817" lon="10.539325"><ele>182.0</ele><time>2026-03-22T13:13:10.451Z</time></trkpt><trkpt lat="44.5936783" lon="10.539425"><ele>182.0</ele><time>2026-03-22T13:13:12.45Z</time></trkpt><trkpt lat="44.5937633" lon="10.5395067"><ele>182.0</ele><time>2026-03-22T13:13:14.451Z</time></trkpt><trkpt lat="44.5938533" lon="10.539595"><ele>182.0</ele><time>2026-03-22T13:13:16.45Z</time></trkpt><trkpt lat="44.59395" lon="10.5396817"><ele>182.0</ele><time>2026-03-22T13:13:18.451Z</time></trkpt><trkpt lat="44.5940483" lon="10.5397683"><ele>182.0</ele><time>2026-03-22T13:13:20.45Z</time></trkpt><trkpt lat="44.5941367" lon="10.5398583"><ele>182.0</ele><time>2026-03-22T13:13:22.45Z</time></trkpt><trkpt lat="44.5941933" lon="10.5399033"><ele>182.0</ele><time>2026-03-22T13:13:23.45Z</time></trkpt><trkpt lat="44.5942483" lon="10.539955"><ele>182.0</ele><time>2026-03-22T13:13:24.45Z</time></trkpt><trkpt lat="44.5943383" lon="10.540035"><ele>182.0</ele><time>2026-03-22T13:13:26.451Z</time></trkpt><trkpt lat="44.59443" lon="10.5401133"><ele>182.0</ele><time>2026-03-22T13:13:28.45Z</time></trkpt><trkpt lat="44.594525" lon="10.5401733"><ele>182.0</ele><time>2026-03-22T13:13:30.45Z</time></trkpt><trkpt lat="44.5946167" lon="10.5402283"><ele>181.39999999999998</ele><time>2026-03-22T13:13:32.45Z</time></trkpt><trkpt lat="44.5947083" lon="10.5402917"><ele>180.79999999999998</ele><time>2026-03-22T13:13:34.45Z</time></trkpt><trkpt lat="44.594805" lon="10.5403517"><ele>180.2</ele><time>2026-03-22T13:13:36.45Z</time></trkpt><trkpt lat="44.59489" lon="10.540405"><ele>179.6</ele><time>2026-03-22T13:13:38.451Z</time></trkpt><trkpt lat="44.5949867" lon="10.5405017"><ele>179.0</ele><time>2026-03-22T13:13:40.45Z</time></trkpt><trkpt lat="44.5950417" lon="10.54055"><ele>179.0</ele><time>2026-03-22T13:13:41.45Z</time></trkpt><trkpt lat="44.5950983" lon="10.5406067"><ele>179.0</ele><time>2026-03-22T13:13:42.45Z</time></trkpt><trkpt lat="44.5951967" lon="10.5406717"><ele>179.0</ele><time>2026-03-22T13:13:44.45Z</time></trkpt><trkpt lat="44.5952917" lon="10.54073"><ele>179.0</ele><time>2026-03-22T13:13:46.45Z</time></trkpt><trkpt lat="44.5953933" lon="10.5407933"><ele>179.0</ele><time>2026-03-22T13:13:48.45Z</time></trkpt><trkpt lat="44.5955017" lon="10.54087"><ele>179.2</ele><time>2026-03-22T13:13:50.45Z</time></trkpt><trkpt lat="44.5956083" lon="10.5409383"><ele>179.39999999999998</ele><time>2026-03-22T13:13:52.45Z</time></trkpt><trkpt lat="44.5956717" lon="10.5409917"><ele>179.6</ele><time>2026-03-22T13:13:53.45Z</time></trkpt><trkpt lat="44.5957733" lon="10.54105"><ele>179.8</ele><time>2026-03-22T13:13:55.45Z</time></trkpt><trkpt lat="44.5958633" lon="10.5411083"><ele>180.0</ele><time>2026-03-22T13:13:57.45Z</time></trkpt><trkpt lat="44.5959533" lon="10.5411617"><ele>179.4</ele><time>2026-03-22T13:13:59.451Z</time></trkpt><trkpt lat="44.5960433" lon="10.54124"><ele>178.8</ele><time>2026-03-22T13:14:01.451Z</time></trkpt><trkpt lat="44.5961417" lon="10.5413"><ele>178.2</ele><time>2026-03-22T13:14:03.45Z</time></trkpt><trkpt lat="44.5962417" lon="10.541365"><ele>177.6</ele><time>2026-03-22T13:14:05.45Z</time></trkpt><trkpt lat="44.5963267" lon="10.5414383"><ele>177.0</ele><time>2026-03-22T13:14:07.45Z</time></trkpt><trkpt lat="44.596415" lon="10.5415033"><ele>177.0</ele><time>2026-03-22T13:14:09.451Z</time></trkpt><trkpt lat="44.5964967" lon="10.5415833"><ele>177.0</ele><time>2026-03-22T13:14:11.45Z</time></trkpt><trkpt lat="44.5965983" lon="10.5416717"><ele>177.0</ele><time>2026-03-22T13:14:13.45Z</time></trkpt><trkpt lat="44.5966583" lon="10.5417217"><ele>177.0</ele><time>2026-03-22T13:14:14.45Z</time></trkpt><trkpt lat="44.5967417" lon="10.541815"><ele>177.0</ele><time>2026-03-22T13:14:16.45Z</time></trkpt><trkpt lat="44.596835" lon="10.5418867"><ele>177.0</ele><time>2026-03-22T13:14:18.45Z</time></trkpt><trkpt lat="44.596925" lon="10.54196"><ele>177.0</ele><time>2026-03-22T13:14:20.45Z</time></trkpt><trkpt lat="44.5970133" lon="10.54203"><ele>177.0</ele><time>2026-03-22T13:14:22.451Z</time></trkpt><trkpt lat="44.5971017" lon="10.5421067"><ele>177.0</ele><time>2026-03-22T13:14:24.451Z</time></trkpt><trkpt lat="44.5972017" lon="10.5421917"><ele>177.0</ele><time>2026-03-22T13:14:26.451Z</time></trkpt><trkpt lat="44.5972833" lon="10.542265"><ele>177.8</ele><time>2026-03-22T13:14:28.45Z</time></trkpt><trkpt lat="44.59737" lon="10.5423433"><ele>178.6</ele><time>2026-03-22T13:14:30.45Z</time></trkpt><trkpt lat="44.59746" lon="10.542435"><ele>179.4</ele><time>2026-03-22T13:14:32.45Z</time></trkpt><trkpt lat="44.5975533" lon="10.5425317"><ele>180.20000000000002</ele><time>2026-03-22T13:14:34.45Z</time></trkpt><trkpt lat="44.5976367" lon="10.542605"><ele>181.0</ele><time>2026-03-22T13:14:36.45Z</time></trkpt><trkpt lat="44.5977217" lon="10.54268"><ele>181.0</ele><time>2026-03-22T13:14:38.45Z</time></trkpt><trkpt lat="44.5978017" lon="10.542765"><ele>181.0</ele><time>2026-03-22T13:14:40.45Z</time></trkpt><trkpt lat="44.59788" lon="10.5428633"><ele>181.0</ele><time>2026-03-22T13:14:42.45Z</time></trkpt><trkpt lat="44.597945" lon="10.542965"><ele>181.0</ele><time>2026-03-22T13:14:44.45Z</time></trkpt><trkpt lat="44.598005" lon="10.5430717"><ele>181.0</ele><time>2026-03-22T13:14:46.45Z</time></trkpt><trkpt lat="44.59804" lon="10.5431817"><ele>181.20000000000002</ele><time>2026-03-22T13:14:48.45Z</time></trkpt><trkpt lat="44.59808" lon="10.5433167"><ele>181.4</ele><time>2026-03-22T13:14:50.45Z</time></trkpt><trkpt lat="44.598125" lon="10.543455"><ele>181.6</ele><time>2026-03-22T13:14:52.45Z</time></trkpt><trkpt lat="44.598175" lon="10.5435883"><ele>181.8</ele><time>2026-03-22T13:14:54.45Z</time></trkpt><trkpt lat="44.5982383" lon="10.5436933"><ele>182.0</ele><time>2026-03-22T13:14:56.45Z</time></trkpt><trkpt lat="44.598315" lon="10.5437917"><ele>180.8</ele><time>2026-03-22T13:14:58.45Z</time></trkpt><trkpt lat="44.59836" lon="10.54389"><ele>179.6</ele><time>2026-03-22T13:15:00.45Z</time></trkpt><trkpt lat="44.5984333" lon="10.5439783"><ele>178.4</ele><time>2026-03-22T13:15:02.45Z</time></trkpt><trkpt lat="44.5985117" lon="10.5440767"><ele>177.20000000000002</ele><time>2026-03-22T13:15:04.451Z</time></trkpt><trkpt lat="44.5985833" lon="10.54417"><ele>176.0</ele><time>2026-03-22T13:15:06.45Z</time></trkpt><trkpt lat="44.5986617" lon="10.5442517"><ele>175.8</ele><time>2026-03-22T13:15:08.45Z</time></trkpt><trkpt lat="44.59873" lon="10.5443333"><ele>175.60000000000002</ele><time>2026-03-22T13:15:10.45Z</time></trkpt><trkpt lat="44.5987917" lon="10.544445"><ele>175.4</ele><time>2026-03-22T13:15:12.45Z</time></trkpt><trkpt lat="44.5988467" lon="10.5445467"><ele>175.2</ele><time>2026-03-22T13:15:14.45Z</time></trkpt><trkpt lat="44.5989083" lon="10.5446517"><ele>175.0</ele><time>2026-03-22T13:15:16.45Z</time></trkpt><trkpt lat="44.5989533" lon="10.5447533"><ele>175.0</ele><time>2026-03-22T13:15:18.45Z</time></trkpt><trkpt lat="44.5990217" lon="10.5448167"><ele>175.0</ele><time>2026-03-22T13:15:20.45Z</time></trkpt><trkpt lat="44.5990933" lon="10.5448733"><ele>175.0</ele><time>2026-03-22T13:15:22.45Z</time></trkpt><trkpt lat="44.5991667" lon="10.5449517"><ele>175.0</ele><time>2026-03-22T13:15:24.45Z</time></trkpt><trkpt lat="44.5992467" lon="10.5450417"><ele>175.0</ele><time>2026-03-22T13:15:26.45Z</time></trkpt><trkpt lat="44.5993483" lon="10.54513"><ele>175.0</ele><time>2026-03-22T13:15:28.45Z</time></trkpt><trkpt lat="44.5994017" lon="10.54519"><ele>175.0</ele><time>2026-03-22T13:15:29.45Z</time></trkpt><trkpt lat="44.5994883" lon="10.5452833"><ele>175.0</ele><time>2026-03-22T13:15:31.451Z</time></trkpt><trkpt lat="44.5995817" lon="10.545365"><ele>175.0</ele><time>2026-03-22T13:15:33.45Z</time></trkpt><trkpt lat="44.5996367" lon="10.5454167"><ele>175.0</ele><time>2026-03-22T13:15:34.45Z</time></trkpt><trkpt lat="44.599735" lon="10.54549"><ele>175.0</ele><time>2026-03-22T13:15:36.45Z</time></trkpt><trkpt lat="44.59983" lon="10.5455633"><ele>175.0</ele><time>2026-03-22T13:15:38.45Z</time></trkpt><trkpt lat="44.5999233" lon="10.54561"><ele>175.0</ele><time>2026-03-22T13:15:40.45Z</time></trkpt><trkpt lat="44.60003" lon="10.54567"><ele>175.0</ele><time>2026-03-22T13:15:42.45Z</time></trkpt><trkpt lat="44.6001333" lon="10.5457117"><ele>175.0</ele><time>2026-03-22T13:15:44.451Z</time></trkpt><trkpt lat="44.600235" lon="10.5457683"><ele>175.0</ele><time>2026-03-22T13:15:46.45Z</time></trkpt><trkpt lat="44.6003017" lon="10.5457833"><ele>175.0</ele><time>2026-03-22T13:15:48.45Z</time></trkpt><trkpt lat="44.6003833" lon="10.5458"><ele>175.0</ele><time>2026-03-22T13:15:50.451Z</time></trkpt><trkpt lat="44.6004767" lon="10.545855"><ele>175.0</ele><time>2026-03-22T13:15:52.451Z</time></trkpt><trkpt lat="44.6005617" lon="10.54591"><ele>175.0</ele><time>2026-03-22T13:15:54.45Z</time></trkpt><trkpt lat="44.600645" lon="10.5459717"><ele>175.0</ele><time>2026-03-22T13:15:56.451Z</time></trkpt><trkpt lat="44.6007317" lon="10.54605"><ele>175.2</ele><time>2026-03-22T13:15:58.451Z</time></trkpt><trkpt lat="44.60079" lon="10.54609"><ele>175.4</ele><time>2026-03-22T13:15:59.451Z</time></trkpt><trkpt lat="44.6008517" lon="10.5461283"><ele>175.60000000000002</ele><time>2026-03-22T13:16:00.45Z</time></trkpt><trkpt lat="44.6009667" lon="10.5461933"><ele>175.8</ele><time>2026-03-22T13:16:02.45Z</time></trkpt><trkpt lat="44.6010833" lon="10.5462533"><ele>176.0</ele><time>2026-03-22T13:16:04.45Z</time></trkpt><trkpt lat="44.6011483" lon="10.54629"><ele>175.57142857142858</ele><time>2026-03-22T13:16:05.45Z</time></trkpt><trkpt lat="44.601215" lon="10.5463317"><ele>175.14285714285714</ele><time>2026-03-22T13:16:06.451Z</time></trkpt><trkpt lat="44.6012817" lon="10.5463633"><ele>174.71428571428572</ele><time>2026-03-22T13:16:07.45Z</time></trkpt><trkpt lat="44.6013467" lon="10.5464033"><ele>174.28571428571428</ele><time>2026-03-22T13:16:08.45Z</time></trkpt><trkpt lat="44.6014033" lon="10.54645"><ele>173.85714285714286</ele><time>2026-03-22T13:16:09.45Z</time></trkpt><trkpt lat="44.6014567" lon="10.5465083"><ele>173.42857142857142</ele><time>2026-03-22T13:16:10.45Z</time></trkpt><trkpt lat="44.601515" lon="10.54656"><ele>173.0</ele><time>2026-03-22T13:16:11.45Z</time></trkpt><trkpt lat="44.6016217" lon="10.5466267"><ele>173.0</ele><time>2026-03-22T13:16:13.451Z</time></trkpt><trkpt lat="44.6016817" lon="10.5466583"><ele>173.0</ele><time>2026-03-22T13:16:14.45Z</time></trkpt><trkpt lat="44.6017383" lon="10.5467"><ele>173.0</ele><time>2026-03-22T13:16:15.45Z</time></trkpt><trkpt lat="44.6017967" lon="10.5467467"><ele>173.0</ele><time>2026-03-22T13:16:16.45Z</time></trkpt><trkpt lat="44.6018617" lon="10.546795"><ele>173.0</ele><time>2026-03-22T13:16:17.45Z</time></trkpt><trkpt lat="44.6019183" lon="10.5468467"><ele>173.0</ele><time>2026-03-22T13:16:18.45Z</time></trkpt><trkpt lat="44.601985" lon="10.5469067"><ele>173.0</ele><time>2026-03-22T13:16:19.45Z</time></trkpt><trkpt lat="44.6020533" lon="10.546965"><ele>173.28571428571428</ele><time>2026-03-22T13:16:20.45Z</time></trkpt><trkpt lat="44.6021167" lon="10.547015"><ele>173.57142857142858</ele><time>2026-03-22T13:16:21.45Z</time></trkpt><trkpt lat="44.6021817" lon="10.5470683"><ele>173.85714285714286</ele><time>2026-03-22T13:16:22.45Z</time></trkpt><trkpt lat="44.6022467" lon="10.5471117"><ele>174.14285714285714</ele><time>2026-03-22T13:16:23.45Z</time></trkpt><trkpt lat="44.602315" lon="10.5471583"><ele>174.42857142857144</ele><time>2026-03-22T13:16:24.45Z</time></trkpt><trkpt lat="44.602375" lon="10.5472033"><ele>174.71428571428572</ele><time>2026-03-22T13:16:25.45Z</time></trkpt><trkpt lat="44.6024333" lon="10.5472417"><ele>175.0</ele><time>2026-03-22T13:16:26.451Z</time></trkpt><trkpt lat="44.6024933" lon="10.54728"><ele>173.85714285714286</ele><time>2026-03-22T13:16:27.45Z</time></trkpt><trkpt lat="44.6025583" lon="10.5473233"><ele>172.71428571428572</ele><time>2026-03-22T13:16:28.45Z</time></trkpt><trkpt lat="44.602625" lon="10.547365"><ele>171.57142857142856</ele><time>2026-03-22T13:16:29.451Z</time></trkpt><trkpt lat="44.6026867" lon="10.54739"><ele>170.42857142857144</ele><time>2026-03-22T13:16:30.45Z</time></trkpt><trkpt lat="44.602745" lon="10.5474283"><ele>169.28571428571428</ele><time>2026-03-22T13:16:31.45Z</time></trkpt><trkpt lat="44.6028067" lon="10.5474583"><ele>168.14285714285714</ele><time>2026-03-22T13:16:32.45Z</time></trkpt><trkpt lat="44.6028717" lon="10.5474833"><ele>167.0</ele><time>2026-03-22T13:16:33.45Z</time></trkpt><trkpt lat="44.6029367" lon="10.5475083"><ele>167.0</ele><time>2026-03-22T13:16:34.45Z</time></trkpt><trkpt lat="44.603065" lon="10.5475417"><ele>167.0</ele><time>2026-03-22T13:16:36.45Z</time></trkpt><trkpt lat="44.60313" lon="10.547565"><ele>167.0</ele><time>2026-03-22T13:16:37.45Z</time></trkpt><trkpt lat="44.6032533" lon="10.5475917"><ele>167.0</ele><time>2026-03-22T13:16:39.45Z</time></trkpt><trkpt lat="44.6033233" lon="10.547615"><ele>167.0</ele><time>2026-03-22T13:16:40.45Z</time></trkpt><trkpt lat="44.6034433" lon="10.547635"><ele>167.0</ele><time>2026-03-22T13:16:42.45Z</time></trkpt><trkpt lat="44.6035583" lon="10.547655"><ele>167.0</ele><time>2026-03-22T13:16:44.451Z</time></trkpt><trkpt lat="44.6036233" lon="10.547675"><ele>167.0</ele><time>2026-03-22T13:16:45.451Z</time></trkpt><trkpt lat="44.603695" lon="10.5477"><ele>167.0</ele><time>2026-03-22T13:16:46.45Z</time></trkpt><trkpt lat="44.6037583" lon="10.5477233"><ele>167.0</ele><time>2026-03-22T13:16:47.45Z</time></trkpt><trkpt lat="44.603885" lon="10.5477567"><ele>167.0</ele><time>2026-03-22T13:16:49.451Z</time></trkpt><trkpt lat="44.6039467" lon="10.54778"><ele>167.0</ele><time>2026-03-22T13:16:50.45Z</time></trkpt><trkpt lat="44.6040667" lon="10.5478367"><ele>167.0</ele><time>2026-03-22T13:16:52.45Z</time></trkpt><trkpt lat="44.604125" lon="10.5478767"><ele>167.0</ele><time>2026-03-22T13:16:53.45Z</time></trkpt><trkpt lat="44.6041833" lon="10.54792"><ele>167.0</ele><time>2026-03-22T13:16:54.45Z</time></trkpt><trkpt lat="44.6042417" lon="10.5479667"><ele>167.0</ele><time>2026-03-22T13:16:55.45Z</time></trkpt><trkpt lat="44.6042967" lon="10.5480117"><ele>166.5</ele><time>2026-03-22T13:16:56.451Z</time></trkpt><trkpt lat="44.6043567" lon="10.548065"><ele>166.0</ele><time>2026-03-22T13:16:57.45Z</time></trkpt><trkpt lat="44.6044133" lon="10.5481133"><ele>165.5</ele><time>2026-03-22T13:16:58.45Z</time></trkpt><trkpt lat="44.6044717" lon="10.54815"><ele>165.0</ele><time>2026-03-22T13:16:59.45Z</time></trkpt><trkpt lat="44.6045283" lon="10.5481933"><ele>164.5</ele><time>2026-03-22T13:17:00.451Z</time></trkpt><trkpt lat="44.6046417" lon="10.5482583"><ele>164.0</ele><time>2026-03-22T13:17:02.45Z</time></trkpt><trkpt lat="44.6047417" lon="10.54833"><ele>164.0</ele><time>2026-03-22T13:17:04.451Z</time></trkpt><trkpt lat="44.60484" lon="10.54842"><ele>164.0</ele><time>2026-03-22T13:17:06.451Z</time></trkpt><trkpt lat="44.6049333" lon="10.5484867"><ele>164.0</ele><time>2026-03-22T13:17:08.45Z</time></trkpt><trkpt lat="44.6050233" lon="10.5485533"><ele>164.0</ele><time>2026-03-22T13:17:10.45Z</time></trkpt><trkpt lat="44.6051183" lon="10.5486233"><ele>164.0</ele><time>2026-03-22T13:17:12.45Z</time></trkpt><trkpt lat="44.6052217" lon="10.548695"><ele>163.0</ele><time>2026-03-22T13:17:14.45Z</time></trkpt><trkpt lat="44.6053317" lon="10.5487667"><ele>162.0</ele><time>2026-03-22T13:17:16.45Z</time></trkpt><trkpt lat="44.6054433" lon="10.548835"><ele>161.0</ele><time>2026-03-22T13:17:18.451Z</time></trkpt><trkpt lat="44.605505" lon="10.5488733"><ele>160.0</ele><time>2026-03-22T13:17:19.45Z</time></trkpt><trkpt lat="44.6055633" lon="10.5489067"><ele>159.0</ele><time>2026-03-22T13:17:20.451Z</time></trkpt><trkpt lat="44.6056583" lon="10.548955"><ele>159.0</ele><time>2026-03-22T13:17:22.45Z</time></trkpt><trkpt lat="44.6057517" lon="10.5490133"><ele>159.0</ele><time>2026-03-22T13:17:24.45Z</time></trkpt><trkpt lat="44.6058483" lon="10.5490383"><ele>159.0</ele><time>2026-03-22T13:17:26.451Z</time></trkpt><trkpt lat="44.60594" lon="10.5490633"><ele>159.0</ele><time>2026-03-22T13:17:28.45Z</time></trkpt><trkpt lat="44.606025" lon="10.549065"><ele>159.0</ele><time>2026-03-22T13:17:30.451Z</time></trkpt><trkpt lat="44.606115" lon="10.549085"><ele>158.85714285714286</ele><time>2026-03-22T13:17:32.45Z</time></trkpt><trkpt lat="44.60619" lon="10.5491033"><ele>158.71428571428572</ele><time>2026-03-22T13:17:34.45Z</time></trkpt><trkpt lat="44.6062533" lon="10.549125"><ele>158.57142857142858</ele><time>2026-03-22T13:17:36.45Z</time></trkpt><trkpt lat="44.6063233" lon="10.54915"><ele>158.42857142857144</ele><time>2026-03-22T13:17:39.45Z</time></trkpt><trkpt lat="44.6063967" lon="10.5491133"><ele>158.28571428571428</ele><time>2026-03-22T13:17:46.451Z</time></trkpt><trkpt lat="44.60646" lon="10.549105"><ele>158.14285714285717</ele><time>2026-03-22T13:17:49.45Z</time></trkpt><trkpt lat="44.6065267" lon="10.5491"><ele>158.0</ele><time>2026-03-22T13:17:51.451Z</time></trkpt><trkpt lat="44.6065983" lon="10.549105"><ele>158.0</ele><time>2026-03-22T13:17:53.45Z</time></trkpt><trkpt lat="44.6066733" lon="10.5491067"><ele>158.0</ele><time>2026-03-22T13:17:55.45Z</time></trkpt><trkpt lat="44.6067583" lon="10.5491283"><ele>158.0</ele><time>2026-03-22T13:17:57.45Z</time></trkpt><trkpt lat="44.6068367" lon="10.5491283"><ele>158.0</ele><time>2026-03-22T13:17:59.45Z</time></trkpt><trkpt lat="44.6069033" lon="10.5491033"><ele>158.0</ele><time>2026-03-22T13:18:01.45Z</time></trkpt><trkpt lat="44.6069667" lon="10.5490933"><ele>158.0</ele><time>2026-03-22T13:18:03.45Z</time></trkpt><trkpt lat="44.607055" lon="10.5490883"><ele>157.85714285714286</ele><time>2026-03-22T13:18:06.45Z</time></trkpt><trkpt lat="44.60713" lon="10.5490967"><ele>157.71428571428572</ele><time>2026-03-22T13:18:08.45Z</time></trkpt><trkpt lat="44.6071967" lon="10.5491133"><ele>157.57142857142856</ele><time>2026-03-22T13:18:10.45Z</time></trkpt><trkpt lat="44.607265" lon="10.5491283"><ele>157.42857142857144</ele><time>2026-03-22T13:18:12.451Z</time></trkpt><trkpt lat="44.6073317" lon="10.54915"><ele>157.28571428571428</ele><time>2026-03-22T13:18:14.45Z</time></trkpt><trkpt lat="44.60741" lon="10.54917"><ele>157.14285714285714</ele><time>2026-03-22T13:18:16.45Z</time></trkpt><trkpt lat="44.6074833" lon="10.5491667"><ele>157.0</ele><time>2026-03-22T13:18:18.451Z</time></trkpt><trkpt lat="44.607555" lon="10.5491733"><ele>156.99999999999997</ele><time>2026-03-22T13:18:20.45Z</time></trkpt><trkpt lat="44.6076167" lon="10.5491917"><ele>157.0</ele><time>2026-03-22T13:18:22.45Z</time></trkpt><trkpt lat="44.60768" lon="10.5491783"><ele>157.0</ele><time>2026-03-22T13:18:24.45Z</time></trkpt><trkpt lat="44.607755" lon="10.5491383"><ele>157.0</ele><time>2026-03-22T13:18:26.451Z</time></trkpt><trkpt lat="44.6078283" lon="10.5491"><ele>157.0</ele><time>2026-03-22T13:18:28.451Z</time></trkpt><trkpt lat="44.6078767" lon="10.5490317"><ele>156.99999999999997</ele><time>2026-03-22T13:18:30.451Z</time></trkpt><trkpt lat="44.6079033" lon="10.5489117"><ele>157.0</ele><time>2026-03-22T13:18:33.45Z</time></trkpt><trkpt lat="44.6079067" lon="10.5487867"><ele>156.83333333333334</ele><time>2026-03-22T13:18:36.45Z</time></trkpt><trkpt lat="44.6079167" lon="10.5486867"><ele>156.66666666666669</ele><time>2026-03-22T13:18:38.45Z</time></trkpt><trkpt lat="44.6079167" lon="10.5485767"><ele>156.5</ele><time>2026-03-22T13:18:41.45Z</time></trkpt><trkpt lat="44.60786" lon="10.5484867"><ele>156.33333333333334</ele><time>2026-03-22T13:18:45.45Z</time></trkpt><trkpt lat="44.60777" lon="10.5484883"><ele>156.16666666666666</ele><time>2026-03-22T13:18:47.45Z</time></trkpt><trkpt lat="44.6077067" lon="10.5485617"><ele>156.0</ele><time>2026-03-22T13:18:49.451Z</time></trkpt><trkpt lat="44.6076483" lon="10.54866"><ele>156.14285714285714</ele><time>2026-03-22T13:18:51.45Z</time></trkpt><trkpt lat="44.607605" lon="10.5487517"><ele>156.28571428571428</ele><time>2026-03-22T13:18:53.45Z</time></trkpt><trkpt lat="44.6075617" lon="10.54883"><ele>156.42857142857142</ele><time>2026-03-22T13:18:55.451Z</time></trkpt><trkpt lat="44.6075167" lon="10.5489117"><ele>156.57142857142856</ele><time>2026-03-22T13:18:57.45Z</time></trkpt><trkpt lat="44.60746" lon="10.5489767"><ele>156.71428571428572</ele><time>2026-03-22T13:18:59.45Z</time></trkpt><trkpt lat="44.6074" lon="10.54903"><ele>156.85714285714283</ele><time>2026-03-22T13:19:01.45Z</time></trkpt><trkpt lat="44.6073467" lon="10.54908"><ele>157.0</ele><time>2026-03-22T13:19:03.45Z</time></trkpt><trkpt lat="44.6072883" lon="10.549145"><ele>157.0</ele><time>2026-03-22T13:19:05.451Z</time></trkpt><trkpt lat="44.60722" lon="10.5492217"><ele>157.0</ele><time>2026-03-22T13:19:08.451Z</time></trkpt><trkpt lat="44.60716" lon="10.5492817"><ele>157.0</ele><time>2026-03-22T13:19:11.451Z</time></trkpt><trkpt lat="44.6071533" lon="10.5494033"><ele>157.0</ele><time>2026-03-22T13:19:13.45Z</time></trkpt><trkpt lat="44.6071633" lon="10.54953"><ele>157.0</ele><time>2026-03-22T13:19:15.45Z</time></trkpt><trkpt lat="44.6071667" lon="10.54966"><ele>157.0</ele><time>2026-03-22T13:19:17.451Z</time></trkpt><trkpt lat="44.6071667" lon="10.54978"><ele>156.83333333333334</ele><time>2026-03-22T13:19:19.45Z</time></trkpt><trkpt lat="44.6071667" lon="10.5498967"><ele>156.66666666666669</ele><time>2026-03-22T13:19:21.45Z</time></trkpt><trkpt lat="44.6071733" lon="10.5499967"><ele>156.5</ele><time>2026-03-22T13:19:23.45Z</time></trkpt><trkpt lat="44.607175" lon="10.550105"><ele>156.33333333333334</ele><time>2026-03-22T13:19:25.451Z</time></trkpt><trkpt lat="44.6071767" lon="10.550205"><ele>156.16666666666666</ele><time>2026-03-22T13:19:27.45Z</time></trkpt><trkpt lat="44.6071833" lon="10.55031"><ele>156.0</ele><time>2026-03-22T13:19:29.45Z</time></trkpt><trkpt lat="44.6071933" lon="10.5504117"><ele>155.85714285714286</ele><time>2026-03-22T13:19:31.45Z</time></trkpt><trkpt lat="44.6072017" lon="10.550505"><ele>155.7142857142857</ele><time>2026-03-22T13:19:33.45Z</time></trkpt><trkpt lat="44.6072017" lon="10.5506067"><ele>155.57142857142856</ele><time>2026-03-22T13:19:35.45Z</time></trkpt><trkpt lat="44.6072033" lon="10.5507"><ele>155.42857142857144</ele><time>2026-03-22T13:19:37.45Z</time></trkpt><trkpt lat="44.607215" lon="10.5507967"><ele>155.28571428571428</ele><time>2026-03-22T13:19:39.45Z</time></trkpt><trkpt lat="44.6072517" lon="10.550895"><ele>155.14285714285714</ele><time>2026-03-22T13:19:41.45Z</time></trkpt><trkpt lat="44.60731" lon="10.5509833"><ele>155.0</ele><time>2026-03-22T13:19:43.45Z</time></trkpt><trkpt lat="44.607355" lon="10.5510717"><ele>155.0</ele><time>2026-03-22T13:19:45.451Z</time></trkpt><trkpt lat="44.6073883" lon="10.551165"><ele>155.0</ele><time>2026-03-22T13:19:47.45Z</time></trkpt><trkpt lat="44.60741" lon="10.5512583"><ele>155.0</ele><time>2026-03-22T13:19:49.45Z</time></trkpt><trkpt lat="44.6074233" lon="10.5513617"><ele>155.0</ele><time>2026-03-22T13:19:51.45Z</time></trkpt><trkpt lat="44.6074367" lon="10.5514717"><ele>155.0</ele><time>2026-03-22T13:19:53.45Z</time></trkpt><trkpt lat="44.6074633" lon="10.5515817"><ele>155.0</ele><time>2026-03-22T13:19:55.45Z</time></trkpt><trkpt lat="44.60751" lon="10.5516767"><ele>155.16666666666666</ele><time>2026-03-22T13:19:57.45Z</time></trkpt><trkpt lat="44.6075633" lon="10.5517333"><ele>155.33333333333331</ele><time>2026-03-22T13:19:59.45Z</time></trkpt><trkpt lat="44.6076533" lon="10.551775"><ele>155.5</ele><time>2026-03-22T13:20:02.45Z</time></trkpt><trkpt lat="44.6077267" lon="10.5518"><ele>155.66666666666666</ele><time>2026-03-22T13:20:04.45Z</time></trkpt><trkpt lat="44.6078017" lon="10.5518417"><ele>155.83333333333334</ele><time>2026-03-22T13:20:06.45Z</time></trkpt><trkpt lat="44.6078733" lon="10.5518667"><ele>156.0</ele><time>2026-03-22T13:20:08.45Z</time></trkpt><trkpt lat="44.6079467" lon="10.55191"><ele>156.0</ele><time>2026-03-22T13:20:10.451Z</time></trkpt><trkpt lat="44.6080067" lon="10.5519683"><ele>156.0</ele><time>2026-03-22T13:20:12.45Z</time></trkpt><trkpt lat="44.6080483" lon="10.5520633"><ele>156.0</ele><time>2026-03-22T13:20:14.45Z</time></trkpt><trkpt lat="44.6080533" lon="10.55216"><ele>156.0</ele><time>2026-03-22T13:20:16.45Z</time></trkpt><trkpt lat="44.6080533" lon="10.5522617"><ele>156.0</ele><time>2026-03-22T13:20:18.45Z</time></trkpt><trkpt lat="44.608065" lon="10.552365"><ele>156.0</ele><time>2026-03-22T13:20:20.45Z</time></trkpt><trkpt lat="44.6080717" lon="10.5524867"><ele>155.66666666666666</ele><time>2026-03-22T13:20:22.45Z</time></trkpt><trkpt lat="44.6080883" lon="10.5525933"><ele>155.33333333333334</ele><time>2026-03-22T13:20:24.45Z</time></trkpt><trkpt lat="44.6081033" lon="10.5527"><ele>155.0</ele><time>2026-03-22T13:20:26.45Z</time></trkpt><trkpt lat="44.6081617" lon="10.5528117"><ele>154.66666666666669</ele><time>2026-03-22T13:20:29.45Z</time></trkpt><trkpt lat="44.6082133" lon="10.552925"><ele>154.33333333333334</ele><time>2026-03-22T13:20:31.451Z</time></trkpt><trkpt lat="44.6082533" lon="10.5530367"><ele>154.0</ele><time>2026-03-22T13:20:33.45Z</time></trkpt><trkpt lat="44.6082617" lon="10.55313"><ele>154.0</ele><time>2026-03-22T13:20:35.45Z</time></trkpt><trkpt lat="44.6083" lon="10.5532283"><ele>154.0</ele><time>2026-03-22T13:20:38.451Z</time></trkpt><trkpt lat="44.6083483" lon="10.553305"><ele>154.0</ele><time>2026-03-22T13:20:40.451Z</time></trkpt><trkpt lat="44.6084117" lon="10.55342"><ele>154.0</ele><time>2026-03-22T13:20:42.451Z</time></trkpt><trkpt lat="44.6084767" lon="10.553535"><ele>154.0</ele><time>2026-03-22T13:20:44.451Z</time></trkpt><trkpt lat="44.6085067" lon="10.5536633"><ele>153.6</ele><time>2026-03-22T13:20:46.45Z</time></trkpt><trkpt lat="44.6085283" lon="10.5537867"><ele>153.2</ele><time>2026-03-22T13:20:48.45Z</time></trkpt><trkpt lat="44.6085467" lon="10.5539133"><ele>152.79999999999998</ele><time>2026-03-22T13:20:50.451Z</time></trkpt><trkpt lat="44.6085633" lon="10.5540367"><ele>152.4</ele><time>2026-03-22T13:20:52.45Z</time></trkpt><trkpt lat="44.6085817" lon="10.5541617"><ele>152.0</ele><time>2026-03-22T13:20:54.45Z</time></trkpt><trkpt lat="44.6086017" lon="10.5542967"><ele>152.0</ele><time>2026-03-22T13:20:56.45Z</time></trkpt><trkpt lat="44.6086217" lon="10.554405"><ele>152.0</ele><time>2026-03-22T13:20:58.45Z</time></trkpt><trkpt lat="44.6086567" lon="10.5545133"><ele>152.0</ele><time>2026-03-22T13:21:00.45Z</time></trkpt><trkpt lat="44.6087" lon="10.5546167"><ele>152.0</ele><time>2026-03-22T13:21:02.45Z</time></trkpt><trkpt lat="44.6087483" lon="10.5547233"><ele>152.0</ele><time>2026-03-22T13:21:04.451Z</time></trkpt><trkpt lat="44.6087967" lon="10.5548583"><ele>152.0</ele><time>2026-03-22T13:21:06.45Z</time></trkpt><trkpt lat="44.6088417" lon="10.5550017"><ele>152.0</ele><time>2026-03-22T13:21:08.45Z</time></trkpt><trkpt lat="44.6088817" lon="10.5551333"><ele>152.0</ele><time>2026-03-22T13:21:10.45Z</time></trkpt><trkpt lat="44.60893" lon="10.5552633"><ele>152.0</ele><time>2026-03-22T13:21:12.45Z</time></trkpt><trkpt lat="44.6089783" lon="10.55538"><ele>152.0</ele><time>2026-03-22T13:21:14.45Z</time></trkpt><trkpt lat="44.6090333" lon="10.5554867"><ele>152.0</ele><time>2026-03-22T13:21:16.45Z</time></trkpt><trkpt lat="44.60909" lon="10.5555733"><ele>151.83333333333331</ele><time>2026-03-22T13:21:18.45Z</time></trkpt><trkpt lat="44.609145" lon="10.5556667"><ele>151.66666666666666</ele><time>2026-03-22T13:21:20.451Z</time></trkpt><trkpt lat="44.6092033" lon="10.5557533"><ele>151.5</ele><time>2026-03-22T13:21:22.45Z</time></trkpt><trkpt lat="44.60927" lon="10.5558167"><ele>151.33333333333334</ele><time>2026-03-22T13:21:24.451Z</time></trkpt><trkpt lat="44.609325" lon="10.555875"><ele>151.16666666666669</ele><time>2026-03-22T13:21:26.45Z</time></trkpt><trkpt lat="44.60939" lon="10.5559383"><ele>151.0</ele><time>2026-03-22T13:21:28.45Z</time></trkpt><trkpt lat="44.609465" lon="10.5559933"><ele>150.66666666666669</ele><time>2026-03-22T13:21:30.45Z</time></trkpt><trkpt lat="44.6095467" lon="10.5560333"><ele>150.33333333333334</ele><time>2026-03-22T13:21:32.451Z</time></trkpt><trkpt lat="44.6096283" lon="10.5560833"><ele>150.0</ele><time>2026-03-22T13:21:34.45Z</time></trkpt><trkpt lat="44.6097017" lon="10.5561233"><ele>149.66666666666666</ele><time>2026-03-22T13:21:36.451Z</time></trkpt><trkpt lat="44.6097867" lon="10.556185"><ele>149.33333333333331</ele><time>2026-03-22T13:21:38.45Z</time></trkpt><trkpt lat="44.6098717" lon="10.556255"><ele>149.0</ele><time>2026-03-22T13:21:40.451Z</time></trkpt><trkpt lat="44.609955" lon="10.556335"><ele>148.8</ele><time>2026-03-22T13:21:42.451Z</time></trkpt><trkpt lat="44.610035" lon="10.5564183"><ele>148.60000000000002</ele><time>2026-03-22T13:21:44.45Z</time></trkpt><trkpt lat="44.610115" lon="10.5564983"><ele>148.4</ele><time>2026-03-22T13:21:46.45Z</time></trkpt><trkpt lat="44.6101867" lon="10.55662"><ele>148.20000000000002</ele><time>2026-03-22T13:21:48.45Z</time></trkpt><trkpt lat="44.6102333" lon="10.55674"><ele>148.0</ele><time>2026-03-22T13:21:50.45Z</time></trkpt><trkpt lat="44.6102883" lon="10.556845"><ele>147.66666666666669</ele><time>2026-03-22T13:21:52.45Z</time></trkpt><trkpt lat="44.6103483" lon="10.5569083"><ele>147.33333333333334</ele><time>2026-03-22T13:21:54.45Z</time></trkpt><trkpt lat="44.61041" lon="10.556965"><ele>147.0</ele><time>2026-03-22T13:21:56.45Z</time></trkpt><trkpt lat="44.61049" lon="10.5570333"><ele>146.66666666666666</ele><time>2026-03-22T13:21:58.45Z</time></trkpt><trkpt lat="44.61057" lon="10.5570817"><ele>146.33333333333331</ele><time>2026-03-22T13:22:00.45Z</time></trkpt><trkpt lat="44.6106383" lon="10.5571033"><ele>146.0</ele><time>2026-03-22T13:22:02.45Z</time></trkpt><trkpt lat="44.610735" lon="10.557115"><ele>145.6</ele><time>2026-03-22T13:22:04.45Z</time></trkpt><trkpt lat="44.6108333" lon="10.55712"><ele>145.2</ele><time>2026-03-22T13:22:06.45Z</time></trkpt><trkpt lat="44.6109217" lon="10.557175"><ele>144.8</ele><time>2026-03-22T13:22:08.451Z</time></trkpt><trkpt lat="44.6110267" lon="10.557215"><ele>144.4</ele><time>2026-03-22T13:22:10.45Z</time></trkpt><trkpt lat="44.61112" lon="10.5572533"><ele>144.0</ele><time>2026-03-22T13:22:12.45Z</time></trkpt><trkpt lat="44.61122" lon="10.5572517"><ele>144.0</ele><time>2026-03-22T13:22:14.45Z</time></trkpt><trkpt lat="44.6113233" lon="10.5572517"><ele>144.0</ele><time>2026-03-22T13:22:16.45Z</time></trkpt><trkpt lat="44.611425" lon="10.55725"><ele>144.0</ele><time>2026-03-22T13:22:18.45Z</time></trkpt><trkpt lat="44.611525" lon="10.5572383"><ele>144.0</ele><time>2026-03-22T13:22:20.45Z</time></trkpt><trkpt lat="44.6116067" lon="10.557245"><ele>144.0</ele><time>2026-03-22T13:22:22.451Z</time></trkpt><trkpt lat="44.6116883" lon="10.5572867"><ele>144.0</ele><time>2026-03-22T13:22:24.45Z</time></trkpt><trkpt lat="44.6117817" lon="10.5573633"><ele>144.0</ele><time>2026-03-22T13:22:26.45Z</time></trkpt><trkpt lat="44.6118617" lon="10.5574317"><ele>144.0</ele><time>2026-03-22T13:22:28.45Z</time></trkpt><trkpt lat="44.6119367" lon="10.5574733"><ele>144.0</ele><time>2026-03-22T13:22:30.45Z</time></trkpt><trkpt lat="44.6120183" lon="10.5575383"><ele>144.0</ele><time>2026-03-22T13:22:32.45Z</time></trkpt><trkpt lat="44.6121117" lon="10.5575767"><ele>143.8</ele><time>2026-03-22T13:22:34.45Z</time></trkpt><trkpt lat="44.6122133" lon="10.5576183"><ele>143.60000000000002</ele><time>2026-03-22T13:22:36.45Z</time></trkpt><trkpt lat="44.6123017" lon="10.557655"><ele>143.4</ele><time>2026-03-22T13:22:38.45Z</time></trkpt><trkpt lat="44.6123817" lon="10.55767"><ele>143.20000000000002</ele><time>2026-03-22T13:22:40.45Z</time></trkpt><trkpt lat="44.6124783" lon="10.5576567"><ele>143.0</ele><time>2026-03-22T13:22:42.45Z</time></trkpt><trkpt lat="44.61259" lon="10.5576483"><ele>143.0</ele><time>2026-03-22T13:22:44.45Z</time></trkpt><trkpt lat="44.612705" lon="10.5576517"><ele>143.0</ele><time>2026-03-22T13:22:46.45Z</time></trkpt><trkpt lat="44.6127683" lon="10.5576617"><ele>143.0</ele><time>2026-03-22T13:22:47.45Z</time></trkpt><trkpt lat="44.6128883" lon="10.5576783"><ele>143.0</ele><time>2026-03-22T13:22:49.451Z</time></trkpt><trkpt lat="44.6130033" lon="10.5576733"><ele>143.0</ele><time>2026-03-22T13:22:51.451Z</time></trkpt><trkpt lat="44.6131267" lon="10.5576817"><ele>142.6</ele><time>2026-03-22T13:22:53.451Z</time></trkpt><trkpt lat="44.613195" lon="10.55768"><ele>142.20000000000002</ele><time>2026-03-22T13:22:54.451Z</time></trkpt><trkpt lat="44.6133183" lon="10.5576917"><ele>141.8</ele><time>2026-03-22T13:22:56.452Z</time></trkpt><trkpt lat="44.6134433" lon="10.5576867"><ele>141.4</ele><time>2026-03-22T13:22:58.451Z</time></trkpt><trkpt lat="44.6135583" lon="10.5576683"><ele>141.0</ele><time>2026-03-22T13:23:00.451Z</time></trkpt><trkpt lat="44.6136783" lon="10.55766"><ele>140.75</ele><time>2026-03-22T13:23:02.451Z</time></trkpt><trkpt lat="44.6138017" lon="10.5576533"><ele>140.5</ele><time>2026-03-22T13:23:04.451Z</time></trkpt><trkpt lat="44.61392" lon="10.557665"><ele>140.25</ele><time>2026-03-22T13:23:06.452Z</time></trkpt><trkpt lat="44.6140317" lon="10.557665"><ele>140.0</ele><time>2026-03-22T13:23:08.451Z</time></trkpt><trkpt lat="44.61415" lon="10.557655"><ele>140.0</ele><time>2026-03-22T13:23:10.451Z</time></trkpt><trkpt lat="44.6142717" lon="10.557655"><ele>140.0</ele><time>2026-03-22T13:23:12.451Z</time></trkpt><trkpt lat="44.6144017" lon="10.5576617"><ele>140.0</ele><time>2026-03-22T13:23:14.451Z</time></trkpt><trkpt lat="44.614465" lon="10.557665"><ele>140.0</ele><time>2026-03-22T13:23:15.451Z</time></trkpt><trkpt lat="44.61459" lon="10.55767"><ele>140.0</ele><time>2026-03-22T13:23:17.451Z</time></trkpt><trkpt lat="44.614655" lon="10.5576767"><ele>140.2</ele><time>2026-03-22T13:23:18.451Z</time></trkpt><trkpt lat="44.61472" lon="10.5576767"><ele>140.4</ele><time>2026-03-22T13:23:19.451Z</time></trkpt><trkpt lat="44.6148533" lon="10.5576933"><ele>140.6</ele><time>2026-03-22T13:23:21.451Z</time></trkpt><trkpt lat="44.614975" lon="10.5577017"><ele>140.8</ele><time>2026-03-22T13:23:23.451Z</time></trkpt><trkpt lat="44.6150983" lon="10.55772"><ele>141.0</ele><time>2026-03-22T13:23:25.451Z</time></trkpt><trkpt lat="44.6152217" lon="10.5577217"><ele>141.0</ele><time>2026-03-22T13:23:27.451Z</time></trkpt><trkpt lat="44.6153383" lon="10.55772"><ele>141.0</ele><time>2026-03-22T13:23:29.451Z</time></trkpt><trkpt lat="44.6154633" lon="10.5577183"><ele>141.0</ele><time>2026-03-22T13:23:31.452Z</time></trkpt><trkpt lat="44.6155267" lon="10.557725"><ele>141.0</ele><time>2026-03-22T13:23:32.451Z</time></trkpt><trkpt lat="44.6156467" lon="10.5577367"><ele>141.0</ele><time>2026-03-22T13:23:34.451Z</time></trkpt><trkpt lat="44.61575" lon="10.5577817"><ele>141.0</ele><time>2026-03-22T13:23:36.451Z</time></trkpt><trkpt lat="44.6158533" lon="10.5578567"><ele>141.0</ele><time>2026-03-22T13:23:38.451Z</time></trkpt><trkpt lat="44.6159633" lon="10.557895"><ele>141.0</ele><time>2026-03-22T13:23:40.451Z</time></trkpt><trkpt lat="44.616085" lon="10.5579017"><ele>141.0</ele><time>2026-03-22T13:23:42.451Z</time></trkpt><trkpt lat="44.61615" lon="10.55791"><ele>141.0</ele><time>2026-03-22T13:23:43.451Z</time></trkpt><trkpt lat="44.6162567" lon="10.5579033"><ele>140.5</ele><time>2026-03-22T13:23:45.451Z</time></trkpt><trkpt lat="44.6163817" lon="10.5578883"><ele>140.0</ele><time>2026-03-22T13:23:47.452Z</time></trkpt><trkpt lat="44.6165033" lon="10.55789"><ele>139.5</ele><time>2026-03-22T13:23:49.451Z</time></trkpt><trkpt lat="44.6166067" lon="10.5579217"><ele>139.0</ele><time>2026-03-22T13:23:51.451Z</time></trkpt><trkpt lat="44.6167017" lon="10.5579533"><ele>139.0</ele><time>2026-03-22T13:23:53.451Z</time></trkpt><trkpt lat="44.6168" lon="10.5579983"><ele>139.0</ele><time>2026-03-22T13:23:55.452Z</time></trkpt><trkpt lat="44.6168867" lon="10.5580283"><ele>139.0</ele><time>2026-03-22T13:23:57.451Z</time></trkpt><trkpt lat="44.6169767" lon="10.55806"><ele>139.0</ele><time>2026-03-22T13:23:59.451Z</time></trkpt><trkpt lat="44.6170583" lon="10.55808"><ele>139.0</ele><time>2026-03-22T13:24:01.451Z</time></trkpt><trkpt lat="44.61714" lon="10.5581233"><ele>138.8</ele><time>2026-03-22T13:24:03.451Z</time></trkpt><trkpt lat="44.6172167" lon="10.5581867"><ele>138.60000000000002</ele><time>2026-03-22T13:24:05.451Z</time></trkpt><trkpt lat="44.6172767" lon="10.5582533"><ele>138.4</ele><time>2026-03-22T13:24:07.451Z</time></trkpt><trkpt lat="44.61734" lon="10.55835"><ele>138.20000000000002</ele><time>2026-03-22T13:24:09.451Z</time></trkpt><trkpt lat="44.6173933" lon="10.5584483"><ele>138.0</ele><time>2026-03-22T13:24:11.451Z</time></trkpt><trkpt lat="44.6174717" lon="10.5585767"><ele>138.0</ele><time>2026-03-22T13:24:13.451Z</time></trkpt><trkpt lat="44.6175217" lon="10.5586317"><ele>138.0</ele><time>2026-03-22T13:24:14.451Z</time></trkpt><trkpt lat="44.6176183" lon="10.5587383"><ele>138.0</ele><time>2026-03-22T13:24:16.451Z</time></trkpt><trkpt lat="44.6176717" lon="10.5587867"><ele>138.0</ele><time>2026-03-22T13:24:17.451Z</time></trkpt><trkpt lat="44.617765" lon="10.5588833"><ele>138.0</ele><time>2026-03-22T13:24:19.451Z</time></trkpt><trkpt lat="44.61785" lon="10.5589567"><ele>138.0</ele><time>2026-03-22T13:24:21.452Z</time></trkpt><trkpt lat="44.6179283" lon="10.5590233"><ele>138.0</ele><time>2026-03-22T13:24:23.451Z</time></trkpt><trkpt lat="44.618" lon="10.5590917"><ele>138.0</ele><time>2026-03-22T13:24:25.451Z</time></trkpt><trkpt lat="44.61807" lon="10.5591917"><ele>138.0</ele><time>2026-03-22T13:24:27.452Z</time></trkpt><trkpt lat="44.6181467" lon="10.5593033"><ele>138.0</ele><time>2026-03-22T13:24:29.451Z</time></trkpt><trkpt lat="44.6182283" lon="10.559405"><ele>138.0</ele><time>2026-03-22T13:24:31.451Z</time></trkpt><trkpt lat="44.6183283" lon="10.5595067"><ele>138.0</ele><time>2026-03-22T13:24:33.451Z</time></trkpt><trkpt lat="44.61842" lon="10.5595667"><ele>138.0</ele><time>2026-03-22T13:24:35.451Z</time></trkpt><trkpt lat="44.6184867" lon="10.559575"><ele>138.0</ele><time>2026-03-22T13:24:37.451Z</time></trkpt><trkpt lat="44.6185333" lon="10.559505"><ele>138.0</ele><time>2026-03-22T13:24:41.451Z</time></trkpt><trkpt lat="44.618575" lon="10.55943"><ele>138.0</ele><time>2026-03-22T13:24:47.451Z</time></trkpt><trkpt lat="44.6186433" lon="10.559385"><ele>138.0</ele><time>2026-03-22T13:24:50.451Z</time></trkpt><trkpt lat="44.61871" lon="10.5593"><ele>138.0</ele><time>2026-03-22T13:24:52.451Z</time></trkpt><trkpt lat="44.6187617" lon="10.5592433"><ele>138.0</ele><time>2026-03-22T13:24:54.452Z</time></trkpt><trkpt lat="44.6187433" lon="10.5593483"><ele>138.0</ele><time>2026-03-22T13:25:13.451Z</time></trkpt><trkpt lat="44.6186717" lon="10.5594233"><ele>138.0</ele><time>2026-03-22T13:25:16.452Z</time></trkpt><trkpt lat="44.6186033" lon="10.5594817"><ele>138.0</ele><time>2026-03-22T13:25:19.451Z</time></trkpt><trkpt lat="44.6186133" lon="10.559585"><ele>137.83333333333334</ele><time>2026-03-22T13:25:23.451Z</time></trkpt><trkpt lat="44.6186533" lon="10.5596617"><ele>137.66666666666666</ele><time>2026-03-22T13:25:27.452Z</time></trkpt><trkpt lat="44.6187083" lon="10.5597383"><ele>137.5</ele><time>2026-03-22T13:25:31.451Z</time></trkpt><trkpt lat="44.6187583" lon="10.5598083"><ele>137.33333333333331</ele><time>2026-03-22T13:25:33.451Z</time></trkpt><trkpt lat="44.61881" lon="10.5599017"><ele>137.16666666666666</ele><time>2026-03-22T13:25:35.451Z</time></trkpt><trkpt lat="44.61887" lon="10.5600133"><ele>137.0</ele><time>2026-03-22T13:25:37.451Z</time></trkpt><trkpt lat="44.6189383" lon="10.5601383"><ele>137.0</ele><time>2026-03-22T13:25:39.452Z</time></trkpt><trkpt lat="44.6190067" lon="10.5602583"><ele>137.0</ele><time>2026-03-22T13:25:41.452Z</time></trkpt><trkpt lat="44.6190783" lon="10.5603867"><ele>137.0</ele><time>2026-03-22T13:25:43.451Z</time></trkpt><trkpt lat="44.6191267" lon="10.5604633"><ele>137.0</ele><time>2026-03-22T13:25:44.452Z</time></trkpt><trkpt lat="44.6191733" lon="10.5605367"><ele>137.0</ele><time>2026-03-22T13:25:45.451Z</time></trkpt><trkpt lat="44.6192533" lon="10.5606683"><ele>137.2</ele><time>2026-03-22T13:25:47.452Z</time></trkpt><trkpt lat="44.6193283" lon="10.5608033"><ele>137.39999999999998</ele><time>2026-03-22T13:25:49.451Z</time></trkpt><trkpt lat="44.6193683" lon="10.5608733"><ele>137.60000000000002</ele><time>2026-03-22T13:25:50.451Z</time></trkpt><trkpt lat="44.6194067" lon="10.5609467"><ele>137.8</ele><time>2026-03-22T13:25:51.451Z</time></trkpt><trkpt lat="44.6194733" lon="10.5610733"><ele>138.0</ele><time>2026-03-22T13:25:53.452Z</time></trkpt><trkpt lat="44.6195417" lon="10.5611867"><ele>137.20000000000002</ele><time>2026-03-22T13:25:55.451Z</time></trkpt><trkpt lat="44.6196117" lon="10.5613083"><ele>136.4</ele><time>2026-03-22T13:25:57.452Z</time></trkpt><trkpt lat="44.6196817" lon="10.5614333"><ele>135.60000000000002</ele><time>2026-03-22T13:25:59.451Z</time></trkpt><trkpt lat="44.619745" lon="10.5615567"><ele>134.8</ele><time>2026-03-22T13:26:01.452Z</time></trkpt><trkpt lat="44.61981" lon="10.5616783"><ele>134.0</ele><time>2026-03-22T13:26:03.451Z</time></trkpt><trkpt lat="44.6198717" lon="10.5617983"><ele>134.0</ele><time>2026-03-22T13:26:05.451Z</time></trkpt><trkpt lat="44.6199317" lon="10.561915"><ele>134.0</ele><time>2026-03-22T13:26:07.451Z</time></trkpt><trkpt lat="44.6199967" lon="10.5620433"><ele>134.0</ele><time>2026-03-22T13:26:09.451Z</time></trkpt><trkpt lat="44.6200667" lon="10.5621683"><ele>134.0</ele><time>2026-03-22T13:26:11.452Z</time></trkpt><trkpt lat="44.6201333" lon="10.5623"><ele>134.0</ele><time>2026-03-22T13:26:13.451Z</time></trkpt><trkpt lat="44.6202017" lon="10.5624117"><ele>134.0</ele><time>2026-03-22T13:26:15.451Z</time></trkpt><trkpt lat="44.6202733" lon="10.5625383"><ele>134.0</ele><time>2026-03-22T13:26:17.451Z</time></trkpt><trkpt lat="44.6203533" lon="10.56265"><ele>134.0</ele><time>2026-03-22T13:26:19.452Z</time></trkpt><trkpt lat="44.6204217" lon="10.5627517"><ele>134.0</ele><time>2026-03-22T13:26:21.452Z</time></trkpt><trkpt lat="44.6204617" lon="10.5628717"><ele>134.0</ele><time>2026-03-22T13:26:23.451Z</time></trkpt><trkpt lat="44.6204817" lon="10.5630017"><ele>134.0</ele><time>2026-03-22T13:26:25.451Z</time></trkpt><trkpt lat="44.62051" lon="10.5631317"><ele>134.0</ele><time>2026-03-22T13:26:27.451Z</time></trkpt><trkpt lat="44.620545" lon="10.5632617"><ele>134.0</ele><time>2026-03-22T13:26:29.451Z</time></trkpt><trkpt lat="44.6205933" lon="10.56341"><ele>134.0</ele><time>2026-03-22T13:26:31.451Z</time></trkpt><trkpt lat="44.6206317" lon="10.5634817"><ele>134.0</ele><time>2026-03-22T13:26:32.451Z</time></trkpt><trkpt lat="44.620675" lon="10.5635483"><ele>134.0</ele><time>2026-03-22T13:26:33.451Z</time></trkpt><trkpt lat="44.62075" lon="10.56366"><ele>133.4</ele><time>2026-03-22T13:26:35.451Z</time></trkpt><trkpt lat="44.6208367" lon="10.5637433"><ele>132.8</ele><time>2026-03-22T13:26:37.451Z</time></trkpt><trkpt lat="44.6209333" lon="10.5638117"><ele>132.2</ele><time>2026-03-22T13:26:39.451Z</time></trkpt><trkpt lat="44.6210133" lon="10.5639017"><ele>131.6</ele><time>2026-03-22T13:26:41.451Z</time></trkpt><trkpt lat="44.62107" lon="10.5640017"><ele>131.0</ele><time>2026-03-22T13:26:43.451Z</time></trkpt><trkpt lat="44.6211267" lon="10.5641033"><ele>130.8</ele><time>2026-03-22T13:26:45.451Z</time></trkpt><trkpt lat="44.6211883" lon="10.5642017"><ele>130.6</ele><time>2026-03-22T13:26:47.451Z</time></trkpt><trkpt lat="44.6212633" lon="10.5642883"><ele>130.4</ele><time>2026-03-22T13:26:49.451Z</time></trkpt><trkpt lat="44.6213317" lon="10.5643917"><ele>130.2</ele><time>2026-03-22T13:26:51.451Z</time></trkpt><trkpt lat="44.6214" lon="10.5644983"><ele>130.0</ele><time>2026-03-22T13:26:53.451Z</time></trkpt><trkpt lat="44.6214733" lon="10.5646067"><ele>130.0</ele><time>2026-03-22T13:26:55.451Z</time></trkpt><trkpt lat="44.621555" lon="10.5647083"><ele>130.0</ele><time>2026-03-22T13:26:57.452Z</time></trkpt><trkpt lat="44.6216367" lon="10.5648017"><ele>130.0</ele><time>2026-03-22T13:26:59.452Z</time></trkpt><trkpt lat="44.6217183" lon="10.564875"><ele>130.0</ele><time>2026-03-22T13:27:01.451Z</time></trkpt><trkpt lat="44.6218067" lon="10.5649383"><ele>130.0</ele><time>2026-03-22T13:27:03.452Z</time></trkpt><trkpt lat="44.6218883" lon="10.5649867"><ele>130.33333333333334</ele><time>2026-03-22T13:27:05.451Z</time></trkpt><trkpt lat="44.6219817" lon="10.5650333"><ele>130.66666666666669</ele><time>2026-03-22T13:27:07.451Z</time></trkpt><trkpt lat="44.6220683" lon="10.565085"><ele>131.0</ele><time>2026-03-22T13:27:09.451Z</time></trkpt><trkpt lat="44.6221367" lon="10.5651367"><ele>131.33333333333334</ele><time>2026-03-22T13:27:11.451Z</time></trkpt><trkpt lat="44.6221917" lon="10.56518"><ele>131.66666666666666</ele><time>2026-03-22T13:27:13.451Z</time></trkpt><trkpt lat="44.62229" lon="10.5652267"><ele>132.0</ele><time>2026-03-22T13:27:16.451Z</time></trkpt><trkpt lat="44.6223667" lon="10.5652367"><ele>132.0</ele><time>2026-03-22T13:27:18.451Z</time></trkpt><trkpt lat="44.62244" lon="10.5652833"><ele>132.0</ele><time>2026-03-22T13:27:20.452Z</time></trkpt><trkpt lat="44.6224983" lon="10.565365"><ele>132.0</ele><time>2026-03-22T13:27:22.451Z</time></trkpt><trkpt lat="44.6225333" lon="10.5654717"><ele>132.0</ele><time>2026-03-22T13:27:24.451Z</time></trkpt><trkpt lat="44.622585" lon="10.565615"><ele>132.0</ele><time>2026-03-22T13:27:26.452Z</time></trkpt><trkpt lat="44.62265" lon="10.5657433"><ele>132.2</ele><time>2026-03-22T13:27:28.451Z</time></trkpt><trkpt lat="44.6227133" lon="10.56584"><ele>132.39999999999998</ele><time>2026-03-22T13:27:30.451Z</time></trkpt><trkpt lat="44.6227867" lon="10.5659417"><ele>132.60000000000002</ele><time>2026-03-22T13:27:32.451Z</time></trkpt><trkpt lat="44.6228633" lon="10.56604"><ele>132.8</ele><time>2026-03-22T13:27:34.452Z</time></trkpt><trkpt lat="44.6229417" lon="10.56614"><ele>133.0</ele><time>2026-03-22T13:27:36.451Z</time></trkpt><trkpt lat="44.6230217" lon="10.5662267"><ele>132.20000000000002</ele><time>2026-03-22T13:27:38.451Z</time></trkpt><trkpt lat="44.6231017" lon="10.5663083"><ele>131.4</ele><time>2026-03-22T13:27:40.451Z</time></trkpt><trkpt lat="44.6231833" lon="10.5663917"><ele>130.60000000000002</ele><time>2026-03-22T13:27:42.451Z</time></trkpt><trkpt lat="44.6232617" lon="10.5664717"><ele>129.8</ele><time>2026-03-22T13:27:44.452Z</time></trkpt><trkpt lat="44.623345" lon="10.56657"><ele>129.0</ele><time>2026-03-22T13:27:46.452Z</time></trkpt><trkpt lat="44.6234233" lon="10.56665"><ele>129.0</ele><time>2026-03-22T13:27:48.451Z</time></trkpt><trkpt lat="44.6235033" lon="10.566735"><ele>129.0</ele><time>2026-03-22T13:27:50.451Z</time></trkpt><trkpt lat="44.623585" lon="10.5668283"><ele>129.0</ele><time>2026-03-22T13:27:52.451Z</time></trkpt><trkpt lat="44.623655" lon="10.5668933"><ele>129.0</ele><time>2026-03-22T13:27:54.451Z</time></trkpt><trkpt lat="44.6237317" lon="10.566965"><ele>129.0</ele><time>2026-03-22T13:27:56.451Z</time></trkpt><trkpt lat="44.623815" lon="10.5670167"><ele>128.83333333333334</ele><time>2026-03-22T13:27:58.451Z</time></trkpt><trkpt lat="44.6238967" lon="10.5670333"><ele>128.66666666666666</ele><time>2026-03-22T13:28:00.451Z</time></trkpt><trkpt lat="44.6239883" lon="10.5670633"><ele>128.5</ele><time>2026-03-22T13:28:03.451Z</time></trkpt><trkpt lat="44.624055" lon="10.5670817"><ele>128.33333333333331</ele><time>2026-03-22T13:28:05.451Z</time></trkpt><trkpt lat="44.6241367" lon="10.5671367"><ele>128.16666666666666</ele><time>2026-03-22T13:28:07.451Z</time></trkpt><trkpt lat="44.62421" lon="10.5671867"><ele>128.0</ele><time>2026-03-22T13:28:09.452Z</time></trkpt><trkpt lat="44.6242833" lon="10.5672467"><ele>127.99999999999999</ele><time>2026-03-22T13:28:11.451Z</time></trkpt><trkpt lat="44.6243383" lon="10.5673083"><ele>128.0</ele><time>2026-03-22T13:28:13.451Z</time></trkpt><trkpt lat="44.6244017" lon="10.56738"><ele>128.0</ele><time>2026-03-22T13:28:15.451Z</time></trkpt><trkpt lat="44.62447" lon="10.5674467"><ele>128.0</ele><time>2026-03-22T13:28:17.452Z</time></trkpt><trkpt lat="44.624525" lon="10.567555"><ele>127.99999999999999</ele><time>2026-03-22T13:28:19.451Z</time></trkpt><trkpt lat="44.6245533" lon="10.5676817"><ele>128.0</ele><time>2026-03-22T13:28:21.452Z</time></trkpt><trkpt lat="44.6245883" lon="10.5678033"><ele>127.4</ele><time>2026-03-22T13:28:23.451Z</time></trkpt><trkpt lat="44.6246367" lon="10.5679167"><ele>126.80000000000001</ele><time>2026-03-22T13:28:25.451Z</time></trkpt><trkpt lat="44.6246983" lon="10.5680217"><ele>126.2</ele><time>2026-03-22T13:28:27.451Z</time></trkpt><trkpt lat="44.62476" lon="10.5681083"><ele>125.6</ele><time>2026-03-22T13:28:29.451Z</time></trkpt><trkpt lat="44.6248417" lon="10.5682017"><ele>125.0</ele><time>2026-03-22T13:28:31.451Z</time></trkpt><trkpt lat="44.62492" lon="10.5683"><ele>125.0</ele><time>2026-03-22T13:28:33.451Z</time></trkpt><trkpt lat="44.6250083" lon="10.5683783"><ele>125.0</ele><time>2026-03-22T13:28:35.451Z</time></trkpt><trkpt lat="44.6250917" lon="10.5684483"><ele>125.0</ele><time>2026-03-22T13:28:37.451Z</time></trkpt><trkpt lat="44.62517" lon="10.5685017"><ele>125.0</ele><time>2026-03-22T13:28:39.451Z</time></trkpt><trkpt lat="44.62524" lon="10.5685483"><ele>125.0</ele><time>2026-03-22T13:28:41.451Z</time></trkpt><trkpt lat="44.6253117" lon="10.5686433"><ele>125.6</ele><time>2026-03-22T13:28:43.451Z</time></trkpt><trkpt lat="44.6253883" lon="10.5687433"><ele>126.2</ele><time>2026-03-22T13:28:45.452Z</time></trkpt><trkpt lat="44.625475" lon="10.5688417"><ele>126.80000000000001</ele><time>2026-03-22T13:28:47.451Z</time></trkpt><trkpt lat="44.6255517" lon="10.5689083"><ele>127.4</ele><time>2026-03-22T13:28:49.451Z</time></trkpt><trkpt lat="44.62563" lon="10.5689783"><ele>128.0</ele><time>2026-03-22T13:28:51.451Z</time></trkpt><trkpt lat="44.6257067" lon="10.569055"><ele>128.0</ele><time>2026-03-22T13:28:53.451Z</time></trkpt><trkpt lat="44.62577" lon="10.5691167"><ele>128.0</ele><time>2026-03-22T13:28:55.452Z</time></trkpt><trkpt lat="44.6258267" lon="10.5691883"><ele>128.0</ele><time>2026-03-22T13:28:57.451Z</time></trkpt><trkpt lat="44.6258733" lon="10.569255"><ele>128.0</ele><time>2026-03-22T13:28:59.451Z</time></trkpt><trkpt lat="44.6259283" lon="10.5693517"><ele>128.0</ele><time>2026-03-22T13:29:02.451Z</time></trkpt><trkpt lat="44.626055" lon="10.5694933"><ele>128.0</ele><time>2026-03-22T13:29:22.452Z</time></trkpt><trkpt lat="44.6261333" lon="10.56956"><ele>128.0</ele><time>2026-03-22T13:29:26.451Z</time></trkpt><trkpt lat="44.6262033" lon="10.56965"><ele>128.0</ele><time>2026-03-22T13:29:29.451Z</time></trkpt><trkpt lat="44.6262583" lon="10.56973"><ele>128.0</ele><time>2026-03-22T13:29:31.452Z</time></trkpt><trkpt lat="44.6263167" lon="10.569825"><ele>128.0</ele><time>2026-03-22T13:29:33.451Z</time></trkpt><trkpt lat="44.6263717" lon="10.5699417"><ele>127.80000000000001</ele><time>2026-03-22T13:29:35.451Z</time></trkpt><trkpt lat="44.626435" lon="10.5700583"><ele>127.60000000000001</ele><time>2026-03-22T13:29:37.451Z</time></trkpt><trkpt lat="44.6265033" lon="10.5701583"><ele>127.39999999999999</ele><time>2026-03-22T13:29:39.451Z</time></trkpt><trkpt lat="44.6265767" lon="10.570265"><ele>127.19999999999999</ele><time>2026-03-22T13:29:41.451Z</time></trkpt><trkpt lat="44.62665" lon="10.5703683"><ele>127.0</ele><time>2026-03-22T13:29:43.451Z</time></trkpt><trkpt lat="44.6267083" lon="10.5704467"><ele>127.0</ele><time>2026-03-22T13:29:45.451Z</time></trkpt><trkpt lat="44.626775" lon="10.5705417"><ele>126.99999999999999</ele><time>2026-03-22T13:29:47.451Z</time></trkpt><trkpt lat="44.6268783" lon="10.57067"><ele>126.99999999999999</ele><time>2026-03-22T13:29:50.451Z</time></trkpt><trkpt lat="44.626945" lon="10.5707717"><ele>127.0</ele><time>2026-03-22T13:29:52.451Z</time></trkpt><trkpt lat="44.6269933" lon="10.5708717"><ele>127.0</ele><time>2026-03-22T13:29:54.452Z</time></trkpt><trkpt lat="44.627025" lon="10.5709833"><ele>126.66666666666667</ele><time>2026-03-22T13:29:56.451Z</time></trkpt><trkpt lat="44.6270383" lon="10.5711"><ele>126.33333333333334</ele><time>2026-03-22T13:29:58.451Z</time></trkpt><trkpt lat="44.6270483" lon="10.5712117"><ele>126.0</ele><time>2026-03-22T13:30:00.452Z</time></trkpt><trkpt lat="44.627055" lon="10.571335"><ele>125.66666666666666</ele><time>2026-03-22T13:30:02.451Z</time></trkpt><trkpt lat="44.62707" lon="10.5714667"><ele>125.33333333333333</ele><time>2026-03-22T13:30:04.451Z</time></trkpt><trkpt lat="44.6270867" lon="10.571585"><ele>125.0</ele><time>2026-03-22T13:30:06.451Z</time></trkpt><trkpt lat="44.6271" lon="10.5717217"><ele>125.0</ele><time>2026-03-22T13:30:08.451Z</time></trkpt><trkpt lat="44.62711" lon="10.5718583"><ele>125.0</ele><time>2026-03-22T13:30:10.452Z</time></trkpt><trkpt lat="44.627125" lon="10.5719983"><ele>125.0</ele><time>2026-03-22T13:30:12.451Z</time></trkpt><trkpt lat="44.627145" lon="10.5721433"><ele>125.0</ele><time>2026-03-22T13:30:14.451Z</time></trkpt><trkpt lat="44.6271617" lon="10.5723017"><ele>125.0</ele><time>2026-03-22T13:30:16.451Z</time></trkpt><trkpt lat="44.62717" lon="10.57245"><ele>125.2</ele><time>2026-03-22T13:30:18.451Z</time></trkpt><trkpt lat="44.627185" lon="10.5725867"><ele>125.4</ele><time>2026-03-22T13:30:20.451Z</time></trkpt><trkpt lat="44.6272033" lon="10.57272"><ele>125.6</ele><time>2026-03-22T13:30:22.451Z</time></trkpt><trkpt lat="44.6272117" lon="10.5728583"><ele>125.8</ele><time>2026-03-22T13:30:24.452Z</time></trkpt><trkpt lat="44.6272233" lon="10.572995"><ele>126.0</ele><time>2026-03-22T13:30:26.451Z</time></trkpt><trkpt lat="44.6272267" lon="10.573135"><ele>125.25</ele><time>2026-03-22T13:30:28.451Z</time></trkpt><trkpt lat="44.627235" lon="10.5732933"><ele>124.5</ele><time>2026-03-22T13:30:30.451Z</time></trkpt><trkpt lat="44.62727" lon="10.5734367"><ele>123.75</ele><time>2026-03-22T13:30:32.452Z</time></trkpt><trkpt lat="44.627315" lon="10.5735783"><ele>123.0</ele><time>2026-03-22T13:30:34.451Z</time></trkpt><trkpt lat="44.62737" lon="10.5737267"><ele>122.60000000000001</ele><time>2026-03-22T13:30:36.451Z</time></trkpt><trkpt lat="44.6274133" lon="10.573865"><ele>122.20000000000002</ele><time>2026-03-22T13:30:38.452Z</time></trkpt><trkpt lat="44.6274317" lon="10.5740417"><ele>121.8</ele><time>2026-03-22T13:30:40.451Z</time></trkpt><trkpt lat="44.62746" lon="10.5741283"><ele>121.4</ele><time>2026-03-22T13:30:41.451Z</time></trkpt><trkpt lat="44.6274917" lon="10.5742217"><ele>121.0</ele><time>2026-03-22T13:30:42.452Z</time></trkpt><trkpt lat="44.6275467" lon="10.5743767"><ele>121.0</ele><time>2026-03-22T13:30:44.451Z</time></trkpt><trkpt lat="44.6275967" lon="10.5745117"><ele>121.0</ele><time>2026-03-22T13:30:46.451Z</time></trkpt><trkpt lat="44.6276417" lon="10.5746367"><ele>121.0</ele><time>2026-03-22T13:30:48.451Z</time></trkpt><trkpt lat="44.6277033" lon="10.5747683"><ele>121.0</ele><time>2026-03-22T13:30:50.452Z</time></trkpt><trkpt lat="44.6277333" lon="10.57485"><ele>121.0</ele><time>2026-03-22T13:30:51.451Z</time></trkpt><trkpt lat="44.6277783" lon="10.5749933"><ele>120.75</ele><time>2026-03-22T13:30:53.452Z</time></trkpt><trkpt lat="44.6278167" lon="10.57514"><ele>120.5</ele><time>2026-03-22T13:30:55.451Z</time></trkpt><trkpt lat="44.627875" lon="10.5752817"><ele>120.25</ele><time>2026-03-22T13:30:57.451Z</time></trkpt><trkpt lat="44.6279433" lon="10.5754267"><ele>120.0</ele><time>2026-03-22T13:30:59.451Z</time></trkpt><trkpt lat="44.627995" lon="10.575545"><ele>119.8</ele><time>2026-03-22T13:31:01.451Z</time></trkpt><trkpt lat="44.6280367" lon="10.5756667"><ele>119.6</ele><time>2026-03-22T13:31:03.451Z</time></trkpt><trkpt lat="44.628095" lon="10.575765"><ele>119.4</ele><time>2026-03-22T13:31:05.451Z</time></trkpt><trkpt lat="44.6281467" lon="10.5758767"><ele>119.2</ele><time>2026-03-22T13:31:07.451Z</time></trkpt><trkpt lat="44.6282033" lon="10.575985"><ele>119.0</ele><time>2026-03-22T13:31:09.451Z</time></trkpt><trkpt lat="44.628265" lon="10.57612"><ele>119.4</ele><time>2026-03-22T13:31:11.451Z</time></trkpt><trkpt lat="44.6283383" lon="10.576235"><ele>119.80000000000001</ele><time>2026-03-22T13:31:13.452Z</time></trkpt><trkpt lat="44.62841" lon="10.576335"><ele>120.19999999999999</ele><time>2026-03-22T13:31:15.451Z</time></trkpt><trkpt lat="44.6284783" lon="10.5764117"><ele>120.6</ele><time>2026-03-22T13:31:17.451Z</time></trkpt><trkpt lat="44.62855" lon="10.5765133"><ele>121.0</ele><time>2026-03-22T13:31:19.451Z</time></trkpt><trkpt lat="44.6286267" lon="10.5766117"><ele>120.8</ele><time>2026-03-22T13:31:21.451Z</time></trkpt><trkpt lat="44.6286967" lon="10.5767333"><ele>120.6</ele><time>2026-03-22T13:31:23.451Z</time></trkpt><trkpt lat="44.628755" lon="10.5768517"><ele>120.4</ele><time>2026-03-22T13:31:25.451Z</time></trkpt><trkpt lat="44.6288217" lon="10.576965"><ele>120.2</ele><time>2026-03-22T13:31:27.451Z</time></trkpt><trkpt lat="44.6288983" lon="10.5770617"><ele>120.0</ele><time>2026-03-22T13:31:29.452Z</time></trkpt><trkpt lat="44.6289783" lon="10.5771433"><ele>119.6</ele><time>2026-03-22T13:31:31.452Z</time></trkpt><trkpt lat="44.6290633" lon="10.5772333"><ele>119.2</ele><time>2026-03-22T13:31:33.451Z</time></trkpt><trkpt lat="44.6291667" lon="10.5772867"><ele>118.80000000000001</ele><time>2026-03-22T13:31:35.451Z</time></trkpt><trkpt lat="44.6292667" lon="10.5773317"><ele>118.4</ele><time>2026-03-22T13:31:37.451Z</time></trkpt><trkpt lat="44.62933" lon="10.57737"><ele>118.0</ele><time>2026-03-22T13:31:38.451Z</time></trkpt><trkpt lat="44.62939" lon="10.577405"><ele>118.4</ele><time>2026-03-22T13:31:39.451Z</time></trkpt><trkpt lat="44.629485" lon="10.5774583"><ele>118.80000000000001</ele><time>2026-03-22T13:31:41.451Z</time></trkpt><trkpt lat="44.629575" lon="10.57751"><ele>119.2</ele><time>2026-03-22T13:31:43.451Z</time></trkpt><trkpt lat="44.6296567" lon="10.5775917"><ele>119.6</ele><time>2026-03-22T13:31:45.451Z</time></trkpt><trkpt lat="44.6297317" lon="10.57767"><ele>120.0</ele><time>2026-03-22T13:31:47.452Z</time></trkpt><trkpt lat="44.6298" lon="10.5777567"><ele>120.0</ele><time>2026-03-22T13:31:49.451Z</time></trkpt><trkpt lat="44.6298733" lon="10.5778167"><ele>120.0</ele><time>2026-03-22T13:31:51.451Z</time></trkpt><trkpt lat="44.6299617" lon="10.57787"><ele>120.0</ele><time>2026-03-22T13:31:53.451Z</time></trkpt><trkpt lat="44.6300583" lon="10.57791"><ele>120.0</ele><time>2026-03-22T13:31:55.451Z</time></trkpt><trkpt lat="44.6301483" lon="10.5779317"><ele>120.0</ele><time>2026-03-22T13:31:57.451Z</time></trkpt><trkpt lat="44.6302333" lon="10.5779967"><ele>119.4</ele><time>2026-03-22T13:31:59.451Z</time></trkpt><trkpt lat="44.6303217" lon="10.578095"><ele>118.8</ele><time>2026-03-22T13:32:01.451Z</time></trkpt><trkpt lat="44.6303983" lon="10.5782"><ele>118.19999999999999</ele><time>2026-03-22T13:32:03.452Z</time></trkpt><trkpt lat="44.630485" lon="10.5782933"><ele>117.6</ele><time>2026-03-22T13:32:05.451Z</time></trkpt><trkpt lat="44.6305517" lon="10.57835"><ele>117.0</ele><time>2026-03-22T13:32:07.451Z</time></trkpt><trkpt lat="44.6306033" lon="10.5784433"><ele>117.0</ele><time>2026-03-22T13:32:09.451Z</time></trkpt><trkpt lat="44.6305817" lon="10.57854"><ele>117.0</ele><time>2026-03-22T13:32:11.451Z</time></trkpt><trkpt lat="44.6305317" lon="10.5786183"><ele>117.0</ele><time>2026-03-22T13:32:13.451Z</time></trkpt><trkpt lat="44.63047" lon="10.5787517"><ele>117.0</ele><time>2026-03-22T13:32:16.451Z</time></trkpt><trkpt lat="44.630485" lon="10.5788667"><ele>117.0</ele><time>2026-03-22T13:32:18.452Z</time></trkpt><trkpt lat="44.63054" lon="10.5789633"><ele>117.0</ele><time>2026-03-22T13:32:20.451Z</time></trkpt><trkpt lat="44.630595" lon="10.57903"><ele>116.6</ele><time>2026-03-22T13:32:22.452Z</time></trkpt><trkpt lat="44.6306483" lon="10.5791067"><ele>116.19999999999999</ele><time>2026-03-22T13:32:24.451Z</time></trkpt><trkpt lat="44.6307217" lon="10.5791833"><ele>115.8</ele><time>2026-03-22T13:32:26.452Z</time></trkpt><trkpt lat="44.6307983" lon="10.5792967"><ele>115.4</ele><time>2026-03-22T13:32:28.451Z</time></trkpt><trkpt lat="44.63087" lon="10.57942"><ele>115.0</ele><time>2026-03-22T13:32:30.451Z</time></trkpt><trkpt lat="44.630945" lon="10.5795417"><ele>115.0</ele><time>2026-03-22T13:32:32.451Z</time></trkpt><trkpt lat="44.63103" lon="10.579655"><ele>115.0</ele><time>2026-03-22T13:32:34.451Z</time></trkpt><trkpt lat="44.63109" lon="10.5797133"><ele>115.0</ele><time>2026-03-22T13:32:35.451Z</time></trkpt><trkpt lat="44.6311917" lon="10.57982"><ele>115.0</ele><time>2026-03-22T13:32:37.452Z</time></trkpt><trkpt lat="44.631305" lon="10.5799"><ele>115.0</ele><time>2026-03-22T13:32:39.452Z</time></trkpt><trkpt lat="44.6313633" lon="10.579945"><ele>115.00000000000001</ele><time>2026-03-22T13:32:40.452Z</time></trkpt><trkpt lat="44.6314217" lon="10.5799883"><ele>115.0</ele><time>2026-03-22T13:32:41.451Z</time></trkpt><trkpt lat="44.63148" lon="10.58004"><ele>115.0</ele><time>2026-03-22T13:32:42.451Z</time></trkpt><trkpt lat="44.6315883" lon="10.5801367"><ele>115.0</ele><time>2026-03-22T13:32:44.452Z</time></trkpt><trkpt lat="44.6316433" lon="10.580185"><ele>115.00000000000001</ele><time>2026-03-22T13:32:45.451Z</time></trkpt><trkpt lat="44.6316983" lon="10.5802317"><ele>115.0</ele><time>2026-03-22T13:32:46.451Z</time></trkpt><trkpt lat="44.6318067" lon="10.5803167"><ele>115.16666666666667</ele><time>2026-03-22T13:32:48.451Z</time></trkpt><trkpt lat="44.6318633" lon="10.58036"><ele>115.33333333333334</ele><time>2026-03-22T13:32:49.451Z</time></trkpt><trkpt lat="44.6319667" lon="10.5804333"><ele>115.5</ele><time>2026-03-22T13:32:51.451Z</time></trkpt><trkpt lat="44.632025" lon="10.5804717"><ele>115.66666666666666</ele><time>2026-03-22T13:32:52.451Z</time></trkpt><trkpt lat="44.6320883" lon="10.5805083"><ele>115.83333333333333</ele><time>2026-03-22T13:32:53.451Z</time></trkpt><trkpt lat="44.6322" lon="10.580585"><ele>116.0</ele><time>2026-03-22T13:32:55.452Z</time></trkpt><trkpt lat="44.6323033" lon="10.58066"><ele>115.19999999999999</ele><time>2026-03-22T13:32:57.452Z</time></trkpt><trkpt lat="44.6324133" lon="10.580745"><ele>114.39999999999999</ele><time>2026-03-22T13:32:59.451Z</time></trkpt><trkpt lat="44.6324733" lon="10.5807817"><ele>113.6</ele><time>2026-03-22T13:33:00.452Z</time></trkpt><trkpt lat="44.6325783" lon="10.5808417"><ele>112.8</ele><time>2026-03-22T13:33:02.451Z</time></trkpt><trkpt lat="44.63268" lon="10.58091"><ele>112.0</ele><time>2026-03-22T13:33:04.451Z</time></trkpt><trkpt lat="44.632795" lon="10.5809833"><ele>112.25</ele><time>2026-03-22T13:33:06.451Z</time></trkpt><trkpt lat="44.632905" lon="10.58104"><ele>112.5</ele><time>2026-03-22T13:33:08.451Z</time></trkpt><trkpt lat="44.633015" lon="10.5810933"><ele>112.75</ele><time>2026-03-22T13:33:10.451Z</time></trkpt><trkpt lat="44.633125" lon="10.5811733"><ele>113.0</ele><time>2026-03-22T13:33:12.451Z</time></trkpt><trkpt lat="44.63323" lon="10.581245"><ele>113.2</ele><time>2026-03-22T13:33:14.451Z</time></trkpt><trkpt lat="44.6332883" lon="10.58129"><ele>113.4</ele><time>2026-03-22T13:33:15.451Z</time></trkpt><trkpt lat="44.6333867" lon="10.5813533"><ele>113.60000000000001</ele><time>2026-03-22T13:33:17.452Z</time></trkpt><trkpt lat="44.6334867" lon="10.581425"><ele>113.80000000000001</ele><time>2026-03-22T13:33:19.451Z</time></trkpt><trkpt lat="44.633595" lon="10.581475"><ele>114.0</ele><time>2026-03-22T13:33:21.451Z</time></trkpt><trkpt lat="44.6336983" lon="10.581505"><ele>114.0</ele><time>2026-03-22T13:33:23.451Z</time></trkpt><trkpt lat="44.6337633" lon="10.58153"><ele>113.99999999999999</ele><time>2026-03-22T13:33:25.451Z</time></trkpt><trkpt lat="44.6338367" lon="10.5815733"><ele>114.0</ele><time>2026-03-22T13:33:27.452Z</time></trkpt><trkpt lat="44.6339183" lon="10.5815883"><ele>114.0</ele><time>2026-03-22T13:33:29.452Z</time></trkpt><trkpt lat="44.6339867" lon="10.5815983"><ele>113.99999999999999</ele><time>2026-03-22T13:33:31.451Z</time></trkpt><trkpt lat="44.6340617" lon="10.58161"><ele>114.0</ele><time>2026-03-22T13:33:33.451Z</time></trkpt><trkpt lat="44.63413" lon="10.5816283"><ele>114.0</ele><time>2026-03-22T13:33:36.452Z</time></trkpt><trkpt lat="44.6341967" lon="10.5816817"><ele>114.0</ele><time>2026-03-22T13:33:39.451Z</time></trkpt><trkpt lat="44.6342633" lon="10.58175"><ele>114.0</ele><time>2026-03-22T13:33:41.451Z</time></trkpt><trkpt lat="44.63435" lon="10.5818383"><ele>114.0</ele><time>2026-03-22T13:33:43.451Z</time></trkpt><trkpt lat="44.6344417" lon="10.5819417"><ele>114.0</ele><time>2026-03-22T13:33:45.451Z</time></trkpt><trkpt lat="44.6345383" lon="10.5820417"><ele>114.0</ele><time>2026-03-22T13:33:47.452Z</time></trkpt><trkpt lat="44.6346133" lon="10.5821383"><ele>113.6</ele><time>2026-03-22T13:33:49.451Z</time></trkpt><trkpt lat="44.6347067" lon="10.5822417"><ele>113.2</ele><time>2026-03-22T13:33:51.452Z</time></trkpt><trkpt lat="44.634795" lon="10.582355"><ele>112.79999999999998</ele><time>2026-03-22T13:33:53.452Z</time></trkpt><trkpt lat="44.6348717" lon="10.5824733"><ele>112.39999999999999</ele><time>2026-03-22T13:33:55.451Z</time></trkpt><trkpt lat="44.6349133" lon="10.58254"><ele>112.0</ele><time>2026-03-22T13:33:56.452Z</time></trkpt><trkpt lat="44.6349933" lon="10.5826467"><ele>112.0</ele><time>2026-03-22T13:33:58.453Z</time></trkpt><trkpt lat="44.6350733" lon="10.5827467"><ele>111.99999999999999</ele><time>2026-03-22T13:34:00.452Z</time></trkpt><trkpt lat="44.6351633" lon="10.5828433"><ele>111.99999999999999</ele><time>2026-03-22T13:34:02.452Z</time></trkpt><trkpt lat="44.63525" lon="10.58293"><ele>112.0</ele><time>2026-03-22T13:34:04.452Z</time></trkpt><trkpt lat="44.6353283" lon="10.5829967"><ele>112.0</ele><time>2026-03-22T13:34:06.452Z</time></trkpt><trkpt lat="44.6354017" lon="10.5830633"><ele>111.83333333333334</ele><time>2026-03-22T13:34:08.452Z</time></trkpt><trkpt lat="44.6354717" lon="10.583145"><ele>111.66666666666667</ele><time>2026-03-22T13:34:10.452Z</time></trkpt><trkpt lat="44.6355267" lon="10.5832533"><ele>111.5</ele><time>2026-03-22T13:34:12.452Z</time></trkpt><trkpt lat="44.6355617" lon="10.58333"><ele>111.33333333333334</ele><time>2026-03-22T13:34:13.453Z</time></trkpt><trkpt lat="44.6355967" lon="10.583425"><ele>111.16666666666667</ele><time>2026-03-22T13:34:14.452Z</time></trkpt><trkpt lat="44.6356367" lon="10.5835133"><ele>111.0</ele><time>2026-03-22T13:34:15.452Z</time></trkpt><trkpt lat="44.63567" lon="10.583595"><ele>110.6</ele><time>2026-03-22T13:34:16.452Z</time></trkpt><trkpt lat="44.635745" lon="10.5837183"><ele>110.19999999999999</ele><time>2026-03-22T13:34:18.453Z</time></trkpt><trkpt lat="44.63583" lon="10.5837867"><ele>109.80000000000001</ele><time>2026-03-22T13:34:20.452Z</time></trkpt><trkpt lat="44.6359283" lon="10.583825"><ele>109.4</ele><time>2026-03-22T13:34:22.452Z</time></trkpt><trkpt lat="44.6360317" lon="10.5838367"><ele>109.0</ele><time>2026-03-22T13:34:24.453Z</time></trkpt><trkpt lat="44.6361217" lon="10.58385"><ele>108.80000000000001</ele><time>2026-03-22T13:34:26.452Z</time></trkpt><trkpt lat="44.6362" lon="10.5838767"><ele>108.60000000000001</ele><time>2026-03-22T13:34:28.453Z</time></trkpt><trkpt lat="44.636295" lon="10.58389"><ele>108.4</ele><time>2026-03-22T13:34:30.452Z</time></trkpt><trkpt lat="44.6363983" lon="10.5839183"><ele>108.2</ele><time>2026-03-22T13:34:32.453Z</time></trkpt><trkpt lat="44.636495" lon="10.5839567"><ele>108.0</ele><time>2026-03-22T13:34:34.453Z</time></trkpt><trkpt lat="44.6365783" lon="10.5840233"><ele>108.0</ele><time>2026-03-22T13:34:36.452Z</time></trkpt><trkpt lat="44.6366533" lon="10.5840733"><ele>108.0</ele><time>2026-03-22T13:34:38.452Z</time></trkpt><trkpt lat="44.6367233" lon="10.5841267"><ele>108.0</ele><time>2026-03-22T13:34:40.452Z</time></trkpt><trkpt lat="44.6368017" lon="10.5841633"><ele>108.0</ele><time>2026-03-22T13:34:42.452Z</time></trkpt><trkpt lat="44.636875" lon="10.584195"><ele>108.0</ele><time>2026-03-22T13:34:44.453Z</time></trkpt><trkpt lat="44.6369417" lon="10.58423"><ele>108.0</ele><time>2026-03-22T13:34:46.453Z</time></trkpt><trkpt lat="44.637" lon="10.5841417"><ele>108.16666666666667</ele><time>2026-03-22T13:34:49.452Z</time></trkpt><trkpt lat="44.6370317" lon="10.5840233"><ele>108.33333333333334</ele><time>2026-03-22T13:34:52.453Z</time></trkpt><trkpt lat="44.637045" lon="10.5839233"><ele>108.5</ele><time>2026-03-22T13:34:54.452Z</time></trkpt><trkpt lat="44.63706" lon="10.58382"><ele>108.66666666666667</ele><time>2026-03-22T13:34:56.452Z</time></trkpt><trkpt lat="44.6370817" lon="10.5836967"><ele>108.83333333333334</ele><time>2026-03-22T13:34:58.453Z</time></trkpt><trkpt lat="44.6371117" lon="10.5835867"><ele>109.0</ele><time>2026-03-22T13:35:00.452Z</time></trkpt><trkpt lat="44.6371483" lon="10.5834717"><ele>109.33333333333334</ele><time>2026-03-22T13:35:02.452Z</time></trkpt><trkpt lat="44.63718" lon="10.5833467"><ele>109.66666666666667</ele><time>2026-03-22T13:35:04.452Z</time></trkpt><trkpt lat="44.637215" lon="10.5832333"><ele>110.0</ele><time>2026-03-22T13:35:06.452Z</time></trkpt><trkpt lat="44.637245" lon="10.5831267"><ele>110.33333333333334</ele><time>2026-03-22T13:35:08.452Z</time></trkpt><trkpt lat="44.6372617" lon="10.5830233"><ele>110.66666666666667</ele><time>2026-03-22T13:35:10.452Z</time></trkpt><trkpt lat="44.637285" lon="10.582915"><ele>111.0</ele><time>2026-03-22T13:35:12.452Z</time></trkpt><trkpt lat="44.637305" lon="10.5828033"><ele>111.33333333333333</ele><time>2026-03-22T13:35:14.452Z</time></trkpt><trkpt lat="44.6373183" lon="10.5827117"><ele>111.66666666666666</ele><time>2026-03-22T13:35:16.452Z</time></trkpt><trkpt lat="44.63736" lon="10.5826"><ele>112.0</ele><time>2026-03-22T13:35:18.453Z</time></trkpt><trkpt lat="44.6373833" lon="10.5825"><ele>112.33333333333333</ele><time>2026-03-22T13:35:20.452Z</time></trkpt><trkpt lat="44.6374167" lon="10.5824033"><ele>112.66666666666666</ele><time>2026-03-22T13:35:22.452Z</time></trkpt><trkpt lat="44.6374817" lon="10.5823433"><ele>113.0</ele><time>2026-03-22T13:35:24.452Z</time></trkpt><trkpt lat="44.6375633" lon="10.5823217"><ele>113.0</ele><time>2026-03-22T13:35:27.452Z</time></trkpt><trkpt lat="44.6376583" lon="10.58233"><ele>113.00000000000001</ele><time>2026-03-22T13:35:30.452Z</time></trkpt><trkpt lat="44.637745" lon="10.5823333"><ele>113.00000000000001</ele><time>2026-03-22T13:35:33.452Z</time></trkpt><trkpt lat="44.6378167" lon="10.58236"><ele>113.0</ele><time>2026-03-22T13:35:35.452Z</time></trkpt><trkpt lat="44.6379067" lon="10.5824067"><ele>113.0</ele><time>2026-03-22T13:35:37.452Z</time></trkpt><trkpt lat="44.63801" lon="10.58246"><ele>113.60000000000001</ele><time>2026-03-22T13:35:39.452Z</time></trkpt><trkpt lat="44.6380667" lon="10.5825033"><ele>114.20000000000002</ele><time>2026-03-22T13:35:40.452Z</time></trkpt><trkpt lat="44.638185" lon="10.5825717"><ele>114.8</ele><time>2026-03-22T13:35:42.452Z</time></trkpt><trkpt lat="44.6383017" lon="10.58264"><ele>115.4</ele><time>2026-03-22T13:35:44.452Z</time></trkpt><trkpt lat="44.6384167" lon="10.582705"><ele>116.0</ele><time>2026-03-22T13:35:46.452Z</time></trkpt><trkpt lat="44.6385283" lon="10.5827717"><ele>115.0</ele><time>2026-03-22T13:35:48.452Z</time></trkpt><trkpt lat="44.638635" lon="10.5828333"><ele>114.0</ele><time>2026-03-22T13:35:50.453Z</time></trkpt><trkpt lat="44.63874" lon="10.5829033"><ele>113.0</ele><time>2026-03-22T13:35:52.453Z</time></trkpt><trkpt lat="44.6388333" lon="10.582965"><ele>112.0</ele><time>2026-03-22T13:35:54.452Z</time></trkpt><trkpt lat="44.63892" lon="10.5830167"><ele>111.0</ele><time>2026-03-22T13:35:56.452Z</time></trkpt><trkpt lat="44.6390083" lon="10.58307"><ele>111.0</ele><time>2026-03-22T13:35:58.453Z</time></trkpt><trkpt lat="44.6390883" lon="10.583115"><ele>111.0</ele><time>2026-03-22T13:36:00.452Z</time></trkpt><trkpt lat="44.63917" lon="10.5831567"><ele>111.0</ele><time>2026-03-22T13:36:02.453Z</time></trkpt><trkpt lat="44.639255" lon="10.5832067"><ele>111.0</ele><time>2026-03-22T13:36:04.452Z</time></trkpt><trkpt lat="44.6393517" lon="10.5832667"><ele>111.0</ele><time>2026-03-22T13:36:06.452Z</time></trkpt><trkpt lat="44.6394367" lon="10.5833167"><ele>111.33333333333333</ele><time>2026-03-22T13:36:08.453Z</time></trkpt><trkpt lat="44.639525" lon="10.58333"><ele>111.66666666666666</ele><time>2026-03-22T13:36:10.452Z</time></trkpt><trkpt lat="44.639615" lon="10.5833033"><ele>112.0</ele><time>2026-03-22T13:36:12.452Z</time></trkpt><trkpt lat="44.6396883" lon="10.5832733"><ele>112.33333333333333</ele><time>2026-03-22T13:36:14.453Z</time></trkpt><trkpt lat="44.6397667" lon="10.5832683"><ele>112.66666666666666</ele><time>2026-03-22T13:36:16.453Z</time></trkpt><trkpt lat="44.6398317" lon="10.583325"><ele>113.0</ele><time>2026-03-22T13:36:18.452Z</time></trkpt><trkpt lat="44.639855" lon="10.5834533"><ele>113.0</ele><time>2026-03-22T13:36:20.452Z</time></trkpt><trkpt lat="44.6399117" lon="10.5835767"><ele>113.00000000000001</ele><time>2026-03-22T13:36:22.452Z</time></trkpt><trkpt lat="44.6399983" lon="10.5836317"><ele>113.00000000000001</ele><time>2026-03-22T13:36:24.452Z</time></trkpt><trkpt lat="44.640095" lon="10.58369"><ele>113.0</ele><time>2026-03-22T13:36:26.452Z</time></trkpt><trkpt lat="44.6401933" lon="10.583745"><ele>113.0</ele><time>2026-03-22T13:36:28.452Z</time></trkpt><trkpt lat="44.6402983" lon="10.583805"><ele>111.80000000000001</ele><time>2026-03-22T13:36:30.452Z</time></trkpt><trkpt lat="44.6404017" lon="10.583855"><ele>110.60000000000001</ele><time>2026-03-22T13:36:32.452Z</time></trkpt><trkpt lat="44.640505" lon="10.5839233"><ele>109.39999999999999</ele><time>2026-03-22T13:36:34.453Z</time></trkpt><trkpt lat="44.6405983" lon="10.583995"><ele>108.19999999999999</ele><time>2026-03-22T13:36:36.453Z</time></trkpt><trkpt lat="44.6406867" lon="10.5840483"><ele>107.0</ele><time>2026-03-22T13:36:38.452Z</time></trkpt><trkpt lat="44.6407417" lon="10.5841"><ele>107.0</ele><time>2026-03-22T13:36:39.452Z</time></trkpt><trkpt lat="44.6408383" lon="10.5841633"><ele>106.99999999999999</ele><time>2026-03-22T13:36:41.452Z</time></trkpt><trkpt lat="44.6409283" lon="10.5842133"><ele>106.99999999999999</ele><time>2026-03-22T13:36:43.452Z</time></trkpt><trkpt lat="44.6410317" lon="10.5842717"><ele>107.0</ele><time>2026-03-22T13:36:45.452Z</time></trkpt><trkpt lat="44.6411267" lon="10.584335"><ele>107.0</ele><time>2026-03-22T13:36:47.453Z</time></trkpt><trkpt lat="44.641225" lon="10.584405"><ele>107.16666666666666</ele><time>2026-03-22T13:36:49.452Z</time></trkpt><trkpt lat="44.6413117" lon="10.5844583"><ele>107.33333333333333</ele><time>2026-03-22T13:36:51.452Z</time></trkpt><trkpt lat="44.6413967" lon="10.5845167"><ele>107.5</ele><time>2026-03-22T13:36:53.452Z</time></trkpt><trkpt lat="44.641485" lon="10.5845233"><ele>107.66666666666666</ele><time>2026-03-22T13:36:55.453Z</time></trkpt><trkpt lat="44.6415533" lon="10.5845217"><ele>107.83333333333333</ele><time>2026-03-22T13:36:57.452Z</time></trkpt><trkpt lat="44.6416183" lon="10.5845067"><ele>108.0</ele><time>2026-03-22T13:37:01.452Z</time></trkpt><trkpt lat="44.641695" lon="10.5845433"><ele>108.0</ele><time>2026-03-22T13:37:04.452Z</time></trkpt><trkpt lat="44.64178" lon="10.5845833"><ele>108.0</ele><time>2026-03-22T13:37:06.452Z</time></trkpt><trkpt lat="44.641865" lon="10.5846183"><ele>108.0</ele><time>2026-03-22T13:37:08.452Z</time></trkpt><trkpt lat="44.6419467" lon="10.58465"><ele>108.0</ele><time>2026-03-22T13:37:10.452Z</time></trkpt><trkpt lat="44.642025" lon="10.5846667"><ele>108.0</ele><time>2026-03-22T13:37:12.452Z</time></trkpt><trkpt lat="44.6421083" lon="10.5846733"><ele>108.0</ele><time>2026-03-22T13:37:15.453Z</time></trkpt><trkpt lat="44.6421717" lon="10.5846933"><ele>108.33333333333333</ele><time>2026-03-22T13:37:17.452Z</time></trkpt><trkpt lat="44.6422367" lon="10.5847117"><ele>108.66666666666666</ele><time>2026-03-22T13:37:19.452Z</time></trkpt><trkpt lat="44.64233" lon="10.5847367"><ele>109.0</ele><time>2026-03-22T13:37:22.452Z</time></trkpt><trkpt lat="44.6423933" lon="10.5847633"><ele>109.33333333333333</ele><time>2026-03-22T13:37:24.452Z</time></trkpt><trkpt lat="44.642475" lon="10.5847817"><ele>109.66666666666666</ele><time>2026-03-22T13:37:27.452Z</time></trkpt><trkpt lat="44.64255" lon="10.584795"><ele>110.0</ele><time>2026-03-22T13:37:30.453Z</time></trkpt><trkpt lat="44.6426183" lon="10.584825"><ele>109.99999999999999</ele><time>2026-03-22T13:37:33.452Z</time></trkpt><trkpt lat="44.6426817" lon="10.5848517"><ele>110.0</ele><time>2026-03-22T13:37:36.452Z</time></trkpt><trkpt lat="44.6427583" lon="10.584875"><ele>110.0</ele><time>2026-03-22T13:37:39.452Z</time></trkpt><trkpt lat="44.64282" lon="10.5848933"><ele>110.0</ele><time>2026-03-22T13:37:42.452Z</time></trkpt><trkpt lat="44.6428983" lon="10.5849133"><ele>110.0</ele><time>2026-03-22T13:37:45.452Z</time></trkpt><trkpt lat="44.6429833" lon="10.5849467"><ele>109.99999999999999</ele><time>2026-03-22T13:37:48.452Z</time></trkpt><trkpt lat="44.643055" lon="10.5849567"><ele>110.0</ele><time>2026-03-22T13:37:51.452Z</time></trkpt><trkpt lat="44.64314" lon="10.5849567"><ele>110.49999999999999</ele><time>2026-03-22T13:37:55.452Z</time></trkpt><trkpt lat="44.64321" lon="10.5849633"><ele>111.0</ele><time>2026-03-22T13:37:59.452Z</time></trkpt><trkpt lat="44.6432917" lon="10.5849833"><ele>111.5</ele><time>2026-03-22T13:38:04.452Z</time></trkpt><trkpt lat="44.64335" lon="10.585025"><ele>112.0</ele><time>2026-03-22T13:38:07.453Z</time></trkpt><trkpt lat="44.64336" lon="10.5851417"><ele>112.49999999999999</ele><time>2026-03-22T13:38:11.452Z</time></trkpt><trkpt lat="44.64333" lon="10.5852383"><ele>113.0</ele><time>2026-03-22T13:38:14.452Z</time></trkpt><trkpt lat="44.64332" lon="10.5853517"><ele>112.99999999999999</ele><time>2026-03-22T13:38:17.452Z</time></trkpt><trkpt lat="44.6433167" lon="10.5854483"><ele>113.0</ele><time>2026-03-22T13:38:19.452Z</time></trkpt><trkpt lat="44.6433083" lon="10.5855667"><ele>113.0</ele><time>2026-03-22T13:38:21.452Z</time></trkpt><trkpt lat="44.6433233" lon="10.5856733"><ele>113.0</ele><time>2026-03-22T13:38:23.452Z</time></trkpt><trkpt lat="44.6433817" lon="10.585765"><ele>112.99999999999999</ele><time>2026-03-22T13:38:26.452Z</time></trkpt><trkpt lat="44.6434383" lon="10.5858417"><ele>113.0</ele><time>2026-03-22T13:38:29.452Z</time></trkpt><trkpt lat="44.6434917" lon="10.5859417"><ele>113.0</ele><time>2026-03-22T13:38:32.453Z</time></trkpt><trkpt lat="44.6435467" lon="10.58602"><ele>113.00000000000001</ele><time>2026-03-22T13:38:34.452Z</time></trkpt><trkpt lat="44.64361" lon="10.5861117"><ele>113.00000000000001</ele><time>2026-03-22T13:38:36.452Z</time></trkpt><trkpt lat="44.6436783" lon="10.5862"><ele>113.0</ele><time>2026-03-22T13:38:38.452Z</time></trkpt><trkpt lat="44.6437383" lon="10.5862967"><ele>113.0</ele><time>2026-03-22T13:38:40.453Z</time></trkpt><trkpt lat="44.6438017" lon="10.5864033"><ele>112.49999999999999</ele><time>2026-03-22T13:38:42.452Z</time></trkpt><trkpt lat="44.64386" lon="10.586505"><ele>112.0</ele><time>2026-03-22T13:38:44.453Z</time></trkpt><trkpt lat="44.6439083" lon="10.586595"><ele>111.5</ele><time>2026-03-22T13:38:46.452Z</time></trkpt><trkpt lat="44.6439717" lon="10.5866483"><ele>111.0</ele><time>2026-03-22T13:38:48.452Z</time></trkpt><trkpt lat="44.6440467" lon="10.58669"><ele>110.49999999999999</ele><time>2026-03-22T13:38:50.452Z</time></trkpt><trkpt lat="44.6441067" lon="10.5867567"><ele>110.0</ele><time>2026-03-22T13:38:52.453Z</time></trkpt><trkpt lat="44.6441533" lon="10.5868383"><ele>109.99999999999999</ele><time>2026-03-22T13:38:54.452Z</time></trkpt><trkpt lat="44.644205" lon="10.586935"><ele>110.0</ele><time>2026-03-22T13:38:56.452Z</time></trkpt><trkpt lat="44.6442533" lon="10.5870217"><ele>110.0</ele><time>2026-03-22T13:38:58.452Z</time></trkpt><trkpt lat="44.644305" lon="10.5871183"><ele>110.0</ele><time>2026-03-22T13:39:00.452Z</time></trkpt><trkpt lat="44.6443633" lon="10.5872083"><ele>109.99999999999999</ele><time>2026-03-22T13:39:02.452Z</time></trkpt><trkpt lat="44.6444317" lon="10.58732"><ele>110.0</ele><time>2026-03-22T13:39:04.452Z</time></trkpt><trkpt lat="44.6445117" lon="10.5874267"><ele>109.6</ele><time>2026-03-22T13:39:06.452Z</time></trkpt><trkpt lat="44.6445933" lon="10.5875367"><ele>109.2</ele><time>2026-03-22T13:39:08.452Z</time></trkpt><trkpt lat="44.6446417" lon="10.5875983"><ele>108.80000000000001</ele><time>2026-03-22T13:39:09.453Z</time></trkpt><trkpt lat="44.644745" lon="10.5877083"><ele>108.4</ele><time>2026-03-22T13:39:11.452Z</time></trkpt><trkpt lat="44.6448017" lon="10.5877533"><ele>108.0</ele><time>2026-03-22T13:39:12.453Z</time></trkpt><trkpt lat="44.644895" lon="10.5878333"><ele>107.4</ele><time>2026-03-22T13:39:14.452Z</time></trkpt><trkpt lat="44.6449567" lon="10.5879233"><ele>106.80000000000001</ele><time>2026-03-22T13:39:16.452Z</time></trkpt><trkpt lat="44.6450183" lon="10.5880267"><ele>106.2</ele><time>2026-03-22T13:39:18.452Z</time></trkpt><trkpt lat="44.64511" lon="10.588125"><ele>105.6</ele><time>2026-03-22T13:39:20.452Z</time></trkpt><trkpt lat="44.6452117" lon="10.5881983"><ele>105.0</ele><time>2026-03-22T13:39:22.452Z</time></trkpt><trkpt lat="44.645295" lon="10.5882717"><ele>105.2</ele><time>2026-03-22T13:39:24.452Z</time></trkpt><trkpt lat="44.6453683" lon="10.5883417"><ele>105.4</ele><time>2026-03-22T13:39:26.452Z</time></trkpt><trkpt lat="44.6454483" lon="10.5884467"><ele>105.6</ele><time>2026-03-22T13:39:28.453Z</time></trkpt><trkpt lat="44.6455067" lon="10.58856"><ele>105.8</ele><time>2026-03-22T13:39:30.452Z</time></trkpt><trkpt lat="44.645575" lon="10.58869"><ele>106.0</ele><time>2026-03-22T13:39:32.452Z</time></trkpt><trkpt lat="44.64561" lon="10.588765"><ele>105.19999999999999</ele><time>2026-03-22T13:39:33.452Z</time></trkpt><trkpt lat="44.6456633" lon="10.5888967"><ele>104.39999999999999</ele><time>2026-03-22T13:39:35.453Z</time></trkpt><trkpt lat="44.6457383" lon="10.5890117"><ele>103.6</ele><time>2026-03-22T13:39:37.452Z</time></trkpt><trkpt lat="44.6457867" lon="10.5891717"><ele>102.8</ele><time>2026-03-22T13:39:40.452Z</time></trkpt><trkpt lat="44.6458117" lon="10.5893083"><ele>102.0</ele><time>2026-03-22T13:39:42.452Z</time></trkpt><trkpt lat="44.645835" lon="10.5894317"><ele>101.39999999999999</ele><time>2026-03-22T13:39:44.452Z</time></trkpt><trkpt lat="44.6458867" lon="10.5896283"><ele>100.8</ele><time>2026-03-22T13:39:47.452Z</time></trkpt><trkpt lat="44.6459117" lon="10.589755"><ele>100.2</ele><time>2026-03-22T13:39:49.453Z</time></trkpt><trkpt lat="44.6459333" lon="10.5898883"><ele>99.6</ele><time>2026-03-22T13:39:51.452Z</time></trkpt><trkpt lat="44.645955" lon="10.5900333"><ele>99.0</ele><time>2026-03-22T13:39:53.453Z</time></trkpt><trkpt lat="44.64598" lon="10.5901567"><ele>99.0</ele><time>2026-03-22T13:39:55.453Z</time></trkpt><trkpt lat="44.6460117" lon="10.590275"><ele>99.0</ele><time>2026-03-22T13:39:57.453Z</time></trkpt><trkpt lat="44.64603" lon="10.59041"><ele>99.0</ele><time>2026-03-22T13:39:59.452Z</time></trkpt><trkpt lat="44.6460467" lon="10.5905367"><ele>99.0</ele><time>2026-03-22T13:40:01.452Z</time></trkpt><trkpt lat="44.6460617" lon="10.5906633"><ele>99.0</ele><time>2026-03-22T13:40:03.452Z</time></trkpt><trkpt lat="44.646075" lon="10.5907933"><ele>99.0</ele><time>2026-03-22T13:40:05.452Z</time></trkpt><trkpt lat="44.6460933" lon="10.5909317"><ele>99.0</ele><time>2026-03-22T13:40:07.452Z</time></trkpt><trkpt lat="44.646105" lon="10.591065"><ele>99.0</ele><time>2026-03-22T13:40:09.452Z</time></trkpt><trkpt lat="44.646105" lon="10.5912167"><ele>99.0</ele><time>2026-03-22T13:40:11.452Z</time></trkpt><trkpt lat="44.64611" lon="10.5913783"><ele>99.0</ele><time>2026-03-22T13:40:13.452Z</time></trkpt><trkpt lat="44.6461383" lon="10.591535"><ele>99.0</ele><time>2026-03-22T13:40:15.452Z</time></trkpt><trkpt lat="44.6461983" lon="10.59165"><ele>99.0</ele><time>2026-03-22T13:40:17.453Z</time></trkpt><trkpt lat="44.6462717" lon="10.5917333"><ele>99.0</ele><time>2026-03-22T13:40:19.452Z</time></trkpt><trkpt lat="44.6463483" lon="10.5918217"><ele>99.0</ele><time>2026-03-22T13:40:21.452Z</time></trkpt><trkpt lat="44.6464267" lon="10.5918983"><ele>99.0</ele><time>2026-03-22T13:40:23.452Z</time></trkpt><trkpt lat="44.6465167" lon="10.5919833"><ele>98.83333333333333</ele><time>2026-03-22T13:40:25.452Z</time></trkpt><trkpt lat="44.6466017" lon="10.592065"><ele>98.66666666666666</ele><time>2026-03-22T13:40:27.452Z</time></trkpt><trkpt lat="44.6466817" lon="10.5921383"><ele>98.5</ele><time>2026-03-22T13:40:29.452Z</time></trkpt><trkpt lat="44.6467567" lon="10.5921933"><ele>98.33333333333333</ele><time>2026-03-22T13:40:31.453Z</time></trkpt><trkpt lat="44.6468333" lon="10.592255"><ele>98.16666666666666</ele><time>2026-03-22T13:40:33.452Z</time></trkpt><trkpt lat="44.6469" lon="10.5923017"><ele>98.0</ele><time>2026-03-22T13:40:35.453Z</time></trkpt><trkpt lat="44.6469817" lon="10.5923533"><ele>97.99999999999999</ele><time>2026-03-22T13:40:38.452Z</time></trkpt><trkpt lat="44.647035" lon="10.592415"><ele>98.0</ele><time>2026-03-22T13:40:40.452Z</time></trkpt><trkpt lat="44.647095" lon="10.5924667"><ele>98.0</ele><time>2026-03-22T13:40:43.453Z</time></trkpt><trkpt lat="44.6471567" lon="10.5925183"><ele>98.0</ele><time>2026-03-22T13:40:46.453Z</time></trkpt><trkpt lat="44.647255" lon="10.59255"><ele>97.99999999999999</ele><time>2026-03-22T13:40:49.452Z</time></trkpt><trkpt lat="44.647355" lon="10.59256"><ele>98.0</ele><time>2026-03-22T13:40:51.452Z</time></trkpt><trkpt lat="44.6474583" lon="10.5925717"><ele>98.0</ele><time>2026-03-22T13:40:53.452Z</time></trkpt><trkpt lat="44.6475667" lon="10.5926"><ele>98.0</ele><time>2026-03-22T13:40:55.452Z</time></trkpt><trkpt lat="44.6476817" lon="10.5926367"><ele>98.0</ele><time>2026-03-22T13:40:57.452Z</time></trkpt><trkpt lat="44.6477867" lon="10.5926783"><ele>98.0</ele><time>2026-03-22T13:40:59.452Z</time></trkpt><trkpt lat="44.64789" lon="10.59271"><ele>98.0</ele><time>2026-03-22T13:41:01.453Z</time></trkpt><trkpt lat="44.64799" lon="10.5927483"><ele>97.80000000000001</ele><time>2026-03-22T13:41:03.452Z</time></trkpt><trkpt lat="44.64808" lon="10.59279"><ele>97.6</ele><time>2026-03-22T13:41:05.452Z</time></trkpt><trkpt lat="44.6481683" lon="10.5928367"><ele>97.4</ele><time>2026-03-22T13:41:07.452Z</time></trkpt><trkpt lat="44.648255" lon="10.5928817"><ele>97.19999999999999</ele><time>2026-03-22T13:41:09.453Z</time></trkpt><trkpt lat="44.648345" lon="10.5929217"><ele>97.0</ele><time>2026-03-22T13:41:11.452Z</time></trkpt><trkpt lat="44.6484383" lon="10.59297"><ele>96.83333333333334</ele><time>2026-03-22T13:41:13.452Z</time></trkpt><trkpt lat="44.6485067" lon="10.5929983"><ele>96.66666666666667</ele><time>2026-03-22T13:41:15.452Z</time></trkpt><trkpt lat="44.64857" lon="10.5930367"><ele>96.5</ele><time>2026-03-22T13:41:17.452Z</time></trkpt><trkpt lat="44.6486467" lon="10.593075"><ele>96.33333333333334</ele><time>2026-03-22T13:41:19.452Z</time></trkpt><trkpt lat="44.6487417" lon="10.5931317"><ele>96.16666666666667</ele><time>2026-03-22T13:41:21.453Z</time></trkpt><trkpt lat="44.6488367" lon="10.5931883"><ele>96.0</ele><time>2026-03-22T13:41:23.452Z</time></trkpt><trkpt lat="44.648925" lon="10.5932333"><ele>96.0</ele><time>2026-03-22T13:41:25.452Z</time></trkpt><trkpt lat="44.6490167" lon="10.5932667"><ele>96.0</ele><time>2026-03-22T13:41:27.452Z</time></trkpt><trkpt lat="44.6490967" lon="10.593285"><ele>96.0</ele><time>2026-03-22T13:41:29.452Z</time></trkpt><trkpt lat="44.64918" lon="10.5933117"><ele>96.0</ele><time>2026-03-22T13:41:31.453Z</time></trkpt><trkpt lat="44.6492517" lon="10.59334"><ele>96.0</ele><time>2026-03-22T13:41:33.452Z</time></trkpt><trkpt lat="44.6493267" lon="10.5933817"><ele>96.0</ele><time>2026-03-22T13:41:35.452Z</time></trkpt><trkpt lat="44.6494133" lon="10.5934333"><ele>96.4</ele><time>2026-03-22T13:41:37.452Z</time></trkpt><trkpt lat="44.649485" lon="10.5934583"><ele>96.8</ele><time>2026-03-22T13:41:39.452Z</time></trkpt><trkpt lat="44.64956" lon="10.5934733"><ele>97.2</ele><time>2026-03-22T13:41:41.452Z</time></trkpt><trkpt lat="44.6496467" lon="10.5934933"><ele>97.60000000000001</ele><time>2026-03-22T13:41:43.452Z</time></trkpt><trkpt lat="44.64975" lon="10.59352"><ele>98.0</ele><time>2026-03-22T13:41:45.452Z</time></trkpt><trkpt lat="44.6498583" lon="10.5935867"><ele>98.0</ele><time>2026-03-22T13:41:47.452Z</time></trkpt><trkpt lat="44.6499717" lon="10.5936433"><ele>98.0</ele><time>2026-03-22T13:41:49.452Z</time></trkpt><trkpt lat="44.6500817" lon="10.5936933"><ele>98.0</ele><time>2026-03-22T13:41:51.452Z</time></trkpt><trkpt lat="44.6501917" lon="10.5937467"><ele>98.0</ele><time>2026-03-22T13:41:53.452Z</time></trkpt><trkpt lat="44.6502967" lon="10.593815"><ele>97.25</ele><time>2026-03-22T13:41:55.452Z</time></trkpt><trkpt lat="44.6504067" lon="10.593885"><ele>96.5</ele><time>2026-03-22T13:41:57.452Z</time></trkpt><trkpt lat="44.6505167" lon="10.5939483"><ele>95.75</ele><time>2026-03-22T13:41:59.452Z</time></trkpt><trkpt lat="44.6506217" lon="10.5939933"><ele>95.0</ele><time>2026-03-22T13:42:01.453Z</time></trkpt><trkpt lat="44.6507317" lon="10.594055"><ele>95.0</ele><time>2026-03-22T13:42:03.452Z</time></trkpt><trkpt lat="44.6508383" lon="10.59409"><ele>95.0</ele><time>2026-03-22T13:42:05.453Z</time></trkpt><trkpt lat="44.6509333" lon="10.59413"><ele>95.0</ele><time>2026-03-22T13:42:07.452Z</time></trkpt><trkpt lat="44.65101" lon="10.5941533"><ele>95.0</ele><time>2026-03-22T13:42:09.452Z</time></trkpt><trkpt lat="44.6510717" lon="10.5941733"><ele>95.0</ele><time>2026-03-22T13:42:11.452Z</time></trkpt><trkpt lat="44.651135" lon="10.5941917"><ele>95.0</ele><time>2026-03-22T13:42:14.452Z</time></trkpt><trkpt lat="44.6511983" lon="10.5942283"><ele>95.0</ele><time>2026-03-22T13:42:17.452Z</time></trkpt><trkpt lat="44.65127" lon="10.5942783"><ele>95.0</ele><time>2026-03-22T13:42:20.453Z</time></trkpt><trkpt lat="44.6513433" lon="10.59433"><ele>95.0</ele><time>2026-03-22T13:42:22.452Z</time></trkpt><trkpt lat="44.651445" lon="10.5943683"><ele>95.0</ele><time>2026-03-22T13:42:24.452Z</time></trkpt><trkpt lat="44.6515483" lon="10.5944017"><ele>95.0</ele><time>2026-03-22T13:42:26.452Z</time></trkpt><trkpt lat="44.6516317" lon="10.59445"><ele>94.83333333333334</ele><time>2026-03-22T13:42:28.452Z</time></trkpt><trkpt lat="44.6517233" lon="10.5945233"><ele>94.66666666666667</ele><time>2026-03-22T13:42:30.452Z</time></trkpt><trkpt lat="44.6517983" lon="10.5945983"><ele>94.5</ele><time>2026-03-22T13:42:32.453Z</time></trkpt><trkpt lat="44.6518717" lon="10.5946767"><ele>94.33333333333333</ele><time>2026-03-22T13:42:34.452Z</time></trkpt><trkpt lat="44.6519317" lon="10.59474"><ele>94.16666666666666</ele><time>2026-03-22T13:42:36.452Z</time></trkpt><trkpt lat="44.6519933" lon="10.5947817"><ele>94.0</ele><time>2026-03-22T13:42:38.452Z</time></trkpt><trkpt lat="44.6520583" lon="10.5948367"><ele>94.0</ele><time>2026-03-22T13:42:40.452Z</time></trkpt><trkpt lat="44.6521317" lon="10.594905"><ele>94.0</ele><time>2026-03-22T13:42:42.452Z</time></trkpt><trkpt lat="44.6522033" lon="10.5949667"><ele>94.0</ele><time>2026-03-22T13:42:44.452Z</time></trkpt><trkpt lat="44.652275" lon="10.5950283"><ele>94.0</ele><time>2026-03-22T13:42:46.452Z</time></trkpt><trkpt lat="44.6523483" lon="10.5950967"><ele>94.0</ele><time>2026-03-22T13:42:48.453Z</time></trkpt><trkpt lat="44.6524167" lon="10.5951617"><ele>94.0</ele><time>2026-03-22T13:42:50.452Z</time></trkpt><trkpt lat="44.65248" lon="10.59522"><ele>94.0</ele><time>2026-03-22T13:42:52.453Z</time></trkpt><trkpt lat="44.6525433" lon="10.5953167"><ele>94.0</ele><time>2026-03-22T13:42:54.452Z</time></trkpt><trkpt lat="44.652615" lon="10.5954117"><ele>94.0</ele><time>2026-03-22T13:42:56.453Z</time></trkpt><trkpt lat="44.65267" lon="10.5955233"><ele>94.0</ele><time>2026-03-22T13:42:58.452Z</time></trkpt><trkpt lat="44.6527267" lon="10.5956333"><ele>94.0</ele><time>2026-03-22T13:43:00.452Z</time></trkpt><trkpt lat="44.6528017" lon="10.5957317"><ele>94.0</ele><time>2026-03-22T13:43:02.453Z</time></trkpt><trkpt lat="44.6528733" lon="10.5958183"><ele>94.0</ele><time>2026-03-22T13:43:04.452Z</time></trkpt><trkpt lat="44.6529433" lon="10.59589"><ele>94.0</ele><time>2026-03-22T13:43:06.452Z</time></trkpt><trkpt lat="44.6530117" lon="10.5959733"><ele>94.0</ele><time>2026-03-22T13:43:08.453Z</time></trkpt><trkpt lat="44.6530833" lon="10.5960567"><ele>94.0</ele><time>2026-03-22T13:43:10.452Z</time></trkpt><trkpt lat="44.65315" lon="10.59611"><ele>94.0</ele><time>2026-03-22T13:43:12.453Z</time></trkpt><trkpt lat="44.65322" lon="10.5961633"><ele>93.80000000000001</ele><time>2026-03-22T13:43:14.453Z</time></trkpt><trkpt lat="44.65329" lon="10.5962167"><ele>93.60000000000001</ele><time>2026-03-22T13:43:16.453Z</time></trkpt><trkpt lat="44.6533517" lon="10.5962933"><ele>93.4</ele><time>2026-03-22T13:43:18.453Z</time></trkpt><trkpt lat="44.6534333" lon="10.5963633"><ele>93.2</ele><time>2026-03-22T13:43:20.452Z</time></trkpt><trkpt lat="44.653515" lon="10.5964217"><ele>93.0</ele><time>2026-03-22T13:43:22.452Z</time></trkpt><trkpt lat="44.6536" lon="10.5965117"><ele>92.80000000000001</ele><time>2026-03-22T13:43:24.452Z</time></trkpt><trkpt lat="44.6536733" lon="10.5965817"><ele>92.6</ele><time>2026-03-22T13:43:26.453Z</time></trkpt><trkpt lat="44.6537483" lon="10.59666"><ele>92.4</ele><time>2026-03-22T13:43:28.452Z</time></trkpt><trkpt lat="44.6538333" lon="10.59674"><ele>92.19999999999999</ele><time>2026-03-22T13:43:30.452Z</time></trkpt><trkpt lat="44.653915" lon="10.596805"><ele>92.0</ele><time>2026-03-22T13:43:32.453Z</time></trkpt><trkpt lat="44.6539967" lon="10.596875"><ele>92.0</ele><time>2026-03-22T13:43:34.452Z</time></trkpt><trkpt lat="44.654075" lon="10.5969467"><ele>92.0</ele><time>2026-03-22T13:43:36.452Z</time></trkpt><trkpt lat="44.6541583" lon="10.5970383"><ele>92.0</ele><time>2026-03-22T13:43:38.452Z</time></trkpt><trkpt lat="44.65423" lon="10.5971167"><ele>92.0</ele><time>2026-03-22T13:43:40.452Z</time></trkpt><trkpt lat="44.6542983" lon="10.5971917"><ele>92.0</ele><time>2026-03-22T13:43:42.452Z</time></trkpt><trkpt lat="44.654375" lon="10.597245"><ele>92.0</ele><time>2026-03-22T13:43:44.452Z</time></trkpt><trkpt lat="44.6544383" lon="10.59729"><ele>92.0</ele><time>2026-03-22T13:43:46.452Z</time></trkpt><trkpt lat="44.654505" lon="10.5973367"><ele>92.0</ele><time>2026-03-22T13:43:48.452Z</time></trkpt><trkpt lat="44.6545633" lon="10.59739"><ele>92.0</ele><time>2026-03-22T13:43:50.453Z</time></trkpt><trkpt lat="44.6546367" lon="10.59746"><ele>92.0</ele><time>2026-03-22T13:43:52.452Z</time></trkpt><trkpt lat="44.65472" lon="10.59755"><ele>92.0</ele><time>2026-03-22T13:43:54.452Z</time></trkpt><trkpt lat="44.6548017" lon="10.597635"><ele>92.0</ele><time>2026-03-22T13:43:56.452Z</time></trkpt><trkpt lat="44.6548717" lon="10.59772"><ele>92.0</ele><time>2026-03-22T13:43:58.453Z</time></trkpt><trkpt lat="44.654935" lon="10.5977817"><ele>92.0</ele><time>2026-03-22T13:44:00.453Z</time></trkpt><trkpt lat="44.6550083" lon="10.5978317"><ele>92.0</ele><time>2026-03-22T13:44:02.452Z</time></trkpt><trkpt lat="44.65508" lon="10.5978833"><ele>92.0</ele><time>2026-03-22T13:44:04.452Z</time></trkpt><trkpt lat="44.65515" lon="10.597945"><ele>92.0</ele><time>2026-03-22T13:44:06.452Z</time></trkpt><trkpt lat="44.65522" lon="10.597995"><ele>91.5</ele><time>2026-03-22T13:44:08.452Z</time></trkpt><trkpt lat="44.6552817" lon="10.5980517"><ele>91.0</ele><time>2026-03-22T13:44:10.452Z</time></trkpt><trkpt lat="44.6553633" lon="10.5981067"><ele>90.5</ele><time>2026-03-22T13:44:12.452Z</time></trkpt><trkpt lat="44.6554333" lon="10.5981567"><ele>90.0</ele><time>2026-03-22T13:44:14.452Z</time></trkpt><trkpt lat="44.6555" lon="10.598235"><ele>89.5</ele><time>2026-03-22T13:44:16.453Z</time></trkpt><trkpt lat="44.6555283" lon="10.5983217"><ele>89.0</ele><time>2026-03-22T13:44:18.452Z</time></trkpt><trkpt lat="44.655515" lon="10.5984517"><ele>89.0</ele><time>2026-03-22T13:44:21.452Z</time></trkpt><trkpt lat="44.65545" lon="10.5985283"><ele>89.0</ele><time>2026-03-22T13:44:24.452Z</time></trkpt><trkpt lat="44.6553833" lon="10.5985767"><ele>89.0</ele><time>2026-03-22T13:44:26.452Z</time></trkpt><trkpt lat="44.6552933" lon="10.598625"><ele>89.0</ele><time>2026-03-22T13:44:28.452Z</time></trkpt><trkpt lat="44.6552067" lon="10.59868"><ele>89.0</ele><time>2026-03-22T13:44:30.452Z</time></trkpt><trkpt lat="44.6551133" lon="10.59872"><ele>89.0</ele><time>2026-03-22T13:44:32.452Z</time></trkpt><trkpt lat="44.6550233" lon="10.598725"><ele>88.83333333333334</ele><time>2026-03-22T13:44:34.452Z</time></trkpt><trkpt lat="44.6549533" lon="10.5986967"><ele>88.66666666666667</ele><time>2026-03-22T13:44:36.453Z</time></trkpt><trkpt lat="44.6548933" lon="10.5986483"><ele>88.5</ele><time>2026-03-22T13:44:38.452Z</time></trkpt><trkpt lat="44.65481" lon="10.5985833"><ele>88.33333333333333</ele><time>2026-03-22T13:44:41.452Z</time></trkpt><trkpt lat="44.6547383" lon="10.59853"><ele>88.16666666666666</ele><time>2026-03-22T13:44:44.452Z</time></trkpt><trkpt lat="44.65466" lon="10.5985183"><ele>88.0</ele><time>2026-03-22T13:44:49.453Z</time></trkpt><trkpt lat="44.6546017" lon="10.5984667"><ele>88.0</ele><time>2026-03-22T13:44:52.452Z</time></trkpt><trkpt lat="44.6545417" lon="10.598415"><ele>88.0</ele><time>2026-03-22T13:44:55.453Z</time></trkpt><trkpt lat="44.6544733" lon="10.5983583"><ele>88.0</ele><time>2026-03-22T13:44:58.452Z</time></trkpt><trkpt lat="44.6544167" lon="10.598305"><ele>88.0</ele><time>2026-03-22T13:45:01.452Z</time></trkpt><trkpt lat="44.6543583" lon="10.5982583"><ele>88.0</ele><time>2026-03-22T13:45:04.452Z</time></trkpt><trkpt lat="44.6542867" lon="10.5982067"><ele>88.0</ele><time>2026-03-22T13:45:07.452Z</time></trkpt><trkpt lat="44.654205" lon="10.5981383"><ele>88.28571428571429</ele><time>2026-03-22T13:45:10.452Z</time></trkpt><trkpt lat="44.6541417" lon="10.5980733"><ele>88.57142857142857</ele><time>2026-03-22T13:45:13.452Z</time></trkpt><trkpt lat="44.6540783" lon="10.5980133"><ele>88.85714285714286</ele><time>2026-03-22T13:45:16.452Z</time></trkpt><trkpt lat="44.6540283" lon="10.597945"><ele>89.14285714285714</ele><time>2026-03-22T13:45:19.452Z</time></trkpt><trkpt lat="44.6539783" lon="10.5978817"><ele>89.42857142857143</ele><time>2026-03-22T13:45:22.453Z</time></trkpt><trkpt lat="44.6539117" lon="10.5978517"><ele>89.71428571428571</ele><time>2026-03-22T13:45:25.452Z</time></trkpt><trkpt lat="44.6538933" lon="10.597765"><ele>90.0</ele><time>2026-03-22T13:45:34.453Z</time></trkpt><trkpt lat="44.653965" lon="10.5978283"><ele>90.0</ele><time>2026-03-22T13:45:38.453Z</time></trkpt><trkpt lat="44.6540417" lon="10.5978917"><ele>90.0</ele><time>2026-03-22T13:45:41.453Z</time></trkpt><trkpt lat="44.654105" lon="10.597945"><ele>90.0</ele><time>2026-03-22T13:45:43.452Z</time></trkpt><trkpt lat="44.654165" lon="10.59799"><ele>90.0</ele><time>2026-03-22T13:45:45.452Z</time></trkpt><trkpt lat="44.6542233" lon="10.5980417"><ele>90.0</ele><time>2026-03-22T13:45:47.453Z</time></trkpt><trkpt lat="44.6543" lon="10.5980883"><ele>90.0</ele><time>2026-03-22T13:45:50.452Z</time></trkpt><trkpt lat="44.6543833" lon="10.5981483"><ele>90.0</ele><time>2026-03-22T13:45:53.452Z</time></trkpt><trkpt lat="44.6544383" lon="10.5981967"><ele>90.0</ele><time>2026-03-22T13:45:55.452Z</time></trkpt><trkpt lat="44.6545017" lon="10.5982683"><ele>90.0</ele><time>2026-03-22T13:45:57.452Z</time></trkpt><trkpt lat="44.65457" lon="10.5983433"><ele>90.0</ele><time>2026-03-22T13:45:59.453Z</time></trkpt><trkpt lat="44.6546333" lon="10.5983983"><ele>90.0</ele><time>2026-03-22T13:46:01.453Z</time></trkpt><trkpt lat="44.6547033" lon="10.5984517"><ele>90.0</ele><time>2026-03-22T13:46:03.453Z</time></trkpt><trkpt lat="44.6547817" lon="10.5985133"><ele>89.66666666666667</ele><time>2026-03-22T13:46:05.453Z</time></trkpt><trkpt lat="44.6548617" lon="10.5985717"><ele>89.33333333333333</ele><time>2026-03-22T13:46:07.453Z</time></trkpt><trkpt lat="44.6549383" lon="10.5986383"><ele>89.0</ele><time>2026-03-22T13:46:09.453Z</time></trkpt><trkpt lat="44.655015" lon="10.598685"><ele>88.66666666666666</ele><time>2026-03-22T13:46:11.453Z</time></trkpt><trkpt lat="44.655095" lon="10.5986883"><ele>88.33333333333333</ele><time>2026-03-22T13:46:13.453Z</time></trkpt><trkpt lat="44.655175" lon="10.5986717"><ele>88.0</ele><time>2026-03-22T13:46:15.453Z</time></trkpt><trkpt lat="44.6552317" lon="10.5986267"><ele>88.16666666666666</ele><time>2026-03-22T13:46:17.453Z</time></trkpt><trkpt lat="44.655295" lon="10.598575"><ele>88.33333333333333</ele><time>2026-03-22T13:46:19.453Z</time></trkpt><trkpt lat="44.65537" lon="10.5985183"><ele>88.5</ele><time>2026-03-22T13:46:22.454Z</time></trkpt><trkpt lat="44.65544" lon="10.5984983"><ele>88.66666666666667</ele><time>2026-03-22T13:46:25.453Z</time></trkpt><trkpt lat="44.6554917" lon="10.59843"><ele>88.83333333333334</ele><time>2026-03-22T13:46:30.453Z</time></trkpt><trkpt lat="44.6555983" lon="10.5983417"><ele>89.0</ele><time>2026-03-22T13:46:42.453Z</time></trkpt><trkpt lat="44.655725" lon="10.5981233"><ele>89.0</ele><time>2026-03-22T13:46:57.455Z</time></trkpt><trkpt lat="44.6557217" lon="10.59802"><ele>89.0</ele><time>2026-03-22T13:47:02.454Z</time></trkpt><trkpt lat="44.6557333" lon="10.5979267"><ele>89.0</ele><time>2026-03-22T13:47:07.454Z</time></trkpt><trkpt lat="44.655795" lon="10.5978917"><ele>89.0</ele><time>2026-03-22T13:47:11.454Z</time></trkpt><trkpt lat="44.6558233" lon="10.5980067"><ele>89.0</ele><time>2026-03-22T13:47:14.455Z</time></trkpt><trkpt lat="44.6558183" lon="10.5981317"><ele>89.0</ele><time>2026-03-22T13:47:16.454Z</time></trkpt><trkpt lat="44.6558283" lon="10.598245"><ele>89.0</ele><time>2026-03-22T13:47:18.454Z</time></trkpt><trkpt lat="44.6558533" lon="10.5983417"><ele>89.0</ele><time>2026-03-22T13:47:20.454Z</time></trkpt><trkpt lat="44.6559017" lon="10.5984183"><ele>89.0</ele><time>2026-03-22T13:47:22.454Z</time></trkpt><trkpt lat="44.6559833" lon="10.5984517"><ele>89.0</ele><time>2026-03-22T13:47:24.454Z</time></trkpt><trkpt lat="44.6560717" lon="10.5984833"><ele>89.0</ele><time>2026-03-22T13:47:26.454Z</time></trkpt><trkpt lat="44.6561583" lon="10.5985183"><ele>89.0</ele><time>2026-03-22T13:47:28.455Z</time></trkpt><trkpt lat="44.6562367" lon="10.5985767"><ele>88.83333333333334</ele><time>2026-03-22T13:47:30.455Z</time></trkpt><trkpt lat="44.656295" lon="10.5986283"><ele>88.66666666666667</ele><time>2026-03-22T13:47:32.454Z</time></trkpt><trkpt lat="44.6563583" lon="10.5986717"><ele>88.5</ele><time>2026-03-22T13:47:34.454Z</time></trkpt><trkpt lat="44.65644" lon="10.5987333"><ele>88.33333333333333</ele><time>2026-03-22T13:47:36.455Z</time></trkpt><trkpt lat="44.6565217" lon="10.59878"><ele>88.16666666666666</ele><time>2026-03-22T13:47:38.455Z</time></trkpt><trkpt lat="44.656595" lon="10.59882"><ele>88.0</ele><time>2026-03-22T13:47:40.455Z</time></trkpt><trkpt lat="44.656675" lon="10.5988767"><ele>87.80000000000001</ele><time>2026-03-22T13:47:42.455Z</time></trkpt><trkpt lat="44.6567667" lon="10.5989417"><ele>87.6</ele><time>2026-03-22T13:47:44.454Z</time></trkpt><trkpt lat="44.6568567" lon="10.5990133"><ele>87.4</ele><time>2026-03-22T13:47:46.454Z</time></trkpt><trkpt lat="44.656945" lon="10.5990867"><ele>87.19999999999999</ele><time>2026-03-22T13:47:48.454Z</time></trkpt><trkpt lat="44.6570333" lon="10.5991467"><ele>87.0</ele><time>2026-03-22T13:47:50.455Z</time></trkpt><trkpt lat="44.6571183" lon="10.5992033"><ele>87.0</ele><time>2026-03-22T13:47:52.454Z</time></trkpt><trkpt lat="44.6572067" lon="10.599255"><ele>87.0</ele><time>2026-03-22T13:47:54.455Z</time></trkpt><trkpt lat="44.6572967" lon="10.5993067"><ele>87.0</ele><time>2026-03-22T13:47:56.454Z</time></trkpt><trkpt lat="44.65739" lon="10.59936"><ele>87.0</ele><time>2026-03-22T13:47:58.455Z</time></trkpt><trkpt lat="44.6574783" lon="10.5994133"><ele>87.0</ele><time>2026-03-22T13:48:00.454Z</time></trkpt><trkpt lat="44.6575667" lon="10.59949"><ele>87.0</ele><time>2026-03-22T13:48:02.454Z</time></trkpt><trkpt lat="44.6576467" lon="10.5995633"><ele>87.0</ele><time>2026-03-22T13:48:04.455Z</time></trkpt><trkpt lat="44.6577283" lon="10.5996367"><ele>87.0</ele><time>2026-03-22T13:48:06.454Z</time></trkpt><trkpt lat="44.657805" lon="10.5997167"><ele>87.0</ele><time>2026-03-22T13:48:08.454Z</time></trkpt><trkpt lat="44.6578817" lon="10.5997783"><ele>87.0</ele><time>2026-03-22T13:48:10.454Z</time></trkpt><trkpt lat="44.6579533" lon="10.5998333"><ele>86.8</ele><time>2026-03-22T13:48:12.454Z</time></trkpt><trkpt lat="44.65802" lon="10.5999117"><ele>86.6</ele><time>2026-03-22T13:48:14.454Z</time></trkpt><trkpt lat="44.6580833" lon="10.5999867"><ele>86.39999999999999</ele><time>2026-03-22T13:48:16.455Z</time></trkpt><trkpt lat="44.6581583" lon="10.600065"><ele>86.19999999999999</ele><time>2026-03-22T13:48:18.454Z</time></trkpt><trkpt lat="44.6582567" lon="10.60012"><ele>86.0</ele><time>2026-03-22T13:48:20.454Z</time></trkpt><trkpt lat="44.65834" lon="10.600185"><ele>86.0</ele><time>2026-03-22T13:48:22.454Z</time></trkpt><trkpt lat="44.6584267" lon="10.6002417"><ele>86.0</ele><time>2026-03-22T13:48:24.455Z</time></trkpt><trkpt lat="44.65851" lon="10.6003017"><ele>86.0</ele><time>2026-03-22T13:48:26.454Z</time></trkpt><trkpt lat="44.6585867" lon="10.6003533"><ele>86.0</ele><time>2026-03-22T13:48:28.454Z</time></trkpt><trkpt lat="44.658665" lon="10.600395"><ele>86.0</ele><time>2026-03-22T13:48:30.454Z</time></trkpt><trkpt lat="44.6587483" lon="10.60043"><ele>86.0</ele><time>2026-03-22T13:48:32.454Z</time></trkpt><trkpt lat="44.6588317" lon="10.6004633"><ele>85.8</ele><time>2026-03-22T13:48:34.454Z</time></trkpt><trkpt lat="44.6589183" lon="10.6004917"><ele>85.6</ele><time>2026-03-22T13:48:36.454Z</time></trkpt><trkpt lat="44.6590033" lon="10.6005283"><ele>85.4</ele><time>2026-03-22T13:48:38.455Z</time></trkpt><trkpt lat="44.6590883" lon="10.6005533"><ele>85.2</ele><time>2026-03-22T13:48:40.454Z</time></trkpt><trkpt lat="44.65917" lon="10.6006033"><ele>85.0</ele><time>2026-03-22T13:48:42.454Z</time></trkpt><trkpt lat="44.6592567" lon="10.6006617"><ele>85.0</ele><time>2026-03-22T13:48:44.454Z</time></trkpt><trkpt lat="44.659345" lon="10.6007367"><ele>85.0</ele><time>2026-03-22T13:48:46.454Z</time></trkpt><trkpt lat="44.6594183" lon="10.600815"><ele>85.0</ele><time>2026-03-22T13:48:48.454Z</time></trkpt><trkpt lat="44.659485" lon="10.60091"><ele>85.0</ele><time>2026-03-22T13:48:50.455Z</time></trkpt><trkpt lat="44.659545" lon="10.6010067"><ele>85.0</ele><time>2026-03-22T13:48:52.454Z</time></trkpt><trkpt lat="44.65961" lon="10.601115"><ele>84.8</ele><time>2026-03-22T13:48:54.454Z</time></trkpt><trkpt lat="44.659675" lon="10.6012133"><ele>84.6</ele><time>2026-03-22T13:48:56.455Z</time></trkpt><trkpt lat="44.6597367" lon="10.6013"><ele>84.4</ele><time>2026-03-22T13:48:58.454Z</time></trkpt><trkpt lat="44.65981" lon="10.60137"><ele>84.2</ele><time>2026-03-22T13:49:00.455Z</time></trkpt><trkpt lat="44.659905" lon="10.601415"><ele>84.0</ele><time>2026-03-22T13:49:02.454Z</time></trkpt><trkpt lat="44.66" lon="10.6014617"><ele>84.0</ele><time>2026-03-22T13:49:04.454Z</time></trkpt><trkpt lat="44.66009" lon="10.6015017"><ele>84.0</ele><time>2026-03-22T13:49:06.454Z</time></trkpt><trkpt lat="44.6601717" lon="10.6015467"><ele>84.0</ele><time>2026-03-22T13:49:08.455Z</time></trkpt><trkpt lat="44.66026" lon="10.6015933"><ele>84.0</ele><time>2026-03-22T13:49:10.454Z</time></trkpt><trkpt lat="44.6603383" lon="10.6016617"><ele>84.0</ele><time>2026-03-22T13:49:12.454Z</time></trkpt><trkpt lat="44.6604133" lon="10.601735"><ele>84.0</ele><time>2026-03-22T13:49:14.454Z</time></trkpt><trkpt lat="44.6604867" lon="10.6018017"><ele>84.0</ele><time>2026-03-22T13:49:16.455Z</time></trkpt><trkpt lat="44.6605667" lon="10.6018633"><ele>84.0</ele><time>2026-03-22T13:49:18.454Z</time></trkpt><trkpt lat="44.6606517" lon="10.6019067"><ele>84.0</ele><time>2026-03-22T13:49:20.455Z</time></trkpt><trkpt lat="44.660745" lon="10.6019433"><ele>84.0</ele><time>2026-03-22T13:49:22.454Z</time></trkpt><trkpt lat="44.66084" lon="10.60198"><ele>83.80000000000001</ele><time>2026-03-22T13:49:24.454Z</time></trkpt><trkpt lat="44.6609333" lon="10.6020183"><ele>83.60000000000001</ele><time>2026-03-22T13:49:26.454Z</time></trkpt><trkpt lat="44.661025" lon="10.6020767"><ele>83.4</ele><time>2026-03-22T13:49:28.454Z</time></trkpt><trkpt lat="44.661115" lon="10.6021417"><ele>83.2</ele><time>2026-03-22T13:49:30.454Z</time></trkpt><trkpt lat="44.6611817" lon="10.602215"><ele>83.0</ele><time>2026-03-22T13:49:32.454Z</time></trkpt><trkpt lat="44.66125" lon="10.602285"><ele>83.0</ele><time>2026-03-22T13:49:34.454Z</time></trkpt><trkpt lat="44.66133" lon="10.602355"><ele>83.0</ele><time>2026-03-22T13:49:36.454Z</time></trkpt><trkpt lat="44.6614233" lon="10.6024133"><ele>83.0</ele><time>2026-03-22T13:49:38.454Z</time></trkpt><trkpt lat="44.6615183" lon="10.6024483"><ele>83.0</ele><time>2026-03-22T13:49:40.455Z</time></trkpt><trkpt lat="44.6616133" lon="10.6024533"><ele>83.0</ele><time>2026-03-22T13:49:42.454Z</time></trkpt><trkpt lat="44.6616983" lon="10.60247"><ele>83.0</ele><time>2026-03-22T13:49:44.454Z</time></trkpt><trkpt lat="44.6617783" lon="10.6024983"><ele>83.0</ele><time>2026-03-22T13:49:46.455Z</time></trkpt><trkpt lat="44.66185" lon="10.6025267"><ele>83.0</ele><time>2026-03-22T13:49:48.455Z</time></trkpt><trkpt lat="44.6619333" lon="10.6025833"><ele>83.0</ele><time>2026-03-22T13:49:50.454Z</time></trkpt><trkpt lat="44.6620133" lon="10.60263"><ele>83.0</ele><time>2026-03-22T13:49:52.454Z</time></trkpt><trkpt lat="44.6620883" lon="10.6026683"><ele>83.0</ele><time>2026-03-22T13:49:54.454Z</time></trkpt><trkpt lat="44.662145" lon="10.60273"><ele>82.83333333333334</ele><time>2026-03-22T13:49:56.455Z</time></trkpt><trkpt lat="44.6622083" lon="10.6028083"><ele>82.66666666666667</ele><time>2026-03-22T13:49:58.454Z</time></trkpt><trkpt lat="44.66228" lon="10.6028583"><ele>82.5</ele><time>2026-03-22T13:50:00.454Z</time></trkpt><trkpt lat="44.6623633" lon="10.6028817"><ele>82.33333333333333</ele><time>2026-03-22T13:50:02.454Z</time></trkpt><trkpt lat="44.6624617" lon="10.6028717"><ele>82.16666666666666</ele><time>2026-03-22T13:50:04.454Z</time></trkpt><trkpt lat="44.66256" lon="10.6028583"><ele>82.0</ele><time>2026-03-22T13:50:06.454Z</time></trkpt><trkpt lat="44.662655" lon="10.6028417"><ele>82.0</ele><time>2026-03-22T13:50:08.455Z</time></trkpt><trkpt lat="44.66275" lon="10.60281"><ele>82.0</ele><time>2026-03-22T13:50:10.455Z</time></trkpt><trkpt lat="44.6628417" lon="10.6027833"><ele>82.0</ele><time>2026-03-22T13:50:12.454Z</time></trkpt><trkpt lat="44.662935" lon="10.6027683"><ele>82.0</ele><time>2026-03-22T13:50:14.454Z</time></trkpt><trkpt lat="44.6630367" lon="10.60276"><ele>82.0</ele><time>2026-03-22T13:50:16.454Z</time></trkpt><trkpt lat="44.6631383" lon="10.6027483"><ele>82.0</ele><time>2026-03-22T13:50:18.454Z</time></trkpt><trkpt lat="44.6632233" lon="10.60273"><ele>82.0</ele><time>2026-03-22T13:50:20.454Z</time></trkpt><trkpt lat="44.6633083" lon="10.6027133"><ele>82.0</ele><time>2026-03-22T13:50:22.454Z</time></trkpt><trkpt lat="44.6633933" lon="10.6026867"><ele>82.0</ele><time>2026-03-22T13:50:24.455Z</time></trkpt><trkpt lat="44.6634667" lon="10.6026433"><ele>82.0</ele><time>2026-03-22T13:50:26.455Z</time></trkpt><trkpt lat="44.6635333" lon="10.6026067"><ele>82.0</ele><time>2026-03-22T13:50:28.454Z</time></trkpt><trkpt lat="44.6636" lon="10.60258"><ele>81.8</ele><time>2026-03-22T13:50:30.455Z</time></trkpt><trkpt lat="44.6636717" lon="10.6025317"><ele>81.6</ele><time>2026-03-22T13:50:32.454Z</time></trkpt><trkpt lat="44.66373" lon="10.6024567"><ele>81.39999999999999</ele><time>2026-03-22T13:50:34.454Z</time></trkpt><trkpt lat="44.6638017" lon="10.6023333"><ele>81.19999999999999</ele><time>2026-03-22T13:50:36.454Z</time></trkpt><trkpt lat="44.6638833" lon="10.6022517"><ele>81.0</ele><time>2026-03-22T13:50:38.454Z</time></trkpt><trkpt lat="44.66399" lon="10.6021883"><ele>81.0</ele><time>2026-03-22T13:50:40.454Z</time></trkpt><trkpt lat="44.664105" lon="10.6021233"><ele>81.0</ele><time>2026-03-22T13:50:42.454Z</time></trkpt><trkpt lat="44.6641683" lon="10.6021117"><ele>81.0</ele><time>2026-03-22T13:50:43.454Z</time></trkpt><trkpt lat="44.66424" lon="10.6021033"><ele>81.0</ele><time>2026-03-22T13:50:44.454Z</time></trkpt><trkpt lat="44.664355" lon="10.6020633"><ele>81.0</ele><time>2026-03-22T13:50:46.454Z</time></trkpt><trkpt lat="44.66445" lon="10.6020367"><ele>81.19999999999999</ele><time>2026-03-22T13:50:48.455Z</time></trkpt><trkpt lat="44.664545" lon="10.6019917"><ele>81.39999999999999</ele><time>2026-03-22T13:50:50.454Z</time></trkpt><trkpt lat="44.664635" lon="10.6019633"><ele>81.6</ele><time>2026-03-22T13:50:52.455Z</time></trkpt><trkpt lat="44.6647333" lon="10.60193"><ele>81.8</ele><time>2026-03-22T13:50:54.454Z</time></trkpt><trkpt lat="44.6648367" lon="10.6018917"><ele>82.0</ele><time>2026-03-22T13:50:56.454Z</time></trkpt><trkpt lat="44.66495" lon="10.6018467"><ele>82.0</ele><time>2026-03-22T13:50:58.455Z</time></trkpt><trkpt lat="44.6650583" lon="10.6017817"><ele>82.0</ele><time>2026-03-22T13:51:00.454Z</time></trkpt><trkpt lat="44.665155" lon="10.6017117"><ele>82.0</ele><time>2026-03-22T13:51:02.455Z</time></trkpt><trkpt lat="44.6652467" lon="10.601635"><ele>82.0</ele><time>2026-03-22T13:51:04.455Z</time></trkpt><trkpt lat="44.6653283" lon="10.6015533"><ele>82.0</ele><time>2026-03-22T13:51:06.454Z</time></trkpt><trkpt lat="44.6654017" lon="10.6015017"><ele>81.6</ele><time>2026-03-22T13:51:08.454Z</time></trkpt><trkpt lat="44.6654817" lon="10.6014517"><ele>81.19999999999999</ele><time>2026-03-22T13:51:10.454Z</time></trkpt><trkpt lat="44.6655617" lon="10.6014217"><ele>80.8</ele><time>2026-03-22T13:51:12.455Z</time></trkpt><trkpt lat="44.66564" lon="10.6013767"><ele>80.4</ele><time>2026-03-22T13:51:14.454Z</time></trkpt><trkpt lat="44.6657383" lon="10.6013383"><ele>80.0</ele><time>2026-03-22T13:51:16.455Z</time></trkpt><trkpt lat="44.6658433" lon="10.60132"><ele>80.0</ele><time>2026-03-22T13:51:18.454Z</time></trkpt><trkpt lat="44.66595" lon="10.6013167"><ele>80.0</ele><time>2026-03-22T13:51:20.455Z</time></trkpt><trkpt lat="44.6660467" lon="10.6013233"><ele>80.0</ele><time>2026-03-22T13:51:22.454Z</time></trkpt><trkpt lat="44.6661533" lon="10.6013517"><ele>80.0</ele><time>2026-03-22T13:51:24.455Z</time></trkpt><trkpt lat="44.6662383" lon="10.60137"><ele>80.0</ele><time>2026-03-22T13:51:26.454Z</time></trkpt><trkpt lat="44.6663317" lon="10.6013817"><ele>80.16666666666667</ele><time>2026-03-22T13:51:28.454Z</time></trkpt><trkpt lat="44.6664083" lon="10.60136"><ele>80.33333333333334</ele><time>2026-03-22T13:51:30.455Z</time></trkpt><trkpt lat="44.6664917" lon="10.601345"><ele>80.5</ele><time>2026-03-22T13:51:32.454Z</time></trkpt><trkpt lat="44.6665583" lon="10.6013"><ele>80.66666666666667</ele><time>2026-03-22T13:51:34.454Z</time></trkpt><trkpt lat="44.6666267" lon="10.6012367"><ele>80.83333333333333</ele><time>2026-03-22T13:51:37.454Z</time></trkpt><trkpt lat="44.6666833" lon="10.6011933"><ele>81.0</ele><time>2026-03-22T13:51:40.454Z</time></trkpt><trkpt lat="44.66676" lon="10.6011467"><ele>81.16666666666667</ele><time>2026-03-22T13:51:43.454Z</time></trkpt><trkpt lat="44.6668483" lon="10.6011267"><ele>81.33333333333333</ele><time>2026-03-22T13:51:46.455Z</time></trkpt><trkpt lat="44.666925" lon="10.6011483"><ele>81.5</ele><time>2026-03-22T13:51:50.455Z</time></trkpt><trkpt lat="44.66699" lon="10.6011883"><ele>81.66666666666666</ele><time>2026-03-22T13:51:53.454Z</time></trkpt><trkpt lat="44.6670583" lon="10.6012033"><ele>81.83333333333333</ele><time>2026-03-22T13:51:56.454Z</time></trkpt><trkpt lat="44.667135" lon="10.6011917"><ele>82.0</ele><time>2026-03-22T13:51:59.454Z</time></trkpt><trkpt lat="44.6672083" lon="10.6011817"><ele>81.71428571428571</ele><time>2026-03-22T13:52:01.455Z</time></trkpt><trkpt lat="44.667275" lon="10.6012"><ele>81.42857142857143</ele><time>2026-03-22T13:52:03.454Z</time></trkpt><trkpt lat="44.66734" lon="10.6012633"><ele>81.14285714285714</ele><time>2026-03-22T13:52:06.454Z</time></trkpt><trkpt lat="44.6673633" lon="10.6013517"><ele>80.85714285714286</ele><time>2026-03-22T13:52:10.454Z</time></trkpt><trkpt lat="44.66744" lon="10.6013783"><ele>80.57142857142857</ele><time>2026-03-22T13:52:13.454Z</time></trkpt><trkpt lat="44.6675017" lon="10.6013567"><ele>80.28571428571428</ele><time>2026-03-22T13:52:15.454Z</time></trkpt><trkpt lat="44.6675867" lon="10.6013167"><ele>80.0</ele><time>2026-03-22T13:52:17.454Z</time></trkpt><trkpt lat="44.6676683" lon="10.601295"><ele>80.0</ele><time>2026-03-22T13:52:19.455Z</time></trkpt><trkpt lat="44.667775" lon="10.6013033"><ele>80.0</ele><time>2026-03-22T13:52:21.454Z</time></trkpt><trkpt lat="44.667865" lon="10.6013467"><ele>80.0</ele><time>2026-03-22T13:52:23.454Z</time></trkpt><trkpt lat="44.66794" lon="10.6014167"><ele>80.0</ele><time>2026-03-22T13:52:25.454Z</time></trkpt><trkpt lat="44.668" lon="10.6014917"><ele>80.0</ele><time>2026-03-22T13:52:27.454Z</time></trkpt><trkpt lat="44.66805" lon="10.6015733"><ele>80.0</ele><time>2026-03-22T13:52:29.454Z</time></trkpt><trkpt lat="44.668105" lon="10.6016783"><ele>79.83333333333334</ele><time>2026-03-22T13:52:31.455Z</time></trkpt><trkpt lat="44.66814" lon="10.6017733"><ele>79.66666666666667</ele><time>2026-03-22T13:52:33.455Z</time></trkpt><trkpt lat="44.668175" lon="10.6018733"><ele>79.5</ele><time>2026-03-22T13:52:35.454Z</time></trkpt><trkpt lat="44.6682133" lon="10.6019833"><ele>79.33333333333333</ele><time>2026-03-22T13:52:37.454Z</time></trkpt><trkpt lat="44.6682633" lon="10.6021117"><ele>79.16666666666666</ele><time>2026-03-22T13:52:39.454Z</time></trkpt><trkpt lat="44.66831" lon="10.6022217"><ele>79.0</ele><time>2026-03-22T13:52:41.454Z</time></trkpt><trkpt lat="44.6683733" lon="10.6023533"><ele>78.8</ele><time>2026-03-22T13:52:43.454Z</time></trkpt><trkpt lat="44.6684383" lon="10.60249"><ele>78.60000000000001</ele><time>2026-03-22T13:52:45.454Z</time></trkpt><trkpt lat="44.6685017" lon="10.6026117"><ele>78.4</ele><time>2026-03-22T13:52:47.455Z</time></trkpt><trkpt lat="44.6685667" lon="10.6027367"><ele>78.2</ele><time>2026-03-22T13:52:49.454Z</time></trkpt><trkpt lat="44.6686367" lon="10.6028533"><ele>78.0</ele><time>2026-03-22T13:52:51.455Z</time></trkpt><trkpt lat="44.6687033" lon="10.602965"><ele>78.0</ele><time>2026-03-22T13:52:53.455Z</time></trkpt><trkpt lat="44.6687567" lon="10.603065"><ele>78.0</ele><time>2026-03-22T13:52:55.455Z</time></trkpt><trkpt lat="44.6688117" lon="10.603205"><ele>78.0</ele><time>2026-03-22T13:52:57.454Z</time></trkpt><trkpt lat="44.6688517" lon="10.6033583"><ele>78.0</ele><time>2026-03-22T13:52:59.455Z</time></trkpt><trkpt lat="44.6688717" lon="10.6035"><ele>78.0</ele><time>2026-03-22T13:53:01.454Z</time></trkpt><trkpt lat="44.6688867" lon="10.603635"><ele>78.16666666666667</ele><time>2026-03-22T13:53:03.454Z</time></trkpt><trkpt lat="44.6689" lon="10.6037783"><ele>78.33333333333333</ele><time>2026-03-22T13:53:05.454Z</time></trkpt><trkpt lat="44.6689017" lon="10.6039"><ele>78.5</ele><time>2026-03-22T13:53:07.454Z</time></trkpt><trkpt lat="44.6689" lon="10.60403"><ele>78.66666666666666</ele><time>2026-03-22T13:53:09.455Z</time></trkpt><trkpt lat="44.6688917" lon="10.6041233"><ele>78.83333333333333</ele><time>2026-03-22T13:53:11.455Z</time></trkpt><trkpt lat="44.6688883" lon="10.6042233"><ele>79.0</ele><time>2026-03-22T13:53:13.454Z</time></trkpt><trkpt lat="44.6688817" lon="10.60436"><ele>79.0</ele><time>2026-03-22T13:53:16.454Z</time></trkpt><trkpt lat="44.6688817" lon="10.604475"><ele>79.0</ele><time>2026-03-22T13:53:19.454Z</time></trkpt><trkpt lat="44.6688883" lon="10.60457"><ele>79.0</ele><time>2026-03-22T13:53:22.454Z</time></trkpt><trkpt lat="44.66889" lon="10.60466"><ele>79.0</ele><time>2026-03-22T13:53:24.454Z</time></trkpt><trkpt lat="44.6688967" lon="10.60475"><ele>79.0</ele><time>2026-03-22T13:53:26.454Z</time></trkpt><trkpt lat="44.6689033" lon="10.60488"><ele>79.0</ele><time>2026-03-22T13:53:29.454Z</time></trkpt><trkpt lat="44.66891" lon="10.605"><ele>78.60000000000001</ele><time>2026-03-22T13:53:31.455Z</time></trkpt><trkpt lat="44.66892" lon="10.605105"><ele>78.2</ele><time>2026-03-22T13:53:33.454Z</time></trkpt><trkpt lat="44.6689283" lon="10.6052"><ele>77.80000000000001</ele><time>2026-03-22T13:53:35.454Z</time></trkpt><trkpt lat="44.6689467" lon="10.6053267"><ele>77.4</ele><time>2026-03-22T13:53:37.454Z</time></trkpt><trkpt lat="44.6689617" lon="10.6054767"><ele>77.0</ele><time>2026-03-22T13:53:39.455Z</time></trkpt><trkpt lat="44.6689783" lon="10.6056283"><ele>76.8</ele><time>2026-03-22T13:53:41.455Z</time></trkpt><trkpt lat="44.66899" lon="10.6057667"><ele>76.6</ele><time>2026-03-22T13:53:43.454Z</time></trkpt><trkpt lat="44.6690033" lon="10.6058967"><ele>76.39999999999999</ele><time>2026-03-22T13:53:45.454Z</time></trkpt><trkpt lat="44.669005" lon="10.60604"><ele>76.2</ele><time>2026-03-22T13:53:47.455Z</time></trkpt><trkpt lat="44.669" lon="10.60619"><ele>76.0</ele><time>2026-03-22T13:53:49.454Z</time></trkpt><trkpt lat="44.669005" lon="10.6063333"><ele>75.8</ele><time>2026-03-22T13:53:51.455Z</time></trkpt><trkpt lat="44.669015" lon="10.6064617"><ele>75.6</ele><time>2026-03-22T13:53:53.454Z</time></trkpt><trkpt lat="44.6690367" lon="10.606605"><ele>75.4</ele><time>2026-03-22T13:53:55.454Z</time></trkpt><trkpt lat="44.6690517" lon="10.6067417"><ele>75.2</ele><time>2026-03-22T13:53:57.454Z</time></trkpt><trkpt lat="44.6690633" lon="10.6068733"><ele>75.0</ele><time>2026-03-22T13:53:59.454Z</time></trkpt><trkpt lat="44.6690783" lon="10.607"><ele>75.4</ele><time>2026-03-22T13:54:01.455Z</time></trkpt><trkpt lat="44.6690917" lon="10.6071233"><ele>75.8</ele><time>2026-03-22T13:54:03.454Z</time></trkpt><trkpt lat="44.669095" lon="10.6072517"><ele>76.2</ele><time>2026-03-22T13:54:05.454Z</time></trkpt><trkpt lat="44.6690967" lon="10.607385"><ele>76.6</ele><time>2026-03-22T13:54:07.454Z</time></trkpt><trkpt lat="44.6691017" lon="10.6075033"><ele>77.0</ele><time>2026-03-22T13:54:09.454Z</time></trkpt><trkpt lat="44.66912" lon="10.6076333"><ele>77.0</ele><time>2026-03-22T13:54:11.454Z</time></trkpt><trkpt lat="44.66914" lon="10.60778"><ele>77.0</ele><time>2026-03-22T13:54:13.454Z</time></trkpt><trkpt lat="44.669145" lon="10.6079167"><ele>77.0</ele><time>2026-03-22T13:54:15.454Z</time></trkpt><trkpt lat="44.6691517" lon="10.6080633"><ele>77.0</ele><time>2026-03-22T13:54:17.455Z</time></trkpt><trkpt lat="44.66917" lon="10.6081967"><ele>77.0</ele><time>2026-03-22T13:54:19.454Z</time></trkpt><trkpt lat="44.669175" lon="10.60834"><ele>76.6</ele><time>2026-03-22T13:54:21.454Z</time></trkpt><trkpt lat="44.669175" lon="10.6084867"><ele>76.2</ele><time>2026-03-22T13:54:23.455Z</time></trkpt><trkpt lat="44.6691833" lon="10.6086483"><ele>75.8</ele><time>2026-03-22T13:54:25.454Z</time></trkpt><trkpt lat="44.6691833" lon="10.60879"><ele>75.4</ele><time>2026-03-22T13:54:27.454Z</time></trkpt><trkpt lat="44.669205" lon="10.6089317"><ele>75.0</ele><time>2026-03-22T13:54:29.454Z</time></trkpt><trkpt lat="44.6692333" lon="10.6090617"><ele>74.8</ele><time>2026-03-22T13:54:31.454Z</time></trkpt><trkpt lat="44.669265" lon="10.6092017"><ele>74.6</ele><time>2026-03-22T13:54:33.454Z</time></trkpt><trkpt lat="44.6693033" lon="10.6093367"><ele>74.4</ele><time>2026-03-22T13:54:35.454Z</time></trkpt><trkpt lat="44.669345" lon="10.609465"><ele>74.2</ele><time>2026-03-22T13:54:37.455Z</time></trkpt><trkpt lat="44.6693833" lon="10.60959"><ele>74.0</ele><time>2026-03-22T13:54:39.454Z</time></trkpt><trkpt lat="44.6694217" lon="10.6097"><ele>74.0</ele><time>2026-03-22T13:54:41.455Z</time></trkpt><trkpt lat="44.66945" lon="10.6098083"><ele>74.0</ele><time>2026-03-22T13:54:43.454Z</time></trkpt><trkpt lat="44.6694917" lon="10.60992"><ele>74.0</ele><time>2026-03-22T13:54:45.455Z</time></trkpt><trkpt lat="44.6695383" lon="10.6100067"><ele>74.0</ele><time>2026-03-22T13:54:47.454Z</time></trkpt><trkpt lat="44.669585" lon="10.6101017"><ele>74.0</ele><time>2026-03-22T13:54:49.454Z</time></trkpt><trkpt lat="44.6696333" lon="10.610195"><ele>74.0</ele><time>2026-03-22T13:54:51.454Z</time></trkpt><trkpt lat="44.669685" lon="10.6102767"><ele>73.85714285714286</ele><time>2026-03-22T13:54:53.454Z</time></trkpt><trkpt lat="44.669735" lon="10.6103517"><ele>73.71428571428571</ele><time>2026-03-22T13:54:55.454Z</time></trkpt><trkpt lat="44.66979" lon="10.6104117"><ele>73.57142857142857</ele><time>2026-03-22T13:54:57.455Z</time></trkpt><trkpt lat="44.66985" lon="10.61048"><ele>73.42857142857143</ele><time>2026-03-22T13:54:59.454Z</time></trkpt><trkpt lat="44.6699133" lon="10.6105467"><ele>73.28571428571429</ele><time>2026-03-22T13:55:01.454Z</time></trkpt><trkpt lat="44.6699717" lon="10.6105983"><ele>73.14285714285714</ele><time>2026-03-22T13:55:03.454Z</time></trkpt><trkpt lat="44.670025" lon="10.6106533"><ele>73.0</ele><time>2026-03-22T13:55:05.455Z</time></trkpt><trkpt lat="44.6700783" lon="10.6107183"><ele>73.0</ele><time>2026-03-22T13:55:07.455Z</time></trkpt><trkpt lat="44.6701317" lon="10.6107883"><ele>73.0</ele><time>2026-03-22T13:55:09.454Z</time></trkpt><trkpt lat="44.6701867" lon="10.6108617"><ele>73.0</ele><time>2026-03-22T13:55:11.454Z</time></trkpt><trkpt lat="44.6702483" lon="10.6109383"><ele>73.0</ele><time>2026-03-22T13:55:13.454Z</time></trkpt><trkpt lat="44.6703117" lon="10.6110133"><ele>73.0</ele><time>2026-03-22T13:55:15.454Z</time></trkpt><trkpt lat="44.6703633" lon="10.6110867"><ele>73.0</ele><time>2026-03-22T13:55:17.455Z</time></trkpt><trkpt lat="44.670445" lon="10.6111617"><ele>72.66666666666666</ele><time>2026-03-22T13:55:20.454Z</time></trkpt><trkpt lat="44.6705017" lon="10.6112333"><ele>72.33333333333333</ele><time>2026-03-22T13:55:22.454Z</time></trkpt><trkpt lat="44.6705567" lon="10.611305"><ele>72.0</ele><time>2026-03-22T13:55:24.454Z</time></trkpt><trkpt lat="44.6706133" lon="10.6113933"><ele>71.66666666666667</ele><time>2026-03-22T13:55:26.454Z</time></trkpt><trkpt lat="44.6706817" lon="10.6114667"><ele>71.33333333333334</ele><time>2026-03-22T13:55:28.454Z</time></trkpt><trkpt lat="44.670755" lon="10.6115333"><ele>71.0</ele><time>2026-03-22T13:55:30.455Z</time></trkpt><trkpt lat="44.67083" lon="10.611595"><ele>71.0</ele><time>2026-03-22T13:55:32.454Z</time></trkpt><trkpt lat="44.6709033" lon="10.611665"><ele>71.0</ele><time>2026-03-22T13:55:34.454Z</time></trkpt><trkpt lat="44.67097" lon="10.61173"><ele>71.0</ele><time>2026-03-22T13:55:36.454Z</time></trkpt><trkpt lat="44.6710333" lon="10.6117867"><ele>71.0</ele><time>2026-03-22T13:55:38.454Z</time></trkpt><trkpt lat="44.6710867" lon="10.6118483"><ele>71.0</ele><time>2026-03-22T13:55:40.455Z</time></trkpt><trkpt lat="44.671135" lon="10.6119117"><ele>71.0</ele><time>2026-03-22T13:55:42.454Z</time></trkpt><trkpt lat="44.6711867" lon="10.611975"><ele>71.0</ele><time>2026-03-22T13:55:44.454Z</time></trkpt><trkpt lat="44.671235" lon="10.6120383"><ele>71.33333333333334</ele><time>2026-03-22T13:55:46.454Z</time></trkpt><trkpt lat="44.6712833" lon="10.6121083"><ele>71.66666666666667</ele><time>2026-03-22T13:55:48.454Z</time></trkpt><trkpt lat="44.6713233" lon="10.6121917"><ele>72.0</ele><time>2026-03-22T13:55:50.454Z</time></trkpt><trkpt lat="44.671365" lon="10.6122917"><ele>72.33333333333333</ele><time>2026-03-22T13:55:52.455Z</time></trkpt><trkpt lat="44.671405" lon="10.612375"><ele>72.66666666666666</ele><time>2026-03-22T13:55:54.454Z</time></trkpt><trkpt lat="44.6714567" lon="10.6124783"><ele>73.0</ele><time>2026-03-22T13:55:56.455Z</time></trkpt><trkpt lat="44.6715033" lon="10.612575"><ele>73.0</ele><time>2026-03-22T13:55:58.455Z</time></trkpt><trkpt lat="44.6715533" lon="10.612685"><ele>73.0</ele><time>2026-03-22T13:56:00.456Z</time></trkpt><trkpt lat="44.671595" lon="10.61278"><ele>73.0</ele><time>2026-03-22T13:56:02.456Z</time></trkpt><trkpt lat="44.6716383" lon="10.6129067"><ele>73.0</ele><time>2026-03-22T13:56:04.455Z</time></trkpt><trkpt lat="44.6717083" lon="10.61304"><ele>73.0</ele><time>2026-03-22T13:56:06.455Z</time></trkpt><trkpt lat="44.6717783" lon="10.6131533"><ele>73.0</ele><time>2026-03-22T13:56:08.456Z</time></trkpt><trkpt lat="44.67186" lon="10.6132483"><ele>73.0</ele><time>2026-03-22T13:56:10.455Z</time></trkpt><trkpt lat="44.6719483" lon="10.6133667"><ele>73.0</ele><time>2026-03-22T13:56:12.455Z</time></trkpt><trkpt lat="44.6720267" lon="10.6134917"><ele>73.0</ele><time>2026-03-22T13:56:14.456Z</time></trkpt><trkpt lat="44.672105" lon="10.613595"><ele>73.0</ele><time>2026-03-22T13:56:16.455Z</time></trkpt><trkpt lat="44.6721583" lon="10.6136933"><ele>73.0</ele><time>2026-03-22T13:56:18.455Z</time></trkpt><trkpt lat="44.6722017" lon="10.61382"><ele>73.0</ele><time>2026-03-22T13:56:20.455Z</time></trkpt><trkpt lat="44.672265" lon="10.6139417"><ele>73.0</ele><time>2026-03-22T13:56:22.455Z</time></trkpt><trkpt lat="44.6723433" lon="10.614085"><ele>73.0</ele><time>2026-03-22T13:56:24.455Z</time></trkpt><trkpt lat="44.672415" lon="10.6142033"><ele>73.0</ele><time>2026-03-22T13:56:26.455Z</time></trkpt><trkpt lat="44.6724583" lon="10.6143017"><ele>73.0</ele><time>2026-03-22T13:56:28.455Z</time></trkpt><trkpt lat="44.6725167" lon="10.614405"><ele>73.0</ele><time>2026-03-22T13:56:30.455Z</time></trkpt><trkpt lat="44.672575" lon="10.6145083"><ele>73.0</ele><time>2026-03-22T13:56:32.455Z</time></trkpt><trkpt lat="44.6726317" lon="10.6145983"><ele>73.0</ele><time>2026-03-22T13:56:34.456Z</time></trkpt><trkpt lat="44.6726983" lon="10.6147167"><ele>73.33333333333333</ele><time>2026-03-22T13:56:36.456Z</time></trkpt><trkpt lat="44.6727567" lon="10.614815"><ele>73.66666666666666</ele><time>2026-03-22T13:56:38.455Z</time></trkpt><trkpt lat="44.6728117" lon="10.6149167"><ele>74.0</ele><time>2026-03-22T13:56:40.455Z</time></trkpt><trkpt lat="44.6728367" lon="10.615"><ele>74.33333333333333</ele><time>2026-03-22T13:56:42.455Z</time></trkpt><trkpt lat="44.6728767" lon="10.615125"><ele>74.66666666666667</ele><time>2026-03-22T13:56:44.456Z</time></trkpt><trkpt lat="44.6729083" lon="10.6152233"><ele>75.0</ele><time>2026-03-22T13:56:46.456Z</time></trkpt><trkpt lat="44.67294" lon="10.615335"><ele>75.0</ele><time>2026-03-22T13:56:48.456Z</time></trkpt><trkpt lat="44.67298" lon="10.61544"><ele>75.0</ele><time>2026-03-22T13:56:50.455Z</time></trkpt><trkpt lat="44.6730117" lon="10.6155367"><ele>75.0</ele><time>2026-03-22T13:56:52.456Z</time></trkpt><trkpt lat="44.6730483" lon="10.6156583"><ele>75.0</ele><time>2026-03-22T13:56:54.456Z</time></trkpt><trkpt lat="44.6730817" lon="10.615755"><ele>75.0</ele><time>2026-03-22T13:56:56.455Z</time></trkpt><trkpt lat="44.67311" lon="10.6158517"><ele>75.0</ele><time>2026-03-22T13:56:58.455Z</time></trkpt><trkpt lat="44.673125" lon="10.6159517"><ele>75.0</ele><time>2026-03-22T13:57:00.456Z</time></trkpt><trkpt lat="44.6731433" lon="10.6160667"><ele>75.0</ele><time>2026-03-22T13:57:02.455Z</time></trkpt><trkpt lat="44.673165" lon="10.6161683"><ele>75.0</ele><time>2026-03-22T13:57:04.455Z</time></trkpt><trkpt lat="44.6732033" lon="10.6162867"><ele>75.0</ele><time>2026-03-22T13:57:06.455Z</time></trkpt><trkpt lat="44.673245" lon="10.61641"><ele>75.0</ele><time>2026-03-22T13:57:08.455Z</time></trkpt><trkpt lat="44.6732833" lon="10.6165467"><ele>74.2</ele><time>2026-03-22T13:57:10.455Z</time></trkpt><trkpt lat="44.6733183" lon="10.6166733"><ele>73.4</ele><time>2026-03-22T13:57:12.455Z</time></trkpt><trkpt lat="44.6733467" lon="10.6168117"><ele>72.6</ele><time>2026-03-22T13:57:14.455Z</time></trkpt><trkpt lat="44.6733783" lon="10.6169483"><ele>71.8</ele><time>2026-03-22T13:57:16.455Z</time></trkpt><trkpt lat="44.6734" lon="10.6170883"><ele>71.0</ele><time>2026-03-22T13:57:18.455Z</time></trkpt><trkpt lat="44.6734217" lon="10.6172333"><ele>70.8</ele><time>2026-03-22T13:57:20.455Z</time></trkpt><trkpt lat="44.6734417" lon="10.61738"><ele>70.6</ele><time>2026-03-22T13:57:22.455Z</time></trkpt><trkpt lat="44.6734583" lon="10.6175183"><ele>70.4</ele><time>2026-03-22T13:57:24.455Z</time></trkpt><trkpt lat="44.67349" lon="10.6176433"><ele>70.2</ele><time>2026-03-22T13:57:26.456Z</time></trkpt><trkpt lat="44.6735267" lon="10.6177533"><ele>70.0</ele><time>2026-03-22T13:57:28.455Z</time></trkpt><trkpt lat="44.6735583" lon="10.6178833"><ele>70.0</ele><time>2026-03-22T13:57:30.455Z</time></trkpt><trkpt lat="44.67359" lon="10.6180217"><ele>70.0</ele><time>2026-03-22T13:57:32.455Z</time></trkpt><trkpt lat="44.6736033" lon="10.6181533"><ele>70.0</ele><time>2026-03-22T13:57:34.455Z</time></trkpt><trkpt lat="44.6736317" lon="10.61827"><ele>70.0</ele><time>2026-03-22T13:57:36.456Z</time></trkpt><trkpt lat="44.67366" lon="10.6183733"><ele>70.0</ele><time>2026-03-22T13:57:38.456Z</time></trkpt><trkpt lat="44.6736817" lon="10.6184767"><ele>70.0</ele><time>2026-03-22T13:57:40.455Z</time></trkpt><trkpt lat="44.6737033" lon="10.6185933"><ele>70.33333333333333</ele><time>2026-03-22T13:57:42.455Z</time></trkpt><trkpt lat="44.6737317" lon="10.618695"><ele>70.66666666666666</ele><time>2026-03-22T13:57:44.456Z</time></trkpt><trkpt lat="44.6737417" lon="10.6187983"><ele>71.0</ele><time>2026-03-22T13:57:46.455Z</time></trkpt><trkpt lat="44.6737333" lon="10.6189017"><ele>71.33333333333333</ele><time>2026-03-22T13:57:48.455Z</time></trkpt><trkpt lat="44.673725" lon="10.6190083"><ele>71.66666666666667</ele><time>2026-03-22T13:57:50.455Z</time></trkpt><trkpt lat="44.6737317" lon="10.6191167"><ele>72.0</ele><time>2026-03-22T13:57:52.455Z</time></trkpt><trkpt lat="44.6737283" lon="10.6192183"><ele>72.0</ele><time>2026-03-22T13:57:54.456Z</time></trkpt><trkpt lat="44.6737417" lon="10.619335"><ele>72.0</ele><time>2026-03-22T13:57:56.455Z</time></trkpt><trkpt lat="44.6737533" lon="10.61947"><ele>72.0</ele><time>2026-03-22T13:57:58.455Z</time></trkpt><trkpt lat="44.673775" lon="10.6196217"><ele>72.0</ele><time>2026-03-22T13:58:00.455Z</time></trkpt><trkpt lat="44.67379" lon="10.6197717"><ele>72.0</ele><time>2026-03-22T13:58:02.455Z</time></trkpt><trkpt lat="44.6737983" lon="10.6199167"><ele>72.0</ele><time>2026-03-22T13:58:04.455Z</time></trkpt><trkpt lat="44.6738133" lon="10.62003"><ele>72.0</ele><time>2026-03-22T13:58:06.455Z</time></trkpt><trkpt lat="44.67385" lon="10.6201167"><ele>72.0</ele><time>2026-03-22T13:58:08.456Z</time></trkpt><trkpt lat="44.6738833" lon="10.6202083"><ele>72.0</ele><time>2026-03-22T13:58:10.455Z</time></trkpt><trkpt lat="44.6739067" lon="10.6203033"><ele>72.0</ele><time>2026-03-22T13:58:12.455Z</time></trkpt><trkpt lat="44.6739317" lon="10.620425"><ele>72.0</ele><time>2026-03-22T13:58:14.455Z</time></trkpt><trkpt lat="44.6739617" lon="10.6205283"><ele>72.0</ele><time>2026-03-22T13:58:16.455Z</time></trkpt><trkpt lat="44.673995" lon="10.6206433"><ele>72.0</ele><time>2026-03-22T13:58:18.455Z</time></trkpt><trkpt lat="44.674025" lon="10.6207733"><ele>72.0</ele><time>2026-03-22T13:58:20.455Z</time></trkpt><trkpt lat="44.6740383" lon="10.620905"><ele>72.0</ele><time>2026-03-22T13:58:22.455Z</time></trkpt><trkpt lat="44.6740467" lon="10.6210367"><ele>72.0</ele><time>2026-03-22T13:58:24.455Z</time></trkpt><trkpt lat="44.6740683" lon="10.6211867"><ele>71.66666666666667</ele><time>2026-03-22T13:58:26.455Z</time></trkpt><trkpt lat="44.6740867" lon="10.621275"><ele>71.33333333333333</ele><time>2026-03-22T13:58:27.456Z</time></trkpt><trkpt lat="44.6741017" lon="10.6213883"><ele>71.0</ele><time>2026-03-22T13:58:29.455Z</time></trkpt><trkpt lat="44.67412" lon="10.6215017"><ele>70.66666666666666</ele><time>2026-03-22T13:58:31.455Z</time></trkpt><trkpt lat="44.6741383" lon="10.6216067"><ele>70.33333333333333</ele><time>2026-03-22T13:58:33.455Z</time></trkpt><trkpt lat="44.6741467" lon="10.6217183"><ele>70.0</ele><time>2026-03-22T13:58:35.455Z</time></trkpt><trkpt lat="44.674155" lon="10.6218483"><ele>69.5</ele><time>2026-03-22T13:58:37.455Z</time></trkpt><trkpt lat="44.674155" lon="10.621985"><ele>69.0</ele><time>2026-03-22T13:58:39.456Z</time></trkpt><trkpt lat="44.674155" lon="10.622125"><ele>68.5</ele><time>2026-03-22T13:58:41.455Z</time></trkpt><trkpt lat="44.674155" lon="10.6222467"><ele>68.0</ele><time>2026-03-22T13:58:43.455Z</time></trkpt><trkpt lat="44.6741517" lon="10.6223517"><ele>67.5</ele><time>2026-03-22T13:58:45.455Z</time></trkpt><trkpt lat="44.674145" lon="10.622475"><ele>67.0</ele><time>2026-03-22T13:58:48.455Z</time></trkpt><trkpt lat="44.6741383" lon="10.6225817"><ele>67.0</ele><time>2026-03-22T13:58:51.455Z</time></trkpt><trkpt lat="44.6741083" lon="10.622695"><ele>67.0</ele><time>2026-03-22T13:58:54.456Z</time></trkpt><trkpt lat="44.6741" lon="10.6228217"><ele>67.0</ele><time>2026-03-22T13:58:57.455Z</time></trkpt><trkpt lat="44.6741117" lon="10.6229133"><ele>67.0</ele><time>2026-03-22T13:58:59.456Z</time></trkpt><trkpt lat="44.6741367" lon="10.62302"><ele>67.0</ele><time>2026-03-22T13:59:01.455Z</time></trkpt><trkpt lat="44.6741717" lon="10.62314"><ele>67.0</ele><time>2026-03-22T13:59:03.455Z</time></trkpt><trkpt lat="44.6741933" lon="10.6232817"><ele>67.0</ele><time>2026-03-22T13:59:05.455Z</time></trkpt><trkpt lat="44.6742317" lon="10.623395"><ele>67.0</ele><time>2026-03-22T13:59:07.455Z</time></trkpt><trkpt lat="44.6742817" lon="10.623505"><ele>67.0</ele><time>2026-03-22T13:59:09.455Z</time></trkpt><trkpt lat="44.6743283" lon="10.6236017"><ele>67.0</ele><time>2026-03-22T13:59:11.455Z</time></trkpt><trkpt lat="44.6743733" lon="10.6236933"><ele>67.0</ele><time>2026-03-22T13:59:13.455Z</time></trkpt><trkpt lat="44.6744267" lon="10.6237633"><ele>67.0</ele><time>2026-03-22T13:59:15.455Z</time></trkpt><trkpt lat="44.6744867" lon="10.62382"><ele>66.66666666666666</ele><time>2026-03-22T13:59:17.456Z</time></trkpt><trkpt lat="44.674565" lon="10.6238817"><ele>66.33333333333333</ele><time>2026-03-22T13:59:20.455Z</time></trkpt><trkpt lat="44.6746367" lon="10.62395"><ele>66.0</ele><time>2026-03-22T13:59:23.455Z</time></trkpt><trkpt lat="44.6746867" lon="10.6240067"><ele>65.66666666666667</ele><time>2026-03-22T13:59:25.455Z</time></trkpt><trkpt lat="44.67474" lon="10.6240683"><ele>65.33333333333334</ele><time>2026-03-22T13:59:27.455Z</time></trkpt><trkpt lat="44.6747883" lon="10.6241433"><ele>65.0</ele><time>2026-03-22T13:59:29.455Z</time></trkpt><trkpt lat="44.6748383" lon="10.624225"><ele>65.0</ele><time>2026-03-22T13:59:31.456Z</time></trkpt><trkpt lat="44.6748917" lon="10.6243083"><ele>65.0</ele><time>2026-03-22T13:59:33.455Z</time></trkpt><trkpt lat="44.6749533" lon="10.6244067"><ele>65.0</ele><time>2026-03-22T13:59:35.455Z</time></trkpt><trkpt lat="44.6750117" lon="10.6244983"><ele>65.0</ele><time>2026-03-22T13:59:37.455Z</time></trkpt><trkpt lat="44.675075" lon="10.624565"><ele>65.0</ele><time>2026-03-22T13:59:39.456Z</time></trkpt><trkpt lat="44.6751367" lon="10.6246233"><ele>65.0</ele><time>2026-03-22T13:59:41.456Z</time></trkpt><trkpt lat="44.6752" lon="10.6246867"><ele>65.16666666666667</ele><time>2026-03-22T13:59:43.455Z</time></trkpt><trkpt lat="44.675265" lon="10.6247467"><ele>65.33333333333334</ele><time>2026-03-22T13:59:45.455Z</time></trkpt><trkpt lat="44.6753383" lon="10.6248067"><ele>65.5</ele><time>2026-03-22T13:59:47.455Z</time></trkpt><trkpt lat="44.6754033" lon="10.6248517"><ele>65.66666666666667</ele><time>2026-03-22T13:59:49.455Z</time></trkpt><trkpt lat="44.6754717" lon="10.6248917"><ele>65.83333333333333</ele><time>2026-03-22T13:59:51.455Z</time></trkpt><trkpt lat="44.6755417" lon="10.62495"><ele>66.0</ele><time>2026-03-22T13:59:53.455Z</time></trkpt><trkpt lat="44.6756017" lon="10.6250233"><ele>66.16666666666667</ele><time>2026-03-22T13:59:55.455Z</time></trkpt><trkpt lat="44.6756533" lon="10.6250917"><ele>66.33333333333333</ele><time>2026-03-22T13:59:57.455Z</time></trkpt><trkpt lat="44.6757133" lon="10.6251633"><ele>66.5</ele><time>2026-03-22T13:59:59.455Z</time></trkpt><trkpt lat="44.675775" lon="10.6252233"><ele>66.66666666666666</ele><time>2026-03-22T14:00:01.455Z</time></trkpt><trkpt lat="44.6758533" lon="10.625275"><ele>66.83333333333333</ele><time>2026-03-22T14:00:03.455Z</time></trkpt><trkpt lat="44.6759383" lon="10.6253183"><ele>67.0</ele><time>2026-03-22T14:00:05.455Z</time></trkpt><trkpt lat="44.676035" lon="10.62533"><ele>67.0</ele><time>2026-03-22T14:00:07.455Z</time></trkpt><trkpt lat="44.6761417" lon="10.62534"><ele>67.0</ele><time>2026-03-22T14:00:09.456Z</time></trkpt><trkpt lat="44.676245" lon="10.6253517"><ele>67.0</ele><time>2026-03-22T14:00:11.455Z</time></trkpt><trkpt lat="44.67634" lon="10.6253567"><ele>67.0</ele><time>2026-03-22T14:00:13.455Z</time></trkpt><trkpt lat="44.6764317" lon="10.6253433"><ele>67.0</ele><time>2026-03-22T14:00:15.455Z</time></trkpt><trkpt lat="44.676525" lon="10.6253367"><ele>67.0</ele><time>2026-03-22T14:00:17.456Z</time></trkpt><trkpt lat="44.6766083" lon="10.6253383"><ele>67.0</ele><time>2026-03-22T14:00:19.455Z</time></trkpt><trkpt lat="44.6766967" lon="10.6253217"><ele>67.0</ele><time>2026-03-22T14:00:21.455Z</time></trkpt><trkpt lat="44.6767933" lon="10.6252967"><ele>67.0</ele><time>2026-03-22T14:00:23.455Z</time></trkpt><trkpt lat="44.6769017" lon="10.6252717"><ele>67.0</ele><time>2026-03-22T14:00:25.455Z</time></trkpt><trkpt lat="44.677" lon="10.6252283"><ele>66.33333333333333</ele><time>2026-03-22T14:00:27.455Z</time></trkpt><trkpt lat="44.6771017" lon="10.6252067"><ele>65.66666666666666</ele><time>2026-03-22T14:00:29.455Z</time></trkpt><trkpt lat="44.6771933" lon="10.6251917"><ele>65.0</ele><time>2026-03-22T14:00:31.455Z</time></trkpt><trkpt lat="44.6772817" lon="10.6251583"><ele>64.33333333333333</ele><time>2026-03-22T14:00:33.456Z</time></trkpt><trkpt lat="44.67736" lon="10.62511"><ele>63.666666666666664</ele><time>2026-03-22T14:00:35.455Z</time></trkpt><trkpt lat="44.67743" lon="10.62507"><ele>63.0</ele><time>2026-03-22T14:00:37.455Z</time></trkpt><trkpt lat="44.6775167" lon="10.6250283"><ele>63.0</ele><time>2026-03-22T14:00:39.455Z</time></trkpt><trkpt lat="44.6776017" lon="10.6249783"><ele>63.0</ele><time>2026-03-22T14:00:41.455Z</time></trkpt><trkpt lat="44.677685" lon="10.6249433"><ele>63.0</ele><time>2026-03-22T14:00:43.455Z</time></trkpt><trkpt lat="44.6777817" lon="10.62491"><ele>63.0</ele><time>2026-03-22T14:00:45.455Z</time></trkpt><trkpt lat="44.6778817" lon="10.6248867"><ele>63.0</ele><time>2026-03-22T14:00:47.455Z</time></trkpt><trkpt lat="44.677975" lon="10.6248567"><ele>63.166666666666664</ele><time>2026-03-22T14:00:49.455Z</time></trkpt><trkpt lat="44.6780617" lon="10.6248183"><ele>63.33333333333333</ele><time>2026-03-22T14:00:51.455Z</time></trkpt><trkpt lat="44.6781467" lon="10.6247733"><ele>63.5</ele><time>2026-03-22T14:00:53.455Z</time></trkpt><trkpt lat="44.6782167" lon="10.62473"><ele>63.666666666666664</ele><time>2026-03-22T14:00:55.455Z</time></trkpt><trkpt lat="44.6782917" lon="10.6247017"><ele>63.83333333333333</ele><time>2026-03-22T14:00:57.455Z</time></trkpt><trkpt lat="44.6783633" lon="10.624675"><ele>64.0</ele><time>2026-03-22T14:00:59.455Z</time></trkpt><trkpt lat="44.6784417" lon="10.6246517"><ele>63.99999999999999</ele><time>2026-03-22T14:01:02.456Z</time></trkpt><trkpt lat="44.6785067" lon="10.62463"><ele>64.0</ele><time>2026-03-22T14:01:06.455Z</time></trkpt><trkpt lat="44.6785917" lon="10.6245967"><ele>64.0</ele><time>2026-03-22T14:01:09.455Z</time></trkpt><trkpt lat="44.6786583" lon="10.624585"><ele>64.0</ele><time>2026-03-22T14:01:11.455Z</time></trkpt><trkpt lat="44.67873" lon="10.62456"><ele>63.99999999999999</ele><time>2026-03-22T14:01:13.455Z</time></trkpt><trkpt lat="44.6788017" lon="10.6245167"><ele>64.0</ele><time>2026-03-22T14:01:15.456Z</time></trkpt><trkpt lat="44.67888" lon="10.62447"><ele>64.16666666666666</ele><time>2026-03-22T14:01:17.455Z</time></trkpt><trkpt lat="44.6789567" lon="10.6244333"><ele>64.33333333333333</ele><time>2026-03-22T14:01:19.455Z</time></trkpt><trkpt lat="44.679025" lon="10.6244"><ele>64.5</ele><time>2026-03-22T14:01:21.455Z</time></trkpt><trkpt lat="44.6791117" lon="10.6243517"><ele>64.66666666666667</ele><time>2026-03-22T14:01:24.455Z</time></trkpt><trkpt lat="44.6791817" lon="10.6243183"><ele>64.83333333333334</ele><time>2026-03-22T14:01:26.456Z</time></trkpt><trkpt lat="44.67928" lon="10.624295"><ele>65.0</ele><time>2026-03-22T14:01:28.455Z</time></trkpt><trkpt lat="44.6793833" lon="10.6242667"><ele>65.0</ele><time>2026-03-22T14:01:30.455Z</time></trkpt><trkpt lat="44.6794667" lon="10.6242467"><ele>65.0</ele><time>2026-03-22T14:01:32.455Z</time></trkpt><trkpt lat="44.6795417" lon="10.62421"><ele>65.0</ele><time>2026-03-22T14:01:34.455Z</time></trkpt><trkpt lat="44.6796217" lon="10.6241867"><ele>65.0</ele><time>2026-03-22T14:01:36.456Z</time></trkpt><trkpt lat="44.6797033" lon="10.6241617"><ele>65.0</ele><time>2026-03-22T14:01:38.455Z</time></trkpt><trkpt lat="44.679785" lon="10.6241317"><ele>65.0</ele><time>2026-03-22T14:01:40.455Z</time></trkpt><trkpt lat="44.6798683" lon="10.6240967"><ele>65.0</ele><time>2026-03-22T14:01:42.455Z</time></trkpt><trkpt lat="44.6799483" lon="10.6240617"><ele>65.0</ele><time>2026-03-22T14:01:44.455Z</time></trkpt><trkpt lat="44.6800483" lon="10.624025"><ele>65.0</ele><time>2026-03-22T14:01:46.455Z</time></trkpt><trkpt lat="44.6801433" lon="10.6239883"><ele>65.0</ele><time>2026-03-22T14:01:48.455Z</time></trkpt><trkpt lat="44.68022" lon="10.6239467"><ele>65.0</ele><time>2026-03-22T14:01:50.455Z</time></trkpt><trkpt lat="44.68029" lon="10.6239033"><ele>65.0</ele><time>2026-03-22T14:01:52.455Z</time></trkpt><trkpt lat="44.6803633" lon="10.6238667"><ele>65.2</ele><time>2026-03-22T14:01:54.455Z</time></trkpt><trkpt lat="44.6804383" lon="10.6238233"><ele>65.4</ele><time>2026-03-22T14:01:56.455Z</time></trkpt><trkpt lat="44.6805183" lon="10.623785"><ele>65.6</ele><time>2026-03-22T14:01:58.455Z</time></trkpt><trkpt lat="44.6806033" lon="10.6237583"><ele>65.8</ele><time>2026-03-22T14:02:00.456Z</time></trkpt><trkpt lat="44.6807017" lon="10.6237283"><ele>66.0</ele><time>2026-03-22T14:02:02.455Z</time></trkpt><trkpt lat="44.6807933" lon="10.6236833"><ele>66.0</ele><time>2026-03-22T14:02:04.455Z</time></trkpt><trkpt lat="44.680895" lon="10.6236467"><ele>66.0</ele><time>2026-03-22T14:02:06.455Z</time></trkpt><trkpt lat="44.6809867" lon="10.6236167"><ele>66.0</ele><time>2026-03-22T14:02:08.455Z</time></trkpt><trkpt lat="44.68108" lon="10.6235733"><ele>66.0</ele><time>2026-03-22T14:02:10.455Z</time></trkpt><trkpt lat="44.6811667" lon="10.6235333"><ele>66.0</ele><time>2026-03-22T14:02:12.455Z</time></trkpt><trkpt lat="44.6812483" lon="10.623505"><ele>65.8</ele><time>2026-03-22T14:02:14.456Z</time></trkpt><trkpt lat="44.6813367" lon="10.6234667"><ele>65.6</ele><time>2026-03-22T14:02:16.455Z</time></trkpt><trkpt lat="44.6814233" lon="10.62344"><ele>65.4</ele><time>2026-03-22T14:02:18.455Z</time></trkpt><trkpt lat="44.6815033" lon="10.6234183"><ele>65.2</ele><time>2026-03-22T14:02:20.455Z</time></trkpt><trkpt lat="44.6816" lon="10.6233883"><ele>65.0</ele><time>2026-03-22T14:02:22.456Z</time></trkpt><trkpt lat="44.6817033" lon="10.6233633"><ele>65.0</ele><time>2026-03-22T14:02:24.455Z</time></trkpt><trkpt lat="44.6817883" lon="10.62332"><ele>65.0</ele><time>2026-03-22T14:02:26.456Z</time></trkpt><trkpt lat="44.6818883" lon="10.6232717"><ele>65.0</ele><time>2026-03-22T14:02:28.455Z</time></trkpt><trkpt lat="44.6819817" lon="10.62322"><ele>65.0</ele><time>2026-03-22T14:02:30.455Z</time></trkpt><trkpt lat="44.6820733" lon="10.62318"><ele>65.0</ele><time>2026-03-22T14:02:32.455Z</time></trkpt><trkpt lat="44.68215" lon="10.6231567"><ele>65.0</ele><time>2026-03-22T14:02:34.455Z</time></trkpt><trkpt lat="44.682245" lon="10.6231083"><ele>65.0</ele><time>2026-03-22T14:02:37.456Z</time></trkpt><trkpt lat="44.6823233" lon="10.6230783"><ele>65.0</ele><time>2026-03-22T14:02:39.456Z</time></trkpt><trkpt lat="44.6824" lon="10.6230533"><ele>65.0</ele><time>2026-03-22T14:02:41.455Z</time></trkpt><trkpt lat="44.68248" lon="10.6230233"><ele>65.0</ele><time>2026-03-22T14:02:43.455Z</time></trkpt><trkpt lat="44.6825633" lon="10.62299"><ele>65.0</ele><time>2026-03-22T14:02:45.455Z</time></trkpt><trkpt lat="44.6826483" lon="10.622975"><ele>65.0</ele><time>2026-03-22T14:02:47.455Z</time></trkpt><trkpt lat="44.6827333" lon="10.62296"><ele>65.0</ele><time>2026-03-22T14:02:49.455Z</time></trkpt><trkpt lat="44.6828167" lon="10.6229283"><ele>65.0</ele><time>2026-03-22T14:02:51.455Z</time></trkpt><trkpt lat="44.6829017" lon="10.6228983"><ele>65.0</ele><time>2026-03-22T14:02:53.455Z</time></trkpt><trkpt lat="44.6829783" lon="10.6228583"><ele>65.0</ele><time>2026-03-22T14:02:55.455Z</time></trkpt><trkpt lat="44.683045" lon="10.6228283"><ele>65.0</ele><time>2026-03-22T14:02:57.456Z</time></trkpt><trkpt lat="44.6831133" lon="10.6227967"><ele>65.00000000000001</ele><time>2026-03-22T14:02:59.456Z</time></trkpt><trkpt lat="44.6831833" lon="10.622775"><ele>65.0</ele><time>2026-03-22T14:03:01.455Z</time></trkpt><trkpt lat="44.6832483" lon="10.62274"><ele>65.0</ele><time>2026-03-22T14:03:03.455Z</time></trkpt><trkpt lat="44.6833133" lon="10.6227017"><ele>65.0</ele><time>2026-03-22T14:03:05.455Z</time></trkpt><trkpt lat="44.6833683" lon="10.6226483"><ele>65.0</ele><time>2026-03-22T14:03:07.455Z</time></trkpt><trkpt lat="44.6834217" lon="10.6225667"><ele>65.00000000000001</ele><time>2026-03-22T14:03:11.455Z</time></trkpt><trkpt lat="44.683485" lon="10.622595"><ele>65.0</ele><time>2026-03-22T14:03:31.455Z</time></trkpt><trkpt lat="44.68355" lon="10.6225117"><ele>64.83333333333334</ele><time>2026-03-22T14:04:29.456Z</time></trkpt><trkpt lat="44.683615" lon="10.6224617"><ele>64.66666666666667</ele><time>2026-03-22T14:04:31.456Z</time></trkpt><trkpt lat="44.6836967" lon="10.622445"><ele>64.5</ele><time>2026-03-22T14:04:33.455Z</time></trkpt><trkpt lat="44.68378" lon="10.6224483"><ele>64.33333333333333</ele><time>2026-03-22T14:04:35.455Z</time></trkpt><trkpt lat="44.683875" lon="10.62245"><ele>64.16666666666666</ele><time>2026-03-22T14:04:37.455Z</time></trkpt><trkpt lat="44.6839633" lon="10.6224567"><ele>64.0</ele><time>2026-03-22T14:04:39.455Z</time></trkpt><trkpt lat="44.6840367" lon="10.622455"><ele>64.0</ele><time>2026-03-22T14:04:41.455Z</time></trkpt><trkpt lat="44.6841017" lon="10.62245"><ele>63.99999999999999</ele><time>2026-03-22T14:04:43.455Z</time></trkpt><trkpt lat="44.684175" lon="10.6224417"><ele>64.0</ele><time>2026-03-22T14:04:45.455Z</time></trkpt><trkpt lat="44.6842517" lon="10.622435"><ele>64.0</ele><time>2026-03-22T14:04:47.456Z</time></trkpt><trkpt lat="44.6843283" lon="10.6224217"><ele>63.99999999999999</ele><time>2026-03-22T14:04:49.456Z</time></trkpt><trkpt lat="44.6843983" lon="10.6223983"><ele>64.0</ele><time>2026-03-22T14:04:51.455Z</time></trkpt><trkpt lat="44.684475" lon="10.6223733"><ele>64.0</ele><time>2026-03-22T14:04:53.455Z</time></trkpt><trkpt lat="44.6845467" lon="10.622355"><ele>63.99999999999999</ele><time>2026-03-22T14:04:55.455Z</time></trkpt><trkpt lat="44.6846317" lon="10.6223317"><ele>64.0</ele><time>2026-03-22T14:04:57.456Z</time></trkpt><trkpt lat="44.6847117" lon="10.6223217"><ele>64.0</ele><time>2026-03-22T14:04:59.455Z</time></trkpt><trkpt lat="44.6847883" lon="10.6223"><ele>64.0</ele><time>2026-03-22T14:05:01.455Z</time></trkpt><trkpt lat="44.6848533" lon="10.6222717"><ele>63.99999999999999</ele><time>2026-03-22T14:05:03.455Z</time></trkpt><trkpt lat="44.684935" lon="10.6222367"><ele>64.0</ele><time>2026-03-22T14:05:05.455Z</time></trkpt><trkpt lat="44.685025" lon="10.6221983"><ele>63.99999999999999</ele><time>2026-03-22T14:05:07.455Z</time></trkpt><trkpt lat="44.6851033" lon="10.6221683"><ele>64.0</ele><time>2026-03-22T14:05:10.455Z</time></trkpt><trkpt lat="44.685185" lon="10.62214"><ele>64.0</ele><time>2026-03-22T14:05:13.455Z</time></trkpt><trkpt lat="44.6852533" lon="10.6221167"><ele>64.0</ele><time>2026-03-22T14:05:16.455Z</time></trkpt><trkpt lat="44.68532" lon="10.622095"><ele>63.99999999999999</ele><time>2026-03-22T14:05:19.455Z</time></trkpt><trkpt lat="44.6854067" lon="10.6220667"><ele>64.0</ele><time>2026-03-22T14:05:22.455Z</time></trkpt><trkpt lat="44.6854833" lon="10.6220483"><ele>64.4</ele><time>2026-03-22T14:05:24.455Z</time></trkpt><trkpt lat="44.6855667" lon="10.6220333"><ele>64.80000000000001</ele><time>2026-03-22T14:05:26.455Z</time></trkpt><trkpt lat="44.6856617" lon="10.622015"><ele>65.19999999999999</ele><time>2026-03-22T14:05:28.455Z</time></trkpt><trkpt lat="44.68575" lon="10.6219883"><ele>65.6</ele><time>2026-03-22T14:05:30.455Z</time></trkpt><trkpt lat="44.685845" lon="10.6219667"><ele>66.0</ele><time>2026-03-22T14:05:32.456Z</time></trkpt><trkpt lat="44.6859367" lon="10.6219433"><ele>66.0</ele><time>2026-03-22T14:05:34.455Z</time></trkpt><trkpt lat="44.6860317" lon="10.62191"><ele>66.0</ele><time>2026-03-22T14:05:36.456Z</time></trkpt><trkpt lat="44.68613" lon="10.62188"><ele>66.0</ele><time>2026-03-22T14:05:38.455Z</time></trkpt><trkpt lat="44.6862017" lon="10.6218617"><ele>66.0</ele><time>2026-03-22T14:05:39.455Z</time></trkpt><trkpt lat="44.6863" lon="10.6218317"><ele>66.0</ele><time>2026-03-22T14:05:41.455Z</time></trkpt><trkpt lat="44.6864133" lon="10.621785"><ele>65.6</ele><time>2026-03-22T14:05:43.455Z</time></trkpt><trkpt lat="44.6865217" lon="10.62176"><ele>65.19999999999999</ele><time>2026-03-22T14:05:45.455Z</time></trkpt><trkpt lat="44.686615" lon="10.6217267"><ele>64.80000000000001</ele><time>2026-03-22T14:05:47.455Z</time></trkpt><trkpt lat="44.6867167" lon="10.6217067"><ele>64.4</ele><time>2026-03-22T14:05:49.455Z</time></trkpt><trkpt lat="44.6868233" lon="10.6216833"><ele>64.0</ele><time>2026-03-22T14:05:51.455Z</time></trkpt><trkpt lat="44.686925" lon="10.62166"><ele>63.6</ele><time>2026-03-22T14:05:53.455Z</time></trkpt><trkpt lat="44.6870217" lon="10.6216283"><ele>63.2</ele><time>2026-03-22T14:05:55.455Z</time></trkpt><trkpt lat="44.6871183" lon="10.6215883"><ele>62.800000000000004</ele><time>2026-03-22T14:05:57.455Z</time></trkpt><trkpt lat="44.687225" lon="10.6215533"><ele>62.400000000000006</ele><time>2026-03-22T14:05:59.455Z</time></trkpt><trkpt lat="44.687335" lon="10.6215083"><ele>62.0</ele><time>2026-03-22T14:06:01.456Z</time></trkpt><trkpt lat="44.6874383" lon="10.62148"><ele>62.0</ele><time>2026-03-22T14:06:03.455Z</time></trkpt><trkpt lat="44.6875417" lon="10.6214683"><ele>62.0</ele><time>2026-03-22T14:06:05.456Z</time></trkpt><trkpt lat="44.687645" lon="10.6214483"><ele>62.0</ele><time>2026-03-22T14:06:07.455Z</time></trkpt><trkpt lat="44.6877483" lon="10.62143"><ele>62.0</ele><time>2026-03-22T14:06:09.456Z</time></trkpt><trkpt lat="44.6878367" lon="10.6214083"><ele>62.0</ele><time>2026-03-22T14:06:11.455Z</time></trkpt><trkpt lat="44.6879183" lon="10.6213967"><ele>62.333333333333336</ele><time>2026-03-22T14:06:13.455Z</time></trkpt><trkpt lat="44.6879917" lon="10.6213767"><ele>62.66666666666667</ele><time>2026-03-22T14:06:15.455Z</time></trkpt><trkpt lat="44.6880667" lon="10.621355"><ele>63.0</ele><time>2026-03-22T14:06:17.455Z</time></trkpt><trkpt lat="44.68815" lon="10.62133"><ele>63.33333333333333</ele><time>2026-03-22T14:06:19.455Z</time></trkpt><trkpt lat="44.6882383" lon="10.6213017"><ele>63.666666666666664</ele><time>2026-03-22T14:06:21.456Z</time></trkpt><trkpt lat="44.68833" lon="10.6212717"><ele>64.0</ele><time>2026-03-22T14:06:23.455Z</time></trkpt><trkpt lat="44.6884033" lon="10.6212383"><ele>63.99999999999999</ele><time>2026-03-22T14:06:25.455Z</time></trkpt><trkpt lat="44.6884883" lon="10.6212067"><ele>64.0</ele><time>2026-03-22T14:06:27.455Z</time></trkpt><trkpt lat="44.6885767" lon="10.6211817"><ele>64.0</ele><time>2026-03-22T14:06:29.455Z</time></trkpt><trkpt lat="44.6886683" lon="10.6211383"><ele>64.0</ele><time>2026-03-22T14:06:31.455Z</time></trkpt><trkpt lat="44.688755" lon="10.6211"><ele>63.99999999999999</ele><time>2026-03-22T14:06:33.455Z</time></trkpt><trkpt lat="44.688835" lon="10.62107"><ele>64.0</ele><time>2026-03-22T14:06:35.455Z</time></trkpt><trkpt lat="44.688925" lon="10.6210517"><ele>63.83333333333333</ele><time>2026-03-22T14:06:37.455Z</time></trkpt><trkpt lat="44.6890033" lon="10.6210217"><ele>63.666666666666664</ele><time>2026-03-22T14:06:39.456Z</time></trkpt><trkpt lat="44.6890783" lon="10.6209883"><ele>63.5</ele><time>2026-03-22T14:06:41.456Z</time></trkpt><trkpt lat="44.689145" lon="10.6209617"><ele>63.33333333333333</ele><time>2026-03-22T14:06:43.456Z</time></trkpt><trkpt lat="44.6892083" lon="10.6209333"><ele>63.166666666666664</ele><time>2026-03-22T14:06:45.457Z</time></trkpt><trkpt lat="44.6892983" lon="10.6208867"><ele>63.0</ele><time>2026-03-22T14:06:47.456Z</time></trkpt><trkpt lat="44.68938" lon="10.62084"><ele>62.833333333333336</ele><time>2026-03-22T14:06:49.456Z</time></trkpt><trkpt lat="44.68945" lon="10.6207883"><ele>62.66666666666667</ele><time>2026-03-22T14:06:51.456Z</time></trkpt><trkpt lat="44.6895133" lon="10.6207517"><ele>62.5</ele><time>2026-03-22T14:06:53.456Z</time></trkpt><trkpt lat="44.6895683" lon="10.6206833"><ele>62.333333333333336</ele><time>2026-03-22T14:06:55.456Z</time></trkpt><trkpt lat="44.689625" lon="10.6206267"><ele>62.16666666666667</ele><time>2026-03-22T14:06:57.457Z</time></trkpt><trkpt lat="44.68971" lon="10.6205917"><ele>62.0</ele><time>2026-03-22T14:06:59.456Z</time></trkpt><trkpt lat="44.6897933" lon="10.6205533"><ele>62.00000000000001</ele><time>2026-03-22T14:07:01.456Z</time></trkpt><trkpt lat="44.6898683" lon="10.6205383"><ele>62.0</ele><time>2026-03-22T14:07:03.456Z</time></trkpt><trkpt lat="44.6899433" lon="10.6205167"><ele>62.0</ele><time>2026-03-22T14:07:05.457Z</time></trkpt><trkpt lat="44.690025" lon="10.620505"><ele>62.0</ele><time>2026-03-22T14:07:07.456Z</time></trkpt><trkpt lat="44.6901067" lon="10.6204817"><ele>62.00000000000001</ele><time>2026-03-22T14:07:09.456Z</time></trkpt><trkpt lat="44.6901767" lon="10.6204283"><ele>62.0</ele><time>2026-03-22T14:07:11.456Z</time></trkpt><trkpt lat="44.6902267" lon="10.6203717"><ele>61.50000000000001</ele><time>2026-03-22T14:07:13.457Z</time></trkpt><trkpt lat="44.6903067" lon="10.6203033"><ele>61.0</ele><time>2026-03-22T14:07:16.457Z</time></trkpt><trkpt lat="44.69039" lon="10.6202683"><ele>60.5</ele><time>2026-03-22T14:07:19.456Z</time></trkpt><trkpt lat="44.69046" lon="10.6202417"><ele>60.0</ele><time>2026-03-22T14:07:22.456Z</time></trkpt><trkpt lat="44.690515" lon="10.6201633"><ele>59.50000000000001</ele><time>2026-03-22T14:07:27.456Z</time></trkpt><trkpt lat="44.6905533" lon="10.6200583"><ele>59.0</ele><time>2026-03-22T14:07:31.457Z</time></trkpt><trkpt lat="44.690575" lon="10.61997"><ele>59.00000000000001</ele><time>2026-03-22T14:07:34.457Z</time></trkpt><trkpt lat="44.6906517" lon="10.6199367"><ele>59.0</ele><time>2026-03-22T14:07:37.456Z</time></trkpt><trkpt lat="44.6907367" lon="10.61992"><ele>59.0</ele><time>2026-03-22T14:07:40.456Z</time></trkpt><trkpt lat="44.69081" lon="10.6198983"><ele>59.0</ele><time>2026-03-22T14:07:42.456Z</time></trkpt><trkpt lat="44.6908917" lon="10.6198733"><ele>59.00000000000001</ele><time>2026-03-22T14:07:44.456Z</time></trkpt><trkpt lat="44.6909867" lon="10.6198717"><ele>59.0</ele><time>2026-03-22T14:07:46.456Z</time></trkpt><trkpt lat="44.6910783" lon="10.6199133"><ele>59.16666666666667</ele><time>2026-03-22T14:07:48.456Z</time></trkpt><trkpt lat="44.691165" lon="10.6199583"><ele>59.333333333333336</ele><time>2026-03-22T14:07:50.456Z</time></trkpt><trkpt lat="44.6912517" lon="10.6199983"><ele>59.5</ele><time>2026-03-22T14:07:52.457Z</time></trkpt><trkpt lat="44.6913367" lon="10.62005"><ele>59.66666666666667</ele><time>2026-03-22T14:07:54.456Z</time></trkpt><trkpt lat="44.69141" lon="10.62008"><ele>59.833333333333336</ele><time>2026-03-22T14:07:56.456Z</time></trkpt><trkpt lat="44.6914883" lon="10.6201133"><ele>60.0</ele><time>2026-03-22T14:07:58.456Z</time></trkpt><trkpt lat="44.6915667" lon="10.6201433"><ele>60.0</ele><time>2026-03-22T14:08:00.456Z</time></trkpt><trkpt lat="44.6916467" lon="10.6201717"><ele>60.0</ele><time>2026-03-22T14:08:02.456Z</time></trkpt><trkpt lat="44.6917317" lon="10.6201783"><ele>60.0</ele><time>2026-03-22T14:08:04.457Z</time></trkpt><trkpt lat="44.6918133" lon="10.6201717"><ele>60.0</ele><time>2026-03-22T14:08:06.457Z</time></trkpt><trkpt lat="44.691895" lon="10.6201567"><ele>60.0</ele><time>2026-03-22T14:08:08.456Z</time></trkpt><trkpt lat="44.6919917" lon="10.620135"><ele>60.0</ele><time>2026-03-22T14:08:10.456Z</time></trkpt><trkpt lat="44.692085" lon="10.6201067"><ele>59.8</ele><time>2026-03-22T14:08:12.457Z</time></trkpt><trkpt lat="44.69218" lon="10.6200733"><ele>59.6</ele><time>2026-03-22T14:08:14.456Z</time></trkpt><trkpt lat="44.6922633" lon="10.62003"><ele>59.400000000000006</ele><time>2026-03-22T14:08:16.456Z</time></trkpt><trkpt lat="44.6923533" lon="10.6199817"><ele>59.2</ele><time>2026-03-22T14:08:18.456Z</time></trkpt><trkpt lat="44.69245" lon="10.61994"><ele>59.0</ele><time>2026-03-22T14:08:20.456Z</time></trkpt><trkpt lat="44.6925483" lon="10.6198917"><ele>59.0</ele><time>2026-03-22T14:08:22.457Z</time></trkpt><trkpt lat="44.6926467" lon="10.6198517"><ele>59.00000000000001</ele><time>2026-03-22T14:08:24.456Z</time></trkpt><trkpt lat="44.6927333" lon="10.6198183"><ele>59.00000000000001</ele><time>2026-03-22T14:08:26.456Z</time></trkpt><trkpt lat="44.69282" lon="10.6197983"><ele>59.0</ele><time>2026-03-22T14:08:28.456Z</time></trkpt><trkpt lat="44.6929083" lon="10.61978"><ele>59.0</ele><time>2026-03-22T14:08:30.456Z</time></trkpt><trkpt lat="44.6929967" lon="10.61975"><ele>58.400000000000006</ele><time>2026-03-22T14:08:32.456Z</time></trkpt><trkpt lat="44.693095" lon="10.61973"><ele>57.800000000000004</ele><time>2026-03-22T14:08:34.456Z</time></trkpt><trkpt lat="44.69319" lon="10.6196917"><ele>57.199999999999996</ele><time>2026-03-22T14:08:36.456Z</time></trkpt><trkpt lat="44.6932867" lon="10.619655"><ele>56.599999999999994</ele><time>2026-03-22T14:08:38.456Z</time></trkpt><trkpt lat="44.693375" lon="10.6196167"><ele>56.0</ele><time>2026-03-22T14:08:40.456Z</time></trkpt><trkpt lat="44.6934683" lon="10.619595"><ele>56.0</ele><time>2026-03-22T14:08:42.456Z</time></trkpt><trkpt lat="44.6935533" lon="10.6195667"><ele>55.99999999999999</ele><time>2026-03-22T14:08:44.456Z</time></trkpt><trkpt lat="44.69365" lon="10.619535"><ele>55.99999999999999</ele><time>2026-03-22T14:08:46.456Z</time></trkpt><trkpt lat="44.6937467" lon="10.6195117"><ele>56.0</ele><time>2026-03-22T14:08:48.456Z</time></trkpt><trkpt lat="44.69383" lon="10.6194767"><ele>56.0</ele><time>2026-03-22T14:08:50.456Z</time></trkpt><trkpt lat="44.6939117" lon="10.6194433"><ele>56.4</ele><time>2026-03-22T14:08:52.457Z</time></trkpt><trkpt lat="44.6940017" lon="10.6194017"><ele>56.8</ele><time>2026-03-22T14:08:54.457Z</time></trkpt><trkpt lat="44.6940933" lon="10.6193817"><ele>57.199999999999996</ele><time>2026-03-22T14:08:56.457Z</time></trkpt><trkpt lat="44.694185" lon="10.6193633"><ele>57.599999999999994</ele><time>2026-03-22T14:08:58.456Z</time></trkpt><trkpt lat="44.6942817" lon="10.6193317"><ele>58.0</ele><time>2026-03-22T14:09:00.456Z</time></trkpt><trkpt lat="44.6943633" lon="10.6193"><ele>57.599999999999994</ele><time>2026-03-22T14:09:02.456Z</time></trkpt><trkpt lat="44.6944567" lon="10.6192783"><ele>57.199999999999996</ele><time>2026-03-22T14:09:04.456Z</time></trkpt><trkpt lat="44.694565" lon="10.6192717"><ele>56.8</ele><time>2026-03-22T14:09:06.456Z</time></trkpt><trkpt lat="44.694675" lon="10.6192467"><ele>56.4</ele><time>2026-03-22T14:09:08.456Z</time></trkpt><trkpt lat="44.69477" lon="10.6192167"><ele>56.0</ele><time>2026-03-22T14:09:10.456Z</time></trkpt><trkpt lat="44.6948667" lon="10.61919"><ele>56.0</ele><time>2026-03-22T14:09:12.456Z</time></trkpt><trkpt lat="44.6949567" lon="10.6191517"><ele>55.99999999999999</ele><time>2026-03-22T14:09:14.456Z</time></trkpt><trkpt lat="44.6950583" lon="10.6191217"><ele>55.99999999999999</ele><time>2026-03-22T14:09:16.456Z</time></trkpt><trkpt lat="44.69517" lon="10.6191067"><ele>56.0</ele><time>2026-03-22T14:09:18.456Z</time></trkpt><trkpt lat="44.69528" lon="10.6190833"><ele>56.0</ele><time>2026-03-22T14:09:20.456Z</time></trkpt><trkpt lat="44.6953867" lon="10.6190717"><ele>55.599999999999994</ele><time>2026-03-22T14:09:22.456Z</time></trkpt><trkpt lat="44.6954867" lon="10.6190467"><ele>55.199999999999996</ele><time>2026-03-22T14:09:24.456Z</time></trkpt><trkpt lat="44.6955883" lon="10.6190117"><ele>54.800000000000004</ele><time>2026-03-22T14:09:26.457Z</time></trkpt><trkpt lat="44.695685" lon="10.6189733"><ele>54.400000000000006</ele><time>2026-03-22T14:09:28.456Z</time></trkpt><trkpt lat="44.6957833" lon="10.6189367"><ele>54.0</ele><time>2026-03-22T14:09:30.456Z</time></trkpt><trkpt lat="44.69588" lon="10.6189067"><ele>54.0</ele><time>2026-03-22T14:09:32.456Z</time></trkpt><trkpt lat="44.69598" lon="10.6188733"><ele>54.00000000000001</ele><time>2026-03-22T14:09:34.456Z</time></trkpt><trkpt lat="44.696095" lon="10.618855"><ele>54.00000000000001</ele><time>2026-03-22T14:09:36.456Z</time></trkpt><trkpt lat="44.6962117" lon="10.6188367"><ele>54.0</ele><time>2026-03-22T14:09:38.456Z</time></trkpt><trkpt lat="44.6963183" lon="10.6188067"><ele>54.0</ele><time>2026-03-22T14:09:40.457Z</time></trkpt><trkpt lat="44.696425" lon="10.6187717"><ele>54.400000000000006</ele><time>2026-03-22T14:09:42.456Z</time></trkpt><trkpt lat="44.69653" lon="10.6187333"><ele>54.800000000000004</ele><time>2026-03-22T14:09:44.456Z</time></trkpt><trkpt lat="44.696645" lon="10.6187033"><ele>55.199999999999996</ele><time>2026-03-22T14:09:46.456Z</time></trkpt><trkpt lat="44.6967383" lon="10.6186617"><ele>55.599999999999994</ele><time>2026-03-22T14:09:48.456Z</time></trkpt><trkpt lat="44.6968233" lon="10.61863"><ele>56.0</ele><time>2026-03-22T14:09:50.456Z</time></trkpt><trkpt lat="44.6969083" lon="10.6185867"><ele>56.0</ele><time>2026-03-22T14:09:52.456Z</time></trkpt><trkpt lat="44.6969917" lon="10.6185517"><ele>55.99999999999999</ele><time>2026-03-22T14:09:54.456Z</time></trkpt><trkpt lat="44.697085" lon="10.6185283"><ele>55.99999999999999</ele><time>2026-03-22T14:09:56.456Z</time></trkpt><trkpt lat="44.6971733" lon="10.6185033"><ele>56.0</ele><time>2026-03-22T14:09:58.456Z</time></trkpt><trkpt lat="44.6972583" lon="10.6184783"><ele>56.0</ele><time>2026-03-22T14:10:00.457Z</time></trkpt><trkpt lat="44.6973517" lon="10.61846"><ele>56.0</ele><time>2026-03-22T14:10:02.456Z</time></trkpt><trkpt lat="44.6974383" lon="10.61842"><ele>55.99999999999999</ele><time>2026-03-22T14:10:04.456Z</time></trkpt><trkpt lat="44.6975267" lon="10.6183967"><ele>55.99999999999999</ele><time>2026-03-22T14:10:06.456Z</time></trkpt><trkpt lat="44.6976133" lon="10.6183567"><ele>56.0</ele><time>2026-03-22T14:10:08.456Z</time></trkpt><trkpt lat="44.6977033" lon="10.6183183"><ele>56.0</ele><time>2026-03-22T14:10:10.457Z</time></trkpt><trkpt lat="44.6977983" lon="10.6182917"><ele>56.833333333333336</ele><time>2026-03-22T14:10:12.456Z</time></trkpt><trkpt lat="44.6978633" lon="10.618295"><ele>57.66666666666667</ele><time>2026-03-22T14:10:13.456Z</time></trkpt><trkpt lat="44.6979283" lon="10.6183017"><ele>58.5</ele><time>2026-03-22T14:10:14.456Z</time></trkpt><trkpt lat="44.6980267" lon="10.618255"><ele>59.33333333333333</ele><time>2026-03-22T14:10:16.456Z</time></trkpt><trkpt lat="44.6981167" lon="10.6182167"><ele>60.166666666666664</ele><time>2026-03-22T14:10:18.456Z</time></trkpt><trkpt lat="44.6982033" lon="10.6181817"><ele>61.0</ele><time>2026-03-22T14:10:20.457Z</time></trkpt><trkpt lat="44.6983083" lon="10.618135"><ele>61.0</ele><time>2026-03-22T14:10:22.456Z</time></trkpt><trkpt lat="44.69843" lon="10.618085"><ele>61.0</ele><time>2026-03-22T14:10:24.457Z</time></trkpt><trkpt lat="44.69854" lon="10.618065"><ele>61.0</ele><time>2026-03-22T14:10:26.456Z</time></trkpt><trkpt lat="44.6986517" lon="10.6180483"><ele>61.0</ele><time>2026-03-22T14:10:28.456Z</time></trkpt><trkpt lat="44.6987533" lon="10.6180533"><ele>60.199999999999996</ele><time>2026-03-22T14:10:30.456Z</time></trkpt><trkpt lat="44.6988567" lon="10.6180367"><ele>59.39999999999999</ele><time>2026-03-22T14:10:32.456Z</time></trkpt><trkpt lat="44.6989567" lon="10.6180017"><ele>58.6</ele><time>2026-03-22T14:10:34.456Z</time></trkpt><trkpt lat="44.6990617" lon="10.6179867"><ele>57.8</ele><time>2026-03-22T14:10:36.456Z</time></trkpt><trkpt lat="44.69916" lon="10.6179583"><ele>57.0</ele><time>2026-03-22T14:10:38.456Z</time></trkpt><trkpt lat="44.6992317" lon="10.617935"><ele>57.0</ele><time>2026-03-22T14:10:40.456Z</time></trkpt><trkpt lat="44.699295" lon="10.6179283"><ele>57.0</ele><time>2026-03-22T14:10:43.456Z</time></trkpt><trkpt lat="44.699285" lon="10.61784"><ele>57.0</ele><time>2026-03-22T14:10:51.456Z</time></trkpt><trkpt lat="44.699255" lon="10.6177367"><ele>57.0</ele><time>2026-03-22T14:10:54.456Z</time></trkpt><trkpt lat="44.6992367" lon="10.6176217"><ele>57.0</ele><time>2026-03-22T14:10:56.456Z</time></trkpt><trkpt lat="44.6992183" lon="10.6174933"><ele>57.0</ele><time>2026-03-22T14:10:58.457Z</time></trkpt><trkpt lat="44.6992117" lon="10.617375"><ele>56.8</ele><time>2026-03-22T14:11:00.456Z</time></trkpt><trkpt lat="44.699215" lon="10.6172483"><ele>56.6</ele><time>2026-03-22T14:11:02.456Z</time></trkpt><trkpt lat="44.6992033" lon="10.6171067"><ele>56.39999999999999</ele><time>2026-03-22T14:11:04.457Z</time></trkpt><trkpt lat="44.6991917" lon="10.6169567"><ele>56.199999999999996</ele><time>2026-03-22T14:11:06.456Z</time></trkpt><trkpt lat="44.6992067" lon="10.6168133"><ele>56.0</ele><time>2026-03-22T14:11:08.456Z</time></trkpt><trkpt lat="44.6991983" lon="10.6166767"><ele>56.0</ele><time>2026-03-22T14:11:10.456Z</time></trkpt><trkpt lat="44.69921" lon="10.6165333"><ele>55.99999999999999</ele><time>2026-03-22T14:11:12.456Z</time></trkpt><trkpt lat="44.6992083" lon="10.6163883"><ele>55.99999999999999</ele><time>2026-03-22T14:11:14.457Z</time></trkpt><trkpt lat="44.6991983" lon="10.6162367"><ele>56.0</ele><time>2026-03-22T14:11:16.456Z</time></trkpt><trkpt lat="44.6991983" lon="10.6160983"><ele>56.0</ele><time>2026-03-22T14:11:18.456Z</time></trkpt><trkpt lat="44.6991917" lon="10.6159617"><ele>56.0</ele><time>2026-03-22T14:11:20.457Z</time></trkpt><trkpt lat="44.6991783" lon="10.6158367"><ele>55.99999999999999</ele><time>2026-03-22T14:11:22.456Z</time></trkpt><trkpt lat="44.69917" lon="10.6156983"><ele>55.99999999999999</ele><time>2026-03-22T14:11:24.456Z</time></trkpt><trkpt lat="44.6991517" lon="10.6155417"><ele>56.0</ele><time>2026-03-22T14:11:26.456Z</time></trkpt><trkpt lat="44.6991533" lon="10.615405"><ele>56.0</ele><time>2026-03-22T14:11:28.456Z</time></trkpt><trkpt lat="44.6991617" lon="10.6152767"><ele>56.00000000000001</ele><time>2026-03-22T14:11:30.456Z</time></trkpt><trkpt lat="44.6991533" lon="10.61516"><ele>56.0</ele><time>2026-03-22T14:11:32.456Z</time></trkpt><trkpt lat="44.69918" lon="10.6150417"><ele>56.0</ele><time>2026-03-22T14:11:34.457Z</time></trkpt><trkpt lat="44.6991883" lon="10.614935"><ele>56.0</ele><time>2026-03-22T14:11:36.456Z</time></trkpt><trkpt lat="44.6991783" lon="10.6148317"><ele>56.00000000000001</ele><time>2026-03-22T14:11:38.456Z</time></trkpt><trkpt lat="44.6992017" lon="10.6147167"><ele>56.0</ele><time>2026-03-22T14:11:40.456Z</time></trkpt><trkpt lat="44.6992367" lon="10.6146233"><ele>56.00000000000001</ele><time>2026-03-22T14:11:41.456Z</time></trkpt><trkpt lat="44.6993" lon="10.614595"><ele>56.0</ele><time>2026-03-22T14:11:43.456Z</time></trkpt><trkpt lat="44.6993667" lon="10.6145767"><ele>56.0</ele><time>2026-03-22T14:11:45.457Z</time></trkpt><trkpt lat="44.6994383" lon="10.614555"><ele>56.0</ele><time>2026-03-22T14:11:47.456Z</time></trkpt><trkpt lat="44.6995167" lon="10.61453"><ele>56.00000000000001</ele><time>2026-03-22T14:11:49.456Z</time></trkpt><trkpt lat="44.6996017" lon="10.6144967"><ele>56.0</ele><time>2026-03-22T14:11:51.456Z</time></trkpt><trkpt lat="44.69968" lon="10.6144633"><ele>55.66666666666667</ele><time>2026-03-22T14:11:53.456Z</time></trkpt><trkpt lat="44.699755" lon="10.6144417"><ele>55.333333333333336</ele><time>2026-03-22T14:11:55.456Z</time></trkpt><trkpt lat="44.6998367" lon="10.6144167"><ele>55.0</ele><time>2026-03-22T14:11:57.456Z</time></trkpt><trkpt lat="44.6999083" lon="10.614395"><ele>54.66666666666667</ele><time>2026-03-22T14:11:59.456Z</time></trkpt><trkpt lat="44.6999783" lon="10.6143383"><ele>54.333333333333336</ele><time>2026-03-22T14:12:02.456Z</time></trkpt><trkpt lat="44.7000017" lon="10.6142133"><ele>54.0</ele><time>2026-03-22T14:12:04.456Z</time></trkpt><trkpt lat="44.70003" lon="10.6140933"><ele>54.0</ele><time>2026-03-22T14:12:06.456Z</time></trkpt><trkpt lat="44.6999733" lon="10.614025"><ele>54.0</ele><time>2026-03-22T14:12:11.456Z</time></trkpt></trkseg></trk></gpx>